<?xml version='1.0' encoding='UTF-8'?><gpx version="1.1" creator="JPX - https://github.com/jenetics/jpx" xmlns="http://www.topografix.com/GPX/1/1"><trk><trkseg><trkpt lat="42.438502929720016" lon="12.20310857030342"><ele>396.0</ele><time>2026-04-12T07:49:44.999Z</time></trkpt><trkpt lat="42.438458890135976" lon="12.203200832721505"><ele>393.0</ele><time>2026-04-12T07:50:43Z</time></trkpt><trkpt lat="42.43841183728906" lon="12.203294586776297"><ele>390.0</ele><time>2026-04-12T07:50:45Z</time></trkpt><trkpt lat="42.438366556197316" lon="12.203380004172084"><ele>387.0</ele><time>2026-04-12T07:50:47Z</time></trkpt><trkpt lat="42.43828694188147" lon="12.203446260534278"><ele>384.0</ele><time>2026-04-12T07:50:49Z</time></trkpt><trkpt lat="42.4381876206599" lon="12.203519964349162"><ele>381.0</ele><time>2026-04-12T07:50:51Z</time></trkpt><trkpt lat="42.438141993555334" lon="12.203601688590654"><ele>381.0</ele><time>2026-04-12T07:50:53Z</time></trkpt><trkpt lat="42.43809972044728" lon="12.203707378951508"><ele>381.0</ele><time>2026-04-12T07:50:57Z</time></trkpt><trkpt lat="42.4380678499157" lon="12.2037826428481"><ele>381.0</ele><time>2026-04-12T07:50:59Z</time></trkpt><trkpt lat="42.438002280054974" lon="12.203848124494877"><ele>381.0</ele><time>2026-04-12T07:51:01Z</time></trkpt><trkpt lat="42.43794452831396" lon="12.203896709801546"><ele>381.0</ele><time>2026-04-12T07:51:03Z</time></trkpt><trkpt lat="42.43787178841775" lon="12.203957400473044"><ele>381.0</ele><time>2026-04-12T07:51:04.999Z</time></trkpt><trkpt lat="42.43780932462131" lon="12.20401627058838"><ele>384.1666666666667</ele><time>2026-04-12T07:51:06.999Z</time></trkpt><trkpt lat="42.437741800372095" lon="12.204109237222607"><ele>387.33333333333337</ele><time>2026-04-12T07:51:08.999Z</time></trkpt><trkpt lat="42.437687036689454" lon="12.204182428933466"><ele>390.5</ele><time>2026-04-12T07:51:11.999Z</time></trkpt><trkpt lat="42.437633228322774" lon="12.204245197750064"><ele>393.6666666666667</ele><time>2026-04-12T07:51:13.999Z</time></trkpt><trkpt lat="42.437559676241264" lon="12.204317347942668"><ele>396.83333333333337</ele><time>2026-04-12T07:51:16.999Z</time></trkpt><trkpt lat="42.437474533353715" lon="12.204400837159627"><ele>400.0</ele><time>2026-04-12T07:51:19.999Z</time></trkpt><trkpt lat="42.437399557644504" lon="12.204468874437776"><ele>400.0</ele><time>2026-04-12T07:51:21.999Z</time></trkpt><trkpt lat="42.43730025527193" lon="12.20453932006055"><ele>400.0</ele><time>2026-04-12T07:51:23.999Z</time></trkpt><trkpt lat="42.437204293616745" lon="12.204610704408573"><ele>400.0</ele><time>2026-04-12T07:51:25.999Z</time></trkpt><trkpt lat="42.43714688510628" lon="12.20466538382695"><ele>400.0</ele><time>2026-04-12T07:51:26.999Z</time></trkpt><trkpt lat="42.43706116782486" lon="12.204743302293528"><ele>400.0</ele><time>2026-04-12T07:51:28.999Z</time></trkpt><trkpt lat="42.43698017133017" lon="12.204809819198823"><ele>402.4</ele><time>2026-04-12T07:51:30.999Z</time></trkpt><trkpt lat="42.43689522524012" lon="12.20486993942929"><ele>404.8</ele><time>2026-04-12T07:51:32.999Z</time></trkpt><trkpt lat="42.43686148675675" lon="12.204990183991153"><ele>407.20000000000005</ele><time>2026-04-12T07:51:34.999Z</time></trkpt><trkpt lat="42.436818612980126" lon="12.205116814449674"><ele>409.6</ele><time>2026-04-12T07:51:36.999Z</time></trkpt><trkpt lat="42.43673178409711" lon="12.205192919069622"><ele>412.0</ele><time>2026-04-12T07:51:38.999Z</time></trkpt><trkpt lat="42.436616540402476" lon="12.205219363851473"><ele>412.00000000000006</ele><time>2026-04-12T07:51:40.999Z</time></trkpt><trkpt lat="42.43656004855071" lon="12.205299251736022"><ele>412.0</ele><time>2026-04-12T07:51:42.999Z</time></trkpt><trkpt lat="42.4364548650953" lon="12.205390335913858"><ele>412.0</ele><time>2026-04-12T07:51:44.999Z</time></trkpt><trkpt lat="42.43639822646823" lon="12.205432281093582"><ele>412.0</ele><time>2026-04-12T07:51:45.999Z</time></trkpt><trkpt lat="42.43633923963629" lon="12.205487368786985"><ele>412.00000000000006</ele><time>2026-04-12T07:51:46.999Z</time></trkpt><trkpt lat="42.436268968461064" lon="12.205592900429545"><ele>412.0</ele><time>2026-04-12T07:51:48.999Z</time></trkpt><trkpt lat="42.436218459243484" lon="12.205660555500252"><ele>412.33333333333337</ele><time>2026-04-12T07:51:49.999Z</time></trkpt><trkpt lat="42.43611846834921" lon="12.205725416207025"><ele>412.6666666666667</ele><time>2026-04-12T07:51:51.999Z</time></trkpt><trkpt lat="42.43603580873448" lon="12.205766271503553"><ele>413.0</ele><time>2026-04-12T07:51:53.999Z</time></trkpt><trkpt lat="42.43597419371307" lon="12.205819411239162"><ele>413.33333333333337</ele><time>2026-04-12T07:52:22Z</time></trkpt><trkpt lat="42.43589548095478" lon="12.20585386850046"><ele>413.6666666666667</ele><time>2026-04-12T07:52:25Z</time></trkpt><trkpt lat="42.43583416424014" lon="12.205916516358947"><ele>414.0</ele><time>2026-04-12T07:52:28Z</time></trkpt><trkpt lat="42.43576227774092" lon="12.20597564248137"><ele>414.0</ele><time>2026-04-12T07:52:30Z</time></trkpt><trkpt lat="42.435686100312545" lon="12.206040691770234"><ele>414.0</ele><time>2026-04-12T07:52:32Z</time></trkpt><trkpt lat="42.43561921583219" lon="12.20606505646126"><ele>414.0</ele><time>2026-04-12T07:52:34Z</time></trkpt><trkpt lat="42.435527675759836" lon="12.206033290248559"><ele>414.0</ele><time>2026-04-12T07:52:37Z</time></trkpt><trkpt lat="42.43541159218999" lon="12.206032819818915"><ele>414.0</ele><time>2026-04-12T07:52:40Z</time></trkpt><trkpt lat="42.43533635308616" lon="12.206074620600374"><ele>417.0</ele><time>2026-04-12T07:52:42Z</time></trkpt><trkpt lat="42.43526770092609" lon="12.206169342471114"><ele>420.0</ele><time>2026-04-12T07:52:45Z</time></trkpt><trkpt lat="42.43519932842933" lon="12.206232162810482"><ele>423.0</ele><time>2026-04-12T07:52:48Z</time></trkpt><trkpt lat="42.435151045082065" lon="12.2063254093464"><ele>426.0</ele><time>2026-04-12T07:52:50Z</time></trkpt><trkpt lat="42.435062889994846" lon="12.206425961559715"><ele>429.0</ele><time>2026-04-12T07:52:52Z</time></trkpt><trkpt lat="42.4349906653103" lon="12.2064610149734"><ele>429.0</ele><time>2026-04-12T07:52:54Z</time></trkpt><trkpt lat="42.43491502303211" lon="12.206467832804977"><ele>429.0</ele><time>2026-04-12T07:52:56Z</time></trkpt><trkpt lat="42.434826168774926" lon="12.206477052048438"><ele>429.0</ele><time>2026-04-12T07:52:58Z</time></trkpt><trkpt lat="42.43473017260847" lon="12.20647699016703"><ele>429.0</ele><time>2026-04-12T07:53:01Z</time></trkpt><trkpt lat="42.43463971500859" lon="12.206503063572283"><ele>429.0</ele><time>2026-04-12T07:53:04Z</time></trkpt><trkpt lat="42.434572425561704" lon="12.20652615465061"><ele>429.0</ele><time>2026-04-12T07:53:07.999Z</time></trkpt><trkpt lat="42.43450595415656" lon="12.206526490252704"><ele>431.6666666666667</ele><time>2026-04-12T07:53:10.999Z</time></trkpt><trkpt lat="42.43441737247703" lon="12.206525542335816"><ele>434.33333333333337</ele><time>2026-04-12T07:53:21.999Z</time></trkpt><trkpt lat="42.4343332815364" lon="12.206458158687978"><ele>437.0</ele><time>2026-04-12T07:53:25.999Z</time></trkpt><trkpt lat="42.434251553984566" lon="12.206463435608084"><ele>439.6666666666667</ele><time>2026-04-12T07:53:28.999Z</time></trkpt><trkpt lat="42.434162924209545" lon="12.206455281919185"><ele>442.33333333333337</ele><time>2026-04-12T07:53:31.999Z</time></trkpt><trkpt lat="42.43409876764209" lon="12.206461753640543"><ele>445.0</ele><time>2026-04-12T07:53:34.999Z</time></trkpt><trkpt lat="42.43401611182869" lon="12.206481829547785"><ele>445.83333333333337</ele><time>2026-04-12T07:53:37.999Z</time></trkpt><trkpt lat="42.433950915261526" lon="12.206483510874572"><ele>446.6666666666667</ele><time>2026-04-12T07:53:44.999Z</time></trkpt><trkpt lat="42.433894967441496" lon="12.20640614629306"><ele>447.5</ele><time>2026-04-12T07:53:48.999Z</time></trkpt><trkpt lat="42.433871063371605" lon="12.206314688781614"><ele>448.33333333333337</ele><time>2026-04-12T07:53:50.999Z</time></trkpt><trkpt lat="42.43383711218285" lon="12.206203168283004"><ele>449.1666666666667</ele><time>2026-04-12T07:53:53.999Z</time></trkpt><trkpt lat="42.43380735712595" lon="12.206083626656268"><ele>450.0</ele><time>2026-04-12T07:53:56.999Z</time></trkpt><trkpt lat="42.43373802773642" lon="12.205980544949323"><ele>453.2</ele><time>2026-04-12T07:53:59.999Z</time></trkpt><trkpt lat="42.43364429262393" lon="12.205910966215274"><ele>456.4</ele><time>2026-04-12T07:54:02.999Z</time></trkpt><trkpt lat="42.43357995392244" lon="12.205866089341617"><ele>459.6</ele><time>2026-04-12T07:54:04.999Z</time></trkpt><trkpt lat="42.43347711045565" lon="12.205743098985876"><ele>462.8</ele><time>2026-04-12T07:54:07.999Z</time></trkpt><trkpt lat="42.43341614199286" lon="12.205652301591956"><ele>466.0</ele><time>2026-04-12T07:54:09.999Z</time></trkpt><trkpt lat="42.433351363176264" lon="12.205575227929454"><ele>467.50000000000006</ele><time>2026-04-12T07:54:12.999Z</time></trkpt><trkpt lat="42.433296916561574" lon="12.205518736051364"><ele>469.0</ele><time>2026-04-12T07:54:14.998Z</time></trkpt><trkpt lat="42.43323091261252" lon="12.205434868232167"><ele>470.5</ele><time>2026-04-12T07:54:16.998Z</time></trkpt><trkpt lat="42.433166538465514" lon="12.205351883755888"><ele>472.0</ele><time>2026-04-12T07:54:18.998Z</time></trkpt><trkpt lat="42.433123536532584" lon="12.20527517547704"><ele>473.50000000000006</ele><time>2026-04-12T07:54:20.998Z</time></trkpt><trkpt lat="42.43305564161623" lon="12.205182374847865"><ele>475.0</ele><time>2026-04-12T07:54:23.998Z</time></trkpt><trkpt lat="42.432995484752475" lon="12.205106698832601"><ele>476.33333333333337</ele><time>2026-04-12T07:54:26Z</time></trkpt><trkpt lat="42.4329320621571" lon="12.205074376659761"><ele>477.6666666666667</ele><time>2026-04-12T07:54:28Z</time></trkpt><trkpt lat="42.4328651130225" lon="12.20502433206202"><ele>479.0</ele><time>2026-04-12T07:54:30Z</time></trkpt><trkpt lat="42.432782079233604" lon="12.204989946085625"><ele>480.33333333333337</ele><time>2026-04-12T07:54:32Z</time></trkpt><trkpt lat="42.432699919320974" lon="12.204941794278081"><ele>481.6666666666667</ele><time>2026-04-12T07:54:35Z</time></trkpt><trkpt lat="42.43263053485477" lon="12.204930648879063"><ele>483.0</ele><time>2026-04-12T07:54:42Z</time></trkpt><trkpt lat="42.43256202722628" lon="12.20483559013508"><ele>483.0</ele><time>2026-04-12T07:54:46Z</time></trkpt><trkpt lat="42.4324661820858" lon="12.204871669582953"><ele>483.0</ele><time>2026-04-12T07:54:50Z</time></trkpt><trkpt lat="42.432393527998094" lon="12.204890742094335"><ele>483.0</ele><time>2026-04-12T07:54:52Z</time></trkpt><trkpt lat="42.432328701143724" lon="12.20489584276462"><ele>483.0</ele><time>2026-04-12T07:54:54Z</time></trkpt><trkpt lat="42.43224849070398" lon="12.204871129367605"><ele>483.0</ele><time>2026-04-12T07:54:56Z</time></trkpt><trkpt lat="42.43219794355169" lon="12.20493704243814"><ele>483.0</ele><time>2026-04-12T07:54:58Z</time></trkpt><trkpt lat="42.43214005795234" lon="12.20485838815898"><ele>485.6666666666667</ele><time>2026-04-12T07:55:01Z</time></trkpt><trkpt lat="42.432101321876964" lon="12.204759461174596"><ele>488.33333333333337</ele><time>2026-04-12T07:55:03Z</time></trkpt><trkpt lat="42.43206302279862" lon="12.204690816345579"><ele>491.0</ele><time>2026-04-12T07:55:06Z</time></trkpt><trkpt lat="42.431986585817235" lon="12.204618649856615"><ele>493.6666666666667</ele><time>2026-04-12T07:55:08Z</time></trkpt><trkpt lat="42.43194318539058" lon="12.20453298674128"><ele>496.33333333333337</ele><time>2026-04-12T07:55:09.999Z</time></trkpt><trkpt lat="42.43188163980648" lon="12.204467255234706"><ele>499.0</ele><time>2026-04-12T07:55:12.999Z</time></trkpt><trkpt lat="42.431808847577955" lon="12.204518348015824"><ele>499.00000000000006</ele><time>2026-04-12T07:55:26.999Z</time></trkpt><trkpt lat="42.43174404420409" lon="12.204446550725716"><ele>499.0</ele><time>2026-04-12T07:55:33.999Z</time></trkpt><trkpt lat="42.431673357794715" lon="12.20442349601406"><ele>499.0</ele><time>2026-04-12T07:55:36.999Z</time></trkpt><trkpt lat="42.43162417219358" lon="12.204508431913307"><ele>499.0</ele><time>2026-04-12T07:55:39.999Z</time></trkpt><trkpt lat="42.43156305744178" lon="12.204396924916011"><ele>499.00000000000006</ele><time>2026-04-12T07:55:42.999Z</time></trkpt><trkpt lat="42.43151527609019" lon="12.204315413814015"><ele>499.0</ele><time>2026-04-12T07:55:44.999Z</time></trkpt><trkpt lat="42.4314678227626" lon="12.204248863011609"><ele>499.00000000000006</ele><time>2026-04-12T07:55:46.999Z</time></trkpt><trkpt lat="42.43141134908279" lon="12.20418647699292"><ele>499.0</ele><time>2026-04-12T07:55:50.999Z</time></trkpt><trkpt lat="42.43139363353311" lon="12.204082546303574"><ele>499.00000000000006</ele><time>2026-04-12T07:55:52.999Z</time></trkpt><trkpt lat="42.43138519957146" lon="12.203971263287482"><ele>499.00000000000006</ele><time>2026-04-12T07:55:54.999Z</time></trkpt><trkpt lat="42.4313413740008" lon="12.203904435894282"><ele>499.0</ele><time>2026-04-12T07:55:56.999Z</time></trkpt><trkpt lat="42.43130393515978" lon="12.203820114267321"><ele>499.00000000000006</ele><time>2026-04-12T07:55:58.999Z</time></trkpt><trkpt lat="42.43124823075783" lon="12.203750642019783"><ele>499.00000000000006</ele><time>2026-04-12T07:56:09.999Z</time></trkpt><trkpt lat="42.43122681822861" lon="12.203618605459742"><ele>500.6666666666667</ele><time>2026-04-12T07:56:13.999Z</time></trkpt><trkpt lat="42.43121828842272" lon="12.203496291459995"><ele>502.33333333333337</ele><time>2026-04-12T07:56:15.999Z</time></trkpt><trkpt lat="42.43119980061087" lon="12.203397718159867"><ele>504.0</ele><time>2026-04-12T07:56:17.999Z</time></trkpt><trkpt lat="42.4311569476013" lon="12.203313951810566"><ele>505.66666666666663</ele><time>2026-04-12T07:56:19.998Z</time></trkpt><trkpt lat="42.431130206932" lon="12.203229448166521"><ele>507.3333333333333</ele><time>2026-04-12T07:56:22.998Z</time></trkpt><trkpt lat="42.43107364948889" lon="12.203158614642154"><ele>509.0</ele><time>2026-04-12T07:56:24.998Z</time></trkpt><trkpt lat="42.43100538567619" lon="12.203103595538638"><ele>508.99999999999994</ele><time>2026-04-12T07:56:26.998Z</time></trkpt><trkpt lat="42.430944518466625" lon="12.20304418724568"><ele>509.0</ele><time>2026-04-12T07:56:30Z</time></trkpt><trkpt lat="42.43086525589646" lon="12.203082656194427"><ele>508.99999999999994</ele><time>2026-04-12T07:56:33Z</time></trkpt><trkpt lat="42.43080120208817" lon="12.203108725946914"><ele>508.99999999999994</ele><time>2026-04-12T07:56:35Z</time></trkpt><trkpt lat="42.43078286746183" lon="12.203209430107847"><ele>509.0</ele><time>2026-04-12T07:56:38Z</time></trkpt><trkpt lat="42.430777677862196" lon="12.20329494281926"><ele>508.99999999999994</ele><time>2026-04-12T07:56:40Z</time></trkpt><trkpt lat="42.43074503316567" lon="12.203393528361483"><ele>508.99999999999994</ele><time>2026-04-12T07:56:43Z</time></trkpt><trkpt lat="42.43071366784427" lon="12.203493778779466"><ele>510.8333333333333</ele><time>2026-04-12T07:56:45Z</time></trkpt><trkpt lat="42.430724641726094" lon="12.203603216752038"><ele>512.6666666666666</ele><time>2026-04-12T07:56:47Z</time></trkpt><trkpt lat="42.430669838969884" lon="12.203669232959715"><ele>514.5</ele><time>2026-04-12T07:56:50Z</time></trkpt><trkpt lat="42.43058371942174" lon="12.203642427647194"><ele>516.3333333333334</ele><time>2026-04-12T07:56:52Z</time></trkpt><trkpt lat="42.43051331841264" lon="12.203679024013631"><ele>518.1666666666667</ele><time>2026-04-12T07:56:56Z</time></trkpt><trkpt lat="42.43044908407911" lon="12.20370260020335"><ele>520.0</ele><time>2026-04-12T07:56:58Z</time></trkpt><trkpt lat="42.430408955072124" lon="12.203816629532804"><ele>522.5714285714287</ele><time>2026-04-12T07:57:01Z</time></trkpt><trkpt lat="42.43041035686291" lon="12.203930585011667"><ele>525.1428571428571</ele><time>2026-04-12T07:57:03Z</time></trkpt><trkpt lat="42.43041148370507" lon="12.204043124930044"><ele>527.7142857142858</ele><time>2026-04-12T07:57:08.999Z</time></trkpt><trkpt lat="42.43040891854167" lon="12.20412877605457"><ele>530.2857142857143</ele><time>2026-04-12T07:57:45.999Z</time></trkpt><trkpt lat="42.430346769529415" lon="12.204152174918232"><ele>532.8571428571429</ele><time>2026-04-12T07:58:24.998Z</time></trkpt><trkpt lat="42.43027903049326" lon="12.20419671624955"><ele>535.4285714285714</ele><time>2026-04-12T07:59:23.999Z</time></trkpt><trkpt lat="42.43024222266037" lon="12.204121458600019"><ele>538.0</ele><time>2026-04-12T08:00:46Z</time></trkpt><trkpt lat="42.43017276931138" lon="12.204121017050465"><ele>541.0</ele><time>2026-04-12T08:08:22.999Z</time></trkpt><trkpt lat="42.430107164294405" lon="12.204108169214509"><ele>544.0</ele><time>2026-04-12T08:08:40.999Z</time></trkpt><trkpt lat="42.43017850956026" lon="12.204091342039284"><ele>547.0</ele><time>2026-04-12T08:09:30Z</time></trkpt><trkpt lat="42.43028564163867" lon="12.204094142910115"><ele>550.0</ele><time>2026-04-12T08:09:56.999Z</time></trkpt><trkpt lat="42.43021450952328" lon="12.20413619710787"><ele>553.0</ele><time>2026-04-12T08:13:59.999Z</time></trkpt><trkpt lat="42.43009596049026" lon="12.204083614458865"><ele>556.0</ele><time>2026-04-12T08:14:28.999Z</time></trkpt><trkpt lat="42.43018650212714" lon="12.20404821799996"><ele>556.0</ele><time>2026-04-12T08:15:16.998Z</time></trkpt><trkpt lat="42.43025746431095" lon="12.204158103999836"><ele>556.0</ele><time>2026-04-12T08:16:18.999Z</time></trkpt><trkpt lat="42.430321969171544" lon="12.204135226395351"><ele>556.0</ele><time>2026-04-12T08:16:25.999Z</time></trkpt><trkpt lat="42.43025195283833" lon="12.204161079175721"><ele>556.0</ele><time>2026-04-12T08:18:42Z</time></trkpt><trkpt lat="42.43018879342394" lon="12.204119920485853"><ele>556.0</ele><time>2026-04-12T08:19:15.999Z</time></trkpt><trkpt lat="42.430114795983826" lon="12.204125234426831"><ele>556.0</ele><time>2026-04-12T08:19:35Z</time></trkpt><trkpt lat="42.43005051596558" lon="12.204105915848725"><ele>556.0</ele><time>2026-04-12T08:19:47Z</time></trkpt><trkpt lat="42.42997968710967" lon="12.20410018982988"><ele>556.0</ele><time>2026-04-12T08:20:12Z</time></trkpt><trkpt lat="42.42990639218989" lon="12.204092468934032"><ele>556.0</ele><time>2026-04-12T08:20:16Z</time></trkpt><trkpt lat="42.42983861861899" lon="12.20405818556914"><ele>556.0</ele><time>2026-04-12T08:23:20.999Z</time></trkpt><trkpt lat="42.42976384645635" lon="12.20405293506979"><ele>556.0</ele><time>2026-04-12T08:23:23.999Z</time></trkpt><trkpt lat="42.42966817737027" lon="12.20403402564015"><ele>556.0</ele><time>2026-04-12T08:23:26.999Z</time></trkpt><trkpt lat="42.42959042702817" lon="12.204024785292159"><ele>556.5</ele><time>2026-04-12T08:23:28.999Z</time></trkpt><trkpt lat="42.4295251592946" lon="12.204008431497714"><ele>557.0</ele><time>2026-04-12T08:23:30.999Z</time></trkpt><trkpt lat="42.42944475811302" lon="12.20395330238978"><ele>557.5</ele><time>2026-04-12T08:23:33.999Z</time></trkpt><trkpt lat="42.42937622104729" lon="12.203940805338656"><ele>558.0</ele><time>2026-04-12T08:23:35.999Z</time></trkpt><trkpt lat="42.429279738489896" lon="12.203939465533841"><ele>558.5</ele><time>2026-04-12T08:23:37.999Z</time></trkpt><trkpt lat="42.42921278787181" lon="12.203926257728165"><ele>559.0</ele><time>2026-04-12T08:23:39.999Z</time></trkpt><trkpt lat="42.42911669834797" lon="12.203888105302422"><ele>559.0</ele><time>2026-04-12T08:23:41.999Z</time></trkpt><trkpt lat="42.42902030771819" lon="12.203853082341094"><ele>559.0</ele><time>2026-04-12T08:23:43.999Z</time></trkpt><trkpt lat="42.428927770209434" lon="12.203853982100048"><ele>559.0</ele><time>2026-04-12T08:23:46Z</time></trkpt><trkpt lat="42.42884064113433" lon="12.20387705407098"><ele>559.0</ele><time>2026-04-12T08:23:48Z</time></trkpt><trkpt lat="42.428748309197836" lon="12.203882604161585"><ele>559.0</ele><time>2026-04-12T08:23:50Z</time></trkpt><trkpt lat="42.428662211821646" lon="12.203888525693912"><ele>563.0</ele><time>2026-04-12T08:23:52Z</time></trkpt><trkpt lat="42.428581772185154" lon="12.203958690476505"><ele>567.0</ele><time>2026-04-12T08:23:55Z</time></trkpt><trkpt lat="42.428515304405146" lon="12.204043549301835"><ele>571.0</ele><time>2026-04-12T08:23:57Z</time></trkpt><trkpt lat="42.42845280004662" lon="12.204072382353223"><ele>575.0</ele><time>2026-04-12T08:23:59Z</time></trkpt><trkpt lat="42.42838649006152" lon="12.204145187712074"><ele>579.0</ele><time>2026-04-12T08:24:01Z</time></trkpt><trkpt lat="42.428358171545526" lon="12.204223398925906"><ele>583.0</ele><time>2026-04-12T08:24:03Z</time></trkpt><trkpt lat="42.42830289889194" lon="12.204281388664498"><ele>585.3333333333334</ele><time>2026-04-12T08:24:05Z</time></trkpt><trkpt lat="42.428241551563055" lon="12.204392119121065"><ele>587.6666666666667</ele><time>2026-04-12T08:24:08Z</time></trkpt><trkpt lat="42.42817669818137" lon="12.204444093189277"><ele>590.0</ele><time>2026-04-12T08:24:10Z</time></trkpt><trkpt lat="42.42809195723153" lon="12.20441995532338"><ele>592.3333333333334</ele><time>2026-04-12T08:24:12Z</time></trkpt><trkpt lat="42.428010031986005" lon="12.204467876069856"><ele>594.6666666666666</ele><time>2026-04-12T08:24:14Z</time></trkpt><trkpt lat="42.42799843255184" lon="12.20456997679248"><ele>597.0</ele><time>2026-04-12T08:24:16Z</time></trkpt><trkpt lat="42.428004908189486" lon="12.204660697321204"><ele>600.6666666666666</ele><time>2026-04-12T08:24:18Z</time></trkpt><trkpt lat="42.427930919967814" lon="12.204714002222133"><ele>604.3333333333334</ele><time>2026-04-12T08:24:58Z</time></trkpt><trkpt lat="42.42784977198043" lon="12.204682669161569"><ele>608.0</ele><time>2026-04-12T08:25:00Z</time></trkpt><trkpt lat="42.427810382080054" lon="12.204600215284566"><ele>611.6666666666667</ele><time>2026-04-12T08:25:01Z</time></trkpt><trkpt lat="42.42778123627521" lon="12.204490516827855"><ele>615.3333333333334</ele><time>2026-04-12T08:25:01.999Z</time></trkpt><trkpt lat="42.42774739405468" lon="12.204338778652586"><ele>619.0</ele><time>2026-04-12T08:25:02.999Z</time></trkpt><trkpt lat="42.427751524890446" lon="12.20417851410519"><ele>619.0</ele><time>2026-04-12T08:25:03.999Z</time></trkpt><trkpt lat="42.427658468512675" lon="12.204115105370112"><ele>619.0</ele><time>2026-04-12T08:25:04.999Z</time></trkpt><trkpt lat="42.42760236450081" lon="12.20398097629509"><ele>619.0</ele><time>2026-04-12T08:25:06.999Z</time></trkpt><trkpt lat="42.42756020684146" lon="12.203864941053688"><ele>619.0</ele><time>2026-04-12T08:25:08.999Z</time></trkpt><trkpt lat="42.42752327625196" lon="12.203734004706686"><ele>619.0</ele><time>2026-04-12T08:25:10.999Z</time></trkpt><trkpt lat="42.42751288527031" lon="12.203590013146401"><ele>619.0</ele><time>2026-04-12T08:25:12.999Z</time></trkpt><trkpt lat="42.42751704453468" lon="12.203457490137595"><ele>619.0</ele><time>2026-04-12T08:25:14.999Z</time></trkpt><trkpt lat="42.427540819953876" lon="12.203293451273092"><ele>619.0</ele><time>2026-04-12T08:25:16.999Z</time></trkpt><trkpt lat="42.427558929493784" lon="12.203206778043127"><ele>619.0</ele><time>2026-04-12T08:25:17.999Z</time></trkpt><trkpt lat="42.42757266963135" lon="12.203120904982413"><ele>619.0</ele><time>2026-04-12T08:25:18.999Z</time></trkpt><trkpt lat="42.42756639896042" lon="12.202986164157942"><ele>616.75</ele><time>2026-04-12T08:25:20.999Z</time></trkpt><trkpt lat="42.42749115387532" lon="12.202850450163668"><ele>614.5</ele><time>2026-04-12T08:25:22.999Z</time></trkpt><trkpt lat="42.42742603147744" lon="12.202755300702822"><ele>612.25</ele><time>2026-04-12T08:25:23.999Z</time></trkpt><trkpt lat="42.427345499559266" lon="12.202614988102706"><ele>610.0</ele><time>2026-04-12T08:25:24.999Z</time></trkpt><trkpt lat="42.42727502492083" lon="12.202456886867918"><ele>610.0</ele><time>2026-04-12T08:25:25.999Z</time></trkpt><trkpt lat="42.42722236946117" lon="12.202334655916273"><ele>610.0</ele><time>2026-04-12T08:25:26.999Z</time></trkpt><trkpt lat="42.42720158853406" lon="12.202247612325001"><ele>610.0</ele><time>2026-04-12T08:25:27.999Z</time></trkpt><trkpt lat="42.42719676015595" lon="12.202159137550245"><ele>610.0</ele><time>2026-04-12T08:25:28.999Z</time></trkpt><trkpt lat="42.42721318379886" lon="12.202053355461574"><ele>610.0</ele><time>2026-04-12T08:25:29.999Z</time></trkpt><trkpt lat="42.42725902000348" lon="12.201905126036568"><ele>610.0</ele><time>2026-04-12T08:25:30.999Z</time></trkpt><trkpt lat="42.427301031705916" lon="12.201769654323652"><ele>608.8333333333334</ele><time>2026-04-12T08:25:31.999Z</time></trkpt><trkpt lat="42.42731750593654" lon="12.201662574065582"><ele>607.6666666666667</ele><time>2026-04-12T08:25:32.999Z</time></trkpt><trkpt lat="42.427315195278425" lon="12.20156812367285"><ele>606.5</ele><time>2026-04-12T08:25:33.999Z</time></trkpt><trkpt lat="42.427304002426155" lon="12.20148295318024"><ele>605.3333333333334</ele><time>2026-04-12T08:25:34.999Z</time></trkpt><trkpt lat="42.42727301183462" lon="12.20140424400471"><ele>604.1666666666666</ele><time>2026-04-12T08:25:35.999Z</time></trkpt><trkpt lat="42.427212614563366" lon="12.201340477896135"><ele>603.0</ele><time>2026-04-12T08:25:36.999Z</time></trkpt><trkpt lat="42.42712326599062" lon="12.201283083802956"><ele>603.0</ele><time>2026-04-12T08:25:37.999Z</time></trkpt><trkpt lat="42.427027740009734" lon="12.20122641643886"><ele>603.0</ele><time>2026-04-12T08:25:38.999Z</time></trkpt><trkpt lat="42.42693810748729" lon="12.201160440512808"><ele>603.0</ele><time>2026-04-12T08:25:39.999Z</time></trkpt><trkpt lat="42.426857530127705" lon="12.201051861709798"><ele>603.0</ele><time>2026-04-12T08:25:40.999Z</time></trkpt><trkpt lat="42.42679762483716" lon="12.200970524151517"><ele>603.0</ele><time>2026-04-12T08:25:41.999Z</time></trkpt><trkpt lat="42.426730852994304" lon="12.200916341660536"><ele>603.0</ele><time>2026-04-12T08:25:42.999Z</time></trkpt><trkpt lat="42.4266445881104" lon="12.200872133591986"><ele>603.0</ele><time>2026-04-12T08:25:43.999Z</time></trkpt><trkpt lat="42.42657224845289" lon="12.200835593327842"><ele>603.0</ele><time>2026-04-12T08:25:44.999Z</time></trkpt><trkpt lat="42.42651775691498" lon="12.200777344529007"><ele>603.0</ele><time>2026-04-12T08:25:45.999Z</time></trkpt><trkpt lat="42.42647899813377" lon="12.200692149626748"><ele>603.0</ele><time>2026-04-12T08:25:46.999Z</time></trkpt><trkpt lat="42.42645234336616" lon="12.200574844799664"><ele>603.0</ele><time>2026-04-12T08:25:47.999Z</time></trkpt><trkpt lat="42.4264249210793" lon="12.20040583784299"><ele>600.1999999999999</ele><time>2026-04-12T08:25:48.999Z</time></trkpt><trkpt lat="42.426418592064245" lon="12.200279355571743"><ele>597.4</ele><time>2026-04-12T08:25:50Z</time></trkpt><trkpt lat="42.42643001411584" lon="12.200174207621146"><ele>594.5999999999999</ele><time>2026-04-12T08:25:51Z</time></trkpt><trkpt lat="42.42646937926989" lon="12.2000329225594"><ele>591.8</ele><time>2026-04-12T08:25:52Z</time></trkpt><trkpt lat="42.426512763934475" lon="12.199903237211783"><ele>589.0</ele><time>2026-04-12T08:25:53Z</time></trkpt><trkpt lat="42.42653125010697" lon="12.199802985625267"><ele>588.0</ele><time>2026-04-12T08:25:54Z</time></trkpt><trkpt lat="42.4265242905905" lon="12.199681052012641"><ele>587.0</ele><time>2026-04-12T08:25:55Z</time></trkpt><trkpt lat="42.4264980582298" lon="12.199578122796181"><ele>586.0</ele><time>2026-04-12T08:25:56Z</time></trkpt><trkpt lat="42.426463293073375" lon="12.199480074733424"><ele>585.0</ele><time>2026-04-12T08:25:57Z</time></trkpt><trkpt lat="42.426407223929026" lon="12.199391396396635"><ele>584.0</ele><time>2026-04-12T08:25:58Z</time></trkpt><trkpt lat="42.4263280411919" lon="12.19929151887989"><ele>583.0</ele><time>2026-04-12T08:25:59Z</time></trkpt><trkpt lat="42.42621563946145" lon="12.199176326561231"><ele>586.75</ele><time>2026-04-12T08:26:00Z</time></trkpt><trkpt lat="42.426112487387215" lon="12.199066916538586"><ele>590.5</ele><time>2026-04-12T08:26:01Z</time></trkpt><trkpt lat="42.426032921228426" lon="12.198957144397676"><ele>594.25</ele><time>2026-04-12T08:26:02Z</time></trkpt><trkpt lat="42.42599183731837" lon="12.19886752166324"><ele>598.0</ele><time>2026-04-12T08:26:03Z</time></trkpt><trkpt lat="42.42599599846466" lon="12.198688560605177"><ele>598.0</ele><time>2026-04-12T08:26:05Z</time></trkpt><trkpt lat="42.42604653164372" lon="12.198559231256423"><ele>598.0</ele><time>2026-04-12T08:26:06Z</time></trkpt><trkpt lat="42.426111133709234" lon="12.198425158810283"><ele>598.0</ele><time>2026-04-12T08:26:07Z</time></trkpt><trkpt lat="42.42614151504755" lon="12.198319057982944"><ele>598.0</ele><time>2026-04-12T08:26:08Z</time></trkpt><trkpt lat="42.426149429097926" lon="12.198228284376258"><ele>598.0</ele><time>2026-04-12T08:26:09Z</time></trkpt><trkpt lat="42.426145631565404" lon="12.198132173341461"><ele>598.0</ele><time>2026-04-12T08:26:10Z</time></trkpt><trkpt lat="42.4261215053669" lon="12.198036641424084"><ele>595.1666666666667</ele><time>2026-04-12T08:26:11Z</time></trkpt><trkpt lat="42.426082633672905" lon="12.197953424218367"><ele>592.3333333333334</ele><time>2026-04-12T08:26:12Z</time></trkpt><trkpt lat="42.42603449500181" lon="12.197888524065684"><ele>589.5</ele><time>2026-04-12T08:26:13Z</time></trkpt><trkpt lat="42.425958153790845" lon="12.197820154222262"><ele>586.6666666666666</ele><time>2026-04-12T08:26:14Z</time></trkpt><trkpt lat="42.42587425197504" lon="12.197775157348778"><ele>583.8333333333333</ele><time>2026-04-12T08:26:15Z</time></trkpt><trkpt lat="42.42578011445239" lon="12.197758328641491"><ele>581.0</ele><time>2026-04-12T08:26:16Z</time></trkpt><trkpt lat="42.425660014259286" lon="12.197758078717927"><ele>581.0</ele><time>2026-04-12T08:26:17Z</time></trkpt><trkpt lat="42.425523445100396" lon="12.197758004344522"><ele>581.0</ele><time>2026-04-12T08:26:18Z</time></trkpt><trkpt lat="42.42542600450128" lon="12.19774354750613"><ele>581.0</ele><time>2026-04-12T08:26:19Z</time></trkpt><trkpt lat="42.425345933893034" lon="12.197736251099927"><ele>581.0</ele><time>2026-04-12T08:26:20Z</time></trkpt><trkpt lat="42.42527365530699" lon="12.19772864206681"><ele>581.0</ele><time>2026-04-12T08:26:21Z</time></trkpt><trkpt lat="42.42520608269136" lon="12.197697255522632"><ele>584.6</ele><time>2026-04-12T08:26:22Z</time></trkpt><trkpt lat="42.42514434670578" lon="12.197572814244028"><ele>588.2</ele><time>2026-04-12T08:26:24Z</time></trkpt><trkpt lat="42.42515189811633" lon="12.197487180787379"><ele>591.8</ele><time>2026-04-12T08:26:25Z</time></trkpt><trkpt lat="42.42519300860263" lon="12.19736456208873"><ele>595.4</ele><time>2026-04-12T08:26:26Z</time></trkpt><trkpt lat="42.42525561269082" lon="12.197237370269939"><ele>599.0</ele><time>2026-04-12T08:26:27Z</time></trkpt><trkpt lat="42.42529532586164" lon="12.19710152874349"><ele>599.25</ele><time>2026-04-12T08:26:28Z</time></trkpt><trkpt lat="42.42532086091994" lon="12.196935063816362"><ele>599.5</ele><time>2026-04-12T08:26:29Z</time></trkpt><trkpt lat="42.42533609527577" lon="12.1967442472784"><ele>599.75</ele><time>2026-04-12T08:26:30Z</time></trkpt><trkpt lat="42.42534865186539" lon="12.196574392407921"><ele>600.0</ele><time>2026-04-12T08:26:31Z</time></trkpt><trkpt lat="42.42535573143326" lon="12.196452643468467"><ele>600.0</ele><time>2026-04-12T08:26:32Z</time></trkpt><trkpt lat="42.425394947868426" lon="12.196303470327384"><ele>600.0</ele><time>2026-04-12T08:26:33Z</time></trkpt><trkpt lat="42.425441344092256" lon="12.196129226307926"><ele>600.0</ele><time>2026-04-12T08:26:34Z</time></trkpt><trkpt lat="42.42549528354082" lon="12.195966188717446"><ele>600.0</ele><time>2026-04-12T08:26:35Z</time></trkpt><trkpt lat="42.4255450289899" lon="12.195843290493794"><ele>599.6666666666666</ele><time>2026-04-12T08:26:36Z</time></trkpt><trkpt lat="42.42559340844011" lon="12.195734222183754"><ele>599.3333333333334</ele><time>2026-04-12T08:26:37Z</time></trkpt><trkpt lat="42.42562612938208" lon="12.195633893042285"><ele>599.0</ele><time>2026-04-12T08:26:38Z</time></trkpt><trkpt lat="42.42564972824446" lon="12.195544142840046"><ele>598.6666666666667</ele><time>2026-04-12T08:26:40Z</time></trkpt><trkpt lat="42.42557772584231" lon="12.195463827749393"><ele>598.3333333333334</ele><time>2026-04-12T08:26:48Z</time></trkpt><trkpt lat="42.42551475278112" lon="12.195422014857337"><ele>598.0</ele><time>2026-04-12T08:26:49Z</time></trkpt><trkpt lat="42.42541399011391" lon="12.195275657272711"><ele>598.0</ele><time>2026-04-12T08:26:51Z</time></trkpt><trkpt lat="42.425330734848" lon="12.195184483732236"><ele>598.0</ele><time>2026-04-12T08:26:52Z</time></trkpt><trkpt lat="42.42527419012424" lon="12.195094069726665"><ele>598.0</ele><time>2026-04-12T08:26:53Z</time></trkpt><trkpt lat="42.42522711744393" lon="12.195033188102114"><ele>598.0</ele><time>2026-04-12T08:26:54Z</time></trkpt><trkpt lat="42.425142976748454" lon="12.195013134512408"><ele>598.0</ele><time>2026-04-12T08:26:56Z</time></trkpt><trkpt lat="42.425077749644835" lon="12.19505445959794"><ele>598.0</ele><time>2026-04-12T08:26:58Z</time></trkpt><trkpt lat="42.425011919366014" lon="12.195223717836198"><ele>598.0</ele><time>2026-04-12T08:27:00Z</time></trkpt><trkpt lat="42.424947475695575" lon="12.19535738950329"><ele>598.0</ele><time>2026-04-12T08:27:01Z</time></trkpt><trkpt lat="42.424892351462475" lon="12.195496815159562"><ele>598.0</ele><time>2026-04-12T08:27:02Z</time></trkpt><trkpt lat="42.424859453162135" lon="12.195630827491918"><ele>598.0</ele><time>2026-04-12T08:27:03Z</time></trkpt><trkpt lat="42.42483907054832" lon="12.19577627018381"><ele>598.0</ele><time>2026-04-12T08:27:03.999Z</time></trkpt><trkpt lat="42.42482387184975" lon="12.195924577082305"><ele>598.4</ele><time>2026-04-12T08:27:04.999Z</time></trkpt><trkpt lat="42.42480790747497" lon="12.196079685076214"><ele>598.8</ele><time>2026-04-12T08:27:05.999Z</time></trkpt><trkpt lat="42.42478960788076" lon="12.196215315962935"><ele>599.2</ele><time>2026-04-12T08:27:06.999Z</time></trkpt><trkpt lat="42.424763575745416" lon="12.196325090974016"><ele>599.6</ele><time>2026-04-12T08:27:07.999Z</time></trkpt><trkpt lat="42.42473572950287" lon="12.196431185508144"><ele>600.0</ele><time>2026-04-12T08:27:08.999Z</time></trkpt><trkpt lat="42.42471317229487" lon="12.196556719681528"><ele>600.2</ele><time>2026-04-12T08:27:09.999Z</time></trkpt><trkpt lat="42.424681713212735" lon="12.196670758712164"><ele>600.4</ele><time>2026-04-12T08:27:10.999Z</time></trkpt><trkpt lat="42.42463847906413" lon="12.196763417243938"><ele>600.6</ele><time>2026-04-12T08:27:11.999Z</time></trkpt><trkpt lat="42.42459249780986" lon="12.196876603526611"><ele>600.8</ele><time>2026-04-12T08:27:12.999Z</time></trkpt><trkpt lat="42.42453151440202" lon="12.197000588396362"><ele>601.0</ele><time>2026-04-12T08:27:13.999Z</time></trkpt><trkpt lat="42.424477698194764" lon="12.197131735593343"><ele>602.6666666666667</ele><time>2026-04-12T08:27:14.999Z</time></trkpt><trkpt lat="42.424444657917036" lon="12.19725427374424"><ele>604.3333333333334</ele><time>2026-04-12T08:27:15.999Z</time></trkpt><trkpt lat="42.42439935832882" lon="12.19740304960069"><ele>606.0</ele><time>2026-04-12T08:27:17.999Z</time></trkpt><trkpt lat="42.42436126964788" lon="12.197498815681815"><ele>607.6666666666666</ele><time>2026-04-12T08:27:18.999Z</time></trkpt><trkpt lat="42.424320624157026" lon="12.19757557666409"><ele>609.3333333333333</ele><time>2026-04-12T08:27:19.999Z</time></trkpt><trkpt lat="42.424250394727366" lon="12.19762306003096"><ele>611.0</ele><time>2026-04-12T08:27:21.999Z</time></trkpt><trkpt lat="42.42416317452321" lon="12.197535271864284"><ele>612.6666666666666</ele><time>2026-04-12T08:27:23.999Z</time></trkpt><trkpt lat="42.42411231259895" lon="12.197454244882858"><ele>614.3333333333333</ele><time>2026-04-12T08:27:24.999Z</time></trkpt><trkpt lat="42.4240419492798" lon="12.197425416005704"><ele>616.0</ele><time>2026-04-12T08:27:25.999Z</time></trkpt><trkpt lat="42.423974112313154" lon="12.19742164865384"><ele>617.6666666666666</ele><time>2026-04-12T08:27:26.999Z</time></trkpt><trkpt lat="42.42389456194441" lon="12.197430646982761"><ele>619.3333333333334</ele><time>2026-04-12T08:27:27.999Z</time></trkpt><trkpt lat="42.423800547962415" lon="12.19743609451824"><ele>621.0</ele><time>2026-04-12T08:27:28.999Z</time></trkpt><trkpt lat="42.42371055134832" lon="12.197428816368381"><ele>618.8</ele><time>2026-04-12T08:27:29.999Z</time></trkpt><trkpt lat="42.42358904134018" lon="12.197375124046108"><ele>616.6</ele><time>2026-04-12T08:27:31.999Z</time></trkpt><trkpt lat="42.423548257759144" lon="12.197303204183799"><ele>614.4</ele><time>2026-04-12T08:27:33.999Z</time></trkpt><trkpt lat="42.42348136447447" lon="12.197249960875302"><ele>612.2</ele><time>2026-04-12T08:27:36.999Z</time></trkpt><trkpt lat="42.42353537602978" lon="12.197371219471483"><ele>610.0</ele><time>2026-04-12T08:27:49.999Z</time></trkpt><trkpt lat="42.423643259500665" lon="12.197459924441208"><ele>611.8333333333334</ele><time>2026-04-12T08:27:51.999Z</time></trkpt><trkpt lat="42.42372176728883" lon="12.19747266854254"><ele>613.6666666666667</ele><time>2026-04-12T08:27:52.999Z</time></trkpt><trkpt lat="42.423795043345464" lon="12.197473811740627"><ele>615.5</ele><time>2026-04-12T08:27:53.999Z</time></trkpt><trkpt lat="42.42387424552105" lon="12.197470024081658"><ele>617.3333333333334</ele><time>2026-04-12T08:27:54.999Z</time></trkpt><trkpt lat="42.42393851567513" lon="12.197453269454709"><ele>619.1666666666666</ele><time>2026-04-12T08:27:56Z</time></trkpt><trkpt lat="42.42405753652749" lon="12.197459005577022"><ele>621.0</ele><time>2026-04-12T08:27:58Z</time></trkpt><trkpt lat="42.42411411502134" lon="12.197500223804496"><ele>621.0</ele><time>2026-04-12T08:27:59Z</time></trkpt><trkpt lat="42.42418009992205" lon="12.197607053310186"><ele>621.0</ele><time>2026-04-12T08:28:01Z</time></trkpt><trkpt lat="42.4243685369437" lon="12.197469940690874"><ele>621.0</ele><time>2026-04-12T08:28:07Z</time></trkpt><trkpt lat="42.424437972695316" lon="12.197343505851828"><ele>621.0</ele><time>2026-04-12T08:28:08Z</time></trkpt><trkpt lat="42.42449618761643" lon="12.197205699584304"><ele>619.3333333333334</ele><time>2026-04-12T08:28:09Z</time></trkpt><trkpt lat="42.42454988434014" lon="12.19706615938843"><ele>617.6666666666666</ele><time>2026-04-12T08:28:10Z</time></trkpt><trkpt lat="42.42459251721811" lon="12.196976667781135"><ele>616.0</ele><time>2026-04-12T08:28:11Z</time></trkpt><trkpt lat="42.42464323939018" lon="12.19690972399449"><ele>614.3333333333333</ele><time>2026-04-12T08:28:12Z</time></trkpt><trkpt lat="42.42468187925932" lon="12.196799966136728"><ele>612.6666666666666</ele><time>2026-04-12T08:28:13Z</time></trkpt><trkpt lat="42.42471635457345" lon="12.196699547649661"><ele>611.0</ele><time>2026-04-12T08:28:14Z</time></trkpt><trkpt lat="42.42476033164243" lon="12.196562520844662"><ele>608.25</ele><time>2026-04-12T08:28:15Z</time></trkpt><trkpt lat="42.424798726904775" lon="12.196409771850535"><ele>605.5</ele><time>2026-04-12T08:28:16Z</time></trkpt><trkpt lat="42.42481581548267" lon="12.196250588223167"><ele>602.75</ele><time>2026-04-12T08:28:17Z</time></trkpt><trkpt lat="42.424836776341515" lon="12.196083822981972"><ele>600.0</ele><time>2026-04-12T08:28:18Z</time></trkpt><trkpt lat="42.424856488519765" lon="12.195938857451091"><ele>600.0</ele><time>2026-04-12T08:28:19Z</time></trkpt><trkpt lat="42.424882216423555" lon="12.195783797562948"><ele>600.0</ele><time>2026-04-12T08:28:20Z</time></trkpt><trkpt lat="42.42491130096774" lon="12.19562382509926"><ele>600.0</ele><time>2026-04-12T08:28:21Z</time></trkpt><trkpt lat="42.42493804493022" lon="12.195492526222774"><ele>600.0</ele><time>2026-04-12T08:28:22Z</time></trkpt><trkpt lat="42.42497668413625" lon="12.195382152061931"><ele>600.0</ele><time>2026-04-12T08:28:23Z</time></trkpt><trkpt lat="42.425031319400325" lon="12.195265787130163"><ele>599.6</ele><time>2026-04-12T08:28:24Z</time></trkpt><trkpt lat="42.42507568049464" lon="12.195141428242644"><ele>599.2</ele><time>2026-04-12T08:28:25Z</time></trkpt><trkpt lat="42.42513487538319" lon="12.195043402442709"><ele>598.8</ele><time>2026-04-12T08:28:27Z</time></trkpt><trkpt lat="42.42528028404704" lon="12.195111374946078"><ele>598.4</ele><time>2026-04-12T08:28:30Z</time></trkpt><trkpt lat="42.42535051181451" lon="12.195200254780428"><ele>598.0</ele><time>2026-04-12T08:28:31Z</time></trkpt><trkpt lat="42.425424685410974" lon="12.195301404141171"><ele>596.8</ele><time>2026-04-12T08:28:32Z</time></trkpt><trkpt lat="42.42549838132612" lon="12.195380030641095"><ele>595.5999999999999</ele><time>2026-04-12T08:28:33Z</time></trkpt><trkpt lat="42.425538652234955" lon="12.195455045079376"><ele>594.4000000000001</ele><time>2026-04-12T08:28:34Z</time></trkpt><trkpt lat="42.42559977386554" lon="12.195504466915843"><ele>593.2</ele><time>2026-04-12T08:28:36Z</time></trkpt><trkpt lat="42.425692983698056" lon="12.19544558914912"><ele>592.0</ele><time>2026-04-12T08:28:39Z</time></trkpt><trkpt lat="42.42570271529899" lon="12.195259023234797"><ele>592.0</ele><time>2026-04-12T08:28:41Z</time></trkpt><trkpt lat="42.42571280400706" lon="12.195091730381408"><ele>592.0</ele><time>2026-04-12T08:28:42Z</time></trkpt><trkpt lat="42.42572935252539" lon="12.194925523667045"><ele>592.0</ele><time>2026-04-12T08:28:43Z</time></trkpt><trkpt lat="42.4257476260266" lon="12.194787217740584"><ele>592.0</ele><time>2026-04-12T08:28:44Z</time></trkpt><trkpt lat="42.42575909071157" lon="12.19467794465981"><ele>592.0</ele><time>2026-04-12T08:28:45Z</time></trkpt><trkpt lat="42.42575468032707" lon="12.194577369958905"><ele>591.6666666666667</ele><time>2026-04-12T08:28:46Z</time></trkpt><trkpt lat="42.42573151230205" lon="12.194473871711999"><ele>591.3333333333334</ele><time>2026-04-12T08:28:47Z</time></trkpt><trkpt lat="42.42569053293096" lon="12.19438324746452"><ele>591.0</ele><time>2026-04-12T08:28:48Z</time></trkpt><trkpt lat="42.42565523159026" lon="12.194303000879549"><ele>590.6666666666666</ele><time>2026-04-12T08:28:49Z</time></trkpt><trkpt lat="42.425587775733895" lon="12.194158760904108"><ele>590.3333333333333</ele><time>2026-04-12T08:28:51Z</time></trkpt><trkpt lat="42.42554108776212" lon="12.194092083148368"><ele>590.0</ele><time>2026-04-12T08:28:52Z</time></trkpt><trkpt lat="42.4254264873032" lon="12.194003669836142"><ele>589.2</ele><time>2026-04-12T08:28:54Z</time></trkpt><trkpt lat="42.42535317468263" lon="12.193978082723635"><ele>588.4</ele><time>2026-04-12T08:28:55Z</time></trkpt><trkpt lat="42.42528564716296" lon="12.193972351029085"><ele>587.6</ele><time>2026-04-12T08:28:56Z</time></trkpt><trkpt lat="42.42519438233838" lon="12.19398674724942"><ele>586.8</ele><time>2026-04-12T08:28:57Z</time></trkpt><trkpt lat="42.42508260180759" lon="12.194026894219594"><ele>586.0</ele><time>2026-04-12T08:28:58Z</time></trkpt><trkpt lat="42.424945058001825" lon="12.194077432287486"><ele>586.0</ele><time>2026-04-12T08:28:59Z</time></trkpt><trkpt lat="42.424828563515746" lon="12.194111366455124"><ele>586.0</ele><time>2026-04-12T08:29:00Z</time></trkpt><trkpt lat="42.424726806510364" lon="12.194163201148328"><ele>586.0</ele><time>2026-04-12T08:29:01Z</time></trkpt><trkpt lat="42.424630452679146" lon="12.194237671189722"><ele>586.0</ele><time>2026-04-12T08:29:02Z</time></trkpt><trkpt lat="42.42455924254977" lon="12.194323708424896"><ele>586.0</ele><time>2026-04-12T08:29:03Z</time></trkpt><trkpt lat="42.424508134804995" lon="12.194381614668123"><ele>583.6</ele><time>2026-04-12T08:29:04Z</time></trkpt><trkpt lat="42.42446260511195" lon="12.194460230322425"><ele>581.2</ele><time>2026-04-12T08:29:04.999Z</time></trkpt><trkpt lat="42.42440529988319" lon="12.194530550271086"><ele>578.8</ele><time>2026-04-12T08:29:05.999Z</time></trkpt><trkpt lat="42.424311698054815" lon="12.194648210805406"><ele>576.4</ele><time>2026-04-12T08:29:07.999Z</time></trkpt><trkpt lat="42.424245205278176" lon="12.194734474533112"><ele>574.0</ele><time>2026-04-12T08:29:08.999Z</time></trkpt><trkpt lat="42.42417338549256" lon="12.194831569229018"><ele>576.2</ele><time>2026-04-12T08:29:09.999Z</time></trkpt><trkpt lat="42.424100960321674" lon="12.194924438066847"><ele>578.4</ele><time>2026-04-12T08:29:10.999Z</time></trkpt><trkpt lat="42.42404341849412" lon="12.195015244961455"><ele>580.6</ele><time>2026-04-12T08:29:11.999Z</time></trkpt><trkpt lat="42.423999530885744" lon="12.195103610992378"><ele>582.8</ele><time>2026-04-12T08:29:12.999Z</time></trkpt><trkpt lat="42.42394379012042" lon="12.195207256158932"><ele>585.0</ele><time>2026-04-12T08:29:13.999Z</time></trkpt><trkpt lat="42.423886566774705" lon="12.195302416651629"><ele>585.0</ele><time>2026-04-12T08:29:14.999Z</time></trkpt><trkpt lat="42.42382921157429" lon="12.195371327149216"><ele>585.0</ele><time>2026-04-12T08:29:15.999Z</time></trkpt><trkpt lat="42.42377152720163" lon="12.195443098415202"><ele>585.0</ele><time>2026-04-12T08:29:16.999Z</time></trkpt><trkpt lat="42.42371851873003" lon="12.19551944218361"><ele>585.0</ele><time>2026-04-12T08:29:17.999Z</time></trkpt><trkpt lat="42.42365690976885" lon="12.195597466867477"><ele>585.0</ele><time>2026-04-12T08:29:18.999Z</time></trkpt><trkpt lat="42.423581796028046" lon="12.195683536879594"><ele>585.0</ele><time>2026-04-12T08:29:19.999Z</time></trkpt><trkpt lat="42.42351724795504" lon="12.195738382320283"><ele>585.1666666666666</ele><time>2026-04-12T08:29:20.999Z</time></trkpt><trkpt lat="42.42344116696738" lon="12.19575905130184"><ele>585.3333333333334</ele><time>2026-04-12T08:29:24.999Z</time></trkpt><trkpt lat="42.423324020991075" lon="12.195805372730366"><ele>585.5</ele><time>2026-04-12T08:29:30.999Z</time></trkpt><trkpt lat="42.423229615660645" lon="12.19579993686705"><ele>585.6666666666667</ele><time>2026-04-12T08:29:32.999Z</time></trkpt><trkpt lat="42.423172551153336" lon="12.195721079108662"><ele>585.8333333333334</ele><time>2026-04-12T08:29:58.999Z</time></trkpt><trkpt lat="42.42312046261125" lon="12.195659971851656"><ele>586.0</ele><time>2026-04-12T08:30:27Z</time></trkpt><trkpt lat="42.42308826423647" lon="12.195505627505254"><ele>586.0</ele><time>2026-04-12T08:30:29Z</time></trkpt><trkpt lat="42.42307756554863" lon="12.195411578358561"><ele>586.0</ele><time>2026-04-12T08:30:30Z</time></trkpt><trkpt lat="42.42308089862051" lon="12.195320027199658"><ele>586.0</ele><time>2026-04-12T08:30:31Z</time></trkpt><trkpt lat="42.423086438850085" lon="12.195180253388047"><ele>586.0</ele><time>2026-04-12T08:30:32Z</time></trkpt><trkpt lat="42.42310592342993" lon="12.195022034861536"><ele>586.0</ele><time>2026-04-12T08:30:33Z</time></trkpt><trkpt lat="42.42313191742892" lon="12.194857192658674"><ele>585.6</ele><time>2026-04-12T08:30:34Z</time></trkpt><trkpt lat="42.423155589755495" lon="12.194689718054084"><ele>585.2</ele><time>2026-04-12T08:30:35Z</time></trkpt><trkpt lat="42.42317516659737" lon="12.194565533755835"><ele>584.8</ele><time>2026-04-12T08:30:36Z</time></trkpt><trkpt lat="42.423186985493075" lon="12.194454104563567"><ele>584.4</ele><time>2026-04-12T08:30:37Z</time></trkpt><trkpt lat="42.42317574897084" lon="12.19435159002669"><ele>584.0</ele><time>2026-04-12T08:30:38Z</time></trkpt><trkpt lat="42.423130602735895" lon="12.194253720389979"><ele>584.0</ele><time>2026-04-12T08:30:39Z</time></trkpt><trkpt lat="42.42307606029877" lon="12.194165260188495"><ele>584.0</ele><time>2026-04-12T08:30:40Z</time></trkpt><trkpt lat="42.42300395187013" lon="12.194116087969501"><ele>584.0</ele><time>2026-04-12T08:30:41Z</time></trkpt><trkpt lat="42.4229243790148" lon="12.194075681836242"><ele>584.0</ele><time>2026-04-12T08:30:42Z</time></trkpt><trkpt lat="42.422842219312045" lon="12.194036414598997"><ele>584.0</ele><time>2026-04-12T08:30:43Z</time></trkpt><trkpt lat="42.42274814517559" lon="12.194004263091031"><ele>584.0</ele><time>2026-04-12T08:30:44Z</time></trkpt><trkpt lat="42.42266403033616" lon="12.193948484283185"><ele>586.2</ele><time>2026-04-12T08:30:45Z</time></trkpt><trkpt lat="42.42257743683138" lon="12.193913337160671"><ele>588.4</ele><time>2026-04-12T08:30:46Z</time></trkpt><trkpt lat="42.42248993920528" lon="12.193870788011534"><ele>590.6</ele><time>2026-04-12T08:30:47Z</time></trkpt><trkpt lat="42.42240351867156" lon="12.19383342924714"><ele>592.8</ele><time>2026-04-12T08:30:48Z</time></trkpt><trkpt lat="42.422323266266424" lon="12.19378823822156"><ele>595.0</ele><time>2026-04-12T08:30:49Z</time></trkpt><trkpt lat="42.42223904143671" lon="12.193725716330489"><ele>595.0</ele><time>2026-04-12T08:30:50Z</time></trkpt><trkpt lat="42.42214830736206" lon="12.19369565617592"><ele>595.0</ele><time>2026-04-12T08:30:51Z</time></trkpt><trkpt lat="42.42206997026419" lon="12.193656547481048"><ele>595.0</ele><time>2026-04-12T08:30:52Z</time></trkpt><trkpt lat="42.422000358752236" lon="12.193611566846076"><ele>595.0</ele><time>2026-04-12T08:30:53Z</time></trkpt><trkpt lat="42.421932345618686" lon="12.193544947034656"><ele>595.0</ele><time>2026-04-12T08:30:54Z</time></trkpt><trkpt lat="42.42186393892703" lon="12.193450532674692"><ele>595.0</ele><time>2026-04-12T08:30:55Z</time></trkpt><trkpt lat="42.42179395046058" lon="12.193370468204131"><ele>595.1666666666667</ele><time>2026-04-12T08:30:56Z</time></trkpt><trkpt lat="42.42172229851512" lon="12.193300310245105"><ele>595.3333333333334</ele><time>2026-04-12T08:30:57Z</time></trkpt><trkpt lat="42.42165264528789" lon="12.193245306072104"><ele>595.5</ele><time>2026-04-12T08:30:58Z</time></trkpt><trkpt lat="42.4215896847174" lon="12.193187564136492"><ele>595.6666666666666</ele><time>2026-04-12T08:30:59Z</time></trkpt><trkpt lat="42.4215103493299" lon="12.193141556708989"><ele>595.8333333333333</ele><time>2026-04-12T08:31:00Z</time></trkpt><trkpt lat="42.42142506073866" lon="12.193112227765866"><ele>596.0</ele><time>2026-04-12T08:31:01Z</time></trkpt><trkpt lat="42.421331445554166" lon="12.19309564094664"><ele>599.25</ele><time>2026-04-12T08:31:02Z</time></trkpt><trkpt lat="42.42123194529641" lon="12.193070652247723"><ele>602.5</ele><time>2026-04-12T08:31:03Z</time></trkpt><trkpt lat="42.4211285434746" lon="12.193051343755453"><ele>605.75</ele><time>2026-04-12T08:31:04Z</time></trkpt><trkpt lat="42.42100396027519" lon="12.193030925975695"><ele>609.0</ele><time>2026-04-12T08:31:05Z</time></trkpt><trkpt lat="42.420870419552294" lon="12.193017939869902"><ele>609.0</ele><time>2026-04-12T08:31:06Z</time></trkpt><trkpt lat="42.420749459242145" lon="12.193010914037588"><ele>609.0</ele><time>2026-04-12T08:31:07Z</time></trkpt><trkpt lat="42.42063824553289" lon="12.192997713598821"><ele>609.0</ele><time>2026-04-12T08:31:07.999Z</time></trkpt><trkpt lat="42.420541060327594" lon="12.19299229872654"><ele>609.0</ele><time>2026-04-12T08:31:08.999Z</time></trkpt><trkpt lat="42.420451513209166" lon="12.192997494456081"><ele>609.0</ele><time>2026-04-12T08:31:09.999Z</time></trkpt><trkpt lat="42.42036577755297" lon="12.19299120963446"><ele>611.8333333333334</ele><time>2026-04-12T08:31:10.999Z</time></trkpt><trkpt lat="42.42029099434347" lon="12.192986393008818"><ele>614.6666666666666</ele><time>2026-04-12T08:31:11.999Z</time></trkpt><trkpt lat="42.42020952002547" lon="12.192997806675153"><ele>617.5</ele><time>2026-04-12T08:31:12.999Z</time></trkpt><trkpt lat="42.42014224933563" lon="12.193035522363871"><ele>620.3333333333333</ele><time>2026-04-12T08:31:13.999Z</time></trkpt><trkpt lat="42.42008491501531" lon="12.193106256612666"><ele>623.1666666666666</ele><time>2026-04-12T08:31:14.999Z</time></trkpt><trkpt lat="42.4200184743886" lon="12.193191892568928"><ele>626.0</ele><time>2026-04-12T08:31:15.999Z</time></trkpt><trkpt lat="42.41994376717296" lon="12.193274627131098"><ele>627.6666666666666</ele><time>2026-04-12T08:31:16.999Z</time></trkpt><trkpt lat="42.41988852016046" lon="12.19333839603357"><ele>629.3333333333333</ele><time>2026-04-12T08:31:17.999Z</time></trkpt><trkpt lat="42.419790712530315" lon="12.193397083667389"><ele>631.0</ele><time>2026-04-12T08:31:19.999Z</time></trkpt><trkpt lat="42.41969788110522" lon="12.19340790921122"><ele>632.6666666666666</ele><time>2026-04-12T08:31:21.999Z</time></trkpt><trkpt lat="42.419611346782666" lon="12.19333595105232"><ele>634.3333333333334</ele><time>2026-04-12T08:31:23.999Z</time></trkpt><trkpt lat="42.41958377803812" lon="12.193258450093323"><ele>636.0</ele><time>2026-04-12T08:31:24.999Z</time></trkpt><trkpt lat="42.419564908352484" lon="12.193163896094084"><ele>638.0</ele><time>2026-04-12T08:31:25.999Z</time></trkpt><trkpt lat="42.41957316500222" lon="12.193025058191921"><ele>640.0</ele><time>2026-04-12T08:31:26.999Z</time></trkpt><trkpt lat="42.419575679431816" lon="12.192862548571998"><ele>642.0</ele><time>2026-04-12T08:31:27.999Z</time></trkpt><trkpt lat="42.41957340431953" lon="12.192715758670762"><ele>644.0</ele><time>2026-04-12T08:31:28.999Z</time></trkpt><trkpt lat="42.41957289463552" lon="12.192607139268556"><ele>646.0</ele><time>2026-04-12T08:31:29.999Z</time></trkpt><trkpt lat="42.4195560653492" lon="12.192433052637062"><ele>644.6666666666667</ele><time>2026-04-12T08:31:31.999Z</time></trkpt><trkpt lat="42.41953053783079" lon="12.192339533801382"><ele>643.3333333333334</ele><time>2026-04-12T08:31:32.999Z</time></trkpt><trkpt lat="42.419484816833" lon="12.192260307296964"><ele>642.0</ele><time>2026-04-12T08:31:33.999Z</time></trkpt><trkpt lat="42.41942089834103" lon="12.192200559195435"><ele>640.6666666666666</ele><time>2026-04-12T08:31:34.999Z</time></trkpt><trkpt lat="42.41934504543706" lon="12.192149360155257"><ele>639.3333333333333</ele><time>2026-04-12T08:31:35.999Z</time></trkpt><trkpt lat="42.41926301759973" lon="12.19212909763204"><ele>638.0</ele><time>2026-04-12T08:31:36.999Z</time></trkpt><trkpt lat="42.41918711831112" lon="12.192150600245643"><ele>638.0</ele><time>2026-04-12T08:31:37.999Z</time></trkpt><trkpt lat="42.41912111165003" lon="12.192202988031639"><ele>638.0</ele><time>2026-04-12T08:31:38.999Z</time></trkpt><trkpt lat="42.41906460585162" lon="12.19229009439379"><ele>638.0</ele><time>2026-04-12T08:31:39.999Z</time></trkpt><trkpt lat="42.419007722197435" lon="12.19240366737552"><ele>638.0</ele><time>2026-04-12T08:31:40.999Z</time></trkpt><trkpt lat="42.41895623312265" lon="12.192495292722032"><ele>638.0</ele><time>2026-04-12T08:31:41.999Z</time></trkpt><trkpt lat="42.41889011801012" lon="12.192545293421414"><ele>638.0</ele><time>2026-04-12T08:31:42.999Z</time></trkpt><trkpt lat="42.4188141563142" lon="12.192551508712716"><ele>640.7142857142858</ele><time>2026-04-12T08:31:43.999Z</time></trkpt><trkpt lat="42.41874128088089" lon="12.192548340888138"><ele>643.4285714285713</ele><time>2026-04-12T08:31:44.999Z</time></trkpt><trkpt lat="42.41867321294205" lon="12.192547199040492"><ele>646.1428571428571</ele><time>2026-04-12T08:31:45.999Z</time></trkpt><trkpt lat="42.41860482064949" lon="12.19254556895595"><ele>648.8571428571429</ele><time>2026-04-12T08:31:46.999Z</time></trkpt><trkpt lat="42.41853094068665" lon="12.192549725032448"><ele>651.5714285714287</ele><time>2026-04-12T08:31:47.999Z</time></trkpt><trkpt lat="42.41845374818711" lon="12.192558919255793"><ele>654.2857142857142</ele><time>2026-04-12T08:31:48.999Z</time></trkpt><trkpt lat="42.41838678513323" lon="12.192563885276645"><ele>657.0</ele><time>2026-04-12T08:31:49.999Z</time></trkpt><trkpt lat="42.41831715767865" lon="12.19255345376985"><ele>657.0</ele><time>2026-04-12T08:31:50.999Z</time></trkpt><trkpt lat="42.418225717724354" lon="12.19255366885469"><ele>657.0</ele><time>2026-04-12T08:31:52.999Z</time></trkpt><trkpt lat="42.41825600467197" lon="12.192700521199944"><ele>657.0</ele><time>2026-04-12T08:31:59.999Z</time></trkpt><trkpt lat="42.418344655416064" lon="12.192725318771918"><ele>657.0</ele><time>2026-04-12T08:32:00.999Z</time></trkpt><trkpt lat="42.41843674686045" lon="12.192747709642335"><ele>657.0</ele><time>2026-04-12T08:32:01.999Z</time></trkpt><trkpt lat="42.41853478716068" lon="12.192792482013214"><ele>657.0</ele><time>2026-04-12T08:32:02.999Z</time></trkpt><trkpt lat="42.4185825579906" lon="12.19286084389951"><ele>657.0</ele><time>2026-04-12T08:32:03.999Z</time></trkpt><trkpt lat="42.41867795086443" lon="12.192966267892306"><ele>657.0</ele><time>2026-04-12T08:32:05.999Z</time></trkpt><trkpt lat="42.41879504562712" lon="12.192991029647452"><ele>657.0</ele><time>2026-04-12T08:32:06.999Z</time></trkpt><trkpt lat="42.41888179003212" lon="12.193050869141665"><ele>657.0</ele><time>2026-04-12T08:32:08Z</time></trkpt><trkpt lat="42.41893976820842" lon="12.19310371104155"><ele>656.0</ele><time>2026-04-12T08:32:09Z</time></trkpt><trkpt lat="42.41898892120121" lon="12.193164180764763"><ele>655.0</ele><time>2026-04-12T08:32:10Z</time></trkpt><trkpt lat="42.41901378162998" lon="12.193315074194382"><ele>654.0</ele><time>2026-04-12T08:32:12Z</time></trkpt><trkpt lat="42.419011123346586" lon="12.193432137004134"><ele>653.0</ele><time>2026-04-12T08:32:13Z</time></trkpt><trkpt lat="42.419021886426414" lon="12.193569883129033"><ele>652.0</ele><time>2026-04-12T08:32:14Z</time></trkpt><trkpt lat="42.419011966621916" lon="12.193719110867278"><ele>652.0</ele><time>2026-04-12T08:32:15Z</time></trkpt><trkpt lat="42.41900899652797" lon="12.193838578369252"><ele>652.0</ele><time>2026-04-12T08:32:16Z</time></trkpt><trkpt lat="42.418984483854686" lon="12.194037307472383"><ele>652.0</ele><time>2026-04-12T08:32:18Z</time></trkpt><trkpt lat="42.418974826950794" lon="12.194192376484022"><ele>652.0</ele><time>2026-04-12T08:32:19Z</time></trkpt><trkpt lat="42.41896596691198" lon="12.19429831445247"><ele>652.0</ele><time>2026-04-12T08:32:20Z</time></trkpt><trkpt lat="42.41898267878203" lon="12.194446837972205"><ele>653.6</ele><time>2026-04-12T08:32:22Z</time></trkpt><trkpt lat="42.41905045480173" lon="12.194568534818458"><ele>655.2</ele><time>2026-04-12T08:32:24Z</time></trkpt><trkpt lat="42.41916685162704" lon="12.194619442835243"><ele>656.8</ele><time>2026-04-12T08:32:26Z</time></trkpt><trkpt lat="42.419251474082536" lon="12.194615083558201"><ele>658.4</ele><time>2026-04-12T08:32:27Z</time></trkpt><trkpt lat="42.41931439187924" lon="12.194596439699502"><ele>660.0</ele><time>2026-04-12T08:32:28Z</time></trkpt><trkpt lat="42.41941262507912" lon="12.194585343308935"><ele>660.0000000000001</ele><time>2026-04-12T08:32:30Z</time></trkpt><trkpt lat="42.41947516198481" lon="12.194565781505924"><ele>660.0</ele><time>2026-04-12T08:32:31Z</time></trkpt><trkpt lat="42.41954469956035" lon="12.194561063761297"><ele>660.0</ele><time>2026-04-12T08:32:32Z</time></trkpt><trkpt lat="42.41961341756381" lon="12.19452252228206"><ele>660.0</ele><time>2026-04-12T08:32:33Z</time></trkpt><trkpt lat="42.419686150425434" lon="12.194475210089736"><ele>660.0</ele><time>2026-04-12T08:32:34Z</time></trkpt><trkpt lat="42.419749338966994" lon="12.194470680556645"><ele>660.0000000000001</ele><time>2026-04-12T08:32:35Z</time></trkpt><trkpt lat="42.419814509950015" lon="12.194466686161098"><ele>660.0</ele><time>2026-04-12T08:32:36Z</time></trkpt><trkpt lat="42.4199286533283" lon="12.194447088765775"><ele>659.6</ele><time>2026-04-12T08:32:38Z</time></trkpt><trkpt lat="42.42003398395391" lon="12.19446297781091"><ele>659.2</ele><time>2026-04-12T08:32:40Z</time></trkpt><trkpt lat="42.420131298618884" lon="12.19452809722978"><ele>658.8</ele><time>2026-04-12T08:32:42Z</time></trkpt><trkpt lat="42.420195714480386" lon="12.194546477042177"><ele>658.4</ele><time>2026-04-12T08:32:43Z</time></trkpt><trkpt lat="42.4203062685349" lon="12.19457422587842"><ele>658.0</ele><time>2026-04-12T08:32:45Z</time></trkpt><trkpt lat="42.420411220951266" lon="12.194603029546352"><ele>658.5999999999999</ele><time>2026-04-12T08:32:47Z</time></trkpt><trkpt lat="42.42051692337452" lon="12.194591803874362"><ele>659.1999999999999</ele><time>2026-04-12T08:32:49Z</time></trkpt><trkpt lat="42.42062758446011" lon="12.194632043275353"><ele>659.8</ele><time>2026-04-12T08:32:51Z</time></trkpt><trkpt lat="42.420714305100745" lon="12.194720605851298"><ele>660.4</ele><time>2026-04-12T08:32:53Z</time></trkpt><trkpt lat="42.42078827904557" lon="12.194819122969351"><ele>661.0</ele><time>2026-04-12T08:32:55Z</time></trkpt><trkpt lat="42.4208466828105" lon="12.19487033650838"><ele>665.1666666666667</ele><time>2026-04-12T08:32:56Z</time></trkpt><trkpt lat="42.42091300007933" lon="12.194924878229223"><ele>669.3333333333334</ele><time>2026-04-12T08:32:57Z</time></trkpt><trkpt lat="42.42099005835853" lon="12.19506972377258"><ele>673.5</ele><time>2026-04-12T08:32:59Z</time></trkpt><trkpt lat="42.42104514263024" lon="12.195174181319889"><ele>677.6666666666666</ele><time>2026-04-12T08:33:00Z</time></trkpt><trkpt lat="42.421088344263616" lon="12.195253211438256"><ele>681.8333333333333</ele><time>2026-04-12T08:33:01Z</time></trkpt><trkpt lat="42.4211248642328" lon="12.195332480221877"><ele>686.0</ele><time>2026-04-12T08:33:02Z</time></trkpt><trkpt lat="42.421166061021005" lon="12.195439614897875"><ele>686.0</ele><time>2026-04-12T08:33:03Z</time></trkpt><trkpt lat="42.42119456254162" lon="12.195521271355943"><ele>686.0</ele><time>2026-04-12T08:33:04Z</time></trkpt><trkpt lat="42.421227755587374" lon="12.195595527324368"><ele>686.0</ele><time>2026-04-12T08:33:05Z</time></trkpt><trkpt lat="42.421274284265564" lon="12.195695263185309"><ele>686.0</ele><time>2026-04-12T08:33:06Z</time></trkpt><trkpt lat="42.42129063347465" lon="12.195780816821847"><ele>686.0</ele><time>2026-04-12T08:33:07Z</time></trkpt><trkpt lat="42.421320679234164" lon="12.195914408357746"><ele>686.0</ele><time>2026-04-12T08:33:09Z</time></trkpt><trkpt lat="42.42134209395448" lon="12.196071521015293"><ele>683.6666666666666</ele><time>2026-04-12T08:33:10.999Z</time></trkpt><trkpt lat="42.42133587306798" lon="12.1961814568436"><ele>681.3333333333333</ele><time>2026-04-12T08:33:11.999Z</time></trkpt><trkpt lat="42.42131556847956" lon="12.196288264794415"><ele>679.0</ele><time>2026-04-12T08:33:12.999Z</time></trkpt><trkpt lat="42.42128176138436" lon="12.196395326363824"><ele>676.6666666666666</ele><time>2026-04-12T08:33:13.999Z</time></trkpt><trkpt lat="42.42126290683427" lon="12.196487234662762"><ele>674.3333333333334</ele><time>2026-04-12T08:33:14.999Z</time></trkpt><trkpt lat="42.42122944856598" lon="12.196618971548245"><ele>672.0</ele><time>2026-04-12T08:33:16.999Z</time></trkpt><trkpt lat="42.42121368280246" lon="12.196731825681828"><ele>680.6666666666666</ele><time>2026-04-12T08:33:17.999Z</time></trkpt><trkpt lat="42.42120143706083" lon="12.196850826057267"><ele>689.3333333333334</ele><time>2026-04-12T08:33:18.999Z</time></trkpt><trkpt lat="42.42118822179115" lon="12.19694582630383"><ele>698.0</ele><time>2026-04-12T08:33:19.999Z</time></trkpt><trkpt lat="42.42117079827989" lon="12.197094169682831"><ele>706.6666666666667</ele><time>2026-04-12T08:33:21.999Z</time></trkpt><trkpt lat="42.421163457052344" lon="12.197185945408824"><ele>715.3333333333334</ele><time>2026-04-12T08:33:22.999Z</time></trkpt><trkpt lat="42.421143148028136" lon="12.197331016794212"><ele>724.0</ele><time>2026-04-12T08:33:24.999Z</time></trkpt><trkpt lat="42.421132994377956" lon="12.197516064738638"><ele>724.0</ele><time>2026-04-12T08:33:26.999Z</time></trkpt><trkpt lat="42.42112450495569" lon="12.197620259528872"><ele>724.0</ele><time>2026-04-12T08:33:27.999Z</time></trkpt><trkpt lat="42.421120866565275" lon="12.197730806410194"><ele>724.0</ele><time>2026-04-12T08:33:28.999Z</time></trkpt><trkpt lat="42.421096485985785" lon="12.19784576018699"><ele>724.0</ele><time>2026-04-12T08:33:29.999Z</time></trkpt><trkpt lat="42.421083672847786" lon="12.197947288251912"><ele>724.0</ele><time>2026-04-12T08:33:30.999Z</time></trkpt><trkpt lat="42.421063938514365" lon="12.198031121394427"><ele>724.0</ele><time>2026-04-12T08:33:31.999Z</time></trkpt><trkpt lat="42.421039115351086" lon="12.198186339674704"><ele>722.0</ele><time>2026-04-12T08:33:33.999Z</time></trkpt><trkpt lat="42.42099986679748" lon="12.198314108776293"><ele>720.0</ele><time>2026-04-12T08:33:35.999Z</time></trkpt><trkpt lat="42.42094589417414" lon="12.198445605590509"><ele>718.0</ele><time>2026-04-12T08:33:37.999Z</time></trkpt><trkpt lat="42.42087255169823" lon="12.198585995458533"><ele>716.0</ele><time>2026-04-12T08:33:39.999Z</time></trkpt><trkpt lat="42.42083279708354" lon="12.198674904112854"><ele>714.0</ele><time>2026-04-12T08:33:40.999Z</time></trkpt><trkpt lat="42.42079027244943" lon="12.198749996439938"><ele>714.0</ele><time>2026-04-12T08:33:41.999Z</time></trkpt><trkpt lat="42.420717689492555" lon="12.198867421861614"><ele>714.0</ele><time>2026-04-12T08:33:43.999Z</time></trkpt><trkpt lat="42.4206489548715" lon="12.198974355707207"><ele>714.0</ele><time>2026-04-12T08:33:45.999Z</time></trkpt><trkpt lat="42.42057578037461" lon="12.199127129508746"><ele>714.0</ele><time>2026-04-12T08:33:47.999Z</time></trkpt><trkpt lat="42.4204972072406" lon="12.199202907112996"><ele>714.0</ele><time>2026-04-12T08:33:48.999Z</time></trkpt><trkpt lat="42.42042179057321" lon="12.199294144254633"><ele>715.8000000000001</ele><time>2026-04-12T08:33:49.999Z</time></trkpt><trkpt lat="42.42036860654912" lon="12.199350918234222"><ele>717.6</ele><time>2026-04-12T08:33:50.999Z</time></trkpt><trkpt lat="42.42031491431421" lon="12.199442644315708"><ele>719.4</ele><time>2026-04-12T08:33:52.999Z</time></trkpt><trkpt lat="42.42028600242428" lon="12.19954360639007"><ele>721.2</ele><time>2026-04-12T08:33:54.999Z</time></trkpt><trkpt lat="42.42018580947681" lon="12.199646418053103"><ele>723.0</ele><time>2026-04-12T08:33:56.999Z</time></trkpt><trkpt lat="42.42010460102644" lon="12.199723339603809"><ele>723.0</ele><time>2026-04-12T08:33:58.999Z</time></trkpt><trkpt lat="42.42005079454469" lon="12.199798750038534"><ele>723.0</ele><time>2026-04-12T08:33:59.999Z</time></trkpt><trkpt lat="42.41998681437962" lon="12.199920039270635"><ele>723.0</ele><time>2026-04-12T08:34:01.999Z</time></trkpt><trkpt lat="42.419919077824666" lon="12.200012708841465"><ele>723.0</ele><time>2026-04-12T08:34:03.999Z</time></trkpt><trkpt lat="42.419822463638006" lon="12.200111043709796"><ele>723.0</ele><time>2026-04-12T08:34:05.999Z</time></trkpt><trkpt lat="42.41973249594524" lon="12.200202510453064"><ele>721.8</ele><time>2026-04-12T08:34:07.999Z</time></trkpt><trkpt lat="42.4196725093314" lon="12.200239251163987"><ele>720.5999999999999</ele><time>2026-04-12T08:34:08.999Z</time></trkpt><trkpt lat="42.41957219750979" lon="12.2002638403123"><ele>719.4000000000001</ele><time>2026-04-12T08:34:10.999Z</time></trkpt><trkpt lat="42.41948855744435" lon="12.200375224313706"><ele>718.2</ele><time>2026-04-12T08:34:12.999Z</time></trkpt><trkpt lat="42.419442709459794" lon="12.20050931851258"><ele>717.0</ele><time>2026-04-12T08:34:15Z</time></trkpt><trkpt lat="42.41946389788492" lon="12.200610279232748"><ele>719.5</ele><time>2026-04-12T08:34:31Z</time></trkpt><trkpt lat="42.4195181781744" lon="12.200702899513125"><ele>722.0</ele><time>2026-04-12T08:34:33Z</time></trkpt><trkpt lat="42.419581067026265" lon="12.200736008820057"><ele>724.5</ele><time>2026-04-12T08:34:34Z</time></trkpt><trkpt lat="42.419650613689726" lon="12.200762612612507"><ele>727.0</ele><time>2026-04-12T08:34:35Z</time></trkpt><trkpt lat="42.41976171485591" lon="12.200783590236725"><ele>729.5</ele><time>2026-04-12T08:34:37Z</time></trkpt><trkpt lat="42.41984935726836" lon="12.200792219065743"><ele>732.0</ele><time>2026-04-12T08:34:38Z</time></trkpt><trkpt lat="42.419958611784295" lon="12.20078933737013"><ele>732.0</ele><time>2026-04-12T08:34:39Z</time></trkpt><trkpt lat="42.420039762140085" lon="12.200798496769691"><ele>732.0</ele><time>2026-04-12T08:34:40Z</time></trkpt><trkpt lat="42.42015422481095" lon="12.200829085480814"><ele>732.0</ele><time>2026-04-12T08:34:42Z</time></trkpt><trkpt lat="42.42021831036702" lon="12.200788585808896"><ele>732.0</ele><time>2026-04-12T08:34:45Z</time></trkpt><trkpt lat="42.42032432364011" lon="12.200747929482755"><ele>732.0</ele><time>2026-04-12T08:34:47Z</time></trkpt><trkpt lat="42.42039102788293" lon="12.200763623630525"><ele>732.0</ele><time>2026-04-12T08:34:48Z</time></trkpt><trkpt lat="42.42046944698476" lon="12.200782020469076"><ele>730.5</ele><time>2026-04-12T08:34:49Z</time></trkpt><trkpt lat="42.42054154352312" lon="12.20079528763363"><ele>729.0</ele><time>2026-04-12T08:34:50Z</time></trkpt><trkpt lat="42.420631567117645" lon="12.20083376593218"><ele>727.5</ele><time>2026-04-12T08:34:51Z</time></trkpt><trkpt lat="42.42068688117798" lon="12.200889342634524"><ele>726.0</ele><time>2026-04-12T08:34:52Z</time></trkpt><trkpt lat="42.42072829090121" lon="12.200962348169607"><ele>724.5</ele><time>2026-04-12T08:34:53Z</time></trkpt><trkpt lat="42.420750855954374" lon="12.20107059245653"><ele>723.0</ele><time>2026-04-12T08:34:54Z</time></trkpt><trkpt lat="42.420784350189116" lon="12.201186957633919"><ele>723.0</ele><time>2026-04-12T08:34:55Z</time></trkpt><trkpt lat="42.4208600465888" lon="12.201265319439681"><ele>723.0</ele><time>2026-04-12T08:35:13.999Z</time></trkpt><trkpt lat="42.420784379894286" lon="12.201326312464236"><ele>723.0</ele><time>2026-04-12T08:35:42.999Z</time></trkpt><trkpt lat="42.420770082681905" lon="12.201430336125261"><ele>723.0</ele><time>2026-04-12T08:35:44.999Z</time></trkpt><trkpt lat="42.420763302295164" lon="12.201575683249512"><ele>723.0</ele><time>2026-04-12T08:35:46.999Z</time></trkpt><trkpt lat="42.420742510397986" lon="12.201674423607317"><ele>723.0</ele><time>2026-04-12T08:35:48.999Z</time></trkpt><trkpt lat="42.420662154332085" lon="12.201754592999702"><ele>725.8333333333334</ele><time>2026-04-12T08:35:50.999Z</time></trkpt><trkpt lat="42.420589134889845" lon="12.201769389128149"><ele>728.6666666666666</ele><time>2026-04-12T08:35:51.999Z</time></trkpt><trkpt lat="42.420521065399306" lon="12.201790168187708"><ele>731.5</ele><time>2026-04-12T08:35:52.999Z</time></trkpt><trkpt lat="42.42044987119079" lon="12.201848183335215"><ele>734.3333333333333</ele><time>2026-04-12T08:35:53.999Z</time></trkpt><trkpt lat="42.42039134602657" lon="12.201942072178515"><ele>737.1666666666666</ele><time>2026-04-12T08:35:54.999Z</time></trkpt><trkpt lat="42.42034894011687" lon="12.202005878482971"><ele>740.0</ele><time>2026-04-12T08:35:55.999Z</time></trkpt><trkpt lat="42.42027742197538" lon="12.202065547378398"><ele>743.5</ele><time>2026-04-12T08:35:57.999Z</time></trkpt><trkpt lat="42.420156833822496" lon="12.202109970125614"><ele>747.0</ele><time>2026-04-12T08:35:59.999Z</time></trkpt><trkpt lat="42.420048433378746" lon="12.20217333166333"><ele>750.5</ele><time>2026-04-12T08:36:01.999Z</time></trkpt><trkpt lat="42.41993618541463" lon="12.202215611131905"><ele>754.0</ele><time>2026-04-12T08:36:03.999Z</time></trkpt><trkpt lat="42.41985924859979" lon="12.202286004977221"><ele>756.1428571428571</ele><time>2026-04-12T08:36:05.999Z</time></trkpt><trkpt lat="42.41978898360954" lon="12.202336423925015"><ele>758.2857142857142</ele><time>2026-04-12T08:36:08.999Z</time></trkpt><trkpt lat="42.41971942450062" lon="12.202339637328263"><ele>760.4285714285713</ele><time>2026-04-12T08:36:10.999Z</time></trkpt><trkpt lat="42.4196743771924" lon="12.202402395131339"><ele>762.5714285714286</ele><time>2026-04-12T08:36:17.999Z</time></trkpt><trkpt lat="42.41963657831985" lon="12.202498401812107"><ele>764.7142857142858</ele><time>2026-04-12T08:36:23Z</time></trkpt><trkpt lat="42.419692114991726" lon="12.202564133978866"><ele>766.8571428571428</ele><time>2026-04-12T08:37:43.999Z</time></trkpt><trkpt lat="42.41974099691018" lon="12.202625138138304"><ele>769.0</ele><time>2026-04-12T08:38:16.999Z</time></trkpt><trkpt lat="42.419728332962556" lon="12.202710100058956"><ele>768.9999999999999</ele><time>2026-04-12T08:38:28Z</time></trkpt><trkpt lat="42.419767116365655" lon="12.202792962539531"><ele>769.0</ele><time>2026-04-12T08:38:36Z</time></trkpt><trkpt lat="42.41980004528928" lon="12.202874530796356"><ele>769.0</ele><time>2026-04-12T08:38:56Z</time></trkpt><trkpt lat="42.41982691804087" lon="12.202960077415911"><ele>769.0</ele><time>2026-04-12T08:39:02Z</time></trkpt><trkpt lat="42.41988954821118" lon="12.202978460448742"><ele>768.9999999999999</ele><time>2026-04-12T08:39:09Z</time></trkpt><trkpt lat="42.41999132988384" lon="12.202999323855394"><ele>769.0</ele><time>2026-04-12T08:39:35.999Z</time></trkpt><trkpt lat="42.41992221425513" lon="12.203042987688672"><ele>769.0</ele><time>2026-04-12T08:40:00.999Z</time></trkpt><trkpt lat="42.4198535492878" lon="12.20300894448245"><ele>769.0</ele><time>2026-04-12T08:40:03.999Z</time></trkpt><trkpt lat="42.41978203005832" lon="12.202969915921997"><ele>769.0</ele><time>2026-04-12T08:40:06.999Z</time></trkpt><trkpt lat="42.419731361328815" lon="12.202915367944582"><ele>769.0</ele><time>2026-04-12T08:40:10.999Z</time></trkpt><trkpt lat="42.41966115427324" lon="12.202879111846649"><ele>769.0</ele><time>2026-04-12T08:40:25.999Z</time></trkpt><trkpt lat="42.419611484861335" lon="12.202824723265698"><ele>769.0</ele><time>2026-04-12T08:40:44Z</time></trkpt><trkpt lat="42.419591792355554" lon="12.202735011932322"><ele>769.0</ele><time>2026-04-12T08:40:52Z</time></trkpt><trkpt lat="42.419557517960676" lon="12.202636993394805"><ele>770.1428571428571</ele><time>2026-04-12T08:40:57Z</time></trkpt><trkpt lat="42.41951025177012" lon="12.20257114729673"><ele>771.2857142857143</ele><time>2026-04-12T08:41:03Z</time></trkpt><trkpt lat="42.41947352247226" lon="12.202496664888733"><ele>772.4285714285714</ele><time>2026-04-12T08:41:32.999Z</time></trkpt><trkpt lat="42.4194495344096" lon="12.202417554323047"><ele>773.5714285714286</ele><time>2026-04-12T08:41:35.999Z</time></trkpt><trkpt lat="42.41938020090222" lon="12.202304103361863"><ele>774.7142857142858</ele><time>2026-04-12T08:41:45.999Z</time></trkpt><trkpt lat="42.41937919343757" lon="12.202213883301685"><ele>775.8571428571429</ele><time>2026-04-12T08:42:15.999Z</time></trkpt><trkpt lat="42.41931357546935" lon="12.202260437073026"><ele>777.0</ele><time>2026-04-12T08:42:26.999Z</time></trkpt><trkpt lat="42.41924873962034" lon="12.202210291446535"><ele>777.0</ele><time>2026-04-12T08:42:30.999Z</time></trkpt><trkpt lat="42.41918432153376" lon="12.202204395012814"><ele>777.0</ele><time>2026-04-12T08:42:32.999Z</time></trkpt><trkpt lat="42.419120363619314" lon="12.20219898669241"><ele>777.0</ele><time>2026-04-12T08:42:35.999Z</time></trkpt><trkpt lat="42.41905683894591" lon="12.202196898709344"><ele>777.0</ele><time>2026-04-12T08:42:40Z</time></trkpt><trkpt lat="42.41899292231417" lon="12.202151756139084"><ele>777.0</ele><time>2026-04-12T08:42:43Z</time></trkpt><trkpt lat="42.41892029339583" lon="12.202104843854764"><ele>777.0</ele><time>2026-04-12T08:43:01Z</time></trkpt><trkpt lat="42.41885038764943" lon="12.202081686146744"><ele>777.0</ele><time>2026-04-12T08:43:03Z</time></trkpt><trkpt lat="42.418780759006054" lon="12.202085115657182"><ele>777.0</ele><time>2026-04-12T08:43:05Z</time></trkpt><trkpt lat="42.41869469350405" lon="12.202047900448617"><ele>777.0</ele><time>2026-04-12T08:43:09Z</time></trkpt><trkpt lat="42.41872485201324" lon="12.20214972489226"><ele>777.0</ele><time>2026-04-12T08:43:14Z</time></trkpt><trkpt lat="42.41878388474582" lon="12.20220147110625"><ele>777.0</ele><time>2026-04-12T08:43:16Z</time></trkpt><trkpt lat="42.41883275443532" lon="12.202292996054162"><ele>777.0</ele><time>2026-04-12T08:43:19Z</time></trkpt><trkpt lat="42.41882653184669" lon="12.20239589673758"><ele>777.0</ele><time>2026-04-12T08:43:22Z</time></trkpt><trkpt lat="42.4188316895741" lon="12.202513692889912"><ele>784.7142857142857</ele><time>2026-04-12T08:43:25Z</time></trkpt><trkpt lat="42.41879607037726" lon="12.202589580324018"><ele>792.4285714285714</ele><time>2026-04-12T08:43:26.999Z</time></trkpt><trkpt lat="42.4187832683201" lon="12.202696818670486"><ele>800.1428571428571</ele><time>2026-04-12T08:43:33.999Z</time></trkpt><trkpt lat="42.41879247185832" lon="12.202813399848411"><ele>807.8571428571429</ele><time>2026-04-12T08:44:09.999Z</time></trkpt><trkpt lat="42.41874123740559" lon="12.202864658627048"><ele>815.5714285714286</ele><time>2026-04-12T08:44:12.999Z</time></trkpt><trkpt lat="42.418759282057124" lon="12.202958736562314"><ele>823.2857142857142</ele><time>2026-04-12T08:44:19.999Z</time></trkpt><trkpt lat="42.418793427536734" lon="12.203039813449097"><ele>831.0</ele><time>2026-04-12T08:44:23.999Z</time></trkpt><trkpt lat="42.41880985615117" lon="12.203135510391188"><ele>828.2857142857142</ele><time>2026-04-12T08:44:27.999Z</time></trkpt><trkpt lat="42.41883215664025" lon="12.20322672613894"><ele>825.5714285714286</ele><time>2026-04-12T08:44:32.999Z</time></trkpt><trkpt lat="42.418840679136345" lon="12.203319673996036"><ele>822.8571428571429</ele><time>2026-04-12T08:44:35.999Z</time></trkpt><trkpt lat="42.418858877624466" lon="12.203435414807569"><ele>820.1428571428571</ele><time>2026-04-12T08:44:56Z</time></trkpt><trkpt lat="42.418890075048445" lon="12.203520677585919"><ele>817.4285714285714</ele><time>2026-04-12T08:44:59Z</time></trkpt><trkpt lat="42.418903376219866" lon="12.203616401823021"><ele>814.7142857142857</ele><time>2026-04-12T08:45:02Z</time></trkpt><trkpt lat="42.418832658850114" lon="12.203653676189212"><ele>812.0</ele><time>2026-04-12T08:45:06Z</time></trkpt><trkpt lat="42.418766400149146" lon="12.203582387442593"><ele>818.3333333333334</ele><time>2026-04-12T08:45:09Z</time></trkpt><trkpt lat="42.41867346526711" lon="12.203550452441442"><ele>824.6666666666667</ele><time>2026-04-12T08:45:11Z</time></trkpt><trkpt lat="42.41860059707829" lon="12.203519608589238"><ele>831.0</ele><time>2026-04-12T08:45:13Z</time></trkpt><trkpt lat="42.418543635656874" lon="12.203477808583399"><ele>837.3333333333333</ele><time>2026-04-12T08:45:16Z</time></trkpt><trkpt lat="42.418481061277966" lon="12.203423151853588"><ele>843.6666666666666</ele><time>2026-04-12T08:45:23Z</time></trkpt><trkpt lat="42.41843502792706" lon="12.203342634766392"><ele>850.0</ele><time>2026-04-12T08:45:25Z</time></trkpt><trkpt lat="42.418396896763646" lon="12.20324450927118"><ele>847.2857142857142</ele><time>2026-04-12T08:45:27Z</time></trkpt><trkpt lat="42.41837213665259" lon="12.203161360066069"><ele>844.5714285714286</ele><time>2026-04-12T08:45:28.999Z</time></trkpt><trkpt lat="42.41834692263096" lon="12.203052322873276"><ele>841.8571428571429</ele><time>2026-04-12T08:45:31.999Z</time></trkpt><trkpt lat="42.418308792143414" lon="12.202971944677659"><ele>839.1428571428571</ele><time>2026-04-12T08:45:33.999Z</time></trkpt><trkpt lat="42.41826314979327" lon="12.202880703857504"><ele>836.4285714285714</ele><time>2026-04-12T08:45:37.999Z</time></trkpt><trkpt lat="42.418214676386405" lon="12.202819147251473"><ele>833.7142857142857</ele><time>2026-04-12T08:45:54.999Z</time></trkpt><trkpt lat="42.41819632172863" lon="12.202732917505585"><ele>831.0</ele><time>2026-04-12T08:46:01.999Z</time></trkpt><trkpt lat="42.418153425391644" lon="12.202605821305845"><ele>830.9999999999999</ele><time>2026-04-12T08:46:40.999Z</time></trkpt><trkpt lat="42.41809827071727" lon="12.202654470541228"><ele>831.0</ele><time>2026-04-12T08:46:46.998Z</time></trkpt><trkpt lat="42.4180711051196" lon="12.202733229712194"><ele>831.0</ele><time>2026-04-12T08:46:50Z</time></trkpt><trkpt lat="42.41800881253432" lon="12.202782204808939"><ele>831.0</ele><time>2026-04-12T08:46:53Z</time></trkpt><trkpt lat="42.4180680973252" lon="12.202840966801618"><ele>831.0</ele><time>2026-04-12T08:46:58Z</time></trkpt><trkpt lat="42.41806640884116" lon="12.202934260767764"><ele>830.9999999999999</ele><time>2026-04-12T08:47:03Z</time></trkpt><trkpt lat="42.41803440112145" lon="12.203046596694273"><ele>831.0</ele><time>2026-04-12T08:47:08Z</time></trkpt><trkpt lat="42.418037347262995" lon="12.203168743102532"><ele>833.7142857142857</ele><time>2026-04-12T08:47:11Z</time></trkpt><trkpt lat="42.418082086951244" lon="12.203253251483401"><ele>836.4285714285714</ele><time>2026-04-12T08:47:29.999Z</time></trkpt><trkpt lat="42.41809043360265" lon="12.203338715128659"><ele>839.1428571428571</ele><time>2026-04-12T08:47:41.999Z</time></trkpt><trkpt lat="42.41809905000184" lon="12.20343949187998"><ele>841.8571428571429</ele><time>2026-04-12T08:47:45.999Z</time></trkpt><trkpt lat="42.41811039461138" lon="12.203531476341556"><ele>844.5714285714286</ele><time>2026-04-12T08:47:47.999Z</time></trkpt><trkpt lat="42.41809580470416" lon="12.203629468254789"><ele>847.2857142857142</ele><time>2026-04-12T08:47:49.999Z</time></trkpt><trkpt lat="42.418078346711944" lon="12.20373625022805"><ele>850.0</ele><time>2026-04-12T08:47:51.999Z</time></trkpt><trkpt lat="42.41809601377264" lon="12.203832313403463"><ele>850.0</ele><time>2026-04-12T08:47:55.999Z</time></trkpt><trkpt lat="42.41810585278261" lon="12.203935991037287"><ele>850.0</ele><time>2026-04-12T08:47:57.999Z</time></trkpt><trkpt lat="42.41807222849416" lon="12.204028692096163"><ele>850.0</ele><time>2026-04-12T08:47:59.999Z</time></trkpt><trkpt lat="42.41804386499504" lon="12.204112698760317"><ele>850.0</ele><time>2026-04-12T08:48:01.999Z</time></trkpt><trkpt lat="42.41800154364046" lon="12.204178291454685"><ele>850.0</ele><time>2026-04-12T08:48:03.999Z</time></trkpt><trkpt lat="42.41793148829497" lon="12.204158983761317"><ele>850.0</ele><time>2026-04-12T08:48:05.999Z</time></trkpt><trkpt lat="42.41790457251941" lon="12.204245138098841"><ele>850.0</ele><time>2026-04-12T08:48:10.999Z</time></trkpt><trkpt lat="42.417816691295045" lon="12.20429143971256"><ele>854.4999999999999</ele><time>2026-04-12T08:48:13.999Z</time></trkpt><trkpt lat="42.4177681951816" lon="12.204382945410098"><ele>859.0</ele><time>2026-04-12T08:48:15.999Z</time></trkpt><trkpt lat="42.41769617258003" lon="12.204411607482651"><ele>863.5</ele><time>2026-04-12T08:48:17.999Z</time></trkpt><trkpt lat="42.41762871492622" lon="12.204482166823151"><ele>868.0</ele><time>2026-04-12T08:48:19.999Z</time></trkpt><trkpt lat="42.41754522814203" lon="12.20449254521165"><ele>872.4999999999999</ele><time>2026-04-12T08:48:21.999Z</time></trkpt><trkpt lat="42.417457528773895" lon="12.204469628499492"><ele>877.0</ele><time>2026-04-12T08:48:23.999Z</time></trkpt><trkpt lat="42.41738459806393" lon="12.204459743275471"><ele>876.9999999999999</ele><time>2026-04-12T08:48:26.999Z</time></trkpt><trkpt lat="42.41730922374434" lon="12.204406542842477"><ele>877.0</ele><time>2026-04-12T08:48:28.999Z</time></trkpt><trkpt lat="42.41722398838044" lon="12.204316559726351"><ele>877.0</ele><time>2026-04-12T08:48:30.999Z</time></trkpt><trkpt lat="42.417162052610806" lon="12.204245463361662"><ele>877.0</ele><time>2026-04-12T08:48:32.999Z</time></trkpt><trkpt lat="42.41709102771798" lon="12.204258435896568"><ele>876.9999999999999</ele><time>2026-04-12T08:48:34.999Z</time></trkpt><trkpt lat="42.417036518858296" lon="12.204312287625099"><ele>877.0</ele><time>2026-04-12T08:48:36.999Z</time></trkpt><trkpt lat="42.4169675244315" lon="12.204380780154258"><ele>878.3333333333333</ele><time>2026-04-12T08:48:38.999Z</time></trkpt><trkpt lat="42.416926626172796" lon="12.204462922286327"><ele>879.6666666666666</ele><time>2026-04-12T08:48:40.999Z</time></trkpt><trkpt lat="42.41688427400063" lon="12.204555746231941"><ele>881.0</ele><time>2026-04-12T08:48:42.999Z</time></trkpt><trkpt lat="42.41682031365615" lon="12.204633785663916"><ele>882.3333333333333</ele><time>2026-04-12T08:48:44.999Z</time></trkpt><trkpt lat="42.4167547730131" lon="12.204698649955196"><ele>883.6666666666666</ele><time>2026-04-12T08:48:46.998Z</time></trkpt><trkpt lat="42.416681183698074" lon="12.20476821988111"><ele>885.0</ele><time>2026-04-12T08:48:49.998Z</time></trkpt><trkpt lat="42.41661380400549" lon="12.20487608372495"><ele>885.0</ele><time>2026-04-12T08:48:52.998Z</time></trkpt><trkpt lat="42.41656618830929" lon="12.204937201364952"><ele>885.0</ele><time>2026-04-12T08:48:56Z</time></trkpt><trkpt lat="42.41650431735695" lon="12.204975527840725"><ele>885.0</ele><time>2026-04-12T08:48:59Z</time></trkpt><trkpt lat="42.41641313210161" lon="12.204993133189472"><ele>885.0</ele><time>2026-04-12T08:49:03Z</time></trkpt><trkpt lat="42.41633701422214" lon="12.205045042604626"><ele>885.0</ele><time>2026-04-12T08:49:06Z</time></trkpt><trkpt lat="42.416254201588856" lon="12.205029345530571"><ele>885.0</ele><time>2026-04-12T08:49:08Z</time></trkpt><trkpt lat="42.41621597564499" lon="12.20495404906921"><ele>888.0</ele><time>2026-04-12T08:49:10Z</time></trkpt><trkpt lat="42.416147261294654" lon="12.204932337240296"><ele>891.0</ele><time>2026-04-12T08:49:12Z</time></trkpt><trkpt lat="42.41608368308538" lon="12.20499009646712"><ele>894.0</ele><time>2026-04-12T08:49:14Z</time></trkpt><trkpt lat="42.416059837483914" lon="12.205075632586933"><ele>897.0</ele><time>2026-04-12T08:49:57.999Z</time></trkpt><trkpt lat="42.41609300471463" lon="12.205221975293892"><ele>900.0</ele><time>2026-04-12T08:49:59.999Z</time></trkpt><trkpt lat="42.41611615544893" lon="12.205312708589817"><ele>903.0</ele><time>2026-04-12T08:50:00.999Z</time></trkpt><trkpt lat="42.416147000456725" lon="12.205433553704657"><ele>903.0</ele><time>2026-04-12T08:50:01.999Z</time></trkpt><trkpt lat="42.41618761500265" lon="12.205580793612764"><ele>903.0</ele><time>2026-04-12T08:50:02.999Z</time></trkpt><trkpt lat="42.416226980988085" lon="12.205745680646274"><ele>903.0</ele><time>2026-04-12T08:50:03.999Z</time></trkpt><trkpt lat="42.416272078192826" lon="12.205918110311972"><ele>903.0</ele><time>2026-04-12T08:50:04.999Z</time></trkpt><trkpt lat="42.41630759750611" lon="12.206075880238219"><ele>898.5999999999999</ele><time>2026-04-12T08:50:05.999Z</time></trkpt><trkpt lat="42.416347043208965" lon="12.206219201458397"><ele>894.1999999999999</ele><time>2026-04-12T08:50:06.999Z</time></trkpt><trkpt lat="42.41638079344391" lon="12.206358511761035"><ele>889.8</ele><time>2026-04-12T08:50:07.999Z</time></trkpt><trkpt lat="42.41641097438688" lon="12.206482037975322"><ele>885.4</ele><time>2026-04-12T08:50:08.999Z</time></trkpt><trkpt lat="42.41642682264932" lon="12.20658056844869"><ele>881.0</ele><time>2026-04-12T08:50:09.999Z</time></trkpt><trkpt lat="42.41642034717851" lon="12.206710310109052"><ele>880.1999999999999</ele><time>2026-04-12T08:50:11.999Z</time></trkpt><trkpt lat="42.41647698736526" lon="12.206773952442763"><ele>879.3999999999999</ele><time>2026-04-12T08:50:40.999Z</time></trkpt><trkpt lat="42.41653870559451" lon="12.206896457845767"><ele>878.6</ele><time>2026-04-12T08:50:42.999Z</time></trkpt><trkpt lat="42.41656308794009" lon="12.207046626257304"><ele>877.8</ele><time>2026-04-12T08:50:43.999Z</time></trkpt><trkpt lat="42.41657075474601" lon="12.207230359696815"><ele>877.0</ele><time>2026-04-12T08:50:44.999Z</time></trkpt><trkpt lat="42.4165818026141" lon="12.207409480792705"><ele>876.0</ele><time>2026-04-12T08:50:45.999Z</time></trkpt><trkpt lat="42.41657100550842" lon="12.20758974373899"><ele>875.0</ele><time>2026-04-12T08:50:46.998Z</time></trkpt><trkpt lat="42.41654512779135" lon="12.207748279177803"><ele>874.0</ele><time>2026-04-12T08:50:47.998Z</time></trkpt><trkpt lat="42.4164892199823" lon="12.207900112061905"><ele>873.0</ele><time>2026-04-12T08:50:48.998Z</time></trkpt><trkpt lat="42.41640888853014" lon="12.20805714203528"><ele>876.75</ele><time>2026-04-12T08:50:49.998Z</time></trkpt><trkpt lat="42.41631803765779" lon="12.208201895975243"><ele>880.5</ele><time>2026-04-12T08:50:50.998Z</time></trkpt><trkpt lat="42.416235938057746" lon="12.208334186850148"><ele>884.25</ele><time>2026-04-12T08:50:51.998Z</time></trkpt><trkpt lat="42.41616995085478" lon="12.208454260288384"><ele>888.0</ele><time>2026-04-12T08:50:52.998Z</time></trkpt><trkpt lat="42.416150121670064" lon="12.208593977090167"><ele>888.0</ele><time>2026-04-12T08:50:53.998Z</time></trkpt><trkpt lat="42.416159418316155" lon="12.208751792486225"><ele>888.0</ele><time>2026-04-12T08:50:54.998Z</time></trkpt><trkpt lat="42.416199483913886" lon="12.208926621292427"><ele>888.0</ele><time>2026-04-12T08:50:55.998Z</time></trkpt><trkpt lat="42.41627365262158" lon="12.209104864887788"><ele>888.0</ele><time>2026-04-12T08:50:56.998Z</time></trkpt><trkpt lat="42.416349842818626" lon="12.20928733830288"><ele>881.0</ele><time>2026-04-12T08:50:57.998Z</time></trkpt><trkpt lat="42.416410819290576" lon="12.209474237463501"><ele>874.0</ele><time>2026-04-12T08:50:58.998Z</time></trkpt><trkpt lat="42.41647317458035" lon="12.209663745739597"><ele>867.0</ele><time>2026-04-12T08:50:59.998Z</time></trkpt><trkpt lat="42.41652307533115" lon="12.209832850316158"><ele>860.0</ele><time>2026-04-12T08:51:00.998Z</time></trkpt><trkpt lat="42.41659043327459" lon="12.20999208657386"><ele>860.0</ele><time>2026-04-12T08:51:01.999Z</time></trkpt><trkpt lat="42.416650679263064" lon="12.210143824388377"><ele>860.0</ele><time>2026-04-12T08:51:02.999Z</time></trkpt><trkpt lat="42.41670184103255" lon="12.210283172490287"><ele>860.0</ele><time>2026-04-12T08:51:03.999Z</time></trkpt><trkpt lat="42.4167529618133" lon="12.21041823115912"><ele>860.0</ele><time>2026-04-12T08:51:04.999Z</time></trkpt><trkpt lat="42.41679658452543" lon="12.210546649006403"><ele>859.8</ele><time>2026-04-12T08:51:05.999Z</time></trkpt><trkpt lat="42.41683606388806" lon="12.210672061679436"><ele>859.6</ele><time>2026-04-12T08:51:06.999Z</time></trkpt><trkpt lat="42.416872838579884" lon="12.210798841800829"><ele>859.4000000000001</ele><time>2026-04-12T08:51:07.999Z</time></trkpt><trkpt lat="42.416897613475136" lon="12.210920391341508"><ele>859.2</ele><time>2026-04-12T08:51:08.999Z</time></trkpt><trkpt lat="42.41689354339737" lon="12.211043060068857"><ele>859.0</ele><time>2026-04-12T08:51:09.999Z</time></trkpt><trkpt lat="42.41686400543657" lon="12.211143969631856"><ele>859.0</ele><time>2026-04-12T08:51:10.999Z</time></trkpt><trkpt lat="42.41680889974297" lon="12.211219170314303"><ele>859.0000000000001</ele><time>2026-04-12T08:51:11.999Z</time></trkpt><trkpt lat="42.41674968719111" lon="12.21128662226654"><ele>859.0000000000001</ele><time>2026-04-12T08:51:12.999Z</time></trkpt><trkpt lat="42.41667225308271" lon="12.211347324737"><ele>859.0</ele><time>2026-04-12T08:51:13.999Z</time></trkpt><trkpt lat="42.41658094320783" lon="12.21139469278685"><ele>859.0</ele><time>2026-04-12T08:51:14.999Z</time></trkpt><trkpt lat="42.416472773651755" lon="12.211419084673047"><ele>859.0</ele><time>2026-04-12T08:51:15.999Z</time></trkpt><trkpt lat="42.416358185688686" lon="12.211420844000186"><ele>859.0</ele><time>2026-04-12T08:51:16.999Z</time></trkpt><trkpt lat="42.41624430438917" lon="12.211403045158457"><ele>859.0</ele><time>2026-04-12T08:51:17.999Z</time></trkpt><trkpt lat="42.41612790565186" lon="12.211384498474517"><ele>859.0</ele><time>2026-04-12T08:51:18.999Z</time></trkpt><trkpt lat="42.41600932256968" lon="12.211369717728104"><ele>861.0</ele><time>2026-04-12T08:51:19.999Z</time></trkpt><trkpt lat="42.41589007990875" lon="12.211356623516773"><ele>863.0</ele><time>2026-04-12T08:51:20.999Z</time></trkpt><trkpt lat="42.415770128062526" lon="12.211346069755475"><ele>865.0</ele><time>2026-04-12T08:51:21.999Z</time></trkpt><trkpt lat="42.41565070516359" lon="12.2113323179573"><ele>867.0</ele><time>2026-04-12T08:51:22.999Z</time></trkpt><trkpt lat="42.41553484782259" lon="12.211312448439937"><ele>862.75</ele><time>2026-04-12T08:51:23.999Z</time></trkpt><trkpt lat="42.41541833621568" lon="12.211291719323265"><ele>858.5</ele><time>2026-04-12T08:51:24.999Z</time></trkpt><trkpt lat="42.415312476229744" lon="12.211266888211863"><ele>854.25</ele><time>2026-04-12T08:51:25.999Z</time></trkpt><trkpt lat="42.415209522721916" lon="12.211206517224948"><ele>850.0</ele><time>2026-04-12T08:51:26.999Z</time></trkpt><trkpt lat="42.41510856100125" lon="12.211124771586476"><ele>849.9999999999999</ele><time>2026-04-12T08:51:27.999Z</time></trkpt><trkpt lat="42.41501630297066" lon="12.211043814806303"><ele>850.0</ele><time>2026-04-12T08:51:28.999Z</time></trkpt><trkpt lat="42.41493457266379" lon="12.210978421023759"><ele>850.0</ele><time>2026-04-12T08:51:29.999Z</time></trkpt><trkpt lat="42.41486488554912" lon="12.210925941942374"><ele>850.0</ele><time>2026-04-12T08:51:30.999Z</time></trkpt><trkpt lat="42.41478980635786" lon="12.2108810876617"><ele>849.9999999999999</ele><time>2026-04-12T08:51:31.999Z</time></trkpt><trkpt lat="42.414720094321886" lon="12.210851532068256"><ele>850.0</ele><time>2026-04-12T08:51:32.999Z</time></trkpt><trkpt lat="42.41464834639244" lon="12.210855672222841"><ele>849.8333333333333</ele><time>2026-04-12T08:51:33.999Z</time></trkpt><trkpt lat="42.41458662928103" lon="12.210902483720927"><ele>849.6666666666666</ele><time>2026-04-12T08:51:34.999Z</time></trkpt><trkpt lat="42.414532863096724" lon="12.210994172900763"><ele>849.5</ele><time>2026-04-12T08:51:35.999Z</time></trkpt><trkpt lat="42.414506907131525" lon="12.21110673601306"><ele>849.3333333333333</ele><time>2026-04-12T08:51:36.999Z</time></trkpt><trkpt lat="42.414511534110915" lon="12.211230769636703"><ele>849.1666666666666</ele><time>2026-04-12T08:51:37.999Z</time></trkpt><trkpt lat="42.41453963303074" lon="12.211365361599867"><ele>849.0</ele><time>2026-04-12T08:51:38.999Z</time></trkpt><trkpt lat="42.41457219353256" lon="12.211505127755624"><ele>849.0</ele><time>2026-04-12T08:51:39.999Z</time></trkpt><trkpt lat="42.414602570449475" lon="12.211650836908442"><ele>849.0</ele><time>2026-04-12T08:51:40.999Z</time></trkpt><trkpt lat="42.41463486515186" lon="12.21181023845849"><ele>849.0</ele><time>2026-04-12T08:51:41.999Z</time></trkpt><trkpt lat="42.41466952553176" lon="12.211984728469195"><ele>849.0</ele><time>2026-04-12T08:51:42.999Z</time></trkpt><trkpt lat="42.414701170046605" lon="12.212159855591754"><ele>840.25</ele><time>2026-04-12T08:51:43.999Z</time></trkpt><trkpt lat="42.414734488715744" lon="12.212351507229952"><ele>831.5</ele><time>2026-04-12T08:51:44.999Z</time></trkpt><trkpt lat="42.414769064181044" lon="12.212550240132744"><ele>822.75</ele><time>2026-04-12T08:51:45.999Z</time></trkpt><trkpt lat="42.41480645296803" lon="12.21273692650992"><ele>814.0</ele><time>2026-04-12T08:51:46.999Z</time></trkpt><trkpt lat="42.41483875981221" lon="12.212905619979846"><ele>814.0</ele><time>2026-04-12T08:51:47.999Z</time></trkpt><trkpt lat="42.414860783693996" lon="12.213048912737737"><ele>814.0</ele><time>2026-04-12T08:51:48.999Z</time></trkpt><trkpt lat="42.414865710531714" lon="12.213168247606038"><ele>814.0</ele><time>2026-04-12T08:51:49.999Z</time></trkpt><trkpt lat="42.414825676460055" lon="12.213272959958642"><ele>814.0</ele><time>2026-04-12T08:51:50.999Z</time></trkpt><trkpt lat="42.414756740603366" lon="12.213353619834491"><ele>814.0</ele><time>2026-04-12T08:51:51.999Z</time></trkpt><trkpt lat="42.41466582910962" lon="12.21338808824711"><ele>815.0</ele><time>2026-04-12T08:51:52.999Z</time></trkpt><trkpt lat="42.41456282973086" lon="12.21339459366494"><ele>816.0</ele><time>2026-04-12T08:51:53.999Z</time></trkpt><trkpt lat="42.41445605688708" lon="12.21339399403999"><ele>817.0</ele><time>2026-04-12T08:51:54.999Z</time></trkpt><trkpt lat="42.41434925919632" lon="12.213402462993027"><ele>818.0</ele><time>2026-04-12T08:51:55.999Z</time></trkpt><trkpt lat="42.4142447686077" lon="12.213412383388325"><ele>819.0</ele><time>2026-04-12T08:51:56.999Z</time></trkpt><trkpt lat="42.41413853607431" lon="12.213420974977828"><ele>819.0</ele><time>2026-04-12T08:51:57.999Z</time></trkpt><trkpt lat="42.41403136825521" lon="12.213438251292638"><ele>819.0</ele><time>2026-04-12T08:51:58.999Z</time></trkpt><trkpt lat="42.413929798492255" lon="12.213503731578319"><ele>819.0</ele><time>2026-04-12T08:51:59.999Z</time></trkpt><trkpt lat="42.413841210427655" lon="12.213613523589457"><ele>819.0</ele><time>2026-04-12T08:52:00.999Z</time></trkpt><trkpt lat="42.413772818416525" lon="12.213750873335394"><ele>816.25</ele><time>2026-04-12T08:52:01.999Z</time></trkpt><trkpt lat="42.413717683419" lon="12.2138962652866"><ele>813.5</ele><time>2026-04-12T08:52:02.999Z</time></trkpt><trkpt lat="42.4136577293981" lon="12.214026381325425"><ele>810.75</ele><time>2026-04-12T08:52:03.999Z</time></trkpt><trkpt lat="42.41357618417776" lon="12.214129555660499"><ele>808.0</ele><time>2026-04-12T08:52:04.999Z</time></trkpt><trkpt lat="42.41347904795847" lon="12.214199256094302"><ele>808.0</ele><time>2026-04-12T08:52:05.999Z</time></trkpt><trkpt lat="42.413378276118465" lon="12.214254879069399"><ele>808.0</ele><time>2026-04-12T08:52:06.999Z</time></trkpt><trkpt lat="42.41328003862523" lon="12.214303093478136"><ele>808.0</ele><time>2026-04-12T08:52:07.999Z</time></trkpt><trkpt lat="42.413186057943996" lon="12.214358248348205"><ele>808.0</ele><time>2026-04-12T08:52:08.999Z</time></trkpt><trkpt lat="42.413116286468245" lon="12.214439074270482"><ele>808.0</ele><time>2026-04-12T08:52:09.999Z</time></trkpt><trkpt lat="42.413082920918484" lon="12.21454817134918"><ele>808.0</ele><time>2026-04-12T08:52:10.999Z</time></trkpt><trkpt lat="42.41309379472222" lon="12.214676974474889"><ele>808.0</ele><time>2026-04-12T08:52:11.999Z</time></trkpt><trkpt lat="42.41313266825158" lon="12.21482886096206"><ele>808.0</ele><time>2026-04-12T08:52:12.999Z</time></trkpt><trkpt lat="42.41318443383289" lon="12.214985671529137"><ele>808.0</ele><time>2026-04-12T08:52:13.999Z</time></trkpt><trkpt lat="42.413235222223896" lon="12.215148123226486"><ele>804.75</ele><time>2026-04-12T08:52:14.999Z</time></trkpt><trkpt lat="42.41328076828144" lon="12.21531724490098"><ele>801.5</ele><time>2026-04-12T08:52:15.999Z</time></trkpt><trkpt lat="42.413330127096216" lon="12.215484898966196"><ele>798.25</ele><time>2026-04-12T08:52:16.999Z</time></trkpt><trkpt lat="42.41337658751139" lon="12.215645324111854"><ele>795.0</ele><time>2026-04-12T08:52:17.999Z</time></trkpt><trkpt lat="42.413422791370955" lon="12.215800703336539"><ele>794.6</ele><time>2026-04-12T08:52:18.999Z</time></trkpt><trkpt lat="42.41346202675618" lon="12.215948676337408"><ele>794.2</ele><time>2026-04-12T08:52:19.999Z</time></trkpt><trkpt lat="42.41349296629888" lon="12.216094628503555"><ele>793.8</ele><time>2026-04-12T08:52:20.999Z</time></trkpt><trkpt lat="42.41350278125543" lon="12.21623843204069"><ele>793.4</ele><time>2026-04-12T08:52:21.999Z</time></trkpt><trkpt lat="42.41348898567815" lon="12.21637096887002"><ele>793.0</ele><time>2026-04-12T08:52:22.999Z</time></trkpt><trkpt lat="42.41345002949433" lon="12.216494742855629"><ele>790.5999999999999</ele><time>2026-04-12T08:52:23.999Z</time></trkpt><trkpt lat="42.4134021681988" lon="12.21660095312812"><ele>788.1999999999999</ele><time>2026-04-12T08:52:24.999Z</time></trkpt><trkpt lat="42.41334251319727" lon="12.216694499004761"><ele>785.8</ele><time>2026-04-12T08:52:25.999Z</time></trkpt><trkpt lat="42.41326824293102" lon="12.216772877019858"><ele>783.4</ele><time>2026-04-12T08:52:26.999Z</time></trkpt><trkpt lat="42.41317934943698" lon="12.216835310917295"><ele>781.0</ele><time>2026-04-12T08:52:27.999Z</time></trkpt><trkpt lat="42.4130755225585" lon="12.21688294988823"><ele>784.25</ele><time>2026-04-12T08:52:28.999Z</time></trkpt><trkpt lat="42.412973803884" lon="12.216938334440725"><ele>787.5</ele><time>2026-04-12T08:52:29.999Z</time></trkpt><trkpt lat="42.412873073607365" lon="12.21699626425663"><ele>790.75</ele><time>2026-04-12T08:52:30.999Z</time></trkpt><trkpt lat="42.41276724832464" lon="12.217056831544905"><ele>794.0</ele><time>2026-04-12T08:52:31.999Z</time></trkpt><trkpt lat="42.41265785397159" lon="12.217109257628124"><ele>794.0</ele><time>2026-04-12T08:52:32.999Z</time></trkpt><trkpt lat="42.412545491087506" lon="12.217163375514119"><ele>794.0</ele><time>2026-04-12T08:52:33.999Z</time></trkpt><trkpt lat="42.412435948544385" lon="12.217234804212538"><ele>794.0</ele><time>2026-04-12T08:52:34.999Z</time></trkpt><trkpt lat="42.41233336793339" lon="12.2173431234964"><ele>794.0</ele><time>2026-04-12T08:52:35.999Z</time></trkpt><trkpt lat="42.41224585783249" lon="12.217460422971266"><ele>790.6</ele><time>2026-04-12T08:52:36.999Z</time></trkpt><trkpt lat="42.41217649742594" lon="12.217575501068517"><ele>787.2</ele><time>2026-04-12T08:52:37.999Z</time></trkpt><trkpt lat="42.412118224968154" lon="12.217692054965614"><ele>783.8000000000001</ele><time>2026-04-12T08:52:38.999Z</time></trkpt><trkpt lat="42.41206867745056" lon="12.217813780529756"><ele>780.4000000000001</ele><time>2026-04-12T08:52:39.998Z</time></trkpt><trkpt lat="42.41201863833043" lon="12.217938417610858"><ele>777.0</ele><time>2026-04-12T08:52:40.998Z</time></trkpt><trkpt lat="42.41195634231997" lon="12.218045573132647"><ele>777.0</ele><time>2026-04-12T08:52:41.998Z</time></trkpt><trkpt lat="42.41185730590827" lon="12.218109309302186"><ele>777.0</ele><time>2026-04-12T08:52:42.998Z</time></trkpt><trkpt lat="42.4117535712534" lon="12.218168222421438"><ele>777.0</ele><time>2026-04-12T08:52:43.998Z</time></trkpt><trkpt lat="42.41164361206267" lon="12.218194538883111"><ele>777.0</ele><time>2026-04-12T08:52:44.998Z</time></trkpt><trkpt lat="42.41153874415916" lon="12.218186372082478"><ele>777.0</ele><time>2026-04-12T08:52:45.998Z</time></trkpt><trkpt lat="42.41143219379626" lon="12.218146786193696"><ele>777.0</ele><time>2026-04-12T08:52:46.998Z</time></trkpt><trkpt lat="42.41133858601772" lon="12.218081249496686"><ele>777.0</ele><time>2026-04-12T08:52:47.998Z</time></trkpt><trkpt lat="42.4112779666505" lon="12.218023903742278"><ele>777.0</ele><time>2026-04-12T08:52:48.998Z</time></trkpt><trkpt lat="42.41118785590286" lon="12.217962807702358"><ele>777.0</ele><time>2026-04-12T08:52:50.998Z</time></trkpt><trkpt lat="42.41114358315486" lon="12.217890001249119"><ele>777.0</ele><time>2026-04-12T08:52:54.998Z</time></trkpt><trkpt lat="42.41108080688386" lon="12.217845011628574"><ele>777.0</ele><time>2026-04-12T08:53:01.998Z</time></trkpt><trkpt lat="42.41097207430283" lon="12.217776075851754"><ele>775.0</ele><time>2026-04-12T08:53:03.998Z</time></trkpt><trkpt lat="42.41090015445416" lon="12.21777449868797"><ele>773.0</ele><time>2026-04-12T08:53:04.998Z</time></trkpt><trkpt lat="42.41081466499738" lon="12.217770184155286"><ele>771.0</ele><time>2026-04-12T08:53:05.998Z</time></trkpt><trkpt lat="42.410730515054475" lon="12.217764990705188"><ele>769.0</ele><time>2026-04-12T08:53:06.998Z</time></trkpt><trkpt lat="42.410644653306505" lon="12.217795634267768"><ele>767.0</ele><time>2026-04-12T08:53:07.999Z</time></trkpt><trkpt lat="42.41055967221164" lon="12.21782475932197"><ele>765.0</ele><time>2026-04-12T08:53:08.999Z</time></trkpt><trkpt lat="42.41047256963593" lon="12.217844750166835"><ele>765.0</ele><time>2026-04-12T08:53:09.999Z</time></trkpt><trkpt lat="42.4103804828692" lon="12.217853440580589"><ele>765.0</ele><time>2026-04-12T08:53:10.999Z</time></trkpt><trkpt lat="42.410289051236816" lon="12.217851663795972"><ele>765.0</ele><time>2026-04-12T08:53:11.999Z</time></trkpt><trkpt lat="42.41019980543962" lon="12.21783899704616"><ele>765.0</ele><time>2026-04-12T08:53:12.999Z</time></trkpt><trkpt lat="42.41012424672665" lon="12.217816881475906"><ele>765.0</ele><time>2026-04-12T08:53:13.999Z</time></trkpt><trkpt lat="42.410055067874765" lon="12.217794338873333"><ele>765.0</ele><time>2026-04-12T08:53:14.999Z</time></trkpt><trkpt lat="42.40998202726774" lon="12.2177690491858"><ele>765.0</ele><time>2026-04-12T08:53:15.999Z</time></trkpt><trkpt lat="42.40990793141133" lon="12.217749485655972"><ele>765.0</ele><time>2026-04-12T08:53:16.999Z</time></trkpt><trkpt lat="42.40983035879173" lon="12.21774158662167"><ele>765.0</ele><time>2026-04-12T08:53:17.999Z</time></trkpt><trkpt lat="42.40974168665833" lon="12.217774817186069"><ele>765.0</ele><time>2026-04-12T08:53:18.999Z</time></trkpt><trkpt lat="42.40965800598741" lon="12.217850024568731"><ele>765.0</ele><time>2026-04-12T08:53:19.999Z</time></trkpt><trkpt lat="42.40958958477108" lon="12.217972676757052"><ele>763.0</ele><time>2026-04-12T08:53:20.999Z</time></trkpt><trkpt lat="42.40950819995565" lon="12.21809241959653"><ele>761.0</ele><time>2026-04-12T08:53:21.999Z</time></trkpt><trkpt lat="42.409436026959234" lon="12.218207556809457"><ele>759.0</ele><time>2026-04-12T08:53:22.999Z</time></trkpt><trkpt lat="42.40934150177564" lon="12.218319065254699"><ele>757.0</ele><time>2026-04-12T08:53:23.999Z</time></trkpt><trkpt lat="42.40925518634342" lon="12.218450809887084"><ele>757.0</ele><time>2026-04-12T08:53:24.999Z</time></trkpt><trkpt lat="42.40917013814911" lon="12.21858374689901"><ele>757.0</ele><time>2026-04-12T08:53:25.999Z</time></trkpt><trkpt lat="42.40909710031143" lon="12.218695514285152"><ele>757.0</ele><time>2026-04-12T08:53:26.999Z</time></trkpt><trkpt lat="42.40903243711251" lon="12.218783276706386"><ele>757.0</ele><time>2026-04-12T08:53:27.999Z</time></trkpt><trkpt lat="42.40896949418171" lon="12.218859300594836"><ele>757.0</ele><time>2026-04-12T08:53:28.999Z</time></trkpt><trkpt lat="42.4088863075577" lon="12.218893347413061"><ele>758.4000000000001</ele><time>2026-04-12T08:53:29.999Z</time></trkpt><trkpt lat="42.40879521745062" lon="12.218852670934128"><ele>759.8000000000001</ele><time>2026-04-12T08:53:30.999Z</time></trkpt><trkpt lat="42.408706141978655" lon="12.218819488922463"><ele>761.2</ele><time>2026-04-12T08:53:31.999Z</time></trkpt><trkpt lat="42.40861079514526" lon="12.21878688865792"><ele>762.6</ele><time>2026-04-12T08:53:32.999Z</time></trkpt><trkpt lat="42.408518959637185" lon="12.21876792409878"><ele>764.0</ele><time>2026-04-12T08:53:33.999Z</time></trkpt><trkpt lat="42.40841670284724" lon="12.21876209646308"><ele>764.0</ele><time>2026-04-12T08:53:35.999Z</time></trkpt><trkpt lat="42.408327497829816" lon="12.218769078313972"><ele>764.0</ele><time>2026-04-12T08:53:37.999Z</time></trkpt><trkpt lat="42.408203108570774" lon="12.218792024793457"><ele>764.0</ele><time>2026-04-12T08:53:39.999Z</time></trkpt><trkpt lat="42.40808716776072" lon="12.218819593775894"><ele>764.0</ele><time>2026-04-12T08:53:41.999Z</time></trkpt><trkpt lat="42.408020725464674" lon="12.218852066597991"><ele>764.0</ele><time>2026-04-12T08:53:42.999Z</time></trkpt><trkpt lat="42.4079565832313" lon="12.218868891870688"><ele>764.6</ele><time>2026-04-12T08:53:43.999Z</time></trkpt><trkpt lat="42.40783981407111" lon="12.218895287459052"><ele>765.2</ele><time>2026-04-12T08:53:45.999Z</time></trkpt><trkpt lat="42.40771338773449" lon="12.218918795292007"><ele>765.8000000000001</ele><time>2026-04-12T08:53:47.999Z</time></trkpt><trkpt lat="42.40765010390355" lon="12.218964106394761"><ele>766.4000000000001</ele><time>2026-04-12T08:53:48.999Z</time></trkpt><trkpt lat="42.40759003818951" lon="12.219050658489511"><ele>767.0</ele><time>2026-04-12T08:53:49.999Z</time></trkpt><trkpt lat="42.407568201493014" lon="12.219189729693076"><ele>764.75</ele><time>2026-04-12T08:53:50.999Z</time></trkpt><trkpt lat="42.4075629081835" lon="12.219342465551067"><ele>762.5</ele><time>2026-04-12T08:53:51.999Z</time></trkpt><trkpt lat="42.40758765507311" lon="12.219520805242473"><ele>760.25</ele><time>2026-04-12T08:53:52.999Z</time></trkpt><trkpt lat="42.407628217391036" lon="12.219715788421295"><ele>758.0</ele><time>2026-04-12T08:53:53.999Z</time></trkpt><trkpt lat="42.40766649817983" lon="12.219920524927225"><ele>758.0</ele><time>2026-04-12T08:53:54.999Z</time></trkpt><trkpt lat="42.407710061967" lon="12.22011716216787"><ele>758.0</ele><time>2026-04-12T08:53:55.999Z</time></trkpt><trkpt lat="42.40773927469283" lon="12.220313753112185"><ele>758.0</ele><time>2026-04-12T08:53:56.999Z</time></trkpt><trkpt lat="42.40777907876617" lon="12.220496635707143"><ele>758.0</ele><time>2026-04-12T08:53:57.999Z</time></trkpt><trkpt lat="42.4078049713445" lon="12.220647476417394"><ele>757.0</ele><time>2026-04-12T08:53:58.999Z</time></trkpt><trkpt lat="42.407821145730736" lon="12.220781020453366"><ele>756.0</ele><time>2026-04-12T08:53:59.999Z</time></trkpt><trkpt lat="42.40776311195749" lon="12.220919005503152"><ele>755.0</ele><time>2026-04-12T08:54:00.999Z</time></trkpt><trkpt lat="42.40768662990818" lon="12.22104832614426"><ele>754.0</ele><time>2026-04-12T08:54:01.999Z</time></trkpt><trkpt lat="42.40760589972491" lon="12.221203158030594"><ele>754.0</ele><time>2026-04-12T08:54:02.999Z</time></trkpt><trkpt lat="42.40752095564097" lon="12.221367408607716"><ele>754.0</ele><time>2026-04-12T08:54:03.999Z</time></trkpt><trkpt lat="42.40743650521526" lon="12.221535510961496"><ele>754.0</ele><time>2026-04-12T08:54:04.999Z</time></trkpt><trkpt lat="42.40735082464228" lon="12.221704267769148"><ele>754.0</ele><time>2026-04-12T08:54:05.999Z</time></trkpt><trkpt lat="42.407276153458525" lon="12.221850147227299"><ele>756.0</ele><time>2026-04-12T08:54:06.999Z</time></trkpt><trkpt lat="42.40719902962861" lon="12.221982829180288"><ele>758.0</ele><time>2026-04-12T08:54:07.999Z</time></trkpt><trkpt lat="42.40710746083585" lon="12.22209369343956"><ele>760.0</ele><time>2026-04-12T08:54:08.999Z</time></trkpt><trkpt lat="42.40699720994302" lon="12.222174126497197"><ele>762.0</ele><time>2026-04-12T08:54:09.999Z</time></trkpt><trkpt lat="42.40690093333733" lon="12.22222525515921"><ele>762.0</ele><time>2026-04-12T08:54:10.999Z</time></trkpt><trkpt lat="42.406788815917004" lon="12.222280577267185"><ele>762.0</ele><time>2026-04-12T08:54:11.999Z</time></trkpt><trkpt lat="42.406664908689194" lon="12.2223442959132"><ele>762.0</ele><time>2026-04-12T08:54:12.999Z</time></trkpt><trkpt lat="42.40657144847405" lon="12.222397963161999"><ele>762.0</ele><time>2026-04-12T08:54:13.999Z</time></trkpt><trkpt lat="42.40651828670684" lon="12.22245117436947"><ele>762.0</ele><time>2026-04-12T08:54:14.999Z</time></trkpt><trkpt lat="42.40644636875315" lon="12.222486381098427"><ele>762.0</ele><time>2026-04-12T08:54:16.999Z</time></trkpt><trkpt lat="42.40637952977936" lon="12.222474103389716"><ele>762.0</ele><time>2026-04-12T08:54:20.999Z</time></trkpt><trkpt lat="42.40627615725391" lon="12.222236206110635"><ele>762.0</ele><time>2026-04-12T08:54:24.999Z</time></trkpt><trkpt lat="42.406268704648234" lon="12.222133963170162"><ele>762.0</ele><time>2026-04-12T08:54:26.999Z</time></trkpt><trkpt lat="42.40631430661715" lon="12.222032708305784"><ele>762.0</ele><time>2026-04-12T08:54:28.999Z</time></trkpt><trkpt lat="42.406352317483275" lon="12.221885619683885"><ele>762.0</ele><time>2026-04-12T08:54:30.999Z</time></trkpt><trkpt lat="42.40638034925249" lon="12.221785822117209"><ele>762.0</ele><time>2026-04-12T08:54:32.999Z</time></trkpt><trkpt lat="42.406422435613024" lon="12.221715270624566"><ele>762.0</ele><time>2026-04-12T08:54:35.999Z</time></trkpt><trkpt lat="42.40646446302122" lon="12.221580737294936"><ele>762.0</ele><time>2026-04-12T08:54:38.999Z</time></trkpt><trkpt lat="42.40652893601837" lon="12.221500741830358"><ele>762.0</ele><time>2026-04-12T08:54:40.999Z</time></trkpt><trkpt lat="42.40660222021806" lon="12.221402663211064"><ele>762.0</ele><time>2026-04-12T08:54:42.999Z</time></trkpt><trkpt lat="42.406657069255274" lon="12.221311252539875"><ele>765.8</ele><time>2026-04-12T08:54:44.999Z</time></trkpt><trkpt lat="42.406718108381796" lon="12.221210588249495"><ele>769.6</ele><time>2026-04-12T08:54:46.998Z</time></trkpt><trkpt lat="42.40676272663607" lon="12.221101096135392"><ele>773.4</ele><time>2026-04-12T08:54:48.998Z</time></trkpt><trkpt lat="42.40682510604307" lon="12.22093003411717"><ele>777.1999999999999</ele><time>2026-04-12T08:54:50.998Z</time></trkpt><trkpt lat="42.40686598808393" lon="12.220837175953154"><ele>781.0</ele><time>2026-04-12T08:54:51.998Z</time></trkpt><trkpt lat="42.4069221697798" lon="12.220688759334957"><ele>783.3333333333333</ele><time>2026-04-12T08:54:53.998Z</time></trkpt><trkpt lat="42.406960355916404" lon="12.22060039432687"><ele>785.6666666666666</ele><time>2026-04-12T08:54:54.998Z</time></trkpt><trkpt lat="42.40698829237776" lon="12.220500755147949"><ele>788.0</ele><time>2026-04-12T08:54:55.998Z</time></trkpt><trkpt lat="42.40703499493655" lon="12.22039866978241"><ele>790.3333333333333</ele><time>2026-04-12T08:54:56.998Z</time></trkpt><trkpt lat="42.407060543575376" lon="12.220296143404783"><ele>792.6666666666666</ele><time>2026-04-12T08:54:57.998Z</time></trkpt><trkpt lat="42.407079938928085" lon="12.220164321312605"><ele>795.0</ele><time>2026-04-12T08:54:59.998Z</time></trkpt><trkpt lat="42.40705661560434" lon="12.22001627891342"><ele>795.0</ele><time>2026-04-12T08:55:01.998Z</time></trkpt><trkpt lat="42.407036951937386" lon="12.219928568261029"><ele>795.0</ele><time>2026-04-12T08:55:02.998Z</time></trkpt><trkpt lat="42.40697085039285" lon="12.219778664609423"><ele>795.0</ele><time>2026-04-12T08:55:04.998Z</time></trkpt><trkpt lat="42.4069444490672" lon="12.21968606512053"><ele>795.0</ele><time>2026-04-12T08:55:05.998Z</time></trkpt><trkpt lat="42.4069164409107" lon="12.21958636336382"><ele>795.0</ele><time>2026-04-12T08:55:06.998Z</time></trkpt><trkpt lat="42.406898443817255" lon="12.219486837474918"><ele>795.0</ele><time>2026-04-12T08:55:07.998Z</time></trkpt><trkpt lat="42.40688104463664" lon="12.219380110017477"><ele>795.6</ele><time>2026-04-12T08:55:08.998Z</time></trkpt><trkpt lat="42.40685101437685" lon="12.219289732410575"><ele>796.2</ele><time>2026-04-12T08:55:09.998Z</time></trkpt><trkpt lat="42.40682372432936" lon="12.219204927074268"><ele>796.8</ele><time>2026-04-12T08:55:10.998Z</time></trkpt><trkpt lat="42.40675705383135" lon="12.219076589872838"><ele>797.4</ele><time>2026-04-12T08:55:12.998Z</time></trkpt><trkpt lat="42.40667306532595" lon="12.21899684981618"><ele>798.0</ele><time>2026-04-12T08:55:14.999Z</time></trkpt><trkpt lat="42.40659532236181" lon="12.21889804620811"><ele>798.8</ele><time>2026-04-12T08:55:16.999Z</time></trkpt><trkpt lat="42.40655325215434" lon="12.218768001075645"><ele>799.5999999999999</ele><time>2026-04-12T08:55:18.999Z</time></trkpt><trkpt lat="42.40652988526572" lon="12.21866760730224"><ele>800.4000000000001</ele><time>2026-04-12T08:55:19.999Z</time></trkpt><trkpt lat="42.40651789109167" lon="12.218522696500614"><ele>801.2</ele><time>2026-04-12T08:55:20.999Z</time></trkpt><trkpt lat="42.40651495215232" lon="12.218375548390384"><ele>802.0</ele><time>2026-04-12T08:55:21.999Z</time></trkpt><trkpt lat="42.406531310270815" lon="12.21827522973526"><ele>802.0</ele><time>2026-04-12T08:55:22.999Z</time></trkpt><trkpt lat="42.40655198933921" lon="12.218178467102327"><ele>802.0</ele><time>2026-04-12T08:55:23.999Z</time></trkpt><trkpt lat="42.40655926697562" lon="12.218040896756627"><ele>802.0</ele><time>2026-04-12T08:55:24.999Z</time></trkpt><trkpt lat="42.40654620341983" lon="12.217872600937952"><ele>802.0</ele><time>2026-04-12T08:55:25.999Z</time></trkpt><trkpt lat="42.4065633822902" lon="12.21774399520441"><ele>802.0</ele><time>2026-04-12T08:55:26.999Z</time></trkpt><trkpt lat="42.40660923378556" lon="12.217640372336989"><ele>803.9999999999999</ele><time>2026-04-12T08:55:27.999Z</time></trkpt><trkpt lat="42.406666100339244" lon="12.21752313268639"><ele>806.0</ele><time>2026-04-12T08:55:28.999Z</time></trkpt><trkpt lat="42.40670188220683" lon="12.217439322756553"><ele>808.0</ele><time>2026-04-12T08:55:29.999Z</time></trkpt><trkpt lat="42.40672394198851" lon="12.217341848621667"><ele>810.0</ele><time>2026-04-12T08:55:30.999Z</time></trkpt><trkpt lat="42.4067490255527" lon="12.217229251006117"><ele>811.9999999999999</ele><time>2026-04-12T08:55:31.999Z</time></trkpt><trkpt lat="42.40676769276855" lon="12.21713382083878"><ele>814.0</ele><time>2026-04-12T08:55:32.999Z</time></trkpt><trkpt lat="42.40678691204339" lon="12.217041101353455"><ele>815.9999999999999</ele><time>2026-04-12T08:55:33.999Z</time></trkpt><trkpt lat="42.406819000887594" lon="12.21692916978208"><ele>818.0</ele><time>2026-04-12T08:55:35.999Z</time></trkpt><trkpt lat="42.406802039051165" lon="12.216802465666474"><ele>820.0</ele><time>2026-04-12T08:55:37.999Z</time></trkpt><trkpt lat="42.40681396451022" lon="12.216709569517347"><ele>822.0</ele><time>2026-04-12T08:55:38.999Z</time></trkpt><trkpt lat="42.40682447040016" lon="12.216591710961195"><ele>823.9999999999999</ele><time>2026-04-12T08:55:39.999Z</time></trkpt><trkpt lat="42.4068562291173" lon="12.216483050365424"><ele>826.0</ele><time>2026-04-12T08:55:40.999Z</time></trkpt><trkpt lat="42.4068725208037" lon="12.216380708467183"><ele>828.4</ele><time>2026-04-12T08:55:41.999Z</time></trkpt><trkpt lat="42.406887746233096" lon="12.216288997376846"><ele>830.8</ele><time>2026-04-12T08:55:42.999Z</time></trkpt><trkpt lat="42.406868886538135" lon="12.216140677578199"><ele>833.1999999999999</ele><time>2026-04-12T08:55:44.999Z</time></trkpt><trkpt lat="42.406849636890925" lon="12.216006204374446"><ele>835.5999999999999</ele><time>2026-04-12T08:55:46.999Z</time></trkpt><trkpt lat="42.40680581801079" lon="12.215910970364398"><ele>838.0</ele><time>2026-04-12T08:55:48.999Z</time></trkpt><trkpt lat="42.406745310916456" lon="12.215811548222202"><ele>838.0</ele><time>2026-04-12T08:55:50.999Z</time></trkpt><trkpt lat="42.40670246869932" lon="12.215692886401321"><ele>838.0</ele><time>2026-04-12T08:55:52.999Z</time></trkpt><trkpt lat="42.406668401023516" lon="12.215559946948014"><ele>838.0</ele><time>2026-04-12T08:55:54.999Z</time></trkpt><trkpt lat="42.40662195216696" lon="12.215442438526726"><ele>838.0</ele><time>2026-04-12T08:55:56.999Z</time></trkpt><trkpt lat="42.406587923739245" lon="12.215348533291088"><ele>838.0</ele><time>2026-04-12T08:55:58.999Z</time></trkpt><trkpt lat="42.406533679276976" lon="12.21520612058064"><ele>840.5999999999999</ele><time>2026-04-12T08:56:00.999Z</time></trkpt><trkpt lat="42.40652709596779" lon="12.215091795619845"><ele>843.1999999999999</ele><time>2026-04-12T08:56:02.999Z</time></trkpt><trkpt lat="42.40651584577818" lon="12.21497029856855"><ele>845.8</ele><time>2026-04-12T08:56:04.999Z</time></trkpt><trkpt lat="42.40652733864793" lon="12.214828604971414"><ele>848.4</ele><time>2026-04-12T08:56:06.999Z</time></trkpt><trkpt lat="42.406528662066904" lon="12.214703956777063"><ele>851.0</ele><time>2026-04-12T08:56:08.999Z</time></trkpt><trkpt lat="42.406499770884324" lon="12.21458770106412"><ele>853.6666666666667</ele><time>2026-04-12T08:56:10.999Z</time></trkpt><trkpt lat="42.40648576415407" lon="12.214483268679544"><ele>856.3333333333334</ele><time>2026-04-12T08:56:12.999Z</time></trkpt><trkpt lat="42.40645611026343" lon="12.214373568380234"><ele>859.0</ele><time>2026-04-12T08:56:14.999Z</time></trkpt><trkpt lat="42.406469817850606" lon="12.214256030594525"><ele>861.6666666666667</ele><time>2026-04-12T08:56:16.999Z</time></trkpt><trkpt lat="42.406421645707304" lon="12.214173383953936"><ele>864.3333333333334</ele><time>2026-04-12T08:56:19.999Z</time></trkpt><trkpt lat="42.40644721534676" lon="12.214068378632536"><ele>867.0</ele><time>2026-04-12T08:56:21.999Z</time></trkpt><trkpt lat="42.40642469183942" lon="12.213957657434726"><ele>870.0</ele><time>2026-04-12T08:56:23.999Z</time></trkpt><trkpt lat="42.40639919047048" lon="12.213873399810351"><ele>873.0</ele><time>2026-04-12T08:56:24.999Z</time></trkpt><trkpt lat="42.40639992777621" lon="12.213761677674547"><ele>876.0</ele><time>2026-04-12T08:56:26.999Z</time></trkpt><trkpt lat="42.4063306097232" lon="12.213661329966152"><ele>879.0</ele><time>2026-04-12T08:56:28.999Z</time></trkpt><trkpt lat="42.40637361517422" lon="12.21352346631498"><ele>882.0</ele><time>2026-04-12T08:56:31.999Z</time></trkpt><trkpt lat="42.40642078409323" lon="12.213460150033326"><ele>885.0</ele><time>2026-04-12T08:56:32.999Z</time></trkpt><trkpt lat="42.40645001412465" lon="12.213314756112805"><ele>885.0</ele><time>2026-04-12T08:56:34.999Z</time></trkpt><trkpt lat="42.40651452338967" lon="12.21318534775747"><ele>885.0</ele><time>2026-04-12T08:56:36.999Z</time></trkpt><trkpt lat="42.40654863754318" lon="12.213108364366274"><ele>885.0</ele><time>2026-04-12T08:56:37.999Z</time></trkpt><trkpt lat="42.40657755792183" lon="12.213020239452664"><ele>885.0</ele><time>2026-04-12T08:56:38.999Z</time></trkpt><trkpt lat="42.40662217073342" lon="12.212870240476496"><ele>885.0</ele><time>2026-04-12T08:56:40.999Z</time></trkpt><trkpt lat="42.406683743267614" lon="12.212764921496225"><ele>888.3333333333334</ele><time>2026-04-12T08:56:42.999Z</time></trkpt><trkpt lat="42.40671801166648" lon="12.212665480681197"><ele>891.6666666666667</ele><time>2026-04-12T08:56:44.999Z</time></trkpt><trkpt lat="42.406674105414695" lon="12.212594264931184"><ele>895.0</ele><time>2026-04-12T08:56:46.999Z</time></trkpt><trkpt lat="42.406649909633934" lon="12.21247135334312"><ele>898.3333333333334</ele><time>2026-04-12T08:56:48.999Z</time></trkpt><trkpt lat="42.40674320389105" lon="12.212421109022154"><ele>901.6666666666667</ele><time>2026-04-12T08:56:50.999Z</time></trkpt><trkpt lat="42.40681216656153" lon="12.212335232428059"><ele>905.0</ele><time>2026-04-12T08:56:52.999Z</time></trkpt><trkpt lat="42.40683970746142" lon="12.212229101805768"><ele>907.8333333333334</ele><time>2026-04-12T08:56:55.999Z</time></trkpt><trkpt lat="42.40687769248229" lon="12.21213780604413"><ele>910.6666666666667</ele><time>2026-04-12T08:57:07.998Z</time></trkpt><trkpt lat="42.40693342945598" lon="12.21207069293502"><ele>913.5</ele><time>2026-04-12T08:57:09.998Z</time></trkpt><trkpt lat="42.406970036018876" lon="12.211950952760048"><ele>916.3333333333333</ele><time>2026-04-12T08:57:11.998Z</time></trkpt><trkpt lat="42.40699068556283" lon="12.211869136907135"><ele>919.1666666666666</ele><time>2026-04-12T08:57:13.998Z</time></trkpt><trkpt lat="42.40699826183459" lon="12.211723913649038"><ele>922.0</ele><time>2026-04-12T08:57:15.998Z</time></trkpt><trkpt lat="42.40696864914126" lon="12.211595600964156"><ele>922.0</ele><time>2026-04-12T08:57:17.998Z</time></trkpt><trkpt lat="42.40698216205022" lon="12.211497135103185"><ele>922.0</ele><time>2026-04-12T08:57:20Z</time></trkpt><trkpt lat="42.4069956084418" lon="12.211369741171175"><ele>922.0</ele><time>2026-04-12T08:57:22Z</time></trkpt><trkpt lat="42.4069447951172" lon="12.21120643500077"><ele>922.0</ele><time>2026-04-12T08:57:24Z</time></trkpt><trkpt lat="42.406911930488555" lon="12.21109048677261"><ele>922.0</ele><time>2026-04-12T08:57:25Z</time></trkpt><trkpt lat="42.40688558546882" lon="12.210999254037867"><ele>924.75</ele><time>2026-04-12T08:57:26Z</time></trkpt><trkpt lat="42.407051416851814" lon="12.21075400049711"><ele>927.5</ele><time>2026-04-12T08:58:43.999Z</time></trkpt><trkpt lat="42.40708126220193" lon="12.210670222522545"><ele>930.25</ele><time>2026-04-12T08:58:44.999Z</time></trkpt><trkpt lat="42.40710953699724" lon="12.21055328518692"><ele>933.0</ele><time>2026-04-12T08:58:45.999Z</time></trkpt><trkpt lat="42.40711819197739" lon="12.21046313394788"><ele>934.6666666666666</ele><time>2026-04-12T08:58:46.999Z</time></trkpt><trkpt lat="42.40715974936779" lon="12.210379150849468"><ele>936.3333333333333</ele><time>2026-04-12T08:58:48.999Z</time></trkpt><trkpt lat="42.407197046500535" lon="12.21024826368138"><ele>938.0</ele><time>2026-04-12T08:58:50.999Z</time></trkpt><trkpt lat="42.407224921383964" lon="12.210164280666527"><ele>939.6666666666666</ele><time>2026-04-12T08:58:51.999Z</time></trkpt><trkpt lat="42.407258197391926" lon="12.210061243022452"><ele>941.3333333333333</ele><time>2026-04-12T08:58:52.999Z</time></trkpt><trkpt lat="42.40732961767954" lon="12.209983380119553"><ele>943.0</ele><time>2026-04-12T08:58:53.999Z</time></trkpt><trkpt lat="42.40739952055659" lon="12.209928643265695"><ele>945.4999999999999</ele><time>2026-04-12T08:58:54.999Z</time></trkpt><trkpt lat="42.407463434577174" lon="12.209883745782337"><ele>948.0</ele><time>2026-04-12T08:58:55.999Z</time></trkpt><trkpt lat="42.40749798687835" lon="12.209769363675315"><ele>950.5</ele><time>2026-04-12T08:58:56.999Z</time></trkpt><trkpt lat="42.407527055820914" lon="12.209636995954563"><ele>953.0</ele><time>2026-04-12T08:58:57.999Z</time></trkpt><trkpt lat="42.40754415701981" lon="12.209544665650629"><ele>955.4999999999999</ele><time>2026-04-12T08:58:58.999Z</time></trkpt><trkpt lat="42.407482604408415" lon="12.20942214184216"><ele>958.0</ele><time>2026-04-12T08:59:00.999Z</time></trkpt><trkpt lat="42.40765715456193" lon="12.209463451196779"><ele>958.0</ele><time>2026-04-12T08:59:11.999Z</time></trkpt><trkpt lat="42.40771298462612" lon="12.20962764522123"><ele>958.0</ele><time>2026-04-12T08:59:13.999Z</time></trkpt><trkpt lat="42.40773368732023" lon="12.209734074323476"><ele>958.0</ele><time>2026-04-12T08:59:14.999Z</time></trkpt><trkpt lat="42.40775089912362" lon="12.209824533041054"><ele>958.0</ele><time>2026-04-12T08:59:15.999Z</time></trkpt><trkpt lat="42.40776937338185" lon="12.209911137320503"><ele>958.0</ele><time>2026-04-12T08:59:16.999Z</time></trkpt><trkpt lat="42.407838288686314" lon="12.210032610769693"><ele>958.0</ele><time>2026-04-12T08:59:18.999Z</time></trkpt><trkpt lat="42.40791992481582" lon="12.21015740513583"><ele>958.0</ele><time>2026-04-12T08:59:20.998Z</time></trkpt><trkpt lat="42.40799023045651" lon="12.210205679366291"><ele>958.0</ele><time>2026-04-12T08:59:22.998Z</time></trkpt><trkpt lat="42.40811122786972" lon="12.210284542919547"><ele>958.0</ele><time>2026-04-12T08:59:26Z</time></trkpt><trkpt lat="42.40821030148714" lon="12.210367871628346"><ele>963.75</ele><time>2026-04-12T08:59:28Z</time></trkpt><trkpt lat="42.40827363137616" lon="12.210400120274109"><ele>969.5</ele><time>2026-04-12T08:59:29Z</time></trkpt><trkpt lat="42.40835482836478" lon="12.210394576512854"><ele>975.25</ele><time>2026-04-12T08:59:30Z</time></trkpt><trkpt lat="42.40842317650336" lon="12.210413885497273"><ele>981.0</ele><time>2026-04-12T08:59:31Z</time></trkpt><trkpt lat="42.408654151699544" lon="12.21043789388006"><ele>981.0</ele><time>2026-04-12T08:59:57.999Z</time></trkpt><trkpt lat="42.40877335670965" lon="12.210433969879038"><ele>980.9999999999999</ele><time>2026-04-12T08:59:59.999Z</time></trkpt><trkpt lat="42.40889246795274" lon="12.210425121786896"><ele>980.9999999999999</ele><time>2026-04-12T09:00:01.999Z</time></trkpt><trkpt lat="42.40896308272848" lon="12.210422106349169"><ele>981.0</ele><time>2026-04-12T09:00:02.999Z</time></trkpt><trkpt lat="42.409027353316965" lon="12.21042016458574"><ele>981.0</ele><time>2026-04-12T09:00:03.999Z</time></trkpt><trkpt lat="42.40914377293493" lon="12.210424540314989"><ele>982.5999999999999</ele><time>2026-04-12T09:00:05.999Z</time></trkpt><trkpt lat="42.409281440986184" lon="12.210470886655814"><ele>984.1999999999999</ele><time>2026-04-12T09:00:07.999Z</time></trkpt><trkpt lat="42.409342535566694" lon="12.21049603994849"><ele>985.8000000000001</ele><time>2026-04-12T09:00:08.999Z</time></trkpt><trkpt lat="42.40945236529353" lon="12.210513079951156"><ele>987.4000000000001</ele><time>2026-04-12T09:00:10.999Z</time></trkpt><trkpt lat="42.4095293469221" lon="12.210504244037534"><ele>989.0</ele><time>2026-04-12T09:00:11.999Z</time></trkpt><trkpt lat="42.40964076923186" lon="12.210449052083836"><ele>988.1666666666667</ele><time>2026-04-12T09:00:13.999Z</time></trkpt><trkpt lat="42.40972726426352" lon="12.21042191995578"><ele>987.3333333333334</ele><time>2026-04-12T09:00:15.999Z</time></trkpt><trkpt lat="42.40980128184483" lon="12.210356754936848"><ele>986.5</ele><time>2026-04-12T09:00:17.999Z</time></trkpt><trkpt lat="42.40984766291956" lon="12.210289511900536"><ele>985.6666666666667</ele><time>2026-04-12T09:00:19.999Z</time></trkpt><trkpt lat="42.40987499243202" lon="12.210203848037427"><ele>984.8333333333334</ele><time>2026-04-12T09:00:21.999Z</time></trkpt><trkpt lat="42.40991626957296" lon="12.210092826919048"><ele>984.0</ele><time>2026-04-12T09:00:23.999Z</time></trkpt><trkpt lat="42.40998942623723" lon="12.210113052269868"><ele>984.0</ele><time>2026-04-12T09:00:25.999Z</time></trkpt><trkpt lat="42.41002439992736" lon="12.210200557061853"><ele>984.0</ele><time>2026-04-12T09:00:27.999Z</time></trkpt><trkpt lat="42.41020083748959" lon="12.210146830930917"><ele>984.0</ele><time>2026-04-12T09:00:35Z</time></trkpt><trkpt lat="42.410361597798904" lon="12.210049045582297"><ele>984.0</ele><time>2026-04-12T09:00:44Z</time></trkpt><trkpt lat="42.41038910147775" lon="12.209952559295937"><ele>984.0</ele><time>2026-04-12T09:00:46Z</time></trkpt><trkpt lat="42.4104188974159" lon="12.209860530649744"><ele>984.0</ele><time>2026-04-12T09:00:49Z</time></trkpt><trkpt lat="42.41049890740539" lon="12.209810219880636"><ele>984.0</ele><time>2026-04-12T09:00:51Z</time></trkpt><trkpt lat="42.41056984510853" lon="12.209744199428977"><ele>984.0</ele><time>2026-04-12T09:00:52Z</time></trkpt><trkpt lat="42.41062798301162" lon="12.209666783812473"><ele>984.0</ele><time>2026-04-12T09:00:53Z</time></trkpt><trkpt lat="42.41069176997834" lon="12.20957701506241"><ele>984.0</ele><time>2026-04-12T09:00:55Z</time></trkpt><trkpt lat="42.41077750237866" lon="12.209511609969606"><ele>980.8000000000001</ele><time>2026-04-12T09:00:58Z</time></trkpt><trkpt lat="42.41085396624572" lon="12.209564300137238"><ele>977.6000000000001</ele><time>2026-04-12T09:01:01Z</time></trkpt><trkpt lat="42.41081875704447" lon="12.209385783993179"><ele>974.4</ele><time>2026-04-12T09:01:02Z</time></trkpt><trkpt lat="42.41093888176249" lon="12.209384616263206"><ele>971.2</ele><time>2026-04-12T09:01:09Z</time></trkpt><trkpt lat="42.41098277718489" lon="12.209290295323619"><ele>968.0</ele><time>2026-04-12T09:01:11Z</time></trkpt><trkpt lat="42.41099848496922" lon="12.209184407827331"><ele>968.0000000000001</ele><time>2026-04-12T09:01:13Z</time></trkpt><trkpt lat="42.411039407101505" lon="12.209093333799801"><ele>968.0</ele><time>2026-04-12T09:01:15Z</time></trkpt><trkpt lat="42.41107638042893" lon="12.209022831885031"><ele>968.0</ele><time>2026-04-12T09:01:18Z</time></trkpt><trkpt lat="42.411124829507344" lon="12.208939612730111"><ele>968.0</ele><time>2026-04-12T09:01:19.999Z</time></trkpt><trkpt lat="42.41117450308466" lon="12.208838345774799"><ele>968.0000000000001</ele><time>2026-04-12T09:01:21.999Z</time></trkpt><trkpt lat="42.41121087829623" lon="12.208742488812709"><ele>968.0</ele><time>2026-04-12T09:01:22.999Z</time></trkpt><trkpt lat="42.411261325634804" lon="12.208670170710397"><ele>969.0</ele><time>2026-04-12T09:01:24.999Z</time></trkpt><trkpt lat="42.41130054722383" lon="12.208596643865949"><ele>970.0</ele><time>2026-04-12T09:01:27.999Z</time></trkpt><trkpt lat="42.41136630010909" lon="12.208486845191711"><ele>971.0</ele><time>2026-04-12T09:01:29.999Z</time></trkpt><trkpt lat="42.41140006964955" lon="12.208379347374315"><ele>972.0</ele><time>2026-04-12T09:01:33.001Z</time></trkpt><trkpt lat="42.411431747641245" lon="12.20825004172309"><ele>973.0</ele><time>2026-04-12T09:01:37.001Z</time></trkpt><trkpt lat="42.41150003822584" lon="12.20811645542053"><ele>972.9999999999999</ele><time>2026-04-12T09:01:39.001Z</time></trkpt><trkpt lat="42.41153719346803" lon="12.208033398521813"><ele>973.0</ele><time>2026-04-12T09:01:40.001Z</time></trkpt><trkpt lat="42.41160253714357" lon="12.20798927509137"><ele>973.0</ele><time>2026-04-12T09:01:41.001Z</time></trkpt><trkpt lat="42.41167109574865" lon="12.207943653463635"><ele>973.0</ele><time>2026-04-12T09:01:43.001Z</time></trkpt><trkpt lat="42.41174618042566" lon="12.207831417063558"><ele>972.9999999999999</ele><time>2026-04-12T09:01:46.001Z</time></trkpt><trkpt lat="42.411831184654844" lon="12.207765461509235"><ele>973.0</ele><time>2026-04-12T09:01:48.001Z</time></trkpt><trkpt lat="42.411882908306566" lon="12.207702419452643"><ele>972.9999999999999</ele><time>2026-04-12T09:01:51.001Z</time></trkpt><trkpt lat="42.411954455938705" lon="12.207565391560891"><ele>973.0</ele><time>2026-04-12T09:01:54.001Z</time></trkpt><trkpt lat="42.412015323115824" lon="12.207463602295775"><ele>973.0</ele><time>2026-04-12T09:01:56Z</time></trkpt><trkpt lat="42.41207298718742" lon="12.207400915256345"><ele>973.0</ele><time>2026-04-12T09:01:58Z</time></trkpt><trkpt lat="42.412114962487216" lon="12.207325043146968"><ele>972.9999999999999</ele><time>2026-04-12T09:02:01Z</time></trkpt><trkpt lat="42.41217269031499" lon="12.207261426435716"><ele>973.0</ele><time>2026-04-12T09:02:03Z</time></trkpt><trkpt lat="42.412215507677814" lon="12.207192740876577"><ele>969.2</ele><time>2026-04-12T09:02:05Z</time></trkpt><trkpt lat="42.41225191548278" lon="12.20702019541218"><ele>965.4</ele><time>2026-04-12T09:02:07Z</time></trkpt><trkpt lat="42.41229464760145" lon="12.206845489712203"><ele>961.6000000000001</ele><time>2026-04-12T09:02:09Z</time></trkpt><trkpt lat="42.41231133103034" lon="12.206733213543101"><ele>957.8000000000001</ele><time>2026-04-12T09:02:11Z</time></trkpt><trkpt lat="42.412295171440846" lon="12.206636627952783"><ele>954.0</ele><time>2026-04-12T09:02:13Z</time></trkpt><trkpt lat="42.41226230688407" lon="12.206497017905173"><ele>957.5</ele><time>2026-04-12T09:02:15Z</time></trkpt><trkpt lat="42.41227403115937" lon="12.206412002647163"><ele>961.0</ele><time>2026-04-12T09:02:16Z</time></trkpt><trkpt lat="42.41229413401844" lon="12.206327472266759"><ele>964.5</ele><time>2026-04-12T09:02:17Z</time></trkpt><trkpt lat="42.41229552865537" lon="12.20621085710459"><ele>968.0</ele><time>2026-04-12T09:02:20Z</time></trkpt><trkpt lat="42.41237642674044" lon="12.206167371323211"><ele>971.5</ele><time>2026-04-12T09:02:23Z</time></trkpt><trkpt lat="42.41243627815021" lon="12.20608931599387"><ele>975.0</ele><time>2026-04-12T09:02:26Z</time></trkpt><trkpt lat="42.41249804305764" lon="12.206049499383282"><ele>975.0</ele><time>2026-04-12T09:02:27Z</time></trkpt><trkpt lat="42.41259513134651" lon="12.206008995602248"><ele>975.0</ele><time>2026-04-12T09:02:29Z</time></trkpt><trkpt lat="42.412666843327884" lon="12.205943393162983"><ele>975.0</ele><time>2026-04-12T09:02:31Z</time></trkpt><trkpt lat="42.4127512876372" lon="12.205907540397334"><ele>975.0</ele><time>2026-04-12T09:02:33Z</time></trkpt><trkpt lat="42.41285627651731" lon="12.205872318945428"><ele>975.0</ele><time>2026-04-12T09:02:35Z</time></trkpt><trkpt lat="42.41293529737675" lon="12.205863784301146"><ele>973.8333333333334</ele><time>2026-04-12T09:02:37Z</time></trkpt><trkpt lat="42.41303420206328" lon="12.205820201409653"><ele>972.6666666666667</ele><time>2026-04-12T09:02:39Z</time></trkpt><trkpt lat="42.41310236343327" lon="12.205758553955812"><ele>971.5</ele><time>2026-04-12T09:02:42Z</time></trkpt><trkpt lat="42.413165343436674" lon="12.205746084596667"><ele>970.3333333333334</ele><time>2026-04-12T09:02:44Z</time></trkpt><trkpt lat="42.41322144780253" lon="12.205702742789157"><ele>969.1666666666667</ele><time>2026-04-12T09:02:46Z</time></trkpt><trkpt lat="42.41326583960961" lon="12.205633947276858"><ele>968.0</ele><time>2026-04-12T09:02:49Z</time></trkpt><trkpt lat="42.413371520944274" lon="12.205630767054819"><ele>968.0000000000001</ele><time>2026-04-12T09:02:53Z</time></trkpt><trkpt lat="42.4134544624551" lon="12.20559549297602"><ele>968.0</ele><time>2026-04-12T09:02:56Z</time></trkpt><trkpt lat="42.41352225986704" lon="12.205652343318254"><ele>968.0</ele><time>2026-04-12T09:02:58Z</time></trkpt><trkpt lat="42.413599401844905" lon="12.205718484853975"><ele>968.0</ele><time>2026-04-12T09:03:00Z</time></trkpt><trkpt lat="42.41364191856515" lon="12.205803376216947"><ele>968.0000000000001</ele><time>2026-04-12T09:03:02Z</time></trkpt><trkpt lat="42.413744700661205" lon="12.205846089516852"><ele>968.0</ele><time>2026-04-12T09:03:04Z</time></trkpt><trkpt lat="42.41384162139744" lon="12.205868154393407"><ele>964.0000000000001</ele><time>2026-04-12T09:03:06Z</time></trkpt><trkpt lat="42.41389949365754" lon="12.205976709753374"><ele>960.0</ele><time>2026-04-12T09:03:08Z</time></trkpt><trkpt lat="42.41394640826289" lon="12.206046617555245"><ele>956.0</ele><time>2026-04-12T09:03:09Z</time></trkpt><trkpt lat="42.4140113800733" lon="12.206149650687479"><ele>952.0</ele><time>2026-04-12T09:03:11Z</time></trkpt><trkpt lat="42.414051563179875" lon="12.20626451729845"><ele>948.0000000000001</ele><time>2026-04-12T09:03:13Z</time></trkpt><trkpt lat="42.414115796207284" lon="12.206329866238852"><ele>944.0</ele><time>2026-04-12T09:03:16Z</time></trkpt><trkpt lat="42.41423139698494" lon="12.206408791624623"><ele>944.0</ele><time>2026-04-12T09:03:17.999Z</time></trkpt><trkpt lat="42.41430930386117" lon="12.206442094883414"><ele>944.0000000000001</ele><time>2026-04-12T09:03:18.999Z</time></trkpt><trkpt lat="42.41438156632498" lon="12.206496599484087"><ele>944.0000000000001</ele><time>2026-04-12T09:03:20.999Z</time></trkpt><trkpt lat="42.414467440354564" lon="12.206560918599834"><ele>944.0</ele><time>2026-04-12T09:03:22.999Z</time></trkpt><trkpt lat="42.414557436233046" lon="12.206616503173912"><ele>944.0</ele><time>2026-04-12T09:03:24.999Z</time></trkpt><trkpt lat="42.414643568502456" lon="12.206720134051896"><ele>939.5</ele><time>2026-04-12T09:03:26.999Z</time></trkpt><trkpt lat="42.41472798017201" lon="12.206832255054014"><ele>935.0</ele><time>2026-04-12T09:03:28.999Z</time></trkpt><trkpt lat="42.41491125442545" lon="12.206919566852038"><ele>930.5</ele><time>2026-04-12T09:03:50.001Z</time></trkpt><trkpt lat="42.414972534750014" lon="12.20695144739068"><ele>926.0</ele><time>2026-04-12T09:03:51.001Z</time></trkpt><trkpt lat="42.41506444457228" lon="12.207013250907165"><ele>926.0</ele><time>2026-04-12T09:03:53Z</time></trkpt><trkpt lat="42.41512578717925" lon="12.207058949311625"><ele>925.9999999999999</ele><time>2026-04-12T09:03:55Z</time></trkpt><trkpt lat="42.41514758620258" lon="12.207167370012332"><ele>925.9999999999999</ele><time>2026-04-12T09:03:57Z</time></trkpt><trkpt lat="42.415303344093864" lon="12.207124103729416"><ele>926.0</ele><time>2026-04-12T09:04:00Z</time></trkpt><trkpt lat="42.41534085777859" lon="12.207204062205555"><ele>926.0</ele><time>2026-04-12T09:04:03Z</time></trkpt><trkpt lat="42.41545499392768" lon="12.207227347104162"><ele>922.7142857142857</ele><time>2026-04-12T09:04:06Z</time></trkpt><trkpt lat="42.415512102352494" lon="12.207264956139174"><ele>919.4285714285713</ele><time>2026-04-12T09:04:10Z</time></trkpt><trkpt lat="42.41557134596985" lon="12.20734001560312"><ele>916.1428571428571</ele><time>2026-04-12T09:04:14Z</time></trkpt><trkpt lat="42.41564501468192" lon="12.207396249721299"><ele>912.8571428571429</ele><time>2026-04-12T09:04:17Z</time></trkpt><trkpt lat="42.41566006413648" lon="12.207487511581409"><ele>909.5714285714286</ele><time>2026-04-12T09:04:20Z</time></trkpt><trkpt lat="42.415733437288" lon="12.207465920213064"><ele>906.2857142857142</ele><time>2026-04-12T09:04:23Z</time></trkpt><trkpt lat="42.41580470342449" lon="12.207430124750152"><ele>903.0</ele><time>2026-04-12T09:04:26Z</time></trkpt><trkpt lat="42.41586040333391" lon="12.207382424132273"><ele>903.0</ele><time>2026-04-12T09:04:29Z</time></trkpt><trkpt lat="42.415924833033806" lon="12.207330023900369"><ele>903.0</ele><time>2026-04-12T09:04:32Z</time></trkpt><trkpt lat="42.415986034916905" lon="12.20723451704795"><ele>903.0</ele><time>2026-04-12T09:04:35Z</time></trkpt><trkpt lat="42.41603725946958" lon="12.207149693897302"><ele>903.0</ele><time>2026-04-12T09:04:37Z</time></trkpt><trkpt lat="42.41607134236861" lon="12.207049484017828"><ele>903.0</ele><time>2026-04-12T09:04:39Z</time></trkpt><trkpt lat="42.41612063130241" lon="12.206929029412768"><ele>903.0</ele><time>2026-04-12T09:04:41Z</time></trkpt><trkpt lat="42.416207572575736" lon="12.20685937427292"><ele>903.0</ele><time>2026-04-12T09:04:43Z</time></trkpt><trkpt lat="42.416304942331074" lon="12.206741307013598"><ele>903.0</ele><time>2026-04-12T09:04:45Z</time></trkpt><trkpt lat="42.416388315855556" lon="12.206947573738416"><ele>903.0</ele><time>2026-04-12T09:05:09Z</time></trkpt><trkpt lat="42.41636134093979" lon="12.207056623401552"><ele>903.0</ele><time>2026-04-12T09:05:10Z</time></trkpt><trkpt lat="42.41632418514043" lon="12.207202280112208"><ele>902.5999999999999</ele><time>2026-04-12T09:05:11Z</time></trkpt><trkpt lat="42.41628274865112" lon="12.207343769196173"><ele>902.1999999999999</ele><time>2026-04-12T09:05:12Z</time></trkpt><trkpt lat="42.416239017303184" lon="12.207496530566424"><ele>901.8</ele><time>2026-04-12T09:05:12.999Z</time></trkpt><trkpt lat="42.416206248051154" lon="12.207647544758133"><ele>901.4</ele><time>2026-04-12T09:05:13.999Z</time></trkpt><trkpt lat="42.41616941368098" lon="12.207745292486765"><ele>901.0</ele><time>2026-04-12T09:05:14.999Z</time></trkpt><trkpt lat="42.41611901918118" lon="12.207837126328526"><ele>901.0</ele><time>2026-04-12T09:05:15.999Z</time></trkpt><trkpt lat="42.416055029084774" lon="12.207933261177198"><ele>900.9999999999999</ele><time>2026-04-12T09:05:16.999Z</time></trkpt><trkpt lat="42.41596517589795" lon="12.208029841291433"><ele>900.9999999999999</ele><time>2026-04-12T09:05:17.999Z</time></trkpt><trkpt lat="42.415876761318756" lon="12.208145337815584"><ele>901.0</ele><time>2026-04-12T09:05:18.999Z</time></trkpt><trkpt lat="42.4158010144825" lon="12.208249417012967"><ele>901.0</ele><time>2026-04-12T09:05:19.999Z</time></trkpt><trkpt lat="42.4157444194607" lon="12.208382948466756"><ele>898.4</ele><time>2026-04-12T09:05:20.999Z</time></trkpt><trkpt lat="42.415700683236516" lon="12.208521461748752"><ele>895.8</ele><time>2026-04-12T09:05:21.999Z</time></trkpt><trkpt lat="42.41566151228725" lon="12.208635821692305"><ele>893.1999999999999</ele><time>2026-04-12T09:05:22.999Z</time></trkpt><trkpt lat="42.415639743965656" lon="12.208742918761477"><ele>890.5999999999999</ele><time>2026-04-12T09:05:23.999Z</time></trkpt><trkpt lat="42.41561439256459" lon="12.20888822233165"><ele>888.0</ele><time>2026-04-12T09:05:24.999Z</time></trkpt><trkpt lat="42.41562348490323" lon="12.209030512803139"><ele>887.0</ele><time>2026-04-12T09:05:25.999Z</time></trkpt><trkpt lat="42.415635141190315" lon="12.20917019897264"><ele>886.0</ele><time>2026-04-12T09:05:26.999Z</time></trkpt><trkpt lat="42.415647789153745" lon="12.209296623909877"><ele>885.0</ele><time>2026-04-12T09:05:27.999Z</time></trkpt><trkpt lat="42.41566730687912" lon="12.2094063006236"><ele>884.0</ele><time>2026-04-12T09:05:28.999Z</time></trkpt><trkpt lat="42.41570493023351" lon="12.209526013750326"><ele>883.0</ele><time>2026-04-12T09:05:29.999Z</time></trkpt><trkpt lat="42.415748219949634" lon="12.209640556547395"><ele>882.9999999999999</ele><time>2026-04-12T09:05:30.999Z</time></trkpt><trkpt lat="42.41577890735013" lon="12.20976099251592"><ele>883.0</ele><time>2026-04-12T09:05:31.999Z</time></trkpt><trkpt lat="42.41581776368434" lon="12.209891161493362"><ele>883.0</ele><time>2026-04-12T09:05:32.999Z</time></trkpt><trkpt lat="42.41584114995241" lon="12.209999404797168"><ele>883.0</ele><time>2026-04-12T09:05:33.999Z</time></trkpt><trkpt lat="42.4158549479526" lon="12.210096815644278"><ele>882.9999999999999</ele><time>2026-04-12T09:05:34.999Z</time></trkpt><trkpt lat="42.41586068350696" lon="12.210187749974883"><ele>883.0</ele><time>2026-04-12T09:05:35.999Z</time></trkpt><trkpt lat="42.41585756107003" lon="12.210284444988572"><ele>882.4999999999999</ele><time>2026-04-12T09:05:36.999Z</time></trkpt><trkpt lat="42.41581761078223" lon="12.210423529460291"><ele>882.0</ele><time>2026-04-12T09:05:38.999Z</time></trkpt><trkpt lat="42.41571991545882" lon="12.210483836626395"><ele>881.5</ele><time>2026-04-12T09:05:40.999Z</time></trkpt><trkpt lat="42.41565631286441" lon="12.210488687688612"><ele>881.0</ele><time>2026-04-12T09:05:41.999Z</time></trkpt><trkpt lat="42.415585777181796" lon="12.210470719512953"><ele>880.4999999999999</ele><time>2026-04-12T09:05:43Z</time></trkpt><trkpt lat="42.415497586834334" lon="12.21042820208805"><ele>880.0</ele><time>2026-04-12T09:05:44Z</time></trkpt><trkpt lat="42.4154210446005" lon="12.210364334589105"><ele>878.3333333333333</ele><time>2026-04-12T09:05:45Z</time></trkpt><trkpt lat="42.41535158649485" lon="12.210289138159249"><ele>876.6666666666666</ele><time>2026-04-12T09:05:46Z</time></trkpt><trkpt lat="42.41529069542014" lon="12.21020671104048"><ele>875.0</ele><time>2026-04-12T09:05:47Z</time></trkpt><trkpt lat="42.41523142869184" lon="12.210107305220166"><ele>873.3333333333333</ele><time>2026-04-12T09:05:48Z</time></trkpt><trkpt lat="42.415162958926224" lon="12.210033008142158"><ele>871.6666666666666</ele><time>2026-04-12T09:05:49Z</time></trkpt><trkpt lat="42.41510594034258" lon="12.209957934375606"><ele>870.0</ele><time>2026-04-12T09:05:50Z</time></trkpt><trkpt lat="42.41504520891483" lon="12.209868091360185"><ele>873.0</ele><time>2026-04-12T09:05:51Z</time></trkpt><trkpt lat="42.41498906611736" lon="12.209781311654911"><ele>876.0</ele><time>2026-04-12T09:05:52Z</time></trkpt><trkpt lat="42.41491734012736" lon="12.209691740692632"><ele>879.0</ele><time>2026-04-12T09:05:53Z</time></trkpt><trkpt lat="42.41482741953368" lon="12.2096004597579"><ele>882.0</ele><time>2026-04-12T09:05:54Z</time></trkpt><trkpt lat="42.414740843277336" lon="12.209538392456329"><ele>885.0</ele><time>2026-04-12T09:05:55Z</time></trkpt><trkpt lat="42.414657499856524" lon="12.209492242637424"><ele>883.0</ele><time>2026-04-12T09:05:56Z</time></trkpt><trkpt lat="42.414592099152905" lon="12.209451091136277"><ele>881.0</ele><time>2026-04-12T09:05:57Z</time></trkpt><trkpt lat="42.4144727118777" lon="12.20944072769546"><ele>879.0</ele><time>2026-04-12T09:05:59Z</time></trkpt><trkpt lat="42.41438649795907" lon="12.209470962567801"><ele>877.0</ele><time>2026-04-12T09:06:00Z</time></trkpt><trkpt lat="42.41428799388199" lon="12.2094821464583"><ele>875.0</ele><time>2026-04-12T09:06:01Z</time></trkpt><trkpt lat="42.41417736421656" lon="12.209527140438086"><ele>875.0000000000001</ele><time>2026-04-12T09:06:02Z</time></trkpt><trkpt lat="42.41408811295815" lon="12.209561273248067"><ele>875.0</ele><time>2026-04-12T09:06:03Z</time></trkpt><trkpt lat="42.41402111265346" lon="12.209589799530603"><ele>875.0</ele><time>2026-04-12T09:06:04Z</time></trkpt><trkpt lat="42.41395218813281" lon="12.209646880179097"><ele>875.0</ele><time>2026-04-12T09:06:05Z</time></trkpt><trkpt lat="42.413865530523935" lon="12.209719952526346"><ele>875.0000000000001</ele><time>2026-04-12T09:06:06Z</time></trkpt><trkpt lat="42.41380157101088" lon="12.209781897106351"><ele>875.0</ele><time>2026-04-12T09:06:07Z</time></trkpt><trkpt lat="42.41374300056206" lon="12.209836866609862"><ele>876.4</ele><time>2026-04-12T09:06:08Z</time></trkpt><trkpt lat="42.4136854053578" lon="12.209980238920796"><ele>877.8</ele><time>2026-04-12T09:06:10Z</time></trkpt><trkpt lat="42.41364520366916" lon="12.21010595889332"><ele>879.2</ele><time>2026-04-12T09:06:11Z</time></trkpt><trkpt lat="42.41361826035126" lon="12.21023438539942"><ele>880.6</ele><time>2026-04-12T09:06:12Z</time></trkpt><trkpt lat="42.413602406730206" lon="12.210324269559802"><ele>882.0</ele><time>2026-04-12T09:06:13Z</time></trkpt><trkpt lat="42.41355361926328" lon="12.210419412591296"><ele>882.0</ele><time>2026-04-12T09:06:14Z</time></trkpt><trkpt lat="42.41348949490455" lon="12.21052086906995"><ele>882.0</ele><time>2026-04-12T09:06:15Z</time></trkpt><trkpt lat="42.413428997988525" lon="12.21060569635457"><ele>882.0</ele><time>2026-04-12T09:06:16Z</time></trkpt><trkpt lat="42.41337625883928" lon="12.210678324914145"><ele>882.0</ele><time>2026-04-12T09:06:17Z</time></trkpt><trkpt lat="42.413342844394016" lon="12.210776974455113"><ele>882.0</ele><time>2026-04-12T09:06:18Z</time></trkpt><trkpt lat="42.41331163587394" lon="12.210862728414721"><ele>882.0</ele><time>2026-04-12T09:06:19Z</time></trkpt><trkpt lat="42.41331946078974" lon="12.210953137455938"><ele>880.5</ele><time>2026-04-12T09:06:20Z</time></trkpt><trkpt lat="42.413367310598176" lon="12.211049727617311"><ele>879.0</ele><time>2026-04-12T09:06:21Z</time></trkpt><trkpt lat="42.413416894041916" lon="12.21114217393171"><ele>877.5</ele><time>2026-04-12T09:06:22Z</time></trkpt><trkpt lat="42.41347590947641" lon="12.211213027998992"><ele>876.0</ele><time>2026-04-12T09:06:23Z</time></trkpt><trkpt lat="42.413551768041586" lon="12.211240958984373"><ele>874.5</ele><time>2026-04-12T09:06:24Z</time></trkpt><trkpt lat="42.41362730073955" lon="12.211296329062625"><ele>873.0</ele><time>2026-04-12T09:06:25Z</time></trkpt><trkpt lat="42.41370925960777" lon="12.211336340103118"><ele>873.0</ele><time>2026-04-12T09:06:26Z</time></trkpt><trkpt lat="42.41376670617501" lon="12.211419784139085"><ele>873.0</ele><time>2026-04-12T09:06:27Z</time></trkpt><trkpt lat="42.4138148653777" lon="12.211512350874779"><ele>873.0</ele><time>2026-04-12T09:06:28Z</time></trkpt><trkpt lat="42.4138909825213" lon="12.211587004349074"><ele>873.0</ele><time>2026-04-12T09:06:29Z</time></trkpt><trkpt lat="42.41392588317441" lon="12.211681496674"><ele>873.0</ele><time>2026-04-12T09:06:30Z</time></trkpt><trkpt lat="42.413953212211055" lon="12.211769776500322"><ele>873.0</ele><time>2026-04-12T09:06:31Z</time></trkpt><trkpt lat="42.41399550397519" lon="12.211903718665164"><ele>872.1666666666666</ele><time>2026-04-12T09:06:33Z</time></trkpt><trkpt lat="42.41403530545637" lon="12.212048303017832"><ele>871.3333333333333</ele><time>2026-04-12T09:06:35Z</time></trkpt><trkpt lat="42.41400867495807" lon="12.21212581980294"><ele>870.5</ele><time>2026-04-12T09:06:36Z</time></trkpt><trkpt lat="42.41395612275732" lon="12.212209089297907"><ele>869.6666666666666</ele><time>2026-04-12T09:06:37Z</time></trkpt><trkpt lat="42.413899974958596" lon="12.21225027931086"><ele>868.8333333333333</ele><time>2026-04-12T09:06:38Z</time></trkpt><trkpt lat="42.4138303086346" lon="12.212275361789674"><ele>868.0</ele><time>2026-04-12T09:06:39Z</time></trkpt><trkpt lat="42.413759803644524" lon="12.212298481967382"><ele>867.9999999999999</ele><time>2026-04-12T09:06:40Z</time></trkpt><trkpt lat="42.41366862741232" lon="12.212303258538087"><ele>868.0</ele><time>2026-04-12T09:06:41Z</time></trkpt><trkpt lat="42.41358842494186" lon="12.212330234639994"><ele>868.0</ele><time>2026-04-12T09:06:42Z</time></trkpt><trkpt lat="42.413528586075664" lon="12.212367197506905"><ele>868.0</ele><time>2026-04-12T09:06:43Z</time></trkpt><trkpt lat="42.4134617748608" lon="12.212424351946344"><ele>867.9999999999999</ele><time>2026-04-12T09:06:44Z</time></trkpt><trkpt lat="42.413391648919195" lon="12.212467444860811"><ele>868.0</ele><time>2026-04-12T09:06:45Z</time></trkpt><trkpt lat="42.413329107090426" lon="12.212537980936036"><ele>865.8333333333333</ele><time>2026-04-12T09:06:46Z</time></trkpt><trkpt lat="42.413283143500415" lon="12.212688500692064"><ele>863.6666666666666</ele><time>2026-04-12T09:06:48Z</time></trkpt><trkpt lat="42.4132821243974" lon="12.212821909832812"><ele>861.5</ele><time>2026-04-12T09:06:49Z</time></trkpt><trkpt lat="42.413274759878824" lon="12.212940877388577"><ele>859.3333333333333</ele><time>2026-04-12T09:06:50Z</time></trkpt><trkpt lat="42.41326766727297" lon="12.213030106546698"><ele>857.1666666666666</ele><time>2026-04-12T09:06:51Z</time></trkpt><trkpt lat="42.41325623424424" lon="12.213122326068135"><ele>855.0</ele><time>2026-04-12T09:06:52Z</time></trkpt><trkpt lat="42.413209928506404" lon="12.213249403241925"><ele>852.8333333333334</ele><time>2026-04-12T09:06:54Z</time></trkpt><trkpt lat="42.41312939208195" lon="12.213322499698863"><ele>850.6666666666667</ele><time>2026-04-12T09:06:56Z</time></trkpt><trkpt lat="42.4130190763006" lon="12.213340322174709"><ele>848.5</ele><time>2026-04-12T09:06:58Z</time></trkpt><trkpt lat="42.41294542435989" lon="12.213346924002494"><ele>846.3333333333334</ele><time>2026-04-12T09:06:59Z</time></trkpt><trkpt lat="42.4128726660266" lon="12.213351849403121"><ele>844.1666666666667</ele><time>2026-04-12T09:07:00Z</time></trkpt><trkpt lat="42.41280586702454" lon="12.213379828011877"><ele>842.0</ele><time>2026-04-12T09:07:01Z</time></trkpt><trkpt lat="42.41273646534306" lon="12.213407116895231"><ele>842.0000000000001</ele><time>2026-04-12T09:07:02Z</time></trkpt><trkpt lat="42.41266447153619" lon="12.213438878109825"><ele>842.0</ele><time>2026-04-12T09:07:03Z</time></trkpt><trkpt lat="42.41258221914189" lon="12.213466680166599"><ele>842.0</ele><time>2026-04-12T09:07:04Z</time></trkpt><trkpt lat="42.412486951629475" lon="12.213519842427788"><ele>842.0</ele><time>2026-04-12T09:07:05Z</time></trkpt><trkpt lat="42.41242034531119" lon="12.21360966566452"><ele>842.0000000000001</ele><time>2026-04-12T09:07:06Z</time></trkpt><trkpt lat="42.4123704702894" lon="12.213691459637676"><ele>842.0</ele><time>2026-04-12T09:07:07Z</time></trkpt><trkpt lat="42.41235318107059" lon="12.21381327324404"><ele>842.0</ele><time>2026-04-12T09:07:08Z</time></trkpt><trkpt lat="42.41236626044638" lon="12.213947257283778"><ele>842.0</ele><time>2026-04-12T09:07:09Z</time></trkpt><trkpt lat="42.41237794962526" lon="12.214085082609698"><ele>842.0</ele><time>2026-04-12T09:07:09.999Z</time></trkpt><trkpt lat="42.412391093624876" lon="12.21422776347446"><ele>842.0</ele><time>2026-04-12T09:07:10.999Z</time></trkpt><trkpt lat="42.41241205687298" lon="12.214369130308986"><ele>842.0</ele><time>2026-04-12T09:07:11.999Z</time></trkpt><trkpt lat="42.412406714157356" lon="12.214458746778977"><ele>839.4000000000001</ele><time>2026-04-12T09:07:12.999Z</time></trkpt><trkpt lat="42.41243379576709" lon="12.214582141937834"><ele>836.8000000000001</ele><time>2026-04-12T09:07:13.999Z</time></trkpt><trkpt lat="42.41244927284641" lon="12.214702058390152"><ele>834.2</ele><time>2026-04-12T09:07:14.999Z</time></trkpt><trkpt lat="42.41246670863635" lon="12.21482225883341"><ele>831.6</ele><time>2026-04-12T09:07:15.999Z</time></trkpt><trkpt lat="42.412470815723744" lon="12.214987477303337"><ele>829.0</ele><time>2026-04-12T09:07:16.999Z</time></trkpt><trkpt lat="42.412527072791946" lon="12.215154347370518"><ele>828.6</ele><time>2026-04-12T09:07:17.999Z</time></trkpt><trkpt lat="42.41260486365172" lon="12.215320603432438"><ele>828.2</ele><time>2026-04-12T09:07:18.999Z</time></trkpt><trkpt lat="42.412651939485386" lon="12.215460935076539"><ele>827.8000000000001</ele><time>2026-04-12T09:07:19.999Z</time></trkpt><trkpt lat="42.412693900380035" lon="12.215573673839582"><ele>827.4000000000001</ele><time>2026-04-12T09:07:20.999Z</time></trkpt><trkpt lat="42.41272723992838" lon="12.215690295626842"><ele>827.0</ele><time>2026-04-12T09:07:21.999Z</time></trkpt><trkpt lat="42.41274388953987" lon="12.215838685129963"><ele>825.5000000000001</ele><time>2026-04-12T09:07:23.999Z</time></trkpt><trkpt lat="42.41274064556901" lon="12.215930857964052"><ele>824.0</ele><time>2026-04-12T09:07:24.999Z</time></trkpt><trkpt lat="42.412728553796676" lon="12.216015423659908"><ele>822.5</ele><time>2026-04-12T09:07:25.999Z</time></trkpt><trkpt lat="42.41270787058795" lon="12.216145834501926"><ele>821.0</ele><time>2026-04-12T09:07:27.999Z</time></trkpt><trkpt lat="42.41264017800648" lon="12.216225978240848"><ele>819.5000000000001</ele><time>2026-04-12T09:07:29.999Z</time></trkpt><trkpt lat="42.41255236237676" lon="12.216305453167797"><ele>818.0</ele><time>2026-04-12T09:07:30.999Z</time></trkpt><trkpt lat="42.412475383217455" lon="12.21637000701002"><ele>818.0</ele><time>2026-04-12T09:07:31.999Z</time></trkpt><trkpt lat="42.41240842410776" lon="12.216432337121311"><ele>818.0</ele><time>2026-04-12T09:07:32.999Z</time></trkpt><trkpt lat="42.41233005692536" lon="12.216485879851472"><ele>818.0</ele><time>2026-04-12T09:07:33.999Z</time></trkpt><trkpt lat="42.41219455431343" lon="12.21647604471326"><ele>818.0</ele><time>2026-04-12T09:07:34.999Z</time></trkpt><trkpt lat="42.412119617793614" lon="12.216547351309154"><ele>818.0</ele><time>2026-04-12T09:07:35.999Z</time></trkpt><trkpt lat="42.41204814159018" lon="12.216607977655729"><ele>815.1666666666667</ele><time>2026-04-12T09:07:36.999Z</time></trkpt><trkpt lat="42.411992289925855" lon="12.216663381985231"><ele>812.3333333333334</ele><time>2026-04-12T09:07:37.999Z</time></trkpt><trkpt lat="42.41194249115458" lon="12.21671600937463"><ele>809.5</ele><time>2026-04-12T09:07:38.999Z</time></trkpt><trkpt lat="42.411897305840576" lon="12.216798323634302"><ele>806.6666666666667</ele><time>2026-04-12T09:07:39.999Z</time></trkpt><trkpt lat="42.41183178793187" lon="12.216873211154713"><ele>803.8333333333334</ele><time>2026-04-12T09:07:40.999Z</time></trkpt><trkpt lat="42.41175437015755" lon="12.216923459030918"><ele>801.0</ele><time>2026-04-12T09:07:41.999Z</time></trkpt><trkpt lat="42.411667624385316" lon="12.216967499057128"><ele>801.0</ele><time>2026-04-12T09:07:42.999Z</time></trkpt><trkpt lat="42.41158293170969" lon="12.21700274718132"><ele>801.0</ele><time>2026-04-12T09:07:43.999Z</time></trkpt><trkpt lat="42.41151387765656" lon="12.21702598713554"><ele>801.0</ele><time>2026-04-12T09:07:44.999Z</time></trkpt><trkpt lat="42.41138004907526" lon="12.217003873754953"><ele>801.0</ele><time>2026-04-12T09:07:46.999Z</time></trkpt><trkpt lat="42.411299278800186" lon="12.21697056400051"><ele>801.0</ele><time>2026-04-12T09:07:47.999Z</time></trkpt><trkpt lat="42.411215163752104" lon="12.216916492200893"><ele>797.8</ele><time>2026-04-12T09:07:49Z</time></trkpt><trkpt lat="42.41113585763413" lon="12.216831037637867"><ele>794.5999999999999</ele><time>2026-04-12T09:07:50Z</time></trkpt><trkpt lat="42.41106676077925" lon="12.216751552928903"><ele>791.4</ele><time>2026-04-12T09:07:51Z</time></trkpt><trkpt lat="42.41098258774754" lon="12.216666669072445"><ele>788.2</ele><time>2026-04-12T09:07:52Z</time></trkpt><trkpt lat="42.410888007009305" lon="12.216591088766355"><ele>785.0</ele><time>2026-04-12T09:07:53Z</time></trkpt><trkpt lat="42.41078516610811" lon="12.216509141324828"><ele>789.2</ele><time>2026-04-12T09:07:54Z</time></trkpt><trkpt lat="42.410682476204485" lon="12.216438552823854"><ele>793.4</ele><time>2026-04-12T09:07:55Z</time></trkpt><trkpt lat="42.410601844795" lon="12.21636552710627"><ele>797.5999999999999</ele><time>2026-04-12T09:07:56Z</time></trkpt><trkpt lat="42.41049312433339" lon="12.216308959566875"><ele>801.8</ele><time>2026-04-12T09:07:58Z</time></trkpt><trkpt lat="42.41042659968168" lon="12.21632511199285"><ele>806.0</ele><time>2026-04-12T09:07:59Z</time></trkpt><trkpt lat="42.410349296648185" lon="12.216378877133803"><ele>806.0</ele><time>2026-04-12T09:08:01Z</time></trkpt><trkpt lat="42.41026535029864" lon="12.216440306549902"><ele>806.0</ele><time>2026-04-12T09:08:57Z</time></trkpt><trkpt lat="42.41019672537591" lon="12.216495286246591"><ele>806.0</ele><time>2026-04-12T09:09:00Z</time></trkpt><trkpt lat="42.41013117188613" lon="12.216630628456281"><ele>806.0</ele><time>2026-04-12T09:09:02Z</time></trkpt><trkpt lat="42.4101050063159" lon="12.21677702589596"><ele>806.0</ele><time>2026-04-12T09:09:04Z</time></trkpt><trkpt lat="42.4101070393427" lon="12.216874489662361"><ele>802.4</ele><time>2026-04-12T09:09:05Z</time></trkpt><trkpt lat="42.41013946352964" lon="12.217009586988961"><ele>798.8</ele><time>2026-04-12T09:09:07Z</time></trkpt><trkpt lat="42.41021299062445" lon="12.21714403955315"><ele>795.1999999999999</ele><time>2026-04-12T09:09:09Z</time></trkpt><trkpt lat="42.41029642436718" lon="12.217215930008866"><ele>791.5999999999999</ele><time>2026-04-12T09:09:11Z</time></trkpt><trkpt lat="42.410338596938345" lon="12.217310510561974"><ele>788.0</ele><time>2026-04-12T09:09:13Z</time></trkpt><trkpt lat="42.410437498127294" lon="12.217405553011004"><ele>784.1666666666667</ele><time>2026-04-12T09:09:14.999Z</time></trkpt><trkpt lat="42.410496544891444" lon="12.217452343290395"><ele>780.3333333333334</ele><time>2026-04-12T09:09:15.999Z</time></trkpt><trkpt lat="42.41062419485755" lon="12.217534413728655"><ele>776.5</ele><time>2026-04-12T09:09:17.999Z</time></trkpt><trkpt lat="42.41068119817338" lon="12.217571392629246"><ele>772.6666666666667</ele><time>2026-04-12T09:09:18.999Z</time></trkpt><trkpt lat="42.41073742880259" lon="12.217609768132794"><ele>768.8333333333334</ele><time>2026-04-12T09:09:19.999Z</time></trkpt><trkpt lat="42.41080078064713" lon="12.217671945858536"><ele>765.0</ele><time>2026-04-12T09:09:20.999Z</time></trkpt><trkpt lat="42.41089789478625" lon="12.217725797797419"><ele>765.0</ele><time>2026-04-12T09:09:21.999Z</time></trkpt><trkpt lat="42.41098350209929" lon="12.21775849702708"><ele>765.0</ele><time>2026-04-12T09:09:22.999Z</time></trkpt><trkpt lat="42.411075885093396" lon="12.217806064337033"><ele>765.0</ele><time>2026-04-12T09:09:24.999Z</time></trkpt><trkpt lat="42.41101658339399" lon="12.217869656592207"><ele>765.0</ele><time>2026-04-12T09:09:27.999Z</time></trkpt><trkpt lat="42.41088796053828" lon="12.21779961217617"><ele>765.0</ele><time>2026-04-12T09:09:29.999Z</time></trkpt><trkpt lat="42.41079434671958" lon="12.217766977530294"><ele>765.0</ele><time>2026-04-12T09:09:30.999Z</time></trkpt><trkpt lat="42.41068505653121" lon="12.217770569257617"><ele>765.0</ele><time>2026-04-12T09:09:31.999Z</time></trkpt><trkpt lat="42.41057470524792" lon="12.217814544205497"><ele>765.0</ele><time>2026-04-12T09:09:32.999Z</time></trkpt><trkpt lat="42.41046615615277" lon="12.217867633805511"><ele>765.0</ele><time>2026-04-12T09:09:33.999Z</time></trkpt><trkpt lat="42.41037410616253" lon="12.217888395675576"><ele>765.0</ele><time>2026-04-12T09:09:34.999Z</time></trkpt><trkpt lat="42.410289572018236" lon="12.21788868819252"><ele>765.0</ele><time>2026-04-12T09:09:35.999Z</time></trkpt><trkpt lat="42.4102048717459" lon="12.217881762187483"><ele>765.0</ele><time>2026-04-12T09:09:36.999Z</time></trkpt><trkpt lat="42.410119721017786" lon="12.217869173638249"><ele>765.0</ele><time>2026-04-12T09:09:37.999Z</time></trkpt><trkpt lat="42.410034734131315" lon="12.217847718627658"><ele>765.0</ele><time>2026-04-12T09:09:38.999Z</time></trkpt><trkpt lat="42.40995567199473" lon="12.217819488176087"><ele>765.0</ele><time>2026-04-12T09:09:39.999Z</time></trkpt><trkpt lat="42.40987132244391" lon="12.217790365106206"><ele>765.0</ele><time>2026-04-12T09:09:40.999Z</time></trkpt><trkpt lat="42.40978433880089" lon="12.21777469640877"><ele>765.0</ele><time>2026-04-12T09:09:41.999Z</time></trkpt><trkpt lat="42.409698882132965" lon="12.217801918649144"><ele>765.0</ele><time>2026-04-12T09:09:42.999Z</time></trkpt><trkpt lat="42.40962123992876" lon="12.217875996140501"><ele>765.0</ele><time>2026-04-12T09:09:43.999Z</time></trkpt><trkpt lat="42.40955475271132" lon="12.217976823228732"><ele>765.0</ele><time>2026-04-12T09:09:44.999Z</time></trkpt><trkpt lat="42.40949907672647" lon="12.218072934545098"><ele>765.0</ele><time>2026-04-12T09:09:45.999Z</time></trkpt><trkpt lat="42.40944251709551" lon="12.21817528309836"><ele>763.6666666666666</ele><time>2026-04-12T09:09:46.999Z</time></trkpt><trkpt lat="42.40938531690162" lon="12.2182625244774"><ele>762.3333333333334</ele><time>2026-04-12T09:09:47.999Z</time></trkpt><trkpt lat="42.40932471694764" lon="12.218349879635372"><ele>761.0</ele><time>2026-04-12T09:09:48.999Z</time></trkpt><trkpt lat="42.40926407557291" lon="12.218442815159957"><ele>759.6666666666667</ele><time>2026-04-12T09:09:49.999Z</time></trkpt><trkpt lat="42.40920433009754" lon="12.218538875181826"><ele>758.3333333333334</ele><time>2026-04-12T09:09:50.999Z</time></trkpt><trkpt lat="42.40915188721259" lon="12.218628817320246"><ele>757.0</ele><time>2026-04-12T09:09:51.999Z</time></trkpt><trkpt lat="42.409098273514914" lon="12.218710871451938"><ele>757.0</ele><time>2026-04-12T09:09:52.999Z</time></trkpt><trkpt lat="42.409039997470394" lon="12.218794019788497"><ele>757.0</ele><time>2026-04-12T09:09:53.999Z</time></trkpt><trkpt lat="42.408981643290446" lon="12.218861074066526"><ele>757.0</ele><time>2026-04-12T09:09:55Z</time></trkpt><trkpt lat="42.40890311981009" lon="12.218874938039418"><ele>757.0</ele><time>2026-04-12T09:09:56Z</time></trkpt><trkpt lat="42.40883118285142" lon="12.218872340656132"><ele>757.0</ele><time>2026-04-12T09:09:57Z</time></trkpt><trkpt lat="42.40875366709883" lon="12.218845045899311"><ele>757.0</ele><time>2026-04-12T09:09:58Z</time></trkpt><trkpt lat="42.408669420021994" lon="12.218806399234584"><ele>758.1666666666667</ele><time>2026-04-12T09:09:59Z</time></trkpt><trkpt lat="42.408580255847646" lon="12.218779605925885"><ele>759.3333333333334</ele><time>2026-04-12T09:10:00Z</time></trkpt><trkpt lat="42.40849238203702" lon="12.218816202100848"><ele>760.5</ele><time>2026-04-12T09:10:01Z</time></trkpt><trkpt lat="42.4084231158783" lon="12.218819882119817"><ele>761.6666666666666</ele><time>2026-04-12T09:10:03Z</time></trkpt><trkpt lat="42.40834045853939" lon="12.21879164851257"><ele>762.8333333333333</ele><time>2026-04-12T09:10:17Z</time></trkpt><trkpt lat="42.40843907568491" lon="12.218833510001755"><ele>764.0</ele><time>2026-04-12T09:10:26Z</time></trkpt><trkpt lat="42.40850621499747" lon="12.218768459654884"><ele>764.0</ele><time>2026-04-12T09:10:34Z</time></trkpt><trkpt lat="42.40845145797977" lon="12.218682353574291"><ele>764.0</ele><time>2026-04-12T09:10:38Z</time></trkpt><trkpt lat="42.408374436519146" lon="12.218637458532209"><ele>764.0</ele><time>2026-04-12T09:10:41Z</time></trkpt><trkpt lat="42.408279106024516" lon="12.218632095808227"><ele>764.0</ele><time>2026-04-12T09:10:43Z</time></trkpt><trkpt lat="42.408190711296385" lon="12.218602058013468"><ele>764.0</ele><time>2026-04-12T09:10:46Z</time></trkpt><trkpt lat="42.40825367060039" lon="12.218597886912297"><ele>764.0</ele><time>2026-04-12T09:11:19.999Z</time></trkpt><trkpt lat="42.40845850422294" lon="12.218682282270116"><ele>764.0</ele><time>2026-04-12T09:11:27.999Z</time></trkpt><trkpt lat="42.408383940743505" lon="12.21880546248167"><ele>764.0</ele><time>2026-04-12T09:12:16Z</time></trkpt><trkpt lat="42.408252517859864" lon="12.218826225752382"><ele>764.0</ele><time>2026-04-12T09:12:19Z</time></trkpt><trkpt lat="42.40816604424657" lon="12.218849941690983"><ele>764.0</ele><time>2026-04-12T09:12:20Z</time></trkpt><trkpt lat="42.40809070964711" lon="12.218818752848968"><ele>764.0</ele><time>2026-04-12T09:12:21Z</time></trkpt><trkpt lat="42.40802341252252" lon="12.218834755095974"><ele>764.6</ele><time>2026-04-12T09:12:23Z</time></trkpt><trkpt lat="42.4078941414228" lon="12.218899282381111"><ele>765.2</ele><time>2026-04-12T09:12:25Z</time></trkpt><trkpt lat="42.40778958955287" lon="12.218920729945477"><ele>765.8000000000001</ele><time>2026-04-12T09:12:26Z</time></trkpt><trkpt lat="42.407689087583975" lon="12.218960598447122"><ele>766.4000000000001</ele><time>2026-04-12T09:12:27Z</time></trkpt><trkpt lat="42.40761092164904" lon="12.219022338918478"><ele>767.0</ele><time>2026-04-12T09:12:28Z</time></trkpt><trkpt lat="42.40756129976473" lon="12.219118895093917"><ele>764.5</ele><time>2026-04-12T09:12:29Z</time></trkpt><trkpt lat="42.40753574999633" lon="12.219248885919328"><ele>762.0</ele><time>2026-04-12T09:12:30Z</time></trkpt><trkpt lat="42.4075396981602" lon="12.21940129875281"><ele>759.5</ele><time>2026-04-12T09:12:31Z</time></trkpt><trkpt lat="42.40757106855324" lon="12.219574938930323"><ele>757.0</ele><time>2026-04-12T09:12:32Z</time></trkpt><trkpt lat="42.407607562319406" lon="12.219735420319802"><ele>757.25</ele><time>2026-04-12T09:12:33Z</time></trkpt><trkpt lat="42.407638629379534" lon="12.219912760959767"><ele>757.5</ele><time>2026-04-12T09:12:34Z</time></trkpt><trkpt lat="42.407674090084335" lon="12.220103464807021"><ele>757.75</ele><time>2026-04-12T09:12:35Z</time></trkpt><trkpt lat="42.40771547900528" lon="12.220288723395127"><ele>758.0</ele><time>2026-04-12T09:12:36Z</time></trkpt><trkpt lat="42.40775389956277" lon="12.220451872045125"><ele>758.0</ele><time>2026-04-12T09:12:37Z</time></trkpt><trkpt lat="42.407783403392074" lon="12.220594283292309"><ele>758.0</ele><time>2026-04-12T09:12:38Z</time></trkpt><trkpt lat="42.40780269929063" lon="12.220740898186737"><ele>758.0</ele><time>2026-04-12T09:12:39Z</time></trkpt><trkpt lat="42.40780128832986" lon="12.220877977953986"><ele>758.0</ele><time>2026-04-12T09:12:40Z</time></trkpt><trkpt lat="42.40775983756089" lon="12.220999644115707"><ele>758.0</ele><time>2026-04-12T09:12:41Z</time></trkpt><trkpt lat="42.407680280400015" lon="12.221127080075528"><ele>757.0</ele><time>2026-04-12T09:12:42Z</time></trkpt><trkpt lat="42.40760236706158" lon="12.221262408050512"><ele>756.0</ele><time>2026-04-12T09:12:43Z</time></trkpt><trkpt lat="42.40752848565817" lon="12.221407205942077"><ele>755.0</ele><time>2026-04-12T09:12:44Z</time></trkpt><trkpt lat="42.407454566567345" lon="12.22155880590556"><ele>754.0</ele><time>2026-04-12T09:12:45Z</time></trkpt><trkpt lat="42.4073811014531" lon="12.221711485414563"><ele>755.6</ele><time>2026-04-12T09:12:46Z</time></trkpt><trkpt lat="42.40728379966048" lon="12.221835564957534"><ele>757.2</ele><time>2026-04-12T09:12:47Z</time></trkpt><trkpt lat="42.40722540494031" lon="12.221939148799189"><ele>758.8000000000001</ele><time>2026-04-12T09:12:48Z</time></trkpt><trkpt lat="42.40717200429673" lon="12.222023461735542"><ele>760.4000000000001</ele><time>2026-04-12T09:12:49Z</time></trkpt><trkpt lat="42.4070898020531" lon="12.222107886310368"><ele>762.0</ele><time>2026-04-12T09:12:51Z</time></trkpt><trkpt lat="42.40703308100673" lon="12.222151233495445"><ele>762.0</ele><time>2026-04-12T09:12:53Z</time></trkpt><trkpt lat="42.40709667061583" lon="12.222102350152124"><ele>762.0</ele><time>2026-04-12T09:13:17.999Z</time></trkpt><trkpt lat="42.40703940397197" lon="12.222149364862643"><ele>762.0</ele><time>2026-04-12T09:13:19.999Z</time></trkpt><trkpt lat="42.40697504974586" lon="12.22220497179973"><ele>762.0</ele><time>2026-04-12T09:13:20.999Z</time></trkpt><trkpt lat="42.40688976787205" lon="12.222231221051178"><ele>762.0</ele><time>2026-04-12T09:13:21.999Z</time></trkpt><trkpt lat="42.40679485299337" lon="12.22227764475167"><ele>762.0</ele><time>2026-04-12T09:13:22.999Z</time></trkpt><trkpt lat="42.40669409846432" lon="12.222327910569984"><ele>759.4000000000001</ele><time>2026-04-12T09:13:23.999Z</time></trkpt><trkpt lat="42.4066098348993" lon="12.222414313554248"><ele>756.8000000000001</ele><time>2026-04-12T09:13:24.999Z</time></trkpt><trkpt lat="42.40653112971885" lon="12.222458621775099"><ele>754.2</ele><time>2026-04-12T09:13:25.999Z</time></trkpt><trkpt lat="42.406439615238824" lon="12.222512655712826"><ele>751.6</ele><time>2026-04-12T09:13:26.999Z</time></trkpt><trkpt lat="42.40634956261376" lon="12.222563187066267"><ele>749.0</ele><time>2026-04-12T09:13:27.999Z</time></trkpt><trkpt lat="42.40626842809998" lon="12.222610678912881"><ele>749.0</ele><time>2026-04-12T09:13:28.999Z</time></trkpt><trkpt lat="42.406186851544646" lon="12.222658607070088"><ele>749.0</ele><time>2026-04-12T09:13:29.999Z</time></trkpt><trkpt lat="42.40608860429346" lon="12.222709277913491"><ele>749.0</ele><time>2026-04-12T09:13:30.999Z</time></trkpt><trkpt lat="42.40597479210679" lon="12.222761205972857"><ele>749.0</ele><time>2026-04-12T09:13:31.999Z</time></trkpt><trkpt lat="42.40584430718818" lon="12.222771633485566"><ele>749.0</ele><time>2026-04-12T09:13:32.999Z</time></trkpt><trkpt lat="42.40572046569377" lon="12.222825462643126"><ele>749.0</ele><time>2026-04-12T09:13:33.999Z</time></trkpt><trkpt lat="42.40560692301504" lon="12.222874421023127"><ele>749.0</ele><time>2026-04-12T09:13:34.999Z</time></trkpt><trkpt lat="42.40549118344058" lon="12.222922998357031"><ele>749.0</ele><time>2026-04-12T09:13:35.999Z</time></trkpt><trkpt lat="42.40536559162017" lon="12.22297476041003"><ele>749.0</ele><time>2026-04-12T09:13:36.999Z</time></trkpt><trkpt lat="42.405253912598916" lon="12.223020788378797"><ele>748.5</ele><time>2026-04-12T09:13:37.999Z</time></trkpt><trkpt lat="42.40514541568456" lon="12.22306550486422"><ele>748.0</ele><time>2026-04-12T09:13:38.999Z</time></trkpt><trkpt lat="42.40503216235409" lon="12.223112181663149"><ele>747.5</ele><time>2026-04-12T09:13:39.999Z</time></trkpt><trkpt lat="42.404911336746956" lon="12.223160669125463"><ele>747.0</ele><time>2026-04-12T09:13:40.999Z</time></trkpt><trkpt lat="42.404787910302495" lon="12.223209803114631"><ele>743.75</ele><time>2026-04-12T09:13:41.999Z</time></trkpt><trkpt lat="42.4046600624449" lon="12.22326069720304"><ele>740.5</ele><time>2026-04-12T09:13:42.999Z</time></trkpt><trkpt lat="42.40453224281052" lon="12.223310666927736"><ele>737.25</ele><time>2026-04-12T09:13:43.999Z</time></trkpt><trkpt lat="42.40441129513086" lon="12.223362013961568"><ele>734.0</ele><time>2026-04-12T09:13:44.999Z</time></trkpt><trkpt lat="42.404298756858" lon="12.22338024837178"><ele>734.0</ele><time>2026-04-12T09:13:45.999Z</time></trkpt><trkpt lat="42.40420844452091" lon="12.22338403097051"><ele>734.0</ele><time>2026-04-12T09:13:46.999Z</time></trkpt><trkpt lat="42.404135380563176" lon="12.223380502489801"><ele>734.0</ele><time>2026-04-12T09:13:47.999Z</time></trkpt><trkpt lat="42.40401978047952" lon="12.223356780882273"><ele>734.0</ele><time>2026-04-12T09:13:49.999Z</time></trkpt><trkpt lat="42.40391780970435" lon="12.223320031672227"><ele>734.0</ele><time>2026-04-12T09:13:51.999Z</time></trkpt><trkpt lat="42.40385159803214" lon="12.22330765545994"><ele>734.6</ele><time>2026-04-12T09:13:53.999Z</time></trkpt><trkpt lat="42.4037566340398" lon="12.223211200457017"><ele>735.2</ele><time>2026-04-12T09:13:56.999Z</time></trkpt><trkpt lat="42.40370020831795" lon="12.223152616612646"><ele>735.8000000000001</ele><time>2026-04-12T09:13:57.999Z</time></trkpt><trkpt lat="42.40363122177512" lon="12.223074579645854"><ele>736.4000000000001</ele><time>2026-04-12T09:13:58.999Z</time></trkpt><trkpt lat="42.4035612907945" lon="12.222994593577656"><ele>737.0</ele><time>2026-04-12T09:13:59.999Z</time></trkpt><trkpt lat="42.40349315877004" lon="12.222916665132642"><ele>737.0</ele><time>2026-04-12T09:14:00.999Z</time></trkpt><trkpt lat="42.403416439643564" lon="12.222828500915055"><ele>737.0</ele><time>2026-04-12T09:14:01.999Z</time></trkpt><trkpt lat="42.40333657416451" lon="12.222734808410666"><ele>737.0</ele><time>2026-04-12T09:14:02.999Z</time></trkpt><trkpt lat="42.40325493589751" lon="12.222632131850615"><ele>737.0</ele><time>2026-04-12T09:14:03.999Z</time></trkpt><trkpt lat="42.40317795712427" lon="12.22251925474542"><ele>737.0</ele><time>2026-04-12T09:14:04.999Z</time></trkpt><trkpt lat="42.4031060047178" lon="12.222407986429047"><ele>737.4000000000001</ele><time>2026-04-12T09:14:06Z</time></trkpt><trkpt lat="42.403043714689005" lon="12.222309401637778"><ele>737.8000000000001</ele><time>2026-04-12T09:14:07Z</time></trkpt><trkpt lat="42.40297870841314" lon="12.222204814818383"><ele>738.2</ele><time>2026-04-12T09:14:08Z</time></trkpt><trkpt lat="42.40292825877836" lon="12.222123647764832"><ele>738.6</ele><time>2026-04-12T09:14:09Z</time></trkpt><trkpt lat="42.402841968854" lon="12.222019127806437"><ele>739.0</ele><time>2026-04-12T09:14:11Z</time></trkpt><trkpt lat="42.40280215687242" lon="12.22191985036625"><ele>739.4000000000001</ele><time>2026-04-12T09:14:12Z</time></trkpt><trkpt lat="42.402727382450635" lon="12.221828264508828"><ele>739.8</ele><time>2026-04-12T09:14:13Z</time></trkpt><trkpt lat="42.402661639524545" lon="12.221716702870054"><ele>740.2</ele><time>2026-04-12T09:14:14Z</time></trkpt><trkpt lat="42.40258871283064" lon="12.221596709165159"><ele>740.5999999999999</ele><time>2026-04-12T09:14:15Z</time></trkpt><trkpt lat="42.40251173559126" lon="12.22146890407382"><ele>741.0</ele><time>2026-04-12T09:14:16Z</time></trkpt><trkpt lat="42.40244486818024" lon="12.221324752951151"><ele>741.0</ele><time>2026-04-12T09:14:17Z</time></trkpt><trkpt lat="42.402350046685534" lon="12.221206548505629"><ele>741.0</ele><time>2026-04-12T09:14:18Z</time></trkpt><trkpt lat="42.402261702406584" lon="12.221079425563648"><ele>741.0</ele><time>2026-04-12T09:14:19Z</time></trkpt><trkpt lat="42.40215424485751" lon="12.220975179153738"><ele>741.0</ele><time>2026-04-12T09:14:20Z</time></trkpt><trkpt lat="42.40205482425119" lon="12.220871597393586"><ele>739.0</ele><time>2026-04-12T09:14:21Z</time></trkpt><trkpt lat="42.401935128711905" lon="12.220805628100573"><ele>737.0</ele><time>2026-04-12T09:14:22Z</time></trkpt><trkpt lat="42.40180792419159" lon="12.2207624316403"><ele>735.0</ele><time>2026-04-12T09:14:23Z</time></trkpt><trkpt lat="42.401679405575855" lon="12.220746916243456"><ele>733.0</ele><time>2026-04-12T09:14:24Z</time></trkpt><trkpt lat="42.40155779773052" lon="12.220753477201882"><ele>733.0</ele><time>2026-04-12T09:14:25Z</time></trkpt><trkpt lat="42.40144918360935" lon="12.220764597660164"><ele>733.0</ele><time>2026-04-12T09:14:26Z</time></trkpt><trkpt lat="42.40135665930744" lon="12.220776156446375"><ele>733.0</ele><time>2026-04-12T09:14:27Z</time></trkpt><trkpt lat="42.401277676052544" lon="12.220785540500094"><ele>733.0</ele><time>2026-04-12T09:14:28Z</time></trkpt><trkpt lat="42.40119355770796" lon="12.220814237992448"><ele>733.0</ele><time>2026-04-12T09:14:29Z</time></trkpt><trkpt lat="42.401114837718104" lon="12.220814102068108"><ele>733.0</ele><time>2026-04-12T09:14:30Z</time></trkpt><trkpt lat="42.401026232591576" lon="12.22080675106324"><ele>732.25</ele><time>2026-04-12T09:14:31Z</time></trkpt><trkpt lat="42.400932694591184" lon="12.22076442260029"><ele>731.5</ele><time>2026-04-12T09:14:32Z</time></trkpt><trkpt lat="42.40082479277472" lon="12.220742281897504"><ele>730.75</ele><time>2026-04-12T09:14:33Z</time></trkpt><trkpt lat="42.400713107222266" lon="12.220688479008862"><ele>730.0</ele><time>2026-04-12T09:14:34Z</time></trkpt><trkpt lat="42.40059391035522" lon="12.220620422175145"><ele>733.25</ele><time>2026-04-12T09:14:35Z</time></trkpt><trkpt lat="42.40046827173868" lon="12.220557660361974"><ele>736.5</ele><time>2026-04-12T09:14:36Z</time></trkpt><trkpt lat="42.40034603655622" lon="12.220494740568546"><ele>739.75</ele><time>2026-04-12T09:14:37Z</time></trkpt><trkpt lat="42.400226331994865" lon="12.220431456563984"><ele>743.0</ele><time>2026-04-12T09:14:38Z</time></trkpt><trkpt lat="42.400110726324364" lon="12.220365331716549"><ele>743.0</ele><time>2026-04-12T09:14:39Z</time></trkpt><trkpt lat="42.39999325416158" lon="12.220305733447418"><ele>743.0</ele><time>2026-04-12T09:14:40Z</time></trkpt><trkpt lat="42.39987786727364" lon="12.220243929508516"><ele>743.0</ele><time>2026-04-12T09:14:41Z</time></trkpt><trkpt lat="42.39976139264536" lon="12.220182569283596"><ele>743.0</ele><time>2026-04-12T09:14:42Z</time></trkpt><trkpt lat="42.39964683761379" lon="12.220125716773287"><ele>742.5</ele><time>2026-04-12T09:14:43Z</time></trkpt><trkpt lat="42.399537015313925" lon="12.220066074466015"><ele>742.0</ele><time>2026-04-12T09:14:44Z</time></trkpt><trkpt lat="42.39942689134133" lon="12.220003741720443"><ele>741.5</ele><time>2026-04-12T09:14:45Z</time></trkpt><trkpt lat="42.399322306406454" lon="12.219924050386645"><ele>741.0</ele><time>2026-04-12T09:14:46Z</time></trkpt><trkpt lat="42.399233414846684" lon="12.219815961033763"><ele>741.0</ele><time>2026-04-12T09:14:47Z</time></trkpt><trkpt lat="42.399152032496865" lon="12.219687361927493"><ele>741.0</ele><time>2026-04-12T09:14:48Z</time></trkpt><trkpt lat="42.399084361271406" lon="12.219544081209783"><ele>741.0</ele><time>2026-04-12T09:14:49Z</time></trkpt><trkpt lat="42.399024509052005" lon="12.21938859292646"><ele>741.0</ele><time>2026-04-12T09:14:50Z</time></trkpt><trkpt lat="42.39897253511379" lon="12.219219099812056"><ele>741.0</ele><time>2026-04-12T09:14:51Z</time></trkpt><trkpt lat="42.398932313846835" lon="12.21905500050631"><ele>741.0</ele><time>2026-04-12T09:14:52Z</time></trkpt><trkpt lat="42.398900539443865" lon="12.218919641093631"><ele>741.0</ele><time>2026-04-12T09:14:53Z</time></trkpt><trkpt lat="42.3988699947912" lon="12.218796660922258"><ele>741.0</ele><time>2026-04-12T09:14:54Z</time></trkpt><trkpt lat="42.39884046880117" lon="12.218667855913727"><ele>741.0</ele><time>2026-04-12T09:14:55Z</time></trkpt><trkpt lat="42.398809927739386" lon="12.218527561143793"><ele>738.5999999999999</ele><time>2026-04-12T09:14:56Z</time></trkpt><trkpt lat="42.39876814522687" lon="12.218388610885864"><ele>736.2</ele><time>2026-04-12T09:14:57Z</time></trkpt><trkpt lat="42.39873215338867" lon="12.21824680416669"><ele>733.8</ele><time>2026-04-12T09:14:58Z</time></trkpt><trkpt lat="42.3986783891609" lon="12.218110590816147"><ele>731.4000000000001</ele><time>2026-04-12T09:14:59Z</time></trkpt><trkpt lat="42.39860603106167" lon="12.21799415565477"><ele>729.0</ele><time>2026-04-12T09:15:00Z</time></trkpt><trkpt lat="42.398563306489464" lon="12.21786834152066"><ele>729.0</ele><time>2026-04-12T09:15:01Z</time></trkpt><trkpt lat="42.39849294185669" lon="12.21774705815978"><ele>729.0</ele><time>2026-04-12T09:15:02Z</time></trkpt><trkpt lat="42.39841735053195" lon="12.21762108673839"><ele>729.0</ele><time>2026-04-12T09:15:03Z</time></trkpt><trkpt lat="42.398337035763625" lon="12.217494329502026"><ele>729.0</ele><time>2026-04-12T09:15:04Z</time></trkpt><trkpt lat="42.39825316659164" lon="12.217364316049668"><ele>728.5</ele><time>2026-04-12T09:15:05Z</time></trkpt><trkpt lat="42.39816682406094" lon="12.217248951879968"><ele>728.0</ele><time>2026-04-12T09:15:06Z</time></trkpt><trkpt lat="42.39806831394763" lon="12.217136410281375"><ele>727.5</ele><time>2026-04-12T09:15:07Z</time></trkpt><trkpt lat="42.39796118827745" lon="12.217026982272207"><ele>727.0</ele><time>2026-04-12T09:15:08Z</time></trkpt><trkpt lat="42.39784639861037" lon="12.216917004222985"><ele>727.0</ele><time>2026-04-12T09:15:09Z</time></trkpt><trkpt lat="42.39772904650845" lon="12.216800099174993"><ele>727.0</ele><time>2026-04-12T09:15:10Z</time></trkpt><trkpt lat="42.39761777738046" lon="12.216689516516064"><ele>727.0</ele><time>2026-04-12T09:15:11Z</time></trkpt><trkpt lat="42.39751602065855" lon="12.216589269422354"><ele>727.0</ele><time>2026-04-12T09:15:12Z</time></trkpt><trkpt lat="42.39741646245193" lon="12.216499666495572"><ele>726.75</ele><time>2026-04-12T09:15:13Z</time></trkpt><trkpt lat="42.39731923738654" lon="12.216422262459668"><ele>726.5</ele><time>2026-04-12T09:15:14Z</time></trkpt><trkpt lat="42.39722239879089" lon="12.216348191553264"><ele>726.25</ele><time>2026-04-12T09:15:15Z</time></trkpt><trkpt lat="42.3971208095771" lon="12.216274759860541"><ele>726.0</ele><time>2026-04-12T09:15:16Z</time></trkpt><trkpt lat="42.39701397820387" lon="12.216232387129384"><ele>726.0</ele><time>2026-04-12T09:15:17Z</time></trkpt><trkpt lat="42.3969172738428" lon="12.216169517943083"><ele>726.0</ele><time>2026-04-12T09:15:17.999Z</time></trkpt><trkpt lat="42.396817967450936" lon="12.216142708679707"><ele>726.0</ele><time>2026-04-12T09:15:18.999Z</time></trkpt><trkpt lat="42.39671309362129" lon="12.216077569738783"><ele>726.0</ele><time>2026-04-12T09:15:19.999Z</time></trkpt><trkpt lat="42.396594512228674" lon="12.216037495832719"><ele>726.0</ele><time>2026-04-12T09:15:20.999Z</time></trkpt><trkpt lat="42.39647611159476" lon="12.216007823842288"><ele>726.0</ele><time>2026-04-12T09:15:21.999Z</time></trkpt><trkpt lat="42.39636853701939" lon="12.216012678745859"><ele>726.0</ele><time>2026-04-12T09:15:22.999Z</time></trkpt><trkpt lat="42.39625924373613" lon="12.216045730538209"><ele>726.0</ele><time>2026-04-12T09:15:23.999Z</time></trkpt><trkpt lat="42.3961503601622" lon="12.21609882336944"><ele>726.0</ele><time>2026-04-12T09:15:24.999Z</time></trkpt><trkpt lat="42.396035832712705" lon="12.216163069589438"><ele>727.25</ele><time>2026-04-12T09:15:25.999Z</time></trkpt><trkpt lat="42.39591506872435" lon="12.216219710116187"><ele>728.5</ele><time>2026-04-12T09:15:26.999Z</time></trkpt><trkpt lat="42.39579358298277" lon="12.216276942937766"><ele>729.75</ele><time>2026-04-12T09:15:27.999Z</time></trkpt><trkpt lat="42.39566420275678" lon="12.216303973290694"><ele>731.0</ele><time>2026-04-12T09:15:28.999Z</time></trkpt><trkpt lat="42.39552930327937" lon="12.216297491840468"><ele>730.0</ele><time>2026-04-12T09:15:29.999Z</time></trkpt><trkpt lat="42.39540860036231" lon="12.216222853101405"><ele>729.0</ele><time>2026-04-12T09:15:30.999Z</time></trkpt><trkpt lat="42.395283458937236" lon="12.21615967275539"><ele>728.0</ele><time>2026-04-12T09:15:31.999Z</time></trkpt><trkpt lat="42.39515940970891" lon="12.216095767620814"><ele>727.0</ele><time>2026-04-12T09:15:32.999Z</time></trkpt><trkpt lat="42.39504048385756" lon="12.216033617831247"><ele>727.0</ele><time>2026-04-12T09:15:33.999Z</time></trkpt><trkpt lat="42.39491955519053" lon="12.215970421388965"><ele>727.0</ele><time>2026-04-12T09:15:34.999Z</time></trkpt><trkpt lat="42.394799179718156" lon="12.215910353546592"><ele>727.0</ele><time>2026-04-12T09:15:35.999Z</time></trkpt><trkpt lat="42.394680167867904" lon="12.215851194894627"><ele>727.0</ele><time>2026-04-12T09:15:36.999Z</time></trkpt><trkpt lat="42.39456386512401" lon="12.215789542786183"><ele>728.75</ele><time>2026-04-12T09:15:37.999Z</time></trkpt><trkpt lat="42.394443638120826" lon="12.215739278270206"><ele>730.5</ele><time>2026-04-12T09:15:38.999Z</time></trkpt><trkpt lat="42.394338614235956" lon="12.215645919462501"><ele>732.25</ele><time>2026-04-12T09:15:39.999Z</time></trkpt><trkpt lat="42.394255950870466" lon="12.215513885962439"><ele>734.0</ele><time>2026-04-12T09:15:40.999Z</time></trkpt><trkpt lat="42.3941848940277" lon="12.215380219774099"><ele>734.0</ele><time>2026-04-12T09:15:41.999Z</time></trkpt><trkpt lat="42.39411911741216" lon="12.215242707791102"><ele>734.0</ele><time>2026-04-12T09:15:42.999Z</time></trkpt><trkpt lat="42.39405040602017" lon="12.215112987932855"><ele>734.0</ele><time>2026-04-12T09:15:43.999Z</time></trkpt><trkpt lat="42.39396457839043" lon="12.214994624244138"><ele>734.0</ele><time>2026-04-12T09:15:44.999Z</time></trkpt><trkpt lat="42.39385472196352" lon="12.214901626126268"><ele>736.0</ele><time>2026-04-12T09:15:45.999Z</time></trkpt><trkpt lat="42.393737341753905" lon="12.214836113272096"><ele>738.0</ele><time>2026-04-12T09:15:46.999Z</time></trkpt><trkpt lat="42.39361604915217" lon="12.214801329556565"><ele>740.0</ele><time>2026-04-12T09:15:47.999Z</time></trkpt><trkpt lat="42.393501476357464" lon="12.214727598312608"><ele>742.0</ele><time>2026-04-12T09:15:48.999Z</time></trkpt><trkpt lat="42.39337993393961" lon="12.214681217919525"><ele>742.0</ele><time>2026-04-12T09:15:49.999Z</time></trkpt><trkpt lat="42.393280424728175" lon="12.21456646408567"><ele>742.0</ele><time>2026-04-12T09:15:50.999Z</time></trkpt><trkpt lat="42.39317518215801" lon="12.214460821082373"><ele>742.0</ele><time>2026-04-12T09:15:51.999Z</time></trkpt><trkpt lat="42.3931023643641" lon="12.214317650278192"><ele>742.0</ele><time>2026-04-12T09:15:52.999Z</time></trkpt><trkpt lat="42.393019327998786" lon="12.214182683545777"><ele>738.25</ele><time>2026-04-12T09:15:53.999Z</time></trkpt><trkpt lat="42.392940030846525" lon="12.214050145150907"><ele>734.5</ele><time>2026-04-12T09:15:54.999Z</time></trkpt><trkpt lat="42.39285832772182" lon="12.21391667190377"><ele>730.75</ele><time>2026-04-12T09:15:55.999Z</time></trkpt><trkpt lat="42.3927787507144" lon="12.213781561320708"><ele>727.0</ele><time>2026-04-12T09:15:56.999Z</time></trkpt><trkpt lat="42.39270957014717" lon="12.213641615691488"><ele>727.0</ele><time>2026-04-12T09:15:57.999Z</time></trkpt><trkpt lat="42.392657078024186" lon="12.213485509746837"><ele>727.0</ele><time>2026-04-12T09:15:58.999Z</time></trkpt><trkpt lat="42.392627167170545" lon="12.213316479502284"><ele>727.0</ele><time>2026-04-12T09:15:59.999Z</time></trkpt><trkpt lat="42.392609195181294" lon="12.213143714152222"><ele>727.0</ele><time>2026-04-12T09:16:00.999Z</time></trkpt><trkpt lat="42.392591247930255" lon="12.212967582146039"><ele>729.75</ele><time>2026-04-12T09:16:01.999Z</time></trkpt><trkpt lat="42.39257417460264" lon="12.212789377302514"><ele>732.5</ele><time>2026-04-12T09:16:02.999Z</time></trkpt><trkpt lat="42.392558130190366" lon="12.212609125119101"><ele>735.25</ele><time>2026-04-12T09:16:03.999Z</time></trkpt><trkpt lat="42.39254222929817" lon="12.212425697011422"><ele>738.0</ele><time>2026-04-12T09:16:04.999Z</time></trkpt><trkpt lat="42.39252815877981" lon="12.212243105868419"><ele>738.5</ele><time>2026-04-12T09:16:05.999Z</time></trkpt><trkpt lat="42.392507278849834" lon="12.212062487121027"><ele>739.0</ele><time>2026-04-12T09:16:06.999Z</time></trkpt><trkpt lat="42.39251500699521" lon="12.211877557803708"><ele>739.5</ele><time>2026-04-12T09:16:07.999Z</time></trkpt><trkpt lat="42.39253925920246" lon="12.211697294952346"><ele>740.0</ele><time>2026-04-12T09:16:08.999Z</time></trkpt><trkpt lat="42.39258209750462" lon="12.211520199610336"><ele>738.5</ele><time>2026-04-12T09:16:09.999Z</time></trkpt><trkpt lat="42.39264284014617" lon="12.21135151848137"><ele>737.0</ele><time>2026-04-12T09:16:11Z</time></trkpt><trkpt lat="42.39271453101153" lon="12.211188590638164"><ele>735.5</ele><time>2026-04-12T09:16:12Z</time></trkpt><trkpt lat="42.39278771032715" lon="12.211027576351139"><ele>734.0</ele><time>2026-04-12T09:16:13Z</time></trkpt><trkpt lat="42.392860891413264" lon="12.210865996188591"><ele>734.0</ele><time>2026-04-12T09:16:14Z</time></trkpt><trkpt lat="42.392927411729204" lon="12.210703953019324"><ele>734.0</ele><time>2026-04-12T09:16:15Z</time></trkpt><trkpt lat="42.392983552816695" lon="12.210544240197342"><ele>734.0</ele><time>2026-04-12T09:16:16Z</time></trkpt><trkpt lat="42.39301357085785" lon="12.21040350236707"><ele>734.0</ele><time>2026-04-12T09:16:17Z</time></trkpt><trkpt lat="42.39302570372731" lon="12.210262307356977"><ele>735.3333333333333</ele><time>2026-04-12T09:16:18Z</time></trkpt><trkpt lat="42.39302071425285" lon="12.210126644294826"><ele>736.6666666666666</ele><time>2026-04-12T09:16:19Z</time></trkpt><trkpt lat="42.39300044379098" lon="12.210013673533338"><ele>738.0</ele><time>2026-04-12T09:16:20Z</time></trkpt><trkpt lat="42.392967382545834" lon="12.209910521131984"><ele>739.3333333333334</ele><time>2026-04-12T09:16:21Z</time></trkpt><trkpt lat="42.392920704153404" lon="12.209813336932964"><ele>740.6666666666667</ele><time>2026-04-12T09:16:22Z</time></trkpt><trkpt lat="42.3928723172405" lon="12.209725595594811"><ele>742.0</ele><time>2026-04-12T09:16:23Z</time></trkpt><trkpt lat="42.392831188809204" lon="12.209647899797401"><ele>746.4000000000001</ele><time>2026-04-12T09:16:24Z</time></trkpt><trkpt lat="42.39278775099425" lon="12.20957665772297"><ele>750.8000000000001</ele><time>2026-04-12T09:16:25Z</time></trkpt><trkpt lat="42.39270753320677" lon="12.209457404740661"><ele>755.2</ele><time>2026-04-12T09:16:27Z</time></trkpt><trkpt lat="42.39263701299599" lon="12.209361141627186"><ele>759.6</ele><time>2026-04-12T09:16:29Z</time></trkpt><trkpt lat="42.39255474730464" lon="12.20924516948488"><ele>764.0</ele><time>2026-04-12T09:16:31Z</time></trkpt><trkpt lat="42.39250165601596" lon="12.209176762450975"><ele>764.0</ele><time>2026-04-12T09:16:32Z</time></trkpt><trkpt lat="42.39244019943145" lon="12.2091097561506"><ele>764.0</ele><time>2026-04-12T09:16:33Z</time></trkpt><trkpt lat="42.3923823124647" lon="12.209034092310835"><ele>764.0</ele><time>2026-04-12T09:16:34Z</time></trkpt><trkpt lat="42.392318463104964" lon="12.208946094018227"><ele>764.0</ele><time>2026-04-12T09:16:35Z</time></trkpt><trkpt lat="42.39225048210579" lon="12.208847072898902"><ele>764.0</ele><time>2026-04-12T09:16:36Z</time></trkpt><trkpt lat="42.392195700284546" lon="12.208743293176274"><ele>764.0</ele><time>2026-04-12T09:16:37Z</time></trkpt><trkpt lat="42.39214780358239" lon="12.208613847857654"><ele>762.0</ele><time>2026-04-12T09:16:38Z</time></trkpt><trkpt lat="42.39212046488876" lon="12.208453410480718"><ele>760.0</ele><time>2026-04-12T09:16:39Z</time></trkpt><trkpt lat="42.39211821577222" lon="12.208273172603299"><ele>758.0</ele><time>2026-04-12T09:16:40Z</time></trkpt><trkpt lat="42.39212721651684" lon="12.208093029155334"><ele>756.0</ele><time>2026-04-12T09:16:41Z</time></trkpt><trkpt lat="42.39213754230798" lon="12.207914602860669"><ele>756.0</ele><time>2026-04-12T09:16:42Z</time></trkpt><trkpt lat="42.39214617870558" lon="12.207746298379542"><ele>756.0</ele><time>2026-04-12T09:16:43Z</time></trkpt><trkpt lat="42.39215624199287" lon="12.207575868866247"><ele>756.0</ele><time>2026-04-12T09:16:44Z</time></trkpt><trkpt lat="42.39216504150556" lon="12.207401194482555"><ele>756.0</ele><time>2026-04-12T09:16:45Z</time></trkpt><trkpt lat="42.39216861961899" lon="12.20722363868397"><ele>764.0</ele><time>2026-04-12T09:16:46Z</time></trkpt><trkpt lat="42.392179943323185" lon="12.20705447166028"><ele>772.0</ele><time>2026-04-12T09:16:47Z</time></trkpt><trkpt lat="42.392185514293274" lon="12.20688372142363"><ele>780.0</ele><time>2026-04-12T09:16:48Z</time></trkpt><trkpt lat="42.39218781222455" lon="12.206723818913403"><ele>788.0</ele><time>2026-04-12T09:16:49Z</time></trkpt><trkpt lat="42.392185430818806" lon="12.206599557008541"><ele>788.0000000000001</ele><time>2026-04-12T09:16:50Z</time></trkpt><trkpt lat="42.39217714875796" lon="12.206495206823964"><ele>788.0</ele><time>2026-04-12T09:16:51Z</time></trkpt><trkpt lat="42.39214811628062" lon="12.206401701199486"><ele>788.0</ele><time>2026-04-12T09:16:52Z</time></trkpt><trkpt lat="42.392102488199605" lon="12.206309610580805"><ele>788.0</ele><time>2026-04-12T09:16:53Z</time></trkpt><trkpt lat="42.39203745226524" lon="12.206236719100675"><ele>788.0000000000001</ele><time>2026-04-12T09:16:54Z</time></trkpt><trkpt lat="42.39196843820127" lon="12.206161621127382"><ele>788.0</ele><time>2026-04-12T09:16:55Z</time></trkpt><trkpt lat="42.391863550895245" lon="12.206120578701444"><ele>788.25</ele><time>2026-04-12T09:16:56Z</time></trkpt><trkpt lat="42.391745641169166" lon="12.206106518489124"><ele>788.5</ele><time>2026-04-12T09:16:57Z</time></trkpt><trkpt lat="42.3916297485759" lon="12.206132945957966"><ele>788.75</ele><time>2026-04-12T09:16:58Z</time></trkpt><trkpt lat="42.3915071878041" lon="12.206119078681937"><ele>789.0</ele><time>2026-04-12T09:16:59Z</time></trkpt><trkpt lat="42.391389717280475" lon="12.206127184887913"><ele>787.6</ele><time>2026-04-12T09:17:00Z</time></trkpt><trkpt lat="42.391276617496764" lon="12.206135629453486"><ele>786.2</ele><time>2026-04-12T09:17:01Z</time></trkpt><trkpt lat="42.391160527521805" lon="12.20613505851355"><ele>784.8000000000001</ele><time>2026-04-12T09:17:02Z</time></trkpt><trkpt lat="42.39106782949097" lon="12.206110879895384"><ele>783.4000000000001</ele><time>2026-04-12T09:17:03Z</time></trkpt><trkpt lat="42.39098210288531" lon="12.20607970727977"><ele>782.0</ele><time>2026-04-12T09:17:04Z</time></trkpt><trkpt lat="42.39090074031858" lon="12.206033666294678"><ele>782.0000000000001</ele><time>2026-04-12T09:17:05Z</time></trkpt><trkpt lat="42.3908248898886" lon="12.205974358947243"><ele>782.0</ele><time>2026-04-12T09:17:06Z</time></trkpt><trkpt lat="42.390755529078206" lon="12.205899684815277"><ele>782.0</ele><time>2026-04-12T09:17:07Z</time></trkpt><trkpt lat="42.39069177792621" lon="12.205810291366092"><ele>782.0</ele><time>2026-04-12T09:17:08Z</time></trkpt><trkpt lat="42.39064120589416" lon="12.20572612670537"><ele>782.0000000000001</ele><time>2026-04-12T09:17:09Z</time></trkpt><trkpt lat="42.3905940047183" lon="12.205644366011358"><ele>782.0</ele><time>2026-04-12T09:17:10Z</time></trkpt><trkpt lat="42.390551373013984" lon="12.205575666928095"><ele>781.5000000000001</ele><time>2026-04-12T09:17:11Z</time></trkpt><trkpt lat="42.390499972498304" lon="12.205482857996076"><ele>781.0</ele><time>2026-04-12T09:17:13Z</time></trkpt><trkpt lat="42.39046475897262" lon="12.205407753011402"><ele>780.5</ele><time>2026-04-12T09:17:18Z</time></trkpt><trkpt lat="42.3904033757586" lon="12.205313093046723"><ele>780.0</ele><time>2026-04-12T09:17:20.999Z</time></trkpt><trkpt lat="42.39036645467979" lon="12.205216504976903"><ele>779.5000000000001</ele><time>2026-04-12T09:17:21.999Z</time></trkpt><trkpt lat="42.39031205864502" lon="12.205118623540951"><ele>779.0</ele><time>2026-04-12T09:17:22.999Z</time></trkpt><trkpt lat="42.39024509241212" lon="12.205005381222787"><ele>779.0</ele><time>2026-04-12T09:17:23.999Z</time></trkpt><trkpt lat="42.39016863386737" lon="12.204876828409919"><ele>779.0</ele><time>2026-04-12T09:17:24.999Z</time></trkpt><trkpt lat="42.39008615061888" lon="12.204737699120066"><ele>779.0</ele><time>2026-04-12T09:17:25.999Z</time></trkpt><trkpt lat="42.39000279154359" lon="12.204593394713926"><ele>779.0</ele><time>2026-04-12T09:17:26.999Z</time></trkpt><trkpt lat="42.38991808812248" lon="12.204431365118054"><ele>780.0</ele><time>2026-04-12T09:17:27.999Z</time></trkpt><trkpt lat="42.38982765278922" lon="12.204267927235644"><ele>781.0</ele><time>2026-04-12T09:17:28.999Z</time></trkpt><trkpt lat="42.3897523818157" lon="12.204082022001078"><ele>782.0</ele><time>2026-04-12T09:17:29.999Z</time></trkpt><trkpt lat="42.389701634970116" lon="12.203876566543306"><ele>779.0</ele><time>2026-04-12T09:17:30.999Z</time></trkpt><trkpt lat="42.389645339736504" lon="12.203673520744164"><ele>776.0</ele><time>2026-04-12T09:17:31.999Z</time></trkpt><trkpt lat="42.38958237617089" lon="12.2034889054581"><ele>773.0</ele><time>2026-04-12T09:17:32.999Z</time></trkpt><trkpt lat="42.38953602537066" lon="12.203306430241327"><ele>772.5</ele><time>2026-04-12T09:17:33.999Z</time></trkpt><trkpt lat="42.389507562425" lon="12.203125428348153"><ele>772.0</ele><time>2026-04-12T09:17:34.999Z</time></trkpt><trkpt lat="42.38946824405958" lon="12.202962975567972"><ele>771.5</ele><time>2026-04-12T09:17:35.999Z</time></trkpt><trkpt lat="42.389430680183175" lon="12.202807771828118"><ele>771.0</ele><time>2026-04-12T09:17:36.999Z</time></trkpt><trkpt lat="42.389395418704716" lon="12.202662081004581"><ele>771.0</ele><time>2026-04-12T09:17:37.999Z</time></trkpt><trkpt lat="42.38934627823483" lon="12.202534287816023"><ele>771.0</ele><time>2026-04-12T09:17:38.999Z</time></trkpt><trkpt lat="42.38931130011724" lon="12.202402944560943"><ele>771.0</ele><time>2026-04-12T09:17:39.999Z</time></trkpt><trkpt lat="42.38927943327056" lon="12.202279512703445"><ele>771.0</ele><time>2026-04-12T09:17:40.999Z</time></trkpt><trkpt lat="42.38925574871634" lon="12.20216218725287"><ele>771.0</ele><time>2026-04-12T09:17:41.999Z</time></trkpt><trkpt lat="42.38923158921513" lon="12.202049018687681"><ele>770.8</ele><time>2026-04-12T09:17:42.999Z</time></trkpt><trkpt lat="42.38921434996013" lon="12.201934212883714"><ele>770.5999999999999</ele><time>2026-04-12T09:17:43.999Z</time></trkpt><trkpt lat="42.38920264016973" lon="12.201810550977914"><ele>770.4</ele><time>2026-04-12T09:17:44.999Z</time></trkpt><trkpt lat="42.38920595556323" lon="12.201673579389515"><ele>770.2</ele><time>2026-04-12T09:17:45.999Z</time></trkpt><trkpt lat="42.38919097802669" lon="12.2015269686627"><ele>770.0</ele><time>2026-04-12T09:17:46.999Z</time></trkpt><trkpt lat="42.38922475090772" lon="12.201360880395692"><ele>770.0</ele><time>2026-04-12T09:17:47.999Z</time></trkpt><trkpt lat="42.38923842381554" lon="12.20118814526676"><ele>770.0</ele><time>2026-04-12T09:17:48.999Z</time></trkpt><trkpt lat="42.3892523496989" lon="12.201006893301411"><ele>770.0</ele><time>2026-04-12T09:17:49.999Z</time></trkpt><trkpt lat="42.38927814989083" lon="12.20081660522575"><ele>770.0</ele><time>2026-04-12T09:17:50.999Z</time></trkpt><trkpt lat="42.389320148421724" lon="12.200623695787574"><ele>770.3333333333334</ele><time>2026-04-12T09:17:51.999Z</time></trkpt><trkpt lat="42.389385197686266" lon="12.200433042983372"><ele>770.6666666666667</ele><time>2026-04-12T09:17:52.999Z</time></trkpt><trkpt lat="42.38946650405371" lon="12.200240467901834"><ele>771.0</ele><time>2026-04-12T09:17:53.999Z</time></trkpt><trkpt lat="42.38956056994254" lon="12.200057636555053"><ele>771.0</ele><time>2026-04-12T09:17:54.999Z</time></trkpt><trkpt lat="42.38966751099384" lon="12.199890875262486"><ele>771.0</ele><time>2026-04-12T09:17:55.999Z</time></trkpt><trkpt lat="42.38978457044958" lon="12.199733515020618"><ele>771.0</ele><time>2026-04-12T09:17:56.999Z</time></trkpt><trkpt lat="42.389899110357206" lon="12.199596919735377"><ele>771.5</ele><time>2026-04-12T09:17:57.999Z</time></trkpt><trkpt lat="42.39000855799726" lon="12.199472852451315"><ele>772.0</ele><time>2026-04-12T09:17:58.999Z</time></trkpt><trkpt lat="42.390109731024545" lon="12.199340163537174"><ele>772.5</ele><time>2026-04-12T09:17:59.999Z</time></trkpt><trkpt lat="42.390208470247664" lon="12.199192860739675"><ele>773.0</ele><time>2026-04-12T09:18:00.999Z</time></trkpt><trkpt lat="42.390297053451135" lon="12.19902482736871"><ele>771.6666666666667</ele><time>2026-04-12T09:18:01.999Z</time></trkpt><trkpt lat="42.390366161455" lon="12.198839649911767"><ele>770.3333333333333</ele><time>2026-04-12T09:18:02.999Z</time></trkpt><trkpt lat="42.39041698988509" lon="12.198642545314385"><ele>769.0</ele><time>2026-04-12T09:18:03.999Z</time></trkpt><trkpt lat="42.39045296636495" lon="12.198433025989475"><ele>769.0</ele><time>2026-04-12T09:18:04.999Z</time></trkpt><trkpt lat="42.39047746900239" lon="12.198216929189126"><ele>769.0</ele><time>2026-04-12T09:18:05.999Z</time></trkpt><trkpt lat="42.39049068402347" lon="12.197998421961966"><ele>769.0</ele><time>2026-04-12T09:18:06.999Z</time></trkpt><trkpt lat="42.3905015412894" lon="12.197780089866002"><ele>773.0</ele><time>2026-04-12T09:18:07.999Z</time></trkpt><trkpt lat="42.39051315708571" lon="12.197559434847527"><ele>777.0</ele><time>2026-04-12T09:18:08.999Z</time></trkpt><trkpt lat="42.39053326544105" lon="12.197343633556637"><ele>781.0</ele><time>2026-04-12T09:18:09.999Z</time></trkpt><trkpt lat="42.390566235879284" lon="12.19715581363651"><ele>781.5</ele><time>2026-04-12T09:18:10.999Z</time></trkpt><trkpt lat="42.3906101514167" lon="12.196987972756226"><ele>782.0</ele><time>2026-04-12T09:18:11.999Z</time></trkpt><trkpt lat="42.39067234024664" lon="12.196833516298573"><ele>782.5</ele><time>2026-04-12T09:18:12.999Z</time></trkpt><trkpt lat="42.39074375163647" lon="12.196682381083592"><ele>783.0</ele><time>2026-04-12T09:18:13.999Z</time></trkpt><trkpt lat="42.39080337715904" lon="12.196538494674684"><ele>782.4</ele><time>2026-04-12T09:18:14.999Z</time></trkpt><trkpt lat="42.3908622085523" lon="12.196411257057564"><ele>781.8</ele><time>2026-04-12T09:18:16Z</time></trkpt><trkpt lat="42.3909200474218" lon="12.196286072223728"><ele>781.2</ele><time>2026-04-12T09:18:17Z</time></trkpt><trkpt lat="42.390968208866006" lon="12.19617475004829"><ele>780.6</ele><time>2026-04-12T09:18:18Z</time></trkpt><trkpt lat="42.39101019125505" lon="12.196071703974306"><ele>780.0</ele><time>2026-04-12T09:18:19Z</time></trkpt><trkpt lat="42.39104686138101" lon="12.195965564686123"><ele>780.0</ele><time>2026-04-12T09:18:20Z</time></trkpt><trkpt lat="42.39108140416896" lon="12.195842360827152"><ele>780.0</ele><time>2026-04-12T09:18:21Z</time></trkpt><trkpt lat="42.39110957910011" lon="12.195700781477823"><ele>780.0</ele><time>2026-04-12T09:18:22Z</time></trkpt><trkpt lat="42.391133311674984" lon="12.195539836215117"><ele>780.0</ele><time>2026-04-12T09:18:23Z</time></trkpt><trkpt lat="42.391146450917255" lon="12.195377148110516"><ele>780.0</ele><time>2026-04-12T09:18:24Z</time></trkpt><trkpt lat="42.39115572967286" lon="12.19522021795809"><ele>779.2</ele><time>2026-04-12T09:18:25Z</time></trkpt><trkpt lat="42.39116495881195" lon="12.19506872973285"><ele>778.4</ele><time>2026-04-12T09:18:26Z</time></trkpt><trkpt lat="42.39117393621844" lon="12.194920909230287"><ele>777.5999999999999</ele><time>2026-04-12T09:18:27Z</time></trkpt><trkpt lat="42.39118130283216" lon="12.194784617750397"><ele>776.8</ele><time>2026-04-12T09:18:28Z</time></trkpt><trkpt lat="42.39119051502297" lon="12.194676859494253"><ele>776.0</ele><time>2026-04-12T09:18:29Z</time></trkpt><trkpt lat="42.39121059955857" lon="12.194582782430562"><ele>775.0000000000001</ele><time>2026-04-12T09:18:30Z</time></trkpt><trkpt lat="42.39125373979436" lon="12.194511196455876"><ele>774.0</ele><time>2026-04-12T09:18:31Z</time></trkpt><trkpt lat="42.391319707725806" lon="12.19448360220635"><ele>773.0</ele><time>2026-04-12T09:18:32Z</time></trkpt><trkpt lat="42.391398923462404" lon="12.19448865919999"><ele>772.0</ele><time>2026-04-12T09:18:33Z</time></trkpt><trkpt lat="42.391491062404214" lon="12.194523954209131"><ele>771.0000000000001</ele><time>2026-04-12T09:18:34Z</time></trkpt><trkpt lat="42.391596080260356" lon="12.194590236813438"><ele>770.0</ele><time>2026-04-12T09:18:35Z</time></trkpt><trkpt lat="42.391712540138684" lon="12.19464589086945"><ele>770.0</ele><time>2026-04-12T09:18:36Z</time></trkpt><trkpt lat="42.39183931075531" lon="12.194698478206572"><ele>770.0</ele><time>2026-04-12T09:18:37Z</time></trkpt><trkpt lat="42.391968558961814" lon="12.194757383429105"><ele>770.0</ele><time>2026-04-12T09:18:38Z</time></trkpt><trkpt lat="42.3921009675479" lon="12.194817655914031"><ele>770.0</ele><time>2026-04-12T09:18:39Z</time></trkpt><trkpt lat="42.392233055148814" lon="12.194879741112144"><ele>773.6666666666667</ele><time>2026-04-12T09:18:40Z</time></trkpt><trkpt lat="42.39237038115659" lon="12.19492978959916"><ele>777.3333333333333</ele><time>2026-04-12T09:18:41Z</time></trkpt><trkpt lat="42.39252129762514" lon="12.194975111445652"><ele>781.0</ele><time>2026-04-12T09:18:42Z</time></trkpt><trkpt lat="42.39267753475249" lon="12.195007605143191"><ele>781.0</ele><time>2026-04-12T09:18:43Z</time></trkpt><trkpt lat="42.392838837739056" lon="12.195033938048404"><ele>781.0</ele><time>2026-04-12T09:18:44Z</time></trkpt><trkpt lat="42.39300286303163" lon="12.195052555212671"><ele>781.0</ele><time>2026-04-12T09:18:45Z</time></trkpt><trkpt lat="42.393170543440505" lon="12.1950741879732"><ele>781.0</ele><time>2026-04-12T09:18:46Z</time></trkpt><trkpt lat="42.39334027096844" lon="12.195100497807342"><ele>781.0</ele><time>2026-04-12T09:18:47Z</time></trkpt><trkpt lat="42.393501035295635" lon="12.195122310699377"><ele>781.0</ele><time>2026-04-12T09:18:48Z</time></trkpt><trkpt lat="42.39364910778037" lon="12.195138896794443"><ele>781.0</ele><time>2026-04-12T09:18:49Z</time></trkpt><trkpt lat="42.39379663732614" lon="12.195140282255268"><ele>781.0</ele><time>2026-04-12T09:18:50Z</time></trkpt><trkpt lat="42.39394801160983" lon="12.195104382658672"><ele>781.0</ele><time>2026-04-12T09:18:51Z</time></trkpt><trkpt lat="42.39407794417636" lon="12.195014101762935"><ele>781.0</ele><time>2026-04-12T09:18:52Z</time></trkpt><trkpt lat="42.39420394489561" lon="12.194912114855684"><ele>780.5</ele><time>2026-04-12T09:18:53Z</time></trkpt><trkpt lat="42.39433335406799" lon="12.194796058678191"><ele>780.0</ele><time>2026-04-12T09:18:54Z</time></trkpt><trkpt lat="42.394455161490654" lon="12.194684132600274"><ele>779.5</ele><time>2026-04-12T09:18:55Z</time></trkpt><trkpt lat="42.39456067765454" lon="12.194588592607088"><ele>779.0</ele><time>2026-04-12T09:18:56Z</time></trkpt><trkpt lat="42.39466529083971" lon="12.194494862551954"><ele>778.25</ele><time>2026-04-12T09:18:57Z</time></trkpt><trkpt lat="42.3947712860316" lon="12.194384153059715"><ele>777.5</ele><time>2026-04-12T09:18:58Z</time></trkpt><trkpt lat="42.39487267618236" lon="12.19425565447927"><ele>776.75</ele><time>2026-04-12T09:18:59Z</time></trkpt><trkpt lat="42.3949742758331" lon="12.194120445759522"><ele>776.0</ele><time>2026-04-12T09:19:00Z</time></trkpt><trkpt lat="42.39508998633414" lon="12.19399259194106"><ele>776.0</ele><time>2026-04-12T09:19:01Z</time></trkpt><trkpt lat="42.395224189435645" lon="12.193869019612197"><ele>776.0</ele><time>2026-04-12T09:19:02Z</time></trkpt><trkpt lat="42.39535772184343" lon="12.193754640542318"><ele>776.0</ele><time>2026-04-12T09:19:03Z</time></trkpt><trkpt lat="42.395482336739256" lon="12.193653683557859"><ele>776.5</ele><time>2026-04-12T09:19:04Z</time></trkpt><trkpt lat="42.39559394217979" lon="12.193567477000158"><ele>777.0</ele><time>2026-04-12T09:19:05Z</time></trkpt><trkpt lat="42.39570674931055" lon="12.193498715332023"><ele>777.5</ele><time>2026-04-12T09:19:06Z</time></trkpt><trkpt lat="42.39582263415388" lon="12.193453927609404"><ele>778.0</ele><time>2026-04-12T09:19:07Z</time></trkpt><trkpt lat="42.39594863776563" lon="12.193441212890255"><ele>778.0</ele><time>2026-04-12T09:19:08Z</time></trkpt><trkpt lat="42.396084490499646" lon="12.193456045286002"><ele>778.0</ele><time>2026-04-12T09:19:09Z</time></trkpt><trkpt lat="42.396225943772215" lon="12.19350080652616"><ele>778.0</ele><time>2026-04-12T09:19:10Z</time></trkpt><trkpt lat="42.39635801267501" lon="12.193533705956364"><ele>778.0</ele><time>2026-04-12T09:19:11Z</time></trkpt><trkpt lat="42.39648671775183" lon="12.193532390350716"><ele>777.5</ele><time>2026-04-12T09:19:12Z</time></trkpt><trkpt lat="42.396623056265625" lon="12.193489283771681"><ele>777.0</ele><time>2026-04-12T09:19:13Z</time></trkpt><trkpt lat="42.39674348200146" lon="12.193416334309669"><ele>776.5</ele><time>2026-04-12T09:19:14Z</time></trkpt><trkpt lat="42.39685204554295" lon="12.193302393378355"><ele>776.0</ele><time>2026-04-12T09:19:15Z</time></trkpt><trkpt lat="42.39694972927315" lon="12.193154529107114"><ele>776.25</ele><time>2026-04-12T09:19:16Z</time></trkpt><trkpt lat="42.397042849359515" lon="12.193008146003304"><ele>776.5</ele><time>2026-04-12T09:19:17Z</time></trkpt><trkpt lat="42.39714381019533" lon="12.1928955322023"><ele>776.75</ele><time>2026-04-12T09:19:17.999Z</time></trkpt><trkpt lat="42.397267613276306" lon="12.192818437228585"><ele>777.0</ele><time>2026-04-12T09:19:18.999Z</time></trkpt><trkpt lat="42.397400494988354" lon="12.192754801359918"><ele>777.0</ele><time>2026-04-12T09:19:19.999Z</time></trkpt><trkpt lat="42.39750334313786" lon="12.192708346094138"><ele>777.0</ele><time>2026-04-12T09:19:20.999Z</time></trkpt><trkpt lat="42.397582521208264" lon="12.192670763112028"><ele>777.0</ele><time>2026-04-12T09:19:21.999Z</time></trkpt><trkpt lat="42.39764930601997" lon="12.192642544976326"><ele>777.0</ele><time>2026-04-12T09:19:22.999Z</time></trkpt><trkpt lat="42.39773688580177" lon="12.19262882636382"><ele>777.0</ele><time>2026-04-12T09:19:24.999Z</time></trkpt><trkpt lat="42.39784510795925" lon="12.192639411884732"><ele>777.0</ele><time>2026-04-12T09:19:42.999Z</time></trkpt><trkpt lat="42.39793240399555" lon="12.192669171875998"><ele>777.0</ele><time>2026-04-12T09:19:44.999Z</time></trkpt><trkpt lat="42.39799627904424" lon="12.192706420719244"><ele>777.0</ele><time>2026-04-12T09:19:46.999Z</time></trkpt><trkpt lat="42.39804509969909" lon="12.192773646028728"><ele>777.0</ele><time>2026-04-12T09:19:49.999Z</time></trkpt><trkpt lat="42.398107266431516" lon="12.19284161194442"><ele>777.0</ele><time>2026-04-12T09:19:50.999Z</time></trkpt><trkpt lat="42.398179877380116" lon="12.192926629306326"><ele>777.0</ele><time>2026-04-12T09:19:51.999Z</time></trkpt><trkpt lat="42.39824534273908" lon="12.193044638433037"><ele>778.6</ele><time>2026-04-12T09:19:52.999Z</time></trkpt><trkpt lat="42.39829843765793" lon="12.193175512584064"><ele>780.2</ele><time>2026-04-12T09:19:53.999Z</time></trkpt><trkpt lat="42.398327792831076" lon="12.19330976965379"><ele>781.8</ele><time>2026-04-12T09:19:54.999Z</time></trkpt><trkpt lat="42.39837458762974" lon="12.193450573381671"><ele>783.4</ele><time>2026-04-12T09:19:55.999Z</time></trkpt><trkpt lat="42.39841723048269" lon="12.193567871081944"><ele>785.0</ele><time>2026-04-12T09:19:56.999Z</time></trkpt><trkpt lat="42.39846297872888" lon="12.19367330092744"><ele>785.0</ele><time>2026-04-12T09:19:57.999Z</time></trkpt><trkpt lat="42.39850908502485" lon="12.193775290809064"><ele>785.0</ele><time>2026-04-12T09:19:58.999Z</time></trkpt><trkpt lat="42.398549994459216" lon="12.193878888485921"><ele>785.0</ele><time>2026-04-12T09:19:59.999Z</time></trkpt><trkpt lat="42.3985810160809" lon="12.193979435298633"><ele>785.0</ele><time>2026-04-12T09:20:00.999Z</time></trkpt><trkpt lat="42.39860748182697" lon="12.19405869209456"><ele>785.0</ele><time>2026-04-12T09:20:01.999Z</time></trkpt><trkpt lat="42.398590376620724" lon="12.194251736321963"><ele>787.2</ele><time>2026-04-12T09:20:03.999Z</time></trkpt><trkpt lat="42.39854038746441" lon="12.194389255428138"><ele>789.4</ele><time>2026-04-12T09:20:04.999Z</time></trkpt><trkpt lat="42.39850193955795" lon="12.194514830087128"><ele>791.5999999999999</ele><time>2026-04-12T09:20:05.999Z</time></trkpt><trkpt lat="42.39848422324343" lon="12.194596802062128"><ele>793.8</ele><time>2026-04-12T09:20:06.999Z</time></trkpt><trkpt lat="42.39847554994884" lon="12.194728865089761"><ele>796.0</ele><time>2026-04-12T09:20:07.999Z</time></trkpt><trkpt lat="42.398476039730866" lon="12.194871902675867"><ele>797.8</ele><time>2026-04-12T09:20:08.999Z</time></trkpt><trkpt lat="42.39846330954572" lon="12.195044407885135"><ele>799.5999999999999</ele><time>2026-04-12T09:20:09.999Z</time></trkpt><trkpt lat="42.39844234941203" lon="12.195191252245182"><ele>801.4</ele><time>2026-04-12T09:20:10.999Z</time></trkpt><trkpt lat="42.39842478279614" lon="12.195321380549473"><ele>803.2</ele><time>2026-04-12T09:20:11.999Z</time></trkpt><trkpt lat="42.39843951815486" lon="12.195444041403606"><ele>805.0</ele><time>2026-04-12T09:20:12.999Z</time></trkpt><trkpt lat="42.39845627135565" lon="12.195536832909866"><ele>805.0</ele><time>2026-04-12T09:20:13.999Z</time></trkpt><trkpt lat="42.398543270900916" lon="12.195591602785559"><ele>805.0</ele><time>2026-04-12T09:20:15.999Z</time></trkpt><trkpt lat="42.398624864902374" lon="12.195599901765346"><ele>805.0</ele><time>2026-04-12T09:20:16.999Z</time></trkpt><trkpt lat="42.398711712901914" lon="12.195537084571853"><ele>805.0</ele><time>2026-04-12T09:20:17.999Z</time></trkpt><trkpt lat="42.398792761572146" lon="12.195408632282309"><ele>805.0</ele><time>2026-04-12T09:20:18.999Z</time></trkpt><trkpt lat="42.398855741880126" lon="12.195297866583072"><ele>804.4999999999999</ele><time>2026-04-12T09:20:19.999Z</time></trkpt><trkpt lat="42.39891328857904" lon="12.195213173476715"><ele>804.0</ele><time>2026-04-12T09:20:21Z</time></trkpt><trkpt lat="42.39899843994812" lon="12.195121514508902"><ele>803.5</ele><time>2026-04-12T09:20:23Z</time></trkpt><trkpt lat="42.39906130578611" lon="12.19510419598374"><ele>803.0</ele><time>2026-04-12T09:20:24Z</time></trkpt><trkpt lat="42.399142357238205" lon="12.195122933069971"><ele>802.4999999999999</ele><time>2026-04-12T09:20:25Z</time></trkpt><trkpt lat="42.399226309806316" lon="12.195149971435152"><ele>802.0</ele><time>2026-04-12T09:20:26Z</time></trkpt><trkpt lat="42.39932205304172" lon="12.195179954299798"><ele>802.0</ele><time>2026-04-12T09:20:27Z</time></trkpt><trkpt lat="42.39942675206574" lon="12.195193116572698"><ele>802.0</ele><time>2026-04-12T09:20:28Z</time></trkpt><trkpt lat="42.39951817311686" lon="12.195209235373337"><ele>802.0</ele><time>2026-04-12T09:20:29Z</time></trkpt><trkpt lat="42.39960002730823" lon="12.195258097631191"><ele>802.0</ele><time>2026-04-12T09:20:30Z</time></trkpt><trkpt lat="42.399674183868406" lon="12.195310249269818"><ele>802.0</ele><time>2026-04-12T09:20:31Z</time></trkpt><trkpt lat="42.39974260203854" lon="12.195451093817203"><ele>802.4000000000001</ele><time>2026-04-12T09:20:32Z</time></trkpt><trkpt lat="42.399789040809196" lon="12.195551211542552"><ele>802.8000000000001</ele><time>2026-04-12T09:20:33Z</time></trkpt><trkpt lat="42.399854778224444" lon="12.195669185554161"><ele>803.2</ele><time>2026-04-12T09:20:34Z</time></trkpt><trkpt lat="42.39990315065217" lon="12.195777693473772"><ele>803.6</ele><time>2026-04-12T09:20:35Z</time></trkpt><trkpt lat="42.39993403487523" lon="12.195891651012898"><ele>804.0</ele><time>2026-04-12T09:20:36Z</time></trkpt><trkpt lat="42.39996246382957" lon="12.19604980647745"><ele>807.25</ele><time>2026-04-12T09:20:37Z</time></trkpt><trkpt lat="42.400008129706194" lon="12.196224839329131"><ele>810.5</ele><time>2026-04-12T09:20:38Z</time></trkpt><trkpt lat="42.40006832130039" lon="12.19637853866269"><ele>813.75</ele><time>2026-04-12T09:20:39Z</time></trkpt><trkpt lat="42.40012853091791" lon="12.19653755524381"><ele>817.0</ele><time>2026-04-12T09:20:40Z</time></trkpt><trkpt lat="42.40019352627137" lon="12.196697873611182"><ele>820.0</ele><time>2026-04-12T09:20:41Z</time></trkpt><trkpt lat="42.4002423464893" lon="12.196829183637705"><ele>823.0</ele><time>2026-04-12T09:20:42Z</time></trkpt><trkpt lat="42.40029393876287" lon="12.196982639940574"><ele>826.0</ele><time>2026-04-12T09:20:43Z</time></trkpt><trkpt lat="42.400359361400845" lon="12.197132225596357"><ele>829.0</ele><time>2026-04-12T09:20:44Z</time></trkpt><trkpt lat="42.400428041999284" lon="12.197279731171633"><ele>829.25</ele><time>2026-04-12T09:20:45Z</time></trkpt><trkpt lat="42.40048959884519" lon="12.19742929287421"><ele>829.5</ele><time>2026-04-12T09:20:46Z</time></trkpt><trkpt lat="42.40054984674198" lon="12.197578347042137"><ele>829.75</ele><time>2026-04-12T09:20:47Z</time></trkpt><trkpt lat="42.40059751662196" lon="12.197727066538"><ele>830.0</ele><time>2026-04-12T09:20:48Z</time></trkpt><trkpt lat="42.4006200747585" lon="12.197882261701015"><ele>830.0</ele><time>2026-04-12T09:20:49Z</time></trkpt><trkpt lat="42.40062275485501" lon="12.198036250711437"><ele>830.0</ele><time>2026-04-12T09:20:50Z</time></trkpt><trkpt lat="42.40061931486783" lon="12.198187679836996"><ele>830.0</ele><time>2026-04-12T09:20:51Z</time></trkpt><trkpt lat="42.400623460133666" lon="12.19834902517225"><ele>830.0</ele><time>2026-04-12T09:20:52Z</time></trkpt><trkpt lat="42.40063490459017" lon="12.198519720997155"><ele>831.4</ele><time>2026-04-12T09:20:53Z</time></trkpt><trkpt lat="42.40064288595437" lon="12.19866153672555"><ele>832.8</ele><time>2026-04-12T09:20:54Z</time></trkpt><trkpt lat="42.400672206247336" lon="12.198781361405047"><ele>834.2</ele><time>2026-04-12T09:20:55Z</time></trkpt><trkpt lat="42.40069421078301" lon="12.19889442172872"><ele>835.6</ele><time>2026-04-12T09:20:56Z</time></trkpt><trkpt lat="42.40071715168027" lon="12.198987244099053"><ele>837.0</ele><time>2026-04-12T09:20:57Z</time></trkpt><trkpt lat="42.40077171296548" lon="12.199101100044667"><ele>838.0</ele><time>2026-04-12T09:20:59Z</time></trkpt><trkpt lat="42.40079354913926" lon="12.199203507895431"><ele>839.0</ele><time>2026-04-12T09:21:01Z</time></trkpt><trkpt lat="42.40081262985619" lon="12.199370106042975"><ele>840.0</ele><time>2026-04-12T09:21:03Z</time></trkpt><trkpt lat="42.40080870079548" lon="12.199463029021235"><ele>841.0</ele><time>2026-04-12T09:21:04Z</time></trkpt><trkpt lat="42.40078400312246" lon="12.199564601692542"><ele>842.0</ele><time>2026-04-12T09:21:05Z</time></trkpt><trkpt lat="42.4007412637652" lon="12.199657221665092"><ele>843.0</ele><time>2026-04-12T09:21:06Z</time></trkpt><trkpt lat="42.4006783358337" lon="12.199719101721268"><ele>843.0</ele><time>2026-04-12T09:21:07Z</time></trkpt><trkpt lat="42.40061080607512" lon="12.199778070078635"><ele>843.0</ele><time>2026-04-12T09:21:08Z</time></trkpt><trkpt lat="42.400527765075765" lon="12.199824569096046"><ele>843.0</ele><time>2026-04-12T09:21:09Z</time></trkpt><trkpt lat="42.400433991377426" lon="12.199851890213484"><ele>843.0</ele><time>2026-04-12T09:21:10Z</time></trkpt><trkpt lat="42.40033735837771" lon="12.19989540424334"><ele>843.0</ele><time>2026-04-12T09:21:11Z</time></trkpt><trkpt lat="42.400244695580035" lon="12.199958758505588"><ele>846.5</ele><time>2026-04-12T09:21:12Z</time></trkpt><trkpt lat="42.400128772492444" lon="12.200006162610986"><ele>850.0</ele><time>2026-04-12T09:21:13Z</time></trkpt><trkpt lat="42.40001589917999" lon="12.2000686588424"><ele>853.5</ele><time>2026-04-12T09:21:14Z</time></trkpt><trkpt lat="42.39991421292595" lon="12.20011984652675"><ele>857.0</ele><time>2026-04-12T09:21:15Z</time></trkpt><trkpt lat="42.39982076409256" lon="12.200161098690572"><ele>857.0</ele><time>2026-04-12T09:21:16Z</time></trkpt><trkpt lat="42.39973594130762" lon="12.200215512349487"><ele>857.0</ele><time>2026-04-12T09:21:17Z</time></trkpt><trkpt lat="42.39965942328508" lon="12.200300143243208"><ele>857.0</ele><time>2026-04-12T09:21:18Z</time></trkpt><trkpt lat="42.39959581580399" lon="12.200399281212418"><ele>857.0</ele><time>2026-04-12T09:21:19Z</time></trkpt><trkpt lat="42.399528921469326" lon="12.200513525930257"><ele>857.0</ele><time>2026-04-12T09:21:20Z</time></trkpt><trkpt lat="42.39949151741371" lon="12.20058879711021"><ele>857.4000000000001</ele><time>2026-04-12T09:21:20.999Z</time></trkpt><trkpt lat="42.39944266875659" lon="12.200743103765578"><ele>857.8000000000001</ele><time>2026-04-12T09:21:22.999Z</time></trkpt><trkpt lat="42.39942300390094" lon="12.200910006289424"><ele>858.2</ele><time>2026-04-12T09:21:24.999Z</time></trkpt><trkpt lat="42.39937819021517" lon="12.200999275683102"><ele>858.6</ele><time>2026-04-12T09:21:25.999Z</time></trkpt><trkpt lat="42.399326174632236" lon="12.201096867344605"><ele>859.0</ele><time>2026-04-12T09:21:26.999Z</time></trkpt><trkpt lat="42.39925680403225" lon="12.201199823140835"><ele>858.9999999999999</ele><time>2026-04-12T09:21:27.999Z</time></trkpt><trkpt lat="42.39919916950716" lon="12.201289749160484"><ele>859.0</ele><time>2026-04-12T09:21:28.999Z</time></trkpt><trkpt lat="42.399137756343904" lon="12.201355363593464"><ele>859.0</ele><time>2026-04-12T09:21:29.999Z</time></trkpt><trkpt lat="42.3990649796017" lon="12.201404032351384"><ele>859.0</ele><time>2026-04-12T09:21:30.999Z</time></trkpt><trkpt lat="42.39898043757964" lon="12.201435799355039"><ele>858.9999999999999</ele><time>2026-04-12T09:21:31.999Z</time></trkpt><trkpt lat="42.39888318235112" lon="12.201474873728278"><ele>859.0</ele><time>2026-04-12T09:21:32.999Z</time></trkpt><trkpt lat="42.398775629553846" lon="12.20150503842153"><ele>860.6</ele><time>2026-04-12T09:21:33.999Z</time></trkpt><trkpt lat="42.3986837777872" lon="12.201530251297157"><ele>862.2</ele><time>2026-04-12T09:21:34.999Z</time></trkpt><trkpt lat="42.39860604308958" lon="12.201571304960389"><ele>863.8000000000001</ele><time>2026-04-12T09:21:35.999Z</time></trkpt><trkpt lat="42.398524606549884" lon="12.201624311312376"><ele>865.4000000000001</ele><time>2026-04-12T09:21:36.999Z</time></trkpt><trkpt lat="42.39844030331196" lon="12.201684851989063"><ele>867.0</ele><time>2026-04-12T09:21:37.999Z</time></trkpt><trkpt lat="42.398350313409914" lon="12.201742169019143"><ele>867.0</ele><time>2026-04-12T09:21:38.999Z</time></trkpt><trkpt lat="42.398267169567276" lon="12.201797358307717"><ele>867.0</ele><time>2026-04-12T09:21:39.999Z</time></trkpt><trkpt lat="42.39819404836588" lon="12.201866689358514"><ele>867.0</ele><time>2026-04-12T09:21:40.999Z</time></trkpt><trkpt lat="42.398118315219534" lon="12.201944870488582"><ele>867.0</ele><time>2026-04-12T09:21:41.999Z</time></trkpt><trkpt lat="42.39805322167713" lon="12.202060376056034"><ele>867.0</ele><time>2026-04-12T09:21:42.999Z</time></trkpt><trkpt lat="42.397979008839094" lon="12.202175309248746"><ele>866.0</ele><time>2026-04-12T09:21:43.999Z</time></trkpt><trkpt lat="42.397902500290265" lon="12.202264349112665"><ele>865.0</ele><time>2026-04-12T09:21:44.999Z</time></trkpt><trkpt lat="42.39782568919747" lon="12.202331058351744"><ele>864.0</ele><time>2026-04-12T09:21:45.999Z</time></trkpt><trkpt lat="42.39775362615075" lon="12.202383833701893"><ele>863.0</ele><time>2026-04-12T09:21:46.999Z</time></trkpt><trkpt lat="42.3976885833977" lon="12.202442149461257"><ele>862.0</ele><time>2026-04-12T09:21:47.999Z</time></trkpt><trkpt lat="42.397627112322084" lon="12.202518225191222"><ele>861.0</ele><time>2026-04-12T09:21:48.999Z</time></trkpt><trkpt lat="42.39756758662847" lon="12.202603193665126"><ele>861.0</ele><time>2026-04-12T09:21:49.999Z</time></trkpt><trkpt lat="42.39750900888427" lon="12.202698821898302"><ele>861.0</ele><time>2026-04-12T09:21:50.999Z</time></trkpt><trkpt lat="42.397458677609116" lon="12.202809635817406"><ele>861.0</ele><time>2026-04-12T09:21:51.999Z</time></trkpt><trkpt lat="42.39740592962178" lon="12.202903886669247"><ele>861.0</ele><time>2026-04-12T09:21:52.999Z</time></trkpt><trkpt lat="42.39736973479389" lon="12.202983940078838"><ele>861.0</ele><time>2026-04-12T09:21:53.999Z</time></trkpt><trkpt lat="42.39734780569849" lon="12.203067573478203"><ele>861.0</ele><time>2026-04-12T09:21:54.999Z</time></trkpt><trkpt lat="42.39732749852024" lon="12.203153129847458"><ele>862.4</ele><time>2026-04-12T09:21:55.999Z</time></trkpt><trkpt lat="42.39732346830506" lon="12.203257285923979"><ele>863.8</ele><time>2026-04-12T09:21:56.999Z</time></trkpt><trkpt lat="42.39732574727637" lon="12.203385515098345"><ele>865.1999999999999</ele><time>2026-04-12T09:21:57.999Z</time></trkpt><trkpt lat="42.397325636766425" lon="12.203518214993004"><ele>866.5999999999999</ele><time>2026-04-12T09:21:58.999Z</time></trkpt><trkpt lat="42.39732829885625" lon="12.203651404093721"><ele>868.0</ele><time>2026-04-12T09:21:59.999Z</time></trkpt><trkpt lat="42.397323845592375" lon="12.203775755267822"><ele>867.9999999999999</ele><time>2026-04-12T09:22:00.999Z</time></trkpt><trkpt lat="42.39730428907836" lon="12.20389144665682"><ele>868.0</ele><time>2026-04-12T09:22:01.999Z</time></trkpt><trkpt lat="42.39727894276774" lon="12.203990677844047"><ele>868.0</ele><time>2026-04-12T09:22:02.999Z</time></trkpt><trkpt lat="42.397234974200266" lon="12.204074485575605"><ele>868.0</ele><time>2026-04-12T09:22:03.999Z</time></trkpt><trkpt lat="42.397171895864844" lon="12.204127571405891"><ele>867.9999999999999</ele><time>2026-04-12T09:22:04.999Z</time></trkpt><trkpt lat="42.39709569309613" lon="12.20414976356608"><ele>868.0</ele><time>2026-04-12T09:22:05.999Z</time></trkpt><trkpt lat="42.39701135156538" lon="12.204144295931588"><ele>868.5999999999999</ele><time>2026-04-12T09:22:06.999Z</time></trkpt><trkpt lat="42.39692274915748" lon="12.20413057387281"><ele>869.1999999999999</ele><time>2026-04-12T09:22:07.999Z</time></trkpt><trkpt lat="42.39682924088294" lon="12.204129086246935"><ele>869.8</ele><time>2026-04-12T09:22:08.999Z</time></trkpt><trkpt lat="42.396734884892716" lon="12.204127347127889"><ele>870.4</ele><time>2026-04-12T09:22:09.999Z</time></trkpt><trkpt lat="42.396644802647714" lon="12.204118499309072"><ele>871.0</ele><time>2026-04-12T09:22:10.999Z</time></trkpt><trkpt lat="42.39655016889719" lon="12.204104730722014"><ele>871.0</ele><time>2026-04-12T09:22:11.999Z</time></trkpt><trkpt lat="42.39645713325449" lon="12.204096875076177"><ele>870.9999999999999</ele><time>2026-04-12T09:22:12.999Z</time></trkpt><trkpt lat="42.396355291585934" lon="12.204092054785857"><ele>870.9999999999999</ele><time>2026-04-12T09:22:13.999Z</time></trkpt><trkpt lat="42.39625944791203" lon="12.204074499150304"><ele>871.0</ele><time>2026-04-12T09:22:14.999Z</time></trkpt><trkpt lat="42.39616448637939" lon="12.20405193722063"><ele>871.0</ele><time>2026-04-12T09:22:15.999Z</time></trkpt><trkpt lat="42.39607383250204" lon="12.2040397262144"><ele>870.6666666666666</ele><time>2026-04-12T09:22:16.999Z</time></trkpt><trkpt lat="42.395977545659576" lon="12.204046226577262"><ele>870.3333333333333</ele><time>2026-04-12T09:22:17.999Z</time></trkpt><trkpt lat="42.39590876441624" lon="12.20404350804272"><ele>870.0</ele><time>2026-04-12T09:22:18.999Z</time></trkpt><trkpt lat="42.395834821417694" lon="12.204043762872507"><ele>869.6666666666667</ele><time>2026-04-12T09:22:20.999Z</time></trkpt><trkpt lat="42.39576679364507" lon="12.204024043478123"><ele>869.3333333333334</ele><time>2026-04-12T09:22:22.999Z</time></trkpt><trkpt lat="42.39570495453315" lon="12.203985572983102"><ele>869.0</ele><time>2026-04-12T09:22:25.999Z</time></trkpt><trkpt lat="42.39561643789803" lon="12.203912819755729"><ele>867.8000000000001</ele><time>2026-04-12T09:22:47Z</time></trkpt><trkpt lat="42.39553870598879" lon="12.203821929693772"><ele>866.6000000000001</ele><time>2026-04-12T09:22:49Z</time></trkpt><trkpt lat="42.39548203164597" lon="12.203697100471183"><ele>865.4</ele><time>2026-04-12T09:22:51Z</time></trkpt><trkpt lat="42.3954296412868" lon="12.203541370279583"><ele>864.2</ele><time>2026-04-12T09:22:53Z</time></trkpt><trkpt lat="42.395388974203975" lon="12.203471969377727"><ele>863.0</ele><time>2026-04-12T09:22:54Z</time></trkpt><trkpt lat="42.39531789392059" lon="12.20340211424644"><ele>863.0000000000001</ele><time>2026-04-12T09:22:56Z</time></trkpt><trkpt lat="42.39524199213419" lon="12.203333803492118"><ele>863.0</ele><time>2026-04-12T09:22:58Z</time></trkpt><trkpt lat="42.39522810458404" lon="12.203165967973492"><ele>863.0</ele><time>2026-04-12T09:23:00Z</time></trkpt><trkpt lat="42.39519551330888" lon="12.203090087788468"><ele>863.0</ele><time>2026-04-12T09:23:01Z</time></trkpt><trkpt lat="42.39512794448627" lon="12.203055767277815"><ele>863.0000000000001</ele><time>2026-04-12T09:23:02Z</time></trkpt><trkpt lat="42.39506424711243" lon="12.20298287647231"><ele>863.0</ele><time>2026-04-12T09:23:03Z</time></trkpt><trkpt lat="42.39500247681538" lon="12.202898108916411"><ele>862.5999999999999</ele><time>2026-04-12T09:23:04Z</time></trkpt><trkpt lat="42.39493292887958" lon="12.20284493875566"><ele>862.1999999999999</ele><time>2026-04-12T09:23:05Z</time></trkpt><trkpt lat="42.394867251998335" lon="12.202788490077776"><ele>861.8</ele><time>2026-04-12T09:23:06Z</time></trkpt><trkpt lat="42.394771314559094" lon="12.202725165257116"><ele>861.4</ele><time>2026-04-12T09:23:08Z</time></trkpt><trkpt lat="42.394709242054894" lon="12.202749279655933"><ele>861.0</ele><time>2026-04-12T09:23:09Z</time></trkpt><trkpt lat="42.39458217379395" lon="12.202705792486988"><ele>858.4</ele><time>2026-04-12T09:23:11Z</time></trkpt><trkpt lat="42.394503866836615" lon="12.202629049883216"><ele>855.8</ele><time>2026-04-12T09:23:12Z</time></trkpt><trkpt lat="42.394436785745306" lon="12.202571020352497"><ele>853.1999999999999</ele><time>2026-04-12T09:23:13Z</time></trkpt><trkpt lat="42.3943170954281" lon="12.202541344585143"><ele>850.5999999999999</ele><time>2026-04-12T09:23:15Z</time></trkpt><trkpt lat="42.39425043905415" lon="12.202509162883768"><ele>848.0</ele><time>2026-04-12T09:23:16Z</time></trkpt><trkpt lat="42.394129284597796" lon="12.202493395778111"><ele>848.0000000000001</ele><time>2026-04-12T09:23:18Z</time></trkpt><trkpt lat="42.39406055800712" lon="12.202478154207911"><ele>848.0</ele><time>2026-04-12T09:23:19Z</time></trkpt><trkpt lat="42.39398961198386" lon="12.202447396297053"><ele>848.0</ele><time>2026-04-12T09:23:20Z</time></trkpt><trkpt lat="42.39389700558077" lon="12.202381916733229"><ele>848.0</ele><time>2026-04-12T09:23:21Z</time></trkpt><trkpt lat="42.39381573094216" lon="12.202313095172757"><ele>848.0000000000001</ele><time>2026-04-12T09:23:21.999Z</time></trkpt><trkpt lat="42.3937624699623" lon="12.202243675210381"><ele>848.0</ele><time>2026-04-12T09:23:22.999Z</time></trkpt><trkpt lat="42.393722266844534" lon="12.202162387109324"><ele>844.8333333333334</ele><time>2026-04-12T09:23:23.999Z</time></trkpt><trkpt lat="42.393683078697535" lon="12.202064731904878"><ele>841.6666666666667</ele><time>2026-04-12T09:23:24.999Z</time></trkpt><trkpt lat="42.393638554694625" lon="12.201972185202905"><ele>838.5</ele><time>2026-04-12T09:23:25.999Z</time></trkpt><trkpt lat="42.39358813115736" lon="12.201885596282967"><ele>835.3333333333333</ele><time>2026-04-12T09:23:26.999Z</time></trkpt><trkpt lat="42.393537648939294" lon="12.201797202737547"><ele>832.1666666666666</ele><time>2026-04-12T09:23:27.999Z</time></trkpt><trkpt lat="42.39350499488741" lon="12.201712083156618"><ele>829.0</ele><time>2026-04-12T09:23:28.999Z</time></trkpt><trkpt lat="42.393486480211855" lon="12.201626021971693"><ele>829.0</ele><time>2026-04-12T09:23:29.999Z</time></trkpt><trkpt lat="42.393480908797656" lon="12.201465185137815"><ele>829.0</ele><time>2026-04-12T09:23:31.999Z</time></trkpt><trkpt lat="42.393448398343885" lon="12.201390041702219"><ele>829.0</ele><time>2026-04-12T09:23:32.999Z</time></trkpt><trkpt lat="42.39340795416321" lon="12.201307497784393"><ele>829.0</ele><time>2026-04-12T09:23:33.999Z</time></trkpt><trkpt lat="42.393361190249315" lon="12.201235754994224"><ele>829.0</ele><time>2026-04-12T09:23:34.999Z</time></trkpt><trkpt lat="42.393310116528994" lon="12.201067401685748"><ele>828.9999999999999</ele><time>2026-04-12T09:23:36.999Z</time></trkpt><trkpt lat="42.39328092553792" lon="12.200956659982678"><ele>829.0</ele><time>2026-04-12T09:23:37.999Z</time></trkpt><trkpt lat="42.39326844634276" lon="12.20082357001838"><ele>829.0</ele><time>2026-04-12T09:23:38.999Z</time></trkpt><trkpt lat="42.39324913871994" lon="12.20070910773006"><ele>829.0</ele><time>2026-04-12T09:23:39.999Z</time></trkpt><trkpt lat="42.39322878265217" lon="12.200600847573602"><ele>828.9999999999999</ele><time>2026-04-12T09:23:40.999Z</time></trkpt><trkpt lat="42.39321094131528" lon="12.200491462541057"><ele>829.0</ele><time>2026-04-12T09:23:41.999Z</time></trkpt><trkpt lat="42.393185173917786" lon="12.20039142762107"><ele>828.6666666666666</ele><time>2026-04-12T09:23:42.999Z</time></trkpt><trkpt lat="42.3931485061727" lon="12.200294086026098"><ele>828.3333333333333</ele><time>2026-04-12T09:23:43.999Z</time></trkpt><trkpt lat="42.39310384689701" lon="12.20020093417255"><ele>828.0</ele><time>2026-04-12T09:23:44.999Z</time></trkpt><trkpt lat="42.39308117118273" lon="12.200104758858275"><ele>827.6666666666667</ele><time>2026-04-12T09:23:45.999Z</time></trkpt><trkpt lat="42.39306387122977" lon="12.19998426286141"><ele>827.3333333333334</ele><time>2026-04-12T09:23:46.999Z</time></trkpt><trkpt lat="42.39306361652766" lon="12.199853726488644"><ele>827.0</ele><time>2026-04-12T09:23:47.999Z</time></trkpt><trkpt lat="42.39307399513141" lon="12.199732819899452"><ele>826.1666666666667</ele><time>2026-04-12T09:23:48.999Z</time></trkpt><trkpt lat="42.39306602010315" lon="12.199583389867552"><ele>825.3333333333334</ele><time>2026-04-12T09:23:49.999Z</time></trkpt><trkpt lat="42.393077153966374" lon="12.19946222668855"><ele>824.5</ele><time>2026-04-12T09:23:50.999Z</time></trkpt><trkpt lat="42.3930682256822" lon="12.19935884528283"><ele>823.6666666666667</ele><time>2026-04-12T09:23:51.999Z</time></trkpt><trkpt lat="42.39306388610591" lon="12.199248161056355"><ele>822.8333333333334</ele><time>2026-04-12T09:23:52.999Z</time></trkpt><trkpt lat="42.3930605878511" lon="12.199144470732891"><ele>822.0</ele><time>2026-04-12T09:23:53.999Z</time></trkpt><trkpt lat="42.393046773942366" lon="12.199048682333512"><ele>821.0</ele><time>2026-04-12T09:23:54.999Z</time></trkpt><trkpt lat="42.39302954726327" lon="12.198950602632284"><ele>820.0</ele><time>2026-04-12T09:23:55.999Z</time></trkpt><trkpt lat="42.39300178679739" lon="12.198849522726018"><ele>819.0</ele><time>2026-04-12T09:23:56.999Z</time></trkpt><trkpt lat="42.39297140163773" lon="12.198742770512512"><ele>818.0</ele><time>2026-04-12T09:23:57.999Z</time></trkpt><trkpt lat="42.39293086828123" lon="12.198650838779049"><ele>817.0</ele><time>2026-04-12T09:23:58.999Z</time></trkpt><trkpt lat="42.3928399114503" lon="12.198566946813505"><ele>816.0</ele><time>2026-04-12T09:23:59.999Z</time></trkpt><trkpt lat="42.392773550016756" lon="12.198479229738137"><ele>813.8</ele><time>2026-04-12T09:24:00.999Z</time></trkpt><trkpt lat="42.39272381400368" lon="12.198383285442937"><ele>811.5999999999999</ele><time>2026-04-12T09:24:01.999Z</time></trkpt><trkpt lat="42.39266068833142" lon="12.198280311189196"><ele>809.4</ele><time>2026-04-12T09:24:02.999Z</time></trkpt><trkpt lat="42.392603587223235" lon="12.198179510873358"><ele>807.2</ele><time>2026-04-12T09:24:03.999Z</time></trkpt><trkpt lat="42.39256864278852" lon="12.198097856645266"><ele>805.0</ele><time>2026-04-12T09:24:04.999Z</time></trkpt><trkpt lat="42.39256700933867" lon="12.197939258107585"><ele>804.9999999999999</ele><time>2026-04-12T09:24:06.999Z</time></trkpt><trkpt lat="42.39254366874297" lon="12.197795986535573"><ele>805.0</ele><time>2026-04-12T09:24:07.999Z</time></trkpt><trkpt lat="42.392521606594734" lon="12.197709031324768"><ele>805.0</ele><time>2026-04-12T09:24:08.999Z</time></trkpt><trkpt lat="42.39247788293056" lon="12.197619909392467"><ele>805.0</ele><time>2026-04-12T09:24:09.999Z</time></trkpt><trkpt lat="42.39241886524326" lon="12.197537798986279"><ele>804.9999999999999</ele><time>2026-04-12T09:24:10.999Z</time></trkpt><trkpt lat="42.3923782088238" lon="12.19746193975754"><ele>805.0</ele><time>2026-04-12T09:24:11.999Z</time></trkpt><trkpt lat="42.39232676771659" lon="12.19738939141009"><ele>804.0</ele><time>2026-04-12T09:24:12.999Z</time></trkpt><trkpt lat="42.39228442187616" lon="12.197300893629553"><ele>803.0</ele><time>2026-04-12T09:24:13.999Z</time></trkpt><trkpt lat="42.392265381224654" lon="12.197213572007513"><ele>802.0</ele><time>2026-04-12T09:24:14.999Z</time></trkpt><trkpt lat="42.39221690363881" lon="12.19712590550017"><ele>801.0</ele><time>2026-04-12T09:24:15.999Z</time></trkpt><trkpt lat="42.392178202628095" lon="12.197043202863936"><ele>800.0</ele><time>2026-04-12T09:24:16.999Z</time></trkpt><trkpt lat="42.39213061786485" lon="12.196975277331859"><ele>799.0</ele><time>2026-04-12T09:24:17.999Z</time></trkpt><trkpt lat="42.39209687825567" lon="12.196897983216678"><ele>798.0</ele><time>2026-04-12T09:24:18.999Z</time></trkpt><trkpt lat="42.392056057047995" lon="12.196827391934935"><ele>796.8333333333334</ele><time>2026-04-12T09:24:19.999Z</time></trkpt><trkpt lat="42.39201550250494" lon="12.196725551287736"><ele>795.6666666666667</ele><time>2026-04-12T09:24:20.999Z</time></trkpt><trkpt lat="42.3919731654333" lon="12.196644117425414"><ele>794.5</ele><time>2026-04-12T09:24:21.999Z</time></trkpt><trkpt lat="42.391923543870874" lon="12.196580929119138"><ele>793.3333333333334</ele><time>2026-04-12T09:24:22.999Z</time></trkpt><trkpt lat="42.39185497272884" lon="12.19651879503984"><ele>792.1666666666667</ele><time>2026-04-12T09:24:23.999Z</time></trkpt><trkpt lat="42.3917975144921" lon="12.196441798066513"><ele>791.0</ele><time>2026-04-12T09:24:24.999Z</time></trkpt><trkpt lat="42.39174105196795" lon="12.196367912518905"><ele>789.5999999999999</ele><time>2026-04-12T09:24:25.999Z</time></trkpt><trkpt lat="42.39167380888939" lon="12.196284575733335"><ele>788.2</ele><time>2026-04-12T09:24:26.999Z</time></trkpt><trkpt lat="42.39160615400994" lon="12.196201682193452"><ele>786.8</ele><time>2026-04-12T09:24:27.999Z</time></trkpt><trkpt lat="42.39153437764359" lon="12.1961143866663"><ele>785.4000000000001</ele><time>2026-04-12T09:24:28.999Z</time></trkpt><trkpt lat="42.391451752514065" lon="12.19603241900618"><ele>784.0</ele><time>2026-04-12T09:24:29.999Z</time></trkpt><trkpt lat="42.39134751186866" lon="12.195939122817949"><ele>783.3333333333333</ele><time>2026-04-12T09:24:30.999Z</time></trkpt><trkpt lat="42.3913331033946" lon="12.195844927907643"><ele>782.6666666666666</ele><time>2026-04-12T09:24:33Z</time></trkpt><trkpt lat="42.391295851738015" lon="12.195774142845554"><ele>782.0</ele><time>2026-04-12T09:24:37Z</time></trkpt><trkpt lat="42.391209444513976" lon="12.195748827888265"><ele>781.3333333333333</ele><time>2026-04-12T09:24:40Z</time></trkpt><trkpt lat="42.39114743281359" lon="12.195783738600948"><ele>780.6666666666666</ele><time>2026-04-12T09:24:43Z</time></trkpt><trkpt lat="42.39104356268748" lon="12.195838915581048"><ele>780.0</ele><time>2026-04-12T09:24:49Z</time></trkpt><trkpt lat="42.39100022611609" lon="12.195906588525586"><ele>780.0</ele><time>2026-04-12T09:24:50Z</time></trkpt><trkpt lat="42.390957903081215" lon="12.196085229011361"><ele>780.0</ele><time>2026-04-12T09:24:52Z</time></trkpt><trkpt lat="42.39089707580763" lon="12.196238360823264"><ele>780.0</ele><time>2026-04-12T09:24:53Z</time></trkpt><trkpt lat="42.39082447462122" lon="12.196416106627375"><ele>780.0</ele><time>2026-04-12T09:24:54Z</time></trkpt><trkpt lat="42.39075797628872" lon="12.196567290099809"><ele>780.6</ele><time>2026-04-12T09:24:55Z</time></trkpt><trkpt lat="42.39070225112049" lon="12.196701057056258"><ele>781.2</ele><time>2026-04-12T09:24:56Z</time></trkpt><trkpt lat="42.39064656164247" lon="12.196827553847566"><ele>781.8</ele><time>2026-04-12T09:24:57Z</time></trkpt><trkpt lat="42.390602479673724" lon="12.196925027025758"><ele>782.4</ele><time>2026-04-12T09:24:58Z</time></trkpt><trkpt lat="42.39052711261071" lon="12.197054759143693"><ele>783.0</ele><time>2026-04-12T09:25:00Z</time></trkpt><trkpt lat="42.39047444714693" lon="12.197157081841407"><ele>781.8</ele><time>2026-04-12T09:25:02Z</time></trkpt><trkpt lat="42.390410826082345" lon="12.197168439443441"><ele>780.5999999999999</ele><time>2026-04-12T09:26:47Z</time></trkpt><trkpt lat="42.3903424958708" lon="12.196976074731694"><ele>779.4000000000001</ele><time>2026-04-12T09:27:46.999Z</time></trkpt><trkpt lat="42.39028995079206" lon="12.196849686551436"><ele>778.2</ele><time>2026-04-12T09:27:48.999Z</time></trkpt><trkpt lat="42.390236897751045" lon="12.196727204190351"><ele>777.0</ele><time>2026-04-12T09:27:50.999Z</time></trkpt><trkpt lat="42.39018537796163" lon="12.196617664601284"><ele>777.0</ele><time>2026-04-12T09:27:52.999Z</time></trkpt><trkpt lat="42.39013485179673" lon="12.196539251983271"><ele>777.0</ele><time>2026-04-12T09:27:54.999Z</time></trkpt><trkpt lat="42.39006685865382" lon="12.196453511158309"><ele>777.0</ele><time>2026-04-12T09:27:56.999Z</time></trkpt><trkpt lat="42.389993554115655" lon="12.196360764535608"><ele>777.0</ele><time>2026-04-12T09:27:58.999Z</time></trkpt><trkpt lat="42.38993934303734" lon="12.196290219440707"><ele>777.0</ele><time>2026-04-12T09:28:00.999Z</time></trkpt><trkpt lat="42.38986809529198" lon="12.196210867711196"><ele>777.0</ele><time>2026-04-12T09:28:02.999Z</time></trkpt><trkpt lat="42.389809882960975" lon="12.196138608525857"><ele>777.1666666666666</ele><time>2026-04-12T09:28:04.999Z</time></trkpt><trkpt lat="42.389742081807405" lon="12.19608878630463"><ele>777.3333333333333</ele><time>2026-04-12T09:28:06.999Z</time></trkpt><trkpt lat="42.38968921906834" lon="12.196035887883822"><ele>777.5</ele><time>2026-04-12T09:28:09.999Z</time></trkpt><trkpt lat="42.38962282676046" lon="12.196001047157948"><ele>777.6666666666666</ele><time>2026-04-12T09:28:12.999Z</time></trkpt><trkpt lat="42.3896093606215" lon="12.195903231418049"><ele>777.8333333333333</ele><time>2026-04-12T09:29:32.999Z</time></trkpt><trkpt lat="42.389544138605366" lon="12.195885210203858"><ele>778.0</ele><time>2026-04-12T09:41:02.998Z</time></trkpt><trkpt lat="42.389486224422434" lon="12.195763936980661"><ele>776.5999999999999</ele><time>2026-04-12T09:41:04.998Z</time></trkpt><trkpt lat="42.389449736822556" lon="12.195672750181934"><ele>775.1999999999999</ele><time>2026-04-12T09:41:05.998Z</time></trkpt><trkpt lat="42.38939314974203" lon="12.195592067397271"><ele>773.8</ele><time>2026-04-12T09:41:06.998Z</time></trkpt><trkpt lat="42.38931953314272" lon="12.195505064128984"><ele>772.4</ele><time>2026-04-12T09:41:07.998Z</time></trkpt><trkpt lat="42.38924387596448" lon="12.195394059647729"><ele>771.0</ele><time>2026-04-12T09:41:08.998Z</time></trkpt><trkpt lat="42.38915639335323" lon="12.195284964247598"><ele>770.4</ele><time>2026-04-12T09:41:09.998Z</time></trkpt><trkpt lat="42.38908829907967" lon="12.195161090547144"><ele>769.8</ele><time>2026-04-12T09:41:10.998Z</time></trkpt><trkpt lat="42.38901403171845" lon="12.195052463203059"><ele>769.1999999999999</ele><time>2026-04-12T09:41:11.998Z</time></trkpt><trkpt lat="42.38894680233538" lon="12.19496947555291"><ele>768.5999999999999</ele><time>2026-04-12T09:41:12.998Z</time></trkpt><trkpt lat="42.388890032748435" lon="12.194887891403917"><ele>768.0</ele><time>2026-04-12T09:41:13.998Z</time></trkpt><trkpt lat="42.38878757719794" lon="12.19478003493504"><ele>766.5</ele><time>2026-04-12T09:41:14.998Z</time></trkpt><trkpt lat="42.38867496026584" lon="12.194673556052843"><ele>765.0</ele><time>2026-04-12T09:41:15.998Z</time></trkpt><trkpt lat="42.38858392477557" lon="12.194553002588258"><ele>763.5</ele><time>2026-04-12T09:41:16.998Z</time></trkpt><trkpt lat="42.38850250435462" lon="12.194467584918895"><ele>762.0</ele><time>2026-04-12T09:41:17.998Z</time></trkpt><trkpt lat="42.388425400204824" lon="12.194381550769503"><ele>762.0</ele><time>2026-04-12T09:41:18.998Z</time></trkpt><trkpt lat="42.38836341129318" lon="12.194291320367508"><ele>762.0</ele><time>2026-04-12T09:41:21Z</time></trkpt><trkpt lat="42.38829003004698" lon="12.194244527386536"><ele>762.0</ele><time>2026-04-12T09:41:31Z</time></trkpt><trkpt lat="42.38820211167239" lon="12.194174087316867"><ele>762.0</ele><time>2026-04-12T09:41:35Z</time></trkpt><trkpt lat="42.38812406904437" lon="12.194111541235289"><ele>762.0</ele><time>2026-04-12T09:41:36.999Z</time></trkpt><trkpt lat="42.38805914816324" lon="12.194037192569743"><ele>761.5</ele><time>2026-04-12T09:41:38.999Z</time></trkpt><trkpt lat="42.38799144753611" lon="12.193964805871039"><ele>761.0</ele><time>2026-04-12T09:41:40.999Z</time></trkpt><trkpt lat="42.38791532422552" lon="12.193896102606917"><ele>760.5</ele><time>2026-04-12T09:41:42.999Z</time></trkpt><trkpt lat="42.387852076780064" lon="12.193822794940486"><ele>760.0</ele><time>2026-04-12T09:41:44.999Z</time></trkpt><trkpt lat="42.38780341789788" lon="12.193765165991872"><ele>759.5</ele><time>2026-04-12T09:41:45.999Z</time></trkpt><trkpt lat="42.38775344684743" lon="12.193710340596386"><ele>759.0</ele><time>2026-04-12T09:41:46.999Z</time></trkpt><trkpt lat="42.387696759083205" lon="12.19365964038763"><ele>759.0</ele><time>2026-04-12T09:41:47.999Z</time></trkpt><trkpt lat="42.38763342154259" lon="12.1935928387042"><ele>759.0</ele><time>2026-04-12T09:41:48.999Z</time></trkpt><trkpt lat="42.38756825367639" lon="12.193517950630655"><ele>759.0</ele><time>2026-04-12T09:41:49.999Z</time></trkpt><trkpt lat="42.38750495309326" lon="12.19345019077678"><ele>759.0</ele><time>2026-04-12T09:41:50.999Z</time></trkpt><trkpt lat="42.38744840354092" lon="12.193373987893134"><ele>759.0</ele><time>2026-04-12T09:41:51.999Z</time></trkpt><trkpt lat="42.38738707898517" lon="12.193304229660498"><ele>759.0</ele><time>2026-04-12T09:41:52.999Z</time></trkpt><trkpt lat="42.38733444587693" lon="12.193234783828263"><ele>759.0</ele><time>2026-04-12T09:41:53.999Z</time></trkpt><trkpt lat="42.38727823539564" lon="12.193176560573914"><ele>759.0</ele><time>2026-04-12T09:41:54.999Z</time></trkpt><trkpt lat="42.3871969038093" lon="12.193104063063215"><ele>759.0</ele><time>2026-04-12T09:41:56.999Z</time></trkpt><trkpt lat="42.387117261390145" lon="12.193154374749625"><ele>759.0</ele><time>2026-04-12T09:41:59.999Z</time></trkpt><trkpt lat="42.38707261494307" lon="12.193241574630854"><ele>759.0</ele><time>2026-04-12T09:42:00.999Z</time></trkpt><trkpt lat="42.38700763394915" lon="12.19334641656855"><ele>759.0</ele><time>2026-04-12T09:42:01.999Z</time></trkpt><trkpt lat="42.38693836974319" lon="12.193464385179846"><ele>759.0</ele><time>2026-04-12T09:42:02.999Z</time></trkpt><trkpt lat="42.38686822632304" lon="12.193589023416495"><ele>759.0</ele><time>2026-04-12T09:42:03.999Z</time></trkpt><trkpt lat="42.38679953335487" lon="12.19370195315544"><ele>759.0</ele><time>2026-04-12T09:42:04.999Z</time></trkpt><trkpt lat="42.38672387359153" lon="12.19381003958707"><ele>759.0</ele><time>2026-04-12T09:42:05.999Z</time></trkpt><trkpt lat="42.386658732208474" lon="12.193919391149327"><ele>759.0</ele><time>2026-04-12T09:42:06.999Z</time></trkpt><trkpt lat="42.38657921830986" lon="12.194042293864"><ele>759.2</ele><time>2026-04-12T09:42:07.999Z</time></trkpt><trkpt lat="42.3864984055215" lon="12.194163191390965"><ele>759.4000000000001</ele><time>2026-04-12T09:42:08.999Z</time></trkpt><trkpt lat="42.38643005387882" lon="12.194265898019252"><ele>759.6</ele><time>2026-04-12T09:42:09.999Z</time></trkpt><trkpt lat="42.386378017579695" lon="12.19435823065417"><ele>759.8</ele><time>2026-04-12T09:42:10.999Z</time></trkpt><trkpt lat="42.38632700768267" lon="12.1944221918198"><ele>760.0</ele><time>2026-04-12T09:42:11.999Z</time></trkpt><trkpt lat="42.38627766376624" lon="12.194529160963755"><ele>759.5</ele><time>2026-04-12T09:42:13.999Z</time></trkpt><trkpt lat="42.38624550833483" lon="12.194646623598144"><ele>759.0</ele><time>2026-04-12T09:42:15.999Z</time></trkpt><trkpt lat="42.38623084640422" lon="12.194748273599936"><ele>758.5</ele><time>2026-04-12T09:42:16.999Z</time></trkpt><trkpt lat="42.386193679934095" lon="12.194869760620751"><ele>758.0</ele><time>2026-04-12T09:42:17.999Z</time></trkpt><trkpt lat="42.38616085538615" lon="12.194979491590757"><ele>757.5</ele><time>2026-04-12T09:42:18.999Z</time></trkpt><trkpt lat="42.386136462258264" lon="12.195079789643898"><ele>757.0</ele><time>2026-04-12T09:42:19.999Z</time></trkpt><trkpt lat="42.38611763131621" lon="12.195168372573791"><ele>756.8333333333334</ele><time>2026-04-12T09:42:20.999Z</time></trkpt><trkpt lat="42.38609977474884" lon="12.195252359008764"><ele>756.6666666666667</ele><time>2026-04-12T09:42:21.999Z</time></trkpt><trkpt lat="42.386054743565424" lon="12.195372612008066"><ele>756.5</ele><time>2026-04-12T09:42:23.999Z</time></trkpt><trkpt lat="42.38605933582205" lon="12.195457768589973"><ele>756.3333333333334</ele><time>2026-04-12T09:42:27.999Z</time></trkpt><trkpt lat="42.38614209545149" lon="12.19541944940313"><ele>756.1666666666666</ele><time>2026-04-12T09:42:30.999Z</time></trkpt><trkpt lat="42.38617558606747" lon="12.195267451828366"><ele>756.0</ele><time>2026-04-12T09:42:32.999Z</time></trkpt><trkpt lat="42.3861564488308" lon="12.195162832405964"><ele>756.0</ele><time>2026-04-12T09:42:33.999Z</time></trkpt><trkpt lat="42.38614448301365" lon="12.195052729838443"><ele>756.0</ele><time>2026-04-12T09:42:34.999Z</time></trkpt><trkpt lat="42.3861631434135" lon="12.194948117577306"><ele>756.0</ele><time>2026-04-12T09:42:35.999Z</time></trkpt><trkpt lat="42.38619422647564" lon="12.194830007797409"><ele>756.0</ele><time>2026-04-12T09:42:36.999Z</time></trkpt><trkpt lat="42.386229013623534" lon="12.194730196992603"><ele>756.0</ele><time>2026-04-12T09:42:37.999Z</time></trkpt><trkpt lat="42.3862495241197" lon="12.194618463083463"><ele>756.0</ele><time>2026-04-12T09:42:38.999Z</time></trkpt><trkpt lat="42.386256963729934" lon="12.194519204897238"><ele>756.1428571428571</ele><time>2026-04-12T09:42:40.999Z</time></trkpt><trkpt lat="42.38622370927137" lon="12.19442620330743"><ele>756.2857142857142</ele><time>2026-04-12T09:42:42.999Z</time></trkpt><trkpt lat="42.386157652900344" lon="12.194410866000517"><ele>756.4285714285714</ele><time>2026-04-12T09:42:43.999Z</time></trkpt><trkpt lat="42.386075737072346" lon="12.194397066845537"><ele>756.5714285714286</ele><time>2026-04-12T09:42:44.999Z</time></trkpt><trkpt lat="42.386002858184376" lon="12.194393557276793"><ele>756.7142857142857</ele><time>2026-04-12T09:42:45.999Z</time></trkpt><trkpt lat="42.38592309943874" lon="12.194410006296772"><ele>756.8571428571429</ele><time>2026-04-12T09:42:47.999Z</time></trkpt><trkpt lat="42.38587087890944" lon="12.194351895776267"><ele>757.0</ele><time>2026-04-12T09:42:49.999Z</time></trkpt><trkpt lat="42.385840536913726" lon="12.194267708550077"><ele>757.0</ele><time>2026-04-12T09:42:51.998Z</time></trkpt><trkpt lat="42.38580121039814" lon="12.194175265510157"><ele>757.0</ele><time>2026-04-12T09:42:54.998Z</time></trkpt><trkpt lat="42.385740701785146" lon="12.19414330530558"><ele>757.0</ele><time>2026-04-12T09:43:02.998Z</time></trkpt><trkpt lat="42.385764566084276" lon="12.194063627079647"><ele>757.0</ele><time>2026-04-12T09:43:05.998Z</time></trkpt><trkpt lat="42.38585340053255" lon="12.19407472994637"><ele>757.0</ele><time>2026-04-12T09:43:07.998Z</time></trkpt><trkpt lat="42.38595823058023" lon="12.194153257363753"><ele>757.0</ele><time>2026-04-12T09:43:09.998Z</time></trkpt><trkpt lat="42.38601993210295" lon="12.194212172797988"><ele>757.0</ele><time>2026-04-12T09:43:10.998Z</time></trkpt><trkpt lat="42.386086409270476" lon="12.194299051966192"><ele>757.0</ele><time>2026-04-12T09:43:11.998Z</time></trkpt><trkpt lat="42.38614294411047" lon="12.194359143330455"><ele>757.0</ele><time>2026-04-12T09:43:12.998Z</time></trkpt><trkpt lat="42.386212283903724" lon="12.194421539977109"><ele>757.0</ele><time>2026-04-12T09:43:14.998Z</time></trkpt><trkpt lat="42.3863106646573" lon="12.194420398952598"><ele>757.0</ele><time>2026-04-12T09:43:16.998Z</time></trkpt><trkpt lat="42.386360456394776" lon="12.19436273878273"><ele>757.0</ele><time>2026-04-12T09:43:17.998Z</time></trkpt><trkpt lat="42.38642686221608" lon="12.194274649748534"><ele>757.4000000000001</ele><time>2026-04-12T09:43:18.998Z</time></trkpt><trkpt lat="42.38648726338687" lon="12.194159588581778"><ele>757.8000000000001</ele><time>2026-04-12T09:43:19.998Z</time></trkpt><trkpt lat="42.38656640102103" lon="12.194040761208555"><ele>758.2</ele><time>2026-04-12T09:43:20.998Z</time></trkpt><trkpt lat="42.38663488733178" lon="12.193937547514807"><ele>758.6</ele><time>2026-04-12T09:43:21.998Z</time></trkpt><trkpt lat="42.386712395253994" lon="12.193834906284353"><ele>759.0</ele><time>2026-04-12T09:43:22.998Z</time></trkpt><trkpt lat="42.386775360807825" lon="12.193733878503556"><ele>759.0</ele><time>2026-04-12T09:43:23.998Z</time></trkpt><trkpt lat="42.3868316759296" lon="12.193641237417548"><ele>759.0</ele><time>2026-04-12T09:43:24.998Z</time></trkpt><trkpt lat="42.386889971222615" lon="12.19354788848474"><ele>759.0</ele><time>2026-04-12T09:43:25.999Z</time></trkpt><trkpt lat="42.38694263890274" lon="12.193457788759089"><ele>759.0</ele><time>2026-04-12T09:43:26.999Z</time></trkpt><trkpt lat="42.387003262854726" lon="12.193370092752716"><ele>759.0</ele><time>2026-04-12T09:43:27.999Z</time></trkpt><trkpt lat="42.38705315604422" lon="12.193298993074222"><ele>759.0</ele><time>2026-04-12T09:43:28.999Z</time></trkpt><trkpt lat="42.3871039416274" lon="12.19324434358742"><ele>759.0</ele><time>2026-04-12T09:43:29.999Z</time></trkpt><trkpt lat="42.38715619559023" lon="12.193186010188475"><ele>759.0</ele><time>2026-04-12T09:43:30.999Z</time></trkpt><trkpt lat="42.38718442792178" lon="12.193097122494125"><ele>759.0</ele><time>2026-04-12T09:43:31.999Z</time></trkpt><trkpt lat="42.3872267553849" lon="12.193032237116395"><ele>759.0</ele><time>2026-04-12T09:43:32.999Z</time></trkpt><trkpt lat="42.38731314503707" lon="12.192917021754395"><ele>759.0</ele><time>2026-04-12T09:43:34.999Z</time></trkpt><trkpt lat="42.387356340109896" lon="12.192824422844199"><ele>759.0</ele><time>2026-04-12T09:43:37.999Z</time></trkpt><trkpt lat="42.38731880263612" lon="12.192725311877663"><ele>759.0</ele><time>2026-04-12T09:43:40.999Z</time></trkpt><trkpt lat="42.38726415552876" lon="12.192673871242008"><ele>759.0</ele><time>2026-04-12T09:43:41.999Z</time></trkpt><trkpt lat="42.387177855088744" lon="12.192611714099746"><ele>759.0</ele><time>2026-04-12T09:43:42.999Z</time></trkpt><trkpt lat="42.38708166213912" lon="12.192559113292532"><ele>759.0</ele><time>2026-04-12T09:43:43.999Z</time></trkpt><trkpt lat="42.38695934823603" lon="12.192470980666055"><ele>759.0</ele><time>2026-04-12T09:43:44.999Z</time></trkpt><trkpt lat="42.38683039368752" lon="12.192386832891478"><ele>759.25</ele><time>2026-04-12T09:43:45.999Z</time></trkpt><trkpt lat="42.386702237064064" lon="12.192303744918354"><ele>759.5</ele><time>2026-04-12T09:43:46.999Z</time></trkpt><trkpt lat="42.38657158552683" lon="12.192218089614277"><ele>759.75</ele><time>2026-04-12T09:43:47.999Z</time></trkpt><trkpt lat="42.38643984117805" lon="12.192130170527554"><ele>760.0</ele><time>2026-04-12T09:43:48.999Z</time></trkpt><trkpt lat="42.38632352764876" lon="12.192049828526415"><ele>760.0</ele><time>2026-04-12T09:43:49.999Z</time></trkpt><trkpt lat="42.38622245578232" lon="12.19198293544475"><ele>760.0</ele><time>2026-04-12T09:43:50.999Z</time></trkpt><trkpt lat="42.386127332524865" lon="12.191915481008465"><ele>760.0</ele><time>2026-04-12T09:43:51.999Z</time></trkpt><trkpt lat="42.386031701372346" lon="12.191846104557646"><ele>760.0</ele><time>2026-04-12T09:43:52.999Z</time></trkpt><trkpt lat="42.38593876384828" lon="12.191775418401315"><ele>760.0</ele><time>2026-04-12T09:43:53.999Z</time></trkpt><trkpt lat="42.38585101103502" lon="12.191704075898622"><ele>760.0</ele><time>2026-04-12T09:43:54.999Z</time></trkpt><trkpt lat="42.3857864913011" lon="12.191647847263974"><ele>760.0</ele><time>2026-04-12T09:43:55.999Z</time></trkpt><trkpt lat="42.38570514070314" lon="12.191589074632304"><ele>760.0</ele><time>2026-04-12T09:43:57.999Z</time></trkpt><trkpt lat="42.3856370360771" lon="12.191646323216949"><ele>760.0</ele><time>2026-04-12T09:44:00.999Z</time></trkpt><trkpt lat="42.385568911939686" lon="12.191736216450177"><ele>760.0</ele><time>2026-04-12T09:44:05Z</time></trkpt><trkpt lat="42.38550362718437" lon="12.191775467201763"><ele>760.0</ele><time>2026-04-12T09:44:07Z</time></trkpt><trkpt lat="42.385408174350246" lon="12.191788915215323"><ele>759.0</ele><time>2026-04-12T09:44:09Z</time></trkpt><trkpt lat="42.38533503935049" lon="12.191793570673836"><ele>758.0</ele><time>2026-04-12T09:44:10Z</time></trkpt><trkpt lat="42.38525582181035" lon="12.191806943475795"><ele>757.0</ele><time>2026-04-12T09:44:11Z</time></trkpt><trkpt lat="42.385155540069036" lon="12.191812685904734"><ele>756.0</ele><time>2026-04-12T09:44:12Z</time></trkpt><trkpt lat="42.385062126640236" lon="12.191828395624492"><ele>755.0</ele><time>2026-04-12T09:44:13Z</time></trkpt><trkpt lat="42.38490801103326" lon="12.191827141639337"><ele>755.0</ele><time>2026-04-12T09:44:14Z</time></trkpt><trkpt lat="42.38477390576682" lon="12.191816681034085"><ele>755.0</ele><time>2026-04-12T09:44:15Z</time></trkpt><trkpt lat="42.384633069934594" lon="12.191812807597485"><ele>755.0</ele><time>2026-04-12T09:44:16Z</time></trkpt><trkpt lat="42.384510106646" lon="12.191820866788428"><ele>755.0</ele><time>2026-04-12T09:44:17Z</time></trkpt><trkpt lat="42.38439985591745" lon="12.191850543362932"><ele>755.25</ele><time>2026-04-12T09:44:18Z</time></trkpt><trkpt lat="42.38429852745959" lon="12.191905362935442"><ele>755.5</ele><time>2026-04-12T09:44:19Z</time></trkpt><trkpt lat="42.38419898310307" lon="12.192000809141692"><ele>755.75</ele><time>2026-04-12T09:44:20Z</time></trkpt><trkpt lat="42.38411671757596" lon="12.192130631411368"><ele>756.0</ele><time>2026-04-12T09:44:21Z</time></trkpt><trkpt lat="42.384041872307385" lon="12.192273653427733"><ele>756.4</ele><time>2026-04-12T09:44:22Z</time></trkpt><trkpt lat="42.38398642581827" lon="12.192394866630295"><ele>756.8</ele><time>2026-04-12T09:44:23Z</time></trkpt><trkpt lat="42.38391997057624" lon="12.19251593742169"><ele>757.1999999999999</ele><time>2026-04-12T09:44:24Z</time></trkpt><trkpt lat="42.38384382086853" lon="12.192614845257419"><ele>757.5999999999999</ele><time>2026-04-12T09:44:25Z</time></trkpt><trkpt lat="42.38376012421252" lon="12.192712280579512"><ele>758.0</ele><time>2026-04-12T09:44:26Z</time></trkpt><trkpt lat="42.38367099490493" lon="12.19281557837669"><ele>758.0</ele><time>2026-04-12T09:44:27Z</time></trkpt><trkpt lat="42.38359229434525" lon="12.192927479631619"><ele>758.0</ele><time>2026-04-12T09:44:28Z</time></trkpt><trkpt lat="42.38353600494368" lon="12.193004144660893"><ele>758.0</ele><time>2026-04-12T09:44:29Z</time></trkpt><trkpt lat="42.38348818615702" lon="12.193098273246827"><ele>758.0</ele><time>2026-04-12T09:44:30Z</time></trkpt><trkpt lat="42.383448648867386" lon="12.193222963473184"><ele>758.0</ele><time>2026-04-12T09:44:31Z</time></trkpt><trkpt lat="42.38341237251227" lon="12.19338203297988"><ele>756.5</ele><time>2026-04-12T09:44:32Z</time></trkpt><trkpt lat="42.3833727481707" lon="12.193559695368995"><ele>755.0</ele><time>2026-04-12T09:44:33Z</time></trkpt><trkpt lat="42.383339515001744" lon="12.193750906256234"><ele>753.5</ele><time>2026-04-12T09:44:34Z</time></trkpt><trkpt lat="42.38331015144914" lon="12.193945840769993"><ele>752.0</ele><time>2026-04-12T09:44:35Z</time></trkpt><trkpt lat="42.38329517248632" lon="12.194130979834556"><ele>751.6</ele><time>2026-04-12T09:44:36Z</time></trkpt><trkpt lat="42.383295433223616" lon="12.19429460086204"><ele>751.2</ele><time>2026-04-12T09:44:37Z</time></trkpt><trkpt lat="42.38328123776787" lon="12.194430623647948"><ele>750.8</ele><time>2026-04-12T09:44:38Z</time></trkpt><trkpt lat="42.38324927239246" lon="12.194533036102182"><ele>750.4</ele><time>2026-04-12T09:44:39Z</time></trkpt><trkpt lat="42.383192306784004" lon="12.194615654319078"><ele>750.0</ele><time>2026-04-12T09:44:40Z</time></trkpt><trkpt lat="42.383115416502974" lon="12.194709915680702"><ele>750.0</ele><time>2026-04-12T09:44:41Z</time></trkpt><trkpt lat="42.38303322142856" lon="12.194826987445818"><ele>750.0</ele><time>2026-04-12T09:44:42Z</time></trkpt><trkpt lat="42.38294813607431" lon="12.194964187812449"><ele>750.0</ele><time>2026-04-12T09:44:43Z</time></trkpt><trkpt lat="42.38286563518643" lon="12.195104714132018"><ele>750.0</ele><time>2026-04-12T09:44:44Z</time></trkpt><trkpt lat="42.382792611219145" lon="12.195233806274528"><ele>748.6</ele><time>2026-04-12T09:44:45Z</time></trkpt><trkpt lat="42.382725655966325" lon="12.19535427968393"><ele>747.2</ele><time>2026-04-12T09:44:46Z</time></trkpt><trkpt lat="42.382663927623994" lon="12.195463201132986"><ele>745.8</ele><time>2026-04-12T09:44:47Z</time></trkpt><trkpt lat="42.382606884172766" lon="12.195556917732906"><ele>744.4</ele><time>2026-04-12T09:44:48Z</time></trkpt><trkpt lat="42.382540436151906" lon="12.195637137526024"><ele>743.0</ele><time>2026-04-12T09:44:49Z</time></trkpt><trkpt lat="42.38245630189476" lon="12.195704008711246"><ele>743.2</ele><time>2026-04-12T09:44:50Z</time></trkpt><trkpt lat="42.382350347759925" lon="12.19575354588522"><ele>743.4</ele><time>2026-04-12T09:44:51Z</time></trkpt><trkpt lat="42.38225421939742" lon="12.19579953823421"><ele>743.6</ele><time>2026-04-12T09:44:52Z</time></trkpt><trkpt lat="42.38218281013797" lon="12.195887707364518"><ele>743.8000000000001</ele><time>2026-04-12T09:44:53Z</time></trkpt><trkpt lat="42.382129089749064" lon="12.19598628071907"><ele>744.0</ele><time>2026-04-12T09:44:54Z</time></trkpt><trkpt lat="42.38210138667324" lon="12.196090536162275"><ele>744.0</ele><time>2026-04-12T09:44:54.999Z</time></trkpt><trkpt lat="42.38209441640847" lon="12.196188469423625"><ele>744.0</ele><time>2026-04-12T09:44:55.999Z</time></trkpt><trkpt lat="42.38210645592978" lon="12.196319075014271"><ele>744.0</ele><time>2026-04-12T09:44:56.999Z</time></trkpt><trkpt lat="42.38208798405853" lon="12.196465559342483"><ele>744.0</ele><time>2026-04-12T09:44:57.999Z</time></trkpt><trkpt lat="42.3820476671031" lon="12.196614678687695"><ele>744.0</ele><time>2026-04-12T09:44:58.999Z</time></trkpt><trkpt lat="42.381982286928874" lon="12.196796475930174"><ele>742.5</ele><time>2026-04-12T09:44:59.999Z</time></trkpt><trkpt lat="42.3819216531743" lon="12.196981704400153"><ele>741.0</ele><time>2026-04-12T09:45:00.999Z</time></trkpt><trkpt lat="42.381870896894" lon="12.197137735723318"><ele>739.5</ele><time>2026-04-12T09:45:01.999Z</time></trkpt><trkpt lat="42.38182167073046" lon="12.197255762691245"><ele>738.0</ele><time>2026-04-12T09:45:02.999Z</time></trkpt><trkpt lat="42.381771748989735" lon="12.197363927012034"><ele>737.8</ele><time>2026-04-12T09:45:03.999Z</time></trkpt><trkpt lat="42.38171572835135" lon="12.197460359282596"><ele>737.5999999999999</ele><time>2026-04-12T09:45:04.999Z</time></trkpt><trkpt lat="42.38166245182016" lon="12.197523658269645"><ele>737.4000000000001</ele><time>2026-04-12T09:45:05.999Z</time></trkpt><trkpt lat="42.3815398597063" lon="12.197589252442564"><ele>737.2</ele><time>2026-04-12T09:45:07.999Z</time></trkpt><trkpt lat="42.38145219548067" lon="12.197591270441539"><ele>737.0</ele><time>2026-04-12T09:45:08.999Z</time></trkpt><trkpt lat="42.38132495143722" lon="12.197663383826121"><ele>737.0</ele><time>2026-04-12T09:45:10.999Z</time></trkpt><trkpt lat="42.381248279855775" lon="12.19778147949744"><ele>737.0</ele><time>2026-04-12T09:45:11.999Z</time></trkpt><trkpt lat="42.38115794888698" lon="12.197930235001792"><ele>737.0</ele><time>2026-04-12T09:45:12.999Z</time></trkpt><trkpt lat="42.38108350501434" lon="12.198099785614078"><ele>737.0</ele><time>2026-04-12T09:45:13.999Z</time></trkpt><trkpt lat="42.381010235651395" lon="12.198230964475961"><ele>735.4000000000001</ele><time>2026-04-12T09:45:14.999Z</time></trkpt><trkpt lat="42.38094229092337" lon="12.198341809755224"><ele>733.8000000000001</ele><time>2026-04-12T09:45:15.999Z</time></trkpt><trkpt lat="42.38088806353601" lon="12.19843342128414"><ele>732.2</ele><time>2026-04-12T09:45:16.999Z</time></trkpt><trkpt lat="42.38083469561062" lon="12.198526171727861"><ele>730.6</ele><time>2026-04-12T09:45:17.999Z</time></trkpt><trkpt lat="42.380747782452374" lon="12.198575808623662"><ele>729.0</ele><time>2026-04-12T09:45:18.999Z</time></trkpt><trkpt lat="42.38066104034836" lon="12.1986221465795"><ele>729.0</ele><time>2026-04-12T09:45:19.999Z</time></trkpt><trkpt lat="42.380599932483676" lon="12.198668430056173"><ele>729.0</ele><time>2026-04-12T09:45:20.999Z</time></trkpt><trkpt lat="42.380511588386625" lon="12.198752646476803"><ele>729.0</ele><time>2026-04-12T09:45:21.999Z</time></trkpt><trkpt lat="42.38042802135339" lon="12.19877612587267"><ele>729.0</ele><time>2026-04-12T09:45:22.999Z</time></trkpt><trkpt lat="42.38032121350488" lon="12.198838970253215"><ele>729.0</ele><time>2026-04-12T09:45:24.999Z</time></trkpt><trkpt lat="42.38026632882457" lon="12.198943269676185"><ele>729.5</ele><time>2026-04-12T09:45:26.999Z</time></trkpt><trkpt lat="42.380266508294504" lon="12.199032105517313"><ele>730.0</ele><time>2026-04-12T09:45:27.999Z</time></trkpt><trkpt lat="42.38028839741374" lon="12.199195941422094"><ele>730.5</ele><time>2026-04-12T09:45:28.999Z</time></trkpt><trkpt lat="42.380304963163866" lon="12.199391200676324"><ele>731.0</ele><time>2026-04-12T09:45:29.999Z</time></trkpt><trkpt lat="42.38033241819541" lon="12.199589442063184"><ele>731.0</ele><time>2026-04-12T09:45:30.999Z</time></trkpt><trkpt lat="42.38034088806243" lon="12.199775583083841"><ele>731.0</ele><time>2026-04-12T09:45:32Z</time></trkpt><trkpt lat="42.380343370792794" lon="12.199915032308422"><ele>731.0</ele><time>2026-04-12T09:45:33Z</time></trkpt><trkpt lat="42.380321652625014" lon="12.200047554712866"><ele>731.0</ele><time>2026-04-12T09:45:34Z</time></trkpt><trkpt lat="42.380289023148585" lon="12.200178137552687"><ele>731.0</ele><time>2026-04-12T09:45:35Z</time></trkpt><trkpt lat="42.38025571367748" lon="12.200315532628686"><ele>730.8</ele><time>2026-04-12T09:45:36Z</time></trkpt><trkpt lat="42.3802704960467" lon="12.200435858431826"><ele>730.5999999999999</ele><time>2026-04-12T09:45:37Z</time></trkpt><trkpt lat="42.38025681210763" lon="12.20060351747129"><ele>730.4</ele><time>2026-04-12T09:45:39Z</time></trkpt><trkpt lat="42.38021837807244" lon="12.200711018531857"><ele>730.2</ele><time>2026-04-12T09:45:40Z</time></trkpt><trkpt lat="42.3801768751778" lon="12.200838649891399"><ele>730.0</ele><time>2026-04-12T09:45:41Z</time></trkpt><trkpt lat="42.380155072827755" lon="12.200977747380572"><ele>728.75</ele><time>2026-04-12T09:45:42Z</time></trkpt><trkpt lat="42.38017169298198" lon="12.201136446724112"><ele>727.5</ele><time>2026-04-12T09:45:43Z</time></trkpt><trkpt lat="42.38020384043521" lon="12.201297743611223"><ele>726.25</ele><time>2026-04-12T09:45:44Z</time></trkpt><trkpt lat="42.38020372001706" lon="12.201458599450762"><ele>725.0</ele><time>2026-04-12T09:45:45Z</time></trkpt><trkpt lat="42.380215285929886" lon="12.201621341425993"><ele>724.2</ele><time>2026-04-12T09:45:46Z</time></trkpt><trkpt lat="42.380214234040956" lon="12.20177035706082"><ele>723.4</ele><time>2026-04-12T09:45:47Z</time></trkpt><trkpt lat="42.38022105004426" lon="12.201917755532579"><ele>722.5999999999999</ele><time>2026-04-12T09:45:48Z</time></trkpt><trkpt lat="42.380220646429485" lon="12.20204079833404"><ele>721.8</ele><time>2026-04-12T09:45:49Z</time></trkpt><trkpt lat="42.38021337416141" lon="12.202159612339027"><ele>721.0</ele><time>2026-04-12T09:45:50Z</time></trkpt><trkpt lat="42.380199853943815" lon="12.202269891677371"><ele>721.0</ele><time>2026-04-12T09:45:51Z</time></trkpt><trkpt lat="42.38017710222628" lon="12.202384722381337"><ele>721.0</ele><time>2026-04-12T09:45:52Z</time></trkpt><trkpt lat="42.38015042336551" lon="12.202512129559757"><ele>721.0</ele><time>2026-04-12T09:45:53Z</time></trkpt><trkpt lat="42.380146656724406" lon="12.202644831352657"><ele>721.0</ele><time>2026-04-12T09:45:54Z</time></trkpt><trkpt lat="42.38016961299229" lon="12.202785033786302"><ele>721.0</ele><time>2026-04-12T09:45:55Z</time></trkpt><trkpt lat="42.380196779883754" lon="12.202894852876163"><ele>721.0</ele><time>2026-04-12T09:45:56Z</time></trkpt><trkpt lat="42.38020861738631" lon="12.202989828563245"><ele>721.0</ele><time>2026-04-12T09:45:57Z</time></trkpt><trkpt lat="42.380199844861416" lon="12.203118249540374"><ele>721.0</ele><time>2026-04-12T09:45:58Z</time></trkpt><trkpt lat="42.3801760843358" lon="12.20325381650446"><ele>721.0</ele><time>2026-04-12T09:45:59Z</time></trkpt><trkpt lat="42.38013983501108" lon="12.203394644154244"><ele>721.0</ele><time>2026-04-12T09:46:00Z</time></trkpt><trkpt lat="42.38011980616309" lon="12.203515278005906"><ele>721.0</ele><time>2026-04-12T09:46:01Z</time></trkpt><trkpt lat="42.38009175524986" lon="12.203636162107248"><ele>721.0</ele><time>2026-04-12T09:46:02Z</time></trkpt><trkpt lat="42.380061502357925" lon="12.203745470455454"><ele>721.0</ele><time>2026-04-12T09:46:03Z</time></trkpt><trkpt lat="42.380033025617045" lon="12.203857347922163"><ele>721.0</ele><time>2026-04-12T09:46:04Z</time></trkpt><trkpt lat="42.38000814284569" lon="12.203976186558826"><ele>721.0</ele><time>2026-04-12T09:46:05Z</time></trkpt><trkpt lat="42.37997847653496" lon="12.204088550923665"><ele>721.0</ele><time>2026-04-12T09:46:06Z</time></trkpt><trkpt lat="42.37993867212703" lon="12.204220981347683"><ele>718.5</ele><time>2026-04-12T09:46:07Z</time></trkpt><trkpt lat="42.37987355317434" lon="12.204379816359738"><ele>716.0</ele><time>2026-04-12T09:46:08Z</time></trkpt><trkpt lat="42.37980148850417" lon="12.204515235677103"><ele>713.5</ele><time>2026-04-12T09:46:09Z</time></trkpt><trkpt lat="42.379741280177754" lon="12.204638711378205"><ele>711.0</ele><time>2026-04-12T09:46:10Z</time></trkpt><trkpt lat="42.37969029899189" lon="12.204757814109598"><ele>708.8</ele><time>2026-04-12T09:46:11Z</time></trkpt><trkpt lat="42.3796445399595" lon="12.204863936738747"><ele>706.5999999999999</ele><time>2026-04-12T09:46:12Z</time></trkpt><trkpt lat="42.379617431389335" lon="12.204977485678514"><ele>704.4</ele><time>2026-04-12T09:46:13Z</time></trkpt><trkpt lat="42.37959886277114" lon="12.205085449763292"><ele>702.2</ele><time>2026-04-12T09:46:14Z</time></trkpt><trkpt lat="42.37958409829723" lon="12.205217294767666"><ele>700.0</ele><time>2026-04-12T09:46:15Z</time></trkpt><trkpt lat="42.379563268821066" lon="12.205364491106963"><ele>700.0</ele><time>2026-04-12T09:46:16Z</time></trkpt><trkpt lat="42.37954201049737" lon="12.205494277879602"><ele>700.0</ele><time>2026-04-12T09:46:17Z</time></trkpt><trkpt lat="42.37951818874814" lon="12.205596435017847"><ele>700.0</ele><time>2026-04-12T09:46:18Z</time></trkpt><trkpt lat="42.379516493182095" lon="12.205700454135732"><ele>700.0</ele><time>2026-04-12T09:46:19Z</time></trkpt><trkpt lat="42.379533949291286" lon="12.20579792882528"><ele>700.0</ele><time>2026-04-12T09:46:20Z</time></trkpt><trkpt lat="42.379548042802156" lon="12.205890330065984"><ele>700.0</ele><time>2026-04-12T09:46:21Z</time></trkpt><trkpt lat="42.379550147392294" lon="12.205994967395844"><ele>697.4</ele><time>2026-04-12T09:46:22Z</time></trkpt><trkpt lat="42.37953399256201" lon="12.206104856255685"><ele>694.8</ele><time>2026-04-12T09:46:23Z</time></trkpt><trkpt lat="42.37950406094253" lon="12.20625270465389"><ele>692.2</ele><time>2026-04-12T09:46:24Z</time></trkpt><trkpt lat="42.37946328751712" lon="12.206407854344137"><ele>689.6</ele><time>2026-04-12T09:46:25Z</time></trkpt><trkpt lat="42.37943776199919" lon="12.20654937690217"><ele>687.0</ele><time>2026-04-12T09:46:26Z</time></trkpt><trkpt lat="42.3794331761258" lon="12.206659737284225"><ele>685.5</ele><time>2026-04-12T09:46:27Z</time></trkpt><trkpt lat="42.37945303828879" lon="12.206790569982525"><ele>684.0</ele><time>2026-04-12T09:46:29Z</time></trkpt><trkpt lat="42.37950453186726" lon="12.206876570824988"><ele>682.5</ele><time>2026-04-12T09:46:31Z</time></trkpt><trkpt lat="42.379576407981816" lon="12.207001621704048"><ele>681.0</ele><time>2026-04-12T09:46:33Z</time></trkpt><trkpt lat="42.37961066312603" lon="12.207073356147049"><ele>679.5</ele><time>2026-04-12T09:46:34Z</time></trkpt><trkpt lat="42.379630083719654" lon="12.20716943594416"><ele>678.0</ele><time>2026-04-12T09:46:35Z</time></trkpt><trkpt lat="42.37964363435073" lon="12.207272004833477"><ele>676.6666666666666</ele><time>2026-04-12T09:46:36Z</time></trkpt><trkpt lat="42.379643004423706" lon="12.207376785943246"><ele>675.3333333333334</ele><time>2026-04-12T09:46:37Z</time></trkpt><trkpt lat="42.37964153974146" lon="12.207471441901111"><ele>674.0</ele><time>2026-04-12T09:46:38Z</time></trkpt><trkpt lat="42.3796326585304" lon="12.207602159190595"><ele>672.6666666666667</ele><time>2026-04-12T09:46:40Z</time></trkpt><trkpt lat="42.3796196823382" lon="12.207697064755234"><ele>671.3333333333334</ele><time>2026-04-12T09:46:42Z</time></trkpt><trkpt lat="42.37958972504274" lon="12.207790741182732"><ele>670.0</ele><time>2026-04-12T09:46:44Z</time></trkpt><trkpt lat="42.37954064876732" lon="12.207851933428973"><ele>670.0</ele><time>2026-04-12T09:46:45Z</time></trkpt><trkpt lat="42.3794843002749" lon="12.20789040761042"><ele>670.0</ele><time>2026-04-12T09:46:46Z</time></trkpt><trkpt lat="42.37939593923932" lon="12.207984686840943"><ele>670.0</ele><time>2026-04-12T09:46:48Z</time></trkpt><trkpt lat="42.37933244950871" lon="12.208115637436823"><ele>670.0</ele><time>2026-04-12T09:46:50Z</time></trkpt><trkpt lat="42.379276939524104" lon="12.208172308995339"><ele>670.0</ele><time>2026-04-12T09:46:53Z</time></trkpt><trkpt lat="42.37920125168725" lon="12.20816418054865"><ele>670.0</ele><time>2026-04-12T09:46:56Z</time></trkpt><trkpt lat="42.3791189654286" lon="12.208011085049664"><ele>670.0</ele><time>2026-04-12T09:46:57.999Z</time></trkpt><trkpt lat="42.37905266065286" lon="12.207918355253481"><ele>670.0</ele><time>2026-04-12T09:46:58.999Z</time></trkpt><trkpt lat="42.378990331544415" lon="12.207850247488713"><ele>670.0</ele><time>2026-04-12T09:46:59.999Z</time></trkpt><trkpt lat="42.3789184620864" lon="12.207736860296844"><ele>670.0</ele><time>2026-04-12T09:47:01.999Z</time></trkpt><trkpt lat="42.37888414542064" lon="12.207622081713108"><ele>670.0</ele><time>2026-04-12T09:47:03.999Z</time></trkpt><trkpt lat="42.37885140204568" lon="12.207495262584239"><ele>675.25</ele><time>2026-04-12T09:47:05.999Z</time></trkpt><trkpt lat="42.37879920694445" lon="12.207304742872696"><ele>680.5</ele><time>2026-04-12T09:47:07.999Z</time></trkpt><trkpt lat="42.37876532982958" lon="12.207168330223755"><ele>685.75</ele><time>2026-04-12T09:47:08.999Z</time></trkpt><trkpt lat="42.37873332474038" lon="12.20702336578552"><ele>691.0</ele><time>2026-04-12T09:47:09.999Z</time></trkpt><trkpt lat="42.37870105808895" lon="12.206901845146337"><ele>691.0</ele><time>2026-04-12T09:47:10.999Z</time></trkpt><trkpt lat="42.37867594478048" lon="12.206792234876364"><ele>691.0</ele><time>2026-04-12T09:47:11.999Z</time></trkpt><trkpt lat="42.37865196068466" lon="12.206686059733986"><ele>691.0</ele><time>2026-04-12T09:47:12.999Z</time></trkpt><trkpt lat="42.37864217850647" lon="12.206549799582534"><ele>691.0</ele><time>2026-04-12T09:47:13.999Z</time></trkpt><trkpt lat="42.37864547816064" lon="12.206430547218316"><ele>691.0</ele><time>2026-04-12T09:47:14.999Z</time></trkpt><trkpt lat="42.37863051993447" lon="12.206305639690536"><ele>690.5</ele><time>2026-04-12T09:47:15.999Z</time></trkpt><trkpt lat="42.378602432391006" lon="12.206193295415655"><ele>690.0</ele><time>2026-04-12T09:47:16.999Z</time></trkpt><trkpt lat="42.37858245317116" lon="12.20605563211643"><ele>689.5</ele><time>2026-04-12T09:47:18.999Z</time></trkpt><trkpt lat="42.37856267840297" lon="12.205959558296097"><ele>689.0</ele><time>2026-04-12T09:47:20.999Z</time></trkpt><trkpt lat="42.37854980281373" lon="12.20587352581769"><ele>688.5</ele><time>2026-04-12T09:47:21.999Z</time></trkpt><trkpt lat="42.37852345690638" lon="12.205784432840646"><ele>688.0</ele><time>2026-04-12T09:47:22.999Z</time></trkpt><trkpt lat="42.378494947244114" lon="12.205691976593366"><ele>687.6666666666667</ele><time>2026-04-12T09:47:23.999Z</time></trkpt><trkpt lat="42.37847216070728" lon="12.205591063949754"><ele>687.3333333333334</ele><time>2026-04-12T09:47:24.999Z</time></trkpt><trkpt lat="42.37844773541658" lon="12.205510963786317"><ele>687.0</ele><time>2026-04-12T09:47:25.999Z</time></trkpt><trkpt lat="42.378415130467765" lon="12.205432065217567"><ele>686.6666666666666</ele><time>2026-04-12T09:47:26.999Z</time></trkpt><trkpt lat="42.37832354989464" lon="12.205300822180758"><ele>686.3333333333333</ele><time>2026-04-12T09:47:28.999Z</time></trkpt><trkpt lat="42.37827066939017" lon="12.205217930048875"><ele>686.0</ele><time>2026-04-12T09:47:29.999Z</time></trkpt><trkpt lat="42.37821497489184" lon="12.205158747181075"><ele>686.0</ele><time>2026-04-12T09:47:30.999Z</time></trkpt><trkpt lat="42.37815446871252" lon="12.205093947481304"><ele>686.0</ele><time>2026-04-12T09:47:31.999Z</time></trkpt><trkpt lat="42.37809864134052" lon="12.205032164125905"><ele>686.0</ele><time>2026-04-12T09:47:32.999Z</time></trkpt><trkpt lat="42.37804725409664" lon="12.20497763360498"><ele>686.0</ele><time>2026-04-12T09:47:33.999Z</time></trkpt><trkpt lat="42.37799268314572" lon="12.204925856331597"><ele>686.0</ele><time>2026-04-12T09:47:34.999Z</time></trkpt><trkpt lat="42.37788164735453" lon="12.204862194896412"><ele>686.0</ele><time>2026-04-12T09:47:36.999Z</time></trkpt><trkpt lat="42.37778520216955" lon="12.20481673764509"><ele>687.0</ele><time>2026-04-12T09:47:39Z</time></trkpt><trkpt lat="42.377672095352466" lon="12.20481018440103"><ele>688.0</ele><time>2026-04-12T09:47:41Z</time></trkpt><trkpt lat="42.377592462173496" lon="12.20487128506793"><ele>689.0</ele><time>2026-04-12T09:47:43Z</time></trkpt><trkpt lat="42.377547467909864" lon="12.20498153056047"><ele>690.0</ele><time>2026-04-12T09:47:45Z</time></trkpt><trkpt lat="42.37751649522992" lon="12.205067650612769"><ele>691.0</ele><time>2026-04-12T09:47:46Z</time></trkpt><trkpt lat="42.3774779278359" lon="12.205156047848279"><ele>692.0</ele><time>2026-04-12T09:47:47Z</time></trkpt><trkpt lat="42.3774080048769" lon="12.205252918635273"><ele>692.8</ele><time>2026-04-12T09:47:49Z</time></trkpt><trkpt lat="42.37736079316284" lon="12.205416772543403"><ele>693.6</ele><time>2026-04-12T09:47:51Z</time></trkpt><trkpt lat="42.37733903577571" lon="12.205520986225908"><ele>694.4</ele><time>2026-04-12T09:47:52Z</time></trkpt><trkpt lat="42.37729038339366" lon="12.205660207151634"><ele>695.1999999999999</ele><time>2026-04-12T09:47:54Z</time></trkpt><trkpt lat="42.37725437466269" lon="12.205756663125898"><ele>696.0</ele><time>2026-04-12T09:47:55Z</time></trkpt><trkpt lat="42.37722921429887" lon="12.205869898990896"><ele>698.0</ele><time>2026-04-12T09:47:56Z</time></trkpt><trkpt lat="42.377226877107134" lon="12.206027380026052"><ele>700.0</ele><time>2026-04-12T09:47:58Z</time></trkpt><trkpt lat="42.37725586160941" lon="12.206111084542771"><ele>702.0</ele><time>2026-04-12T09:48:00Z</time></trkpt><trkpt lat="42.37730770172335" lon="12.206224538507584"><ele>704.0</ele><time>2026-04-12T09:48:08Z</time></trkpt><trkpt lat="42.37729075857033" lon="12.206320649642588"><ele>706.0</ele><time>2026-04-12T09:48:10Z</time></trkpt><trkpt lat="42.37725697632936" lon="12.20642324156924"><ele>708.0</ele><time>2026-04-12T09:48:12Z</time></trkpt><trkpt lat="42.37725017378912" lon="12.206571253170472"><ele>710.0</ele><time>2026-04-12T09:48:14Z</time></trkpt><trkpt lat="42.37725739913254" lon="12.206691017604253"><ele>712.0</ele><time>2026-04-12T09:48:16Z</time></trkpt><trkpt lat="42.3771973959606" lon="12.206818354854194"><ele>714.0</ele><time>2026-04-12T09:48:19Z</time></trkpt><trkpt lat="42.37717396897301" lon="12.20690301729318"><ele>716.0</ele><time>2026-04-12T09:48:20Z</time></trkpt><trkpt lat="42.37715243585308" lon="12.207013293224104"><ele>718.0</ele><time>2026-04-12T09:48:21Z</time></trkpt><trkpt lat="42.37710670420872" lon="12.207145242405192"><ele>719.1666666666667</ele><time>2026-04-12T09:48:23Z</time></trkpt><trkpt lat="42.37704345665167" lon="12.207242040197103"><ele>720.3333333333334</ele><time>2026-04-12T09:48:26Z</time></trkpt><trkpt lat="42.37697551055024" lon="12.207268777464723"><ele>721.5</ele><time>2026-04-12T09:48:28Z</time></trkpt><trkpt lat="42.376911836424" lon="12.20727130552836"><ele>722.6666666666666</ele><time>2026-04-12T09:48:31Z</time></trkpt><trkpt lat="42.37683231518688" lon="12.207281599144807"><ele>723.8333333333333</ele><time>2026-04-12T09:48:33Z</time></trkpt><trkpt lat="42.37672461177194" lon="12.207253437896455"><ele>725.0</ele><time>2026-04-12T09:48:35Z</time></trkpt><trkpt lat="42.376618177775796" lon="12.207261185385832"><ele>725.0</ele><time>2026-04-12T09:48:37Z</time></trkpt><trkpt lat="42.37654600152871" lon="12.207277657670762"><ele>725.0</ele><time>2026-04-12T09:48:39Z</time></trkpt><trkpt lat="42.3764822531301" lon="12.207319303326553"><ele>725.0</ele><time>2026-04-12T09:48:41Z</time></trkpt><trkpt lat="42.376406550771804" lon="12.207372086942486"><ele>725.0</ele><time>2026-04-12T09:48:44Z</time></trkpt><trkpt lat="42.37638891410758" lon="12.207501233514682"><ele>725.0</ele><time>2026-04-12T09:48:47Z</time></trkpt><trkpt lat="42.37641964750258" lon="12.20765046205032"><ele>725.0</ele><time>2026-04-12T09:48:49Z</time></trkpt><trkpt lat="42.37642815406742" lon="12.207791741424714"><ele>724.4</ele><time>2026-04-12T09:48:51Z</time></trkpt><trkpt lat="42.37647915898821" lon="12.207921077938312"><ele>723.8</ele><time>2026-04-12T09:48:53Z</time></trkpt><trkpt lat="42.37650712465663" lon="12.208071735013599"><ele>723.2</ele><time>2026-04-12T09:48:55Z</time></trkpt><trkpt lat="42.3765253180981" lon="12.208229680598498"><ele>722.6</ele><time>2026-04-12T09:48:57Z</time></trkpt><trkpt lat="42.376534317065826" lon="12.208326804016954"><ele>722.0</ele><time>2026-04-12T09:48:58Z</time></trkpt><trkpt lat="42.37654453833804" lon="12.20843120029116"><ele>722.0</ele><time>2026-04-12T09:48:58.999Z</time></trkpt><trkpt lat="42.37655316753837" lon="12.208548707460688"><ele>722.0</ele><time>2026-04-12T09:48:59.999Z</time></trkpt><trkpt lat="42.37658474321849" lon="12.208660604164038"><ele>722.0</ele><time>2026-04-12T09:49:00.999Z</time></trkpt><trkpt lat="42.37660291782214" lon="12.208768283443733"><ele>722.0</ele><time>2026-04-12T09:49:01.999Z</time></trkpt><trkpt lat="42.37661207350124" lon="12.20887098278303"><ele>722.0</ele><time>2026-04-12T09:49:02.999Z</time></trkpt><trkpt lat="42.37661830069162" lon="12.208964313869163"><ele>722.0</ele><time>2026-04-12T09:49:03.999Z</time></trkpt><trkpt lat="42.37663082069288" lon="12.209054679627526"><ele>720.6</ele><time>2026-04-12T09:49:04.999Z</time></trkpt><trkpt lat="42.37663847153422" lon="12.20921376942799"><ele>719.2</ele><time>2026-04-12T09:49:06.999Z</time></trkpt><trkpt lat="42.376623792949005" lon="12.209375407838746"><ele>717.8</ele><time>2026-04-12T09:49:08.999Z</time></trkpt><trkpt lat="42.376625573926255" lon="12.209484356154283"><ele>716.4</ele><time>2026-04-12T09:49:09.999Z</time></trkpt><trkpt lat="42.37661898961964" lon="12.2096047076012"><ele>715.0</ele><time>2026-04-12T09:49:10.999Z</time></trkpt><trkpt lat="42.37663084030873" lon="12.209704199073906"><ele>715.0</ele><time>2026-04-12T09:49:11.999Z</time></trkpt><trkpt lat="42.37664112280715" lon="12.209806119383382"><ele>715.0</ele><time>2026-04-12T09:49:12.999Z</time></trkpt><trkpt lat="42.37662249583037" lon="12.20995302778796"><ele>715.0</ele><time>2026-04-12T09:49:14.999Z</time></trkpt><trkpt lat="42.37668320043783" lon="12.210123310651753"><ele>715.0</ele><time>2026-04-12T09:49:16.999Z</time></trkpt><trkpt lat="42.37672411414427" lon="12.210223008001556"><ele>715.0</ele><time>2026-04-12T09:49:17.999Z</time></trkpt><trkpt lat="42.376737435572245" lon="12.210316647654624"><ele>713.8333333333334</ele><time>2026-04-12T09:49:18.999Z</time></trkpt><trkpt lat="42.3767680657463" lon="12.210411851414378"><ele>712.6666666666667</ele><time>2026-04-12T09:49:19.999Z</time></trkpt><trkpt lat="42.376823841467065" lon="12.210467404819731"><ele>711.5</ele><time>2026-04-12T09:49:20.999Z</time></trkpt><trkpt lat="42.37688521708154" lon="12.210524647414912"><ele>710.3333333333334</ele><time>2026-04-12T09:49:21.999Z</time></trkpt><trkpt lat="42.3769479307663" lon="12.210580777450895"><ele>709.1666666666666</ele><time>2026-04-12T09:49:22.999Z</time></trkpt><trkpt lat="42.377055881864614" lon="12.210630460254064"><ele>708.0</ele><time>2026-04-12T09:49:24.999Z</time></trkpt><trkpt lat="42.377145280052915" lon="12.210641633372985"><ele>708.4</ele><time>2026-04-12T09:49:25.999Z</time></trkpt><trkpt lat="42.37726733050041" lon="12.210647916558878"><ele>708.8</ele><time>2026-04-12T09:49:26.999Z</time></trkpt><trkpt lat="42.377379788432" lon="12.210679668495168"><ele>709.2</ele><time>2026-04-12T09:49:27.999Z</time></trkpt><trkpt lat="42.37745311368308" lon="12.210721326859483"><ele>709.6</ele><time>2026-04-12T09:49:28.999Z</time></trkpt><trkpt lat="42.377520296547075" lon="12.210798371431828"><ele>710.0</ele><time>2026-04-12T09:49:29.999Z</time></trkpt><trkpt lat="42.37758454908313" lon="12.210857713713676"><ele>707.0</ele><time>2026-04-12T09:49:30.999Z</time></trkpt><trkpt lat="42.37766860385999" lon="12.210885157207564"><ele>704.0</ele><time>2026-04-12T09:49:31.999Z</time></trkpt><trkpt lat="42.37776478979858" lon="12.21092980141447"><ele>701.0</ele><time>2026-04-12T09:49:32.999Z</time></trkpt><trkpt lat="42.37783697205318" lon="12.21101028718282"><ele>698.0</ele><time>2026-04-12T09:49:33.999Z</time></trkpt><trkpt lat="42.37789303172999" lon="12.211116510103151"><ele>695.0</ele><time>2026-04-12T09:49:34.999Z</time></trkpt><trkpt lat="42.37793063212561" lon="12.21125839997403"><ele>695.0</ele><time>2026-04-12T09:49:35.999Z</time></trkpt><trkpt lat="42.377970507705506" lon="12.211390436923354"><ele>695.0</ele><time>2026-04-12T09:49:36.999Z</time></trkpt><trkpt lat="42.37800077578634" lon="12.211505207552111"><ele>695.0</ele><time>2026-04-12T09:49:37.999Z</time></trkpt><trkpt lat="42.378017948908635" lon="12.211661292538938"><ele>695.0</ele><time>2026-04-12T09:49:39.999Z</time></trkpt><trkpt lat="42.37801938064545" lon="12.211758283022702"><ele>695.0</ele><time>2026-04-12T09:49:40.999Z</time></trkpt><trkpt lat="42.378052077516344" lon="12.211853787068929"><ele>694.1666666666666</ele><time>2026-04-12T09:49:42.999Z</time></trkpt><trkpt lat="42.37812415503438" lon="12.211914054400633"><ele>693.3333333333333</ele><time>2026-04-12T09:49:46Z</time></trkpt><trkpt lat="42.378133703496786" lon="12.212016590134338"><ele>692.5</ele><time>2026-04-12T09:49:55Z</time></trkpt><trkpt lat="42.378111020938505" lon="12.212119300198172"><ele>691.6666666666666</ele><time>2026-04-12T09:49:57Z</time></trkpt><trkpt lat="42.37807634414489" lon="12.212261663522275"><ele>690.8333333333334</ele><time>2026-04-12T09:49:59Z</time></trkpt><trkpt lat="42.37805733434891" lon="12.212359764890275"><ele>690.0</ele><time>2026-04-12T09:50:00Z</time></trkpt><trkpt lat="42.37803523813166" lon="12.212468242408649"><ele>688.2</ele><time>2026-04-12T09:50:01Z</time></trkpt><trkpt lat="42.37801025993555" lon="12.212580379046562"><ele>686.4</ele><time>2026-04-12T09:50:02Z</time></trkpt><trkpt lat="42.37798712390474" lon="12.21269226582315"><ele>684.5999999999999</ele><time>2026-04-12T09:50:03Z</time></trkpt><trkpt lat="42.377968047607744" lon="12.21282933311197"><ele>682.8</ele><time>2026-04-12T09:50:04Z</time></trkpt><trkpt lat="42.37794571075457" lon="12.212962626051192"><ele>681.0</ele><time>2026-04-12T09:50:05Z</time></trkpt><trkpt lat="42.377920519359606" lon="12.213093030103238"><ele>680.5999999999999</ele><time>2026-04-12T09:50:06Z</time></trkpt><trkpt lat="42.37790403095311" lon="12.2132223470367"><ele>680.2</ele><time>2026-04-12T09:50:07Z</time></trkpt><trkpt lat="42.377895860107515" lon="12.21334968488436"><ele>679.8</ele><time>2026-04-12T09:50:08Z</time></trkpt><trkpt lat="42.377885425178704" lon="12.21347312242079"><ele>679.4000000000001</ele><time>2026-04-12T09:50:09Z</time></trkpt><trkpt lat="42.37787279123996" lon="12.21359347318255"><ele>679.0</ele><time>2026-04-12T09:50:10Z</time></trkpt><trkpt lat="42.377846093122976" lon="12.213712349062908"><ele>679.0</ele><time>2026-04-12T09:50:11Z</time></trkpt><trkpt lat="42.377814128152494" lon="12.21382894649564"><ele>679.0</ele><time>2026-04-12T09:50:12Z</time></trkpt><trkpt lat="42.377788866308116" lon="12.213937419001788"><ele>679.0</ele><time>2026-04-12T09:50:13Z</time></trkpt><trkpt lat="42.37777999782549" lon="12.214063472089322"><ele>679.0</ele><time>2026-04-12T09:50:14Z</time></trkpt><trkpt lat="42.37776735635354" lon="12.214215338216622"><ele>679.0</ele><time>2026-04-12T09:50:15Z</time></trkpt><trkpt lat="42.37776435936649" lon="12.214363553670724"><ele>678.75</ele><time>2026-04-12T09:50:16Z</time></trkpt><trkpt lat="42.37776604986441" lon="12.214521241592653"><ele>678.5</ele><time>2026-04-12T09:50:17Z</time></trkpt><trkpt lat="42.377745832772035" lon="12.21468103141364"><ele>678.25</ele><time>2026-04-12T09:50:18Z</time></trkpt><trkpt lat="42.37770258476111" lon="12.214826584454544"><ele>678.0</ele><time>2026-04-12T09:50:19Z</time></trkpt><trkpt lat="42.37765022049567" lon="12.214948547428016"><ele>677.25</ele><time>2026-04-12T09:50:20Z</time></trkpt><trkpt lat="42.37757432666438" lon="12.21506877391779"><ele>676.5</ele><time>2026-04-12T09:50:21Z</time></trkpt><trkpt lat="42.37750126314334" lon="12.215200949844231"><ele>675.75</ele><time>2026-04-12T09:50:22Z</time></trkpt><trkpt lat="42.37744093727009" lon="12.21534048414575"><ele>675.0</ele><time>2026-04-12T09:50:23Z</time></trkpt><trkpt lat="42.377380441164476" lon="12.215472012102676"><ele>675.0</ele><time>2026-04-12T09:50:24Z</time></trkpt><trkpt lat="42.37731481413531" lon="12.21559609507517"><ele>675.0</ele><time>2026-04-12T09:50:25Z</time></trkpt><trkpt lat="42.377231831124" lon="12.215707734054423"><ele>675.0</ele><time>2026-04-12T09:50:26Z</time></trkpt><trkpt lat="42.37714137890912" lon="12.215803708251487"><ele>675.0</ele><time>2026-04-12T09:50:27Z</time></trkpt><trkpt lat="42.377057448086646" lon="12.215917607211967"><ele>672.0</ele><time>2026-04-12T09:50:28Z</time></trkpt><trkpt lat="42.37698372524423" lon="12.216030624821169"><ele>669.0</ele><time>2026-04-12T09:50:29Z</time></trkpt><trkpt lat="42.376912508563116" lon="12.216134994109321"><ele>666.0</ele><time>2026-04-12T09:50:30Z</time></trkpt><trkpt lat="42.376861535524974" lon="12.216213394783983"><ele>663.0</ele><time>2026-04-12T09:50:31Z</time></trkpt><trkpt lat="42.376819986166794" lon="12.216283931829407"><ele>660.0</ele><time>2026-04-12T09:50:32Z</time></trkpt><trkpt lat="42.37678452944368" lon="12.216357242398905"><ele>657.0</ele><time>2026-04-12T09:50:33Z</time></trkpt><trkpt lat="42.376744553513646" lon="12.216465496332136"><ele>657.0</ele><time>2026-04-12T09:50:35Z</time></trkpt><trkpt lat="42.37667281993844" lon="12.216389484894112"><ele>657.0</ele><time>2026-04-12T09:50:38Z</time></trkpt><trkpt lat="42.37664905342241" lon="12.216277638083273"><ele>657.0</ele><time>2026-04-12T09:50:39Z</time></trkpt><trkpt lat="42.37663505505774" lon="12.216125417714611"><ele>657.0</ele><time>2026-04-12T09:50:40Z</time></trkpt><trkpt lat="42.37663528126075" lon="12.21594257493928"><ele>657.0</ele><time>2026-04-12T09:50:41Z</time></trkpt><trkpt lat="42.3766360287751" lon="12.215778310999529"><ele>657.75</ele><time>2026-04-12T09:50:42Z</time></trkpt><trkpt lat="42.37663256386424" lon="12.21562749944575"><ele>658.5</ele><time>2026-04-12T09:50:43Z</time></trkpt><trkpt lat="42.37661994099365" lon="12.215475219780364"><ele>659.25</ele><time>2026-04-12T09:50:44Z</time></trkpt><trkpt lat="42.37659383297841" lon="12.21531532870602"><ele>660.0</ele><time>2026-04-12T09:50:45Z</time></trkpt><trkpt lat="42.376559269721824" lon="12.215175330426707"><ele>660.0</ele><time>2026-04-12T09:50:46Z</time></trkpt><trkpt lat="42.37653200647846" lon="12.215036582237499"><ele>660.0</ele><time>2026-04-12T09:50:47Z</time></trkpt><trkpt lat="42.37649528345168" lon="12.214921348185335"><ele>660.0</ele><time>2026-04-12T09:50:48Z</time></trkpt><trkpt lat="42.37644092009254" lon="12.214839233721614"><ele>660.0</ele><time>2026-04-12T09:50:49Z</time></trkpt><trkpt lat="42.37636741606955" lon="12.21476231709664"><ele>660.0</ele><time>2026-04-12T09:50:50Z</time></trkpt><trkpt lat="42.37627826513832" lon="12.214692805407072"><ele>662.8</ele><time>2026-04-12T09:50:51Z</time></trkpt><trkpt lat="42.376200255611295" lon="12.214615603542237"><ele>665.6</ele><time>2026-04-12T09:50:52Z</time></trkpt><trkpt lat="42.37613698659926" lon="12.214508438668497"><ele>668.4000000000001</ele><time>2026-04-12T09:50:53Z</time></trkpt><trkpt lat="42.37605418325664" lon="12.214411250291905"><ele>671.2</ele><time>2026-04-12T09:50:54Z</time></trkpt><trkpt lat="42.37593704366345" lon="12.214350395522288"><ele>674.0</ele><time>2026-04-12T09:50:55Z</time></trkpt><trkpt lat="42.37583297217071" lon="12.214277749126563"><ele>674.0</ele><time>2026-04-12T09:50:56Z</time></trkpt><trkpt lat="42.37573346247667" lon="12.21419003550745"><ele>674.0</ele><time>2026-04-12T09:50:57Z</time></trkpt><trkpt lat="42.37561831328984" lon="12.214107121598255"><ele>674.0</ele><time>2026-04-12T09:50:58Z</time></trkpt><trkpt lat="42.37549563564395" lon="12.214036870071716"><ele>674.0</ele><time>2026-04-12T09:50:59Z</time></trkpt><trkpt lat="42.37535561685322" lon="12.214010502991638"><ele>677.0</ele><time>2026-04-12T09:51:00Z</time></trkpt><trkpt lat="42.37519448961486" lon="12.214028977359575"><ele>680.0</ele><time>2026-04-12T09:51:01Z</time></trkpt><trkpt lat="42.37503939672479" lon="12.214089640612798"><ele>683.0</ele><time>2026-04-12T09:51:01.999Z</time></trkpt><trkpt lat="42.374895606167094" lon="12.214152965445816"><ele>683.0</ele><time>2026-04-12T09:51:02.999Z</time></trkpt><trkpt lat="42.37478024674169" lon="12.21416862643117"><ele>683.0</ele><time>2026-04-12T09:51:03.999Z</time></trkpt><trkpt lat="42.37471251009554" lon="12.214134802912072"><ele>683.0</ele><time>2026-04-12T09:51:04.999Z</time></trkpt><trkpt lat="42.37464209725931" lon="12.214069471011655"><ele>683.0</ele><time>2026-04-12T09:51:05.999Z</time></trkpt><trkpt lat="42.37458744224486" lon="12.213967151236275"><ele>683.0</ele><time>2026-04-12T09:51:06.999Z</time></trkpt><trkpt lat="42.374514080909265" lon="12.213870178846252"><ele>687.25</ele><time>2026-04-12T09:51:07.999Z</time></trkpt><trkpt lat="42.37443467239458" lon="12.21378337075824"><ele>691.5</ele><time>2026-04-12T09:51:08.999Z</time></trkpt><trkpt lat="42.37434068714834" lon="12.213716395843337"><ele>695.75</ele><time>2026-04-12T09:51:09.999Z</time></trkpt><trkpt lat="42.37422338290519" lon="12.213623337865084"><ele>700.0</ele><time>2026-04-12T09:51:10.999Z</time></trkpt><trkpt lat="42.374077371156694" lon="12.213504565448867"><ele>700.0</ele><time>2026-04-12T09:51:11.999Z</time></trkpt><trkpt lat="42.37395748610756" lon="12.213418270169809"><ele>700.0</ele><time>2026-04-12T09:51:12.999Z</time></trkpt><trkpt lat="42.37386009526026" lon="12.213348047892055"><ele>700.0</ele><time>2026-04-12T09:51:13.999Z</time></trkpt><trkpt lat="42.37376992260266" lon="12.213225951815355"><ele>700.0</ele><time>2026-04-12T09:51:14.999Z</time></trkpt><trkpt lat="42.373684514729575" lon="12.213130652156229"><ele>703.5</ele><time>2026-04-12T09:51:15.999Z</time></trkpt><trkpt lat="42.37354043461669" lon="12.21302868857895"><ele>707.0</ele><time>2026-04-12T09:51:17.999Z</time></trkpt><trkpt lat="42.373429707621725" lon="12.212992549525586"><ele>710.5</ele><time>2026-04-12T09:51:18.999Z</time></trkpt><trkpt lat="42.37328716431496" lon="12.212952518073642"><ele>714.0</ele><time>2026-04-12T09:51:19.999Z</time></trkpt><trkpt lat="42.37317542772712" lon="12.212978522779865"><ele>714.0</ele><time>2026-04-12T09:51:20.999Z</time></trkpt><trkpt lat="42.37307907376958" lon="12.212997931867378"><ele>714.0</ele><time>2026-04-12T09:51:21.999Z</time></trkpt><trkpt lat="42.37297698059334" lon="12.213038095604144"><ele>714.0</ele><time>2026-04-12T09:51:22.999Z</time></trkpt><trkpt lat="42.37288617336944" lon="12.213077442767545"><ele>714.0</ele><time>2026-04-12T09:51:23.999Z</time></trkpt><trkpt lat="42.37281683210955" lon="12.213096014822058"><ele>714.0</ele><time>2026-04-12T09:51:24.999Z</time></trkpt><trkpt lat="42.37272765256639" lon="12.213110440197674"><ele>714.6666666666666</ele><time>2026-04-12T09:51:26.999Z</time></trkpt><trkpt lat="42.37267305217575" lon="12.213173195951732"><ele>715.3333333333334</ele><time>2026-04-12T09:51:28.999Z</time></trkpt><trkpt lat="42.37259162798586" lon="12.213144953252888"><ele>716.0</ele><time>2026-04-12T09:51:50Z</time></trkpt><trkpt lat="42.37254138338358" lon="12.213078023051782"><ele>716.6666666666667</ele><time>2026-04-12T09:51:51Z</time></trkpt><trkpt lat="42.372492451666844" lon="12.213007014627372"><ele>717.3333333333334</ele><time>2026-04-12T09:51:52Z</time></trkpt><trkpt lat="42.37242820459406" lon="12.212923851340502"><ele>718.0</ele><time>2026-04-12T09:51:53Z</time></trkpt><trkpt lat="42.37233566596989" lon="12.212836266382217"><ele>718.0</ele><time>2026-04-12T09:51:54Z</time></trkpt><trkpt lat="42.372253779529196" lon="12.212767429187883"><ele>718.0</ele><time>2026-04-12T09:51:55Z</time></trkpt><trkpt lat="42.372181789481964" lon="12.212679174072385"><ele>718.0</ele><time>2026-04-12T09:51:56Z</time></trkpt><trkpt lat="42.372113662129195" lon="12.212589524703594"><ele>718.0</ele><time>2026-04-12T09:51:57Z</time></trkpt><trkpt lat="42.37205479346096" lon="12.212497716300176"><ele>718.0</ele><time>2026-04-12T09:51:58Z</time></trkpt><trkpt lat="42.37201019612422" lon="12.21238686122289"><ele>718.2</ele><time>2026-04-12T09:51:59Z</time></trkpt><trkpt lat="42.37196790239008" lon="12.212263851126613"><ele>718.4</ele><time>2026-04-12T09:52:00Z</time></trkpt><trkpt lat="42.37192594584808" lon="12.212126281532983"><ele>718.6</ele><time>2026-04-12T09:52:01Z</time></trkpt><trkpt lat="42.37188208589696" lon="12.211990003510092"><ele>718.8000000000001</ele><time>2026-04-12T09:52:02Z</time></trkpt><trkpt lat="42.37183915095198" lon="12.211848088194385"><ele>719.0</ele><time>2026-04-12T09:52:03Z</time></trkpt><trkpt lat="42.37180412471555" lon="12.211698698910599"><ele>719.0</ele><time>2026-04-12T09:52:04Z</time></trkpt><trkpt lat="42.37177984161413" lon="12.211549596846266"><ele>719.0</ele><time>2026-04-12T09:52:05Z</time></trkpt><trkpt lat="42.37177124860345" lon="12.211402898086845"><ele>719.0</ele><time>2026-04-12T09:52:06Z</time></trkpt><trkpt lat="42.37176469062803" lon="12.21126750335507"><ele>719.0</ele><time>2026-04-12T09:52:07Z</time></trkpt><trkpt lat="42.37177663161274" lon="12.211122540699865"><ele>719.0</ele><time>2026-04-12T09:52:08Z</time></trkpt><trkpt lat="42.371808022198984" lon="12.210989003998336"><ele>719.8000000000001</ele><time>2026-04-12T09:52:09Z</time></trkpt><trkpt lat="42.371836446554724" lon="12.210852383648607"><ele>720.6</ele><time>2026-04-12T09:52:10Z</time></trkpt><trkpt lat="42.371858533082346" lon="12.210706941136714"><ele>721.4</ele><time>2026-04-12T09:52:11Z</time></trkpt><trkpt lat="42.371859058229525" lon="12.21057122205774"><ele>722.2</ele><time>2026-04-12T09:52:12Z</time></trkpt><trkpt lat="42.37185971571203" lon="12.210421853671763"><ele>723.0</ele><time>2026-04-12T09:52:13Z</time></trkpt><trkpt lat="42.3718734608507" lon="12.210269609979381"><ele>723.8</ele><time>2026-04-12T09:52:14Z</time></trkpt><trkpt lat="42.37190065506594" lon="12.210117494943049"><ele>724.5999999999999</ele><time>2026-04-12T09:52:15Z</time></trkpt><trkpt lat="42.37193255469778" lon="12.209966536951498"><ele>725.4000000000001</ele><time>2026-04-12T09:52:16Z</time></trkpt><trkpt lat="42.371962737443255" lon="12.209833908608358"><ele>726.2</ele><time>2026-04-12T09:52:17Z</time></trkpt><trkpt lat="42.37198885235913" lon="12.209718673238575"><ele>727.0</ele><time>2026-04-12T09:52:18Z</time></trkpt><trkpt lat="42.371997765906876" lon="12.209610349588289"><ele>727.8</ele><time>2026-04-12T09:52:19Z</time></trkpt><trkpt lat="42.37198302710658" lon="12.209485984771574"><ele>728.6</ele><time>2026-04-12T09:52:20Z</time></trkpt><trkpt lat="42.37196862837922" lon="12.209352527467626"><ele>729.4</ele><time>2026-04-12T09:52:21Z</time></trkpt><trkpt lat="42.37196506223219" lon="12.2092193852488"><ele>730.1999999999999</ele><time>2026-04-12T09:52:22Z</time></trkpt><trkpt lat="42.37195361477005" lon="12.209078280975497"><ele>731.0</ele><time>2026-04-12T09:52:23Z</time></trkpt><trkpt lat="42.37193820261536" lon="12.208961878938284"><ele>731.8333333333333</ele><time>2026-04-12T09:52:24Z</time></trkpt><trkpt lat="42.371940916892804" lon="12.208870706963832"><ele>732.6666666666666</ele><time>2026-04-12T09:52:25Z</time></trkpt><trkpt lat="42.3719592656622" lon="12.20877927263162"><ele>733.5</ele><time>2026-04-12T09:52:28Z</time></trkpt><trkpt lat="42.37197166355484" lon="12.208623317978127"><ele>734.3333333333334</ele><time>2026-04-12T09:52:35Z</time></trkpt><trkpt lat="42.37198576224237" lon="12.208538857139365"><ele>735.1666666666667</ele><time>2026-04-12T09:52:36Z</time></trkpt><trkpt lat="42.37200355379132" lon="12.208443664597342"><ele>736.0</ele><time>2026-04-12T09:52:37Z</time></trkpt><trkpt lat="42.372010510277065" lon="12.20834576320165"><ele>736.0</ele><time>2026-04-12T09:52:39Z</time></trkpt><trkpt lat="42.371984575111874" lon="12.208262086280161"><ele>736.0</ele><time>2026-04-12T09:52:41Z</time></trkpt><trkpt lat="42.37188079281349" lon="12.20814168539467"><ele>736.0</ele><time>2026-04-12T09:52:43Z</time></trkpt><trkpt lat="42.37182076727576" lon="12.208075880609773"><ele>736.0</ele><time>2026-04-12T09:52:44Z</time></trkpt><trkpt lat="42.3717620065579" lon="12.208012321317153"><ele>736.0</ele><time>2026-04-12T09:52:45Z</time></trkpt><trkpt lat="42.371678581831496" lon="12.207963294698626"><ele>736.0</ele><time>2026-04-12T09:52:46Z</time></trkpt><trkpt lat="42.371598459248965" lon="12.207933334339831"><ele>737.4</ele><time>2026-04-12T09:52:47Z</time></trkpt><trkpt lat="42.3714921739137" lon="12.207923516765716"><ele>738.8</ele><time>2026-04-12T09:52:48Z</time></trkpt><trkpt lat="42.371374984429806" lon="12.207888303989295"><ele>740.1999999999999</ele><time>2026-04-12T09:52:49Z</time></trkpt><trkpt lat="42.37127821519733" lon="12.207871419922192"><ele>741.5999999999999</ele><time>2026-04-12T09:52:50Z</time></trkpt><trkpt lat="42.37119375727048" lon="12.207859161269115"><ele>743.0</ele><time>2026-04-12T09:52:51Z</time></trkpt><trkpt lat="42.3711087049245" lon="12.207896159355416"><ele>743.5999999999999</ele><time>2026-04-12T09:52:52Z</time></trkpt><trkpt lat="42.370997917484054" lon="12.207902697386249"><ele>744.1999999999999</ele><time>2026-04-12T09:52:53Z</time></trkpt><trkpt lat="42.37088977450261" lon="12.207896027658697"><ele>744.8</ele><time>2026-04-12T09:52:54Z</time></trkpt><trkpt lat="42.370806300657996" lon="12.207923716778396"><ele>745.4</ele><time>2026-04-12T09:52:55Z</time></trkpt><trkpt lat="42.37071740512991" lon="12.207990325751854"><ele>746.0</ele><time>2026-04-12T09:52:56Z</time></trkpt><trkpt lat="42.37063506651055" lon="12.208021819356246"><ele>746.0</ele><time>2026-04-12T09:52:57Z</time></trkpt><trkpt lat="42.37053851212335" lon="12.208054431452402"><ele>746.0</ele><time>2026-04-12T09:52:58Z</time></trkpt><trkpt lat="42.37046322718841" lon="12.208079517118032"><ele>746.0</ele><time>2026-04-12T09:52:59Z</time></trkpt><trkpt lat="42.37036555097297" lon="12.208041914536874"><ele>746.0</ele><time>2026-04-12T09:53:01Z</time></trkpt><trkpt lat="42.370334608406075" lon="12.207955473337508"><ele>746.0</ele><time>2026-04-12T09:53:02Z</time></trkpt><trkpt lat="42.37027870960621" lon="12.207814345767352"><ele>744.4</ele><time>2026-04-12T09:53:03.999Z</time></trkpt><trkpt lat="42.370224631794336" lon="12.207751798943574"><ele>742.8</ele><time>2026-04-12T09:53:04.999Z</time></trkpt><trkpt lat="42.370163696164845" lon="12.207696246069759"><ele>741.1999999999999</ele><time>2026-04-12T09:53:05.999Z</time></trkpt><trkpt lat="42.3700525022573" lon="12.207631735608944"><ele>739.5999999999999</ele><time>2026-04-12T09:53:07.999Z</time></trkpt><trkpt lat="42.36994698362458" lon="12.207540073239626"><ele>738.0</ele><time>2026-04-12T09:53:09.999Z</time></trkpt><trkpt lat="42.369863869347945" lon="12.207429487274608"><ele>737.4</ele><time>2026-04-12T09:53:11.999Z</time></trkpt><trkpt lat="42.36979799459709" lon="12.207327157505912"><ele>736.8</ele><time>2026-04-12T09:53:13.999Z</time></trkpt><trkpt lat="42.3697304261019" lon="12.207322560384911"><ele>736.2</ele><time>2026-04-12T09:53:15.999Z</time></trkpt><trkpt lat="42.3696754326121" lon="12.2073768374907"><ele>735.6</ele><time>2026-04-12T09:53:17.999Z</time></trkpt><trkpt lat="42.36968166914588" lon="12.20754669158689"><ele>735.0</ele><time>2026-04-12T09:53:19.999Z</time></trkpt><trkpt lat="42.369685889335635" lon="12.207672454943523"><ele>735.5</ele><time>2026-04-12T09:53:20.999Z</time></trkpt><trkpt lat="42.369697805199706" lon="12.207779461756044"><ele>736.0</ele><time>2026-04-12T09:53:21.999Z</time></trkpt><trkpt lat="42.369721052939404" lon="12.207865255686155"><ele>736.5</ele><time>2026-04-12T09:53:22.999Z</time></trkpt><trkpt lat="42.36974799749179" lon="12.208013912174264"><ele>737.0</ele><time>2026-04-12T09:53:24.999Z</time></trkpt><trkpt lat="42.36976109550302" lon="12.208100398964593"><ele>737.5</ele><time>2026-04-12T09:53:25.999Z</time></trkpt><trkpt lat="42.36977890424148" lon="12.20818516937163"><ele>738.0</ele><time>2026-04-12T09:53:26.999Z</time></trkpt><trkpt lat="42.369817951911266" lon="12.208336376877108"><ele>736.4</ele><time>2026-04-12T09:53:28.999Z</time></trkpt><trkpt lat="42.369859364208175" lon="12.20849238821827"><ele>734.8</ele><time>2026-04-12T09:53:30.999Z</time></trkpt><trkpt lat="42.36987098162358" lon="12.208615736248463"><ele>733.2</ele><time>2026-04-12T09:53:31.999Z</time></trkpt><trkpt lat="42.36986777653083" lon="12.208751452545714"><ele>731.6</ele><time>2026-04-12T09:53:32.999Z</time></trkpt><trkpt lat="42.36985449029508" lon="12.208840910071592"><ele>730.0</ele><time>2026-04-12T09:53:33.999Z</time></trkpt><trkpt lat="42.36984973715561" lon="12.208936805277698"><ele>728.8333333333334</ele><time>2026-04-12T09:53:34.999Z</time></trkpt><trkpt lat="42.369844995311105" lon="12.209037632495098"><ele>727.6666666666667</ele><time>2026-04-12T09:53:35.999Z</time></trkpt><trkpt lat="42.369877412935274" lon="12.209151399968345"><ele>726.5</ele><time>2026-04-12T09:53:36.999Z</time></trkpt><trkpt lat="42.36988584552278" lon="12.209258789255367"><ele>725.3333333333334</ele><time>2026-04-12T09:53:37.999Z</time></trkpt><trkpt lat="42.36988353893738" lon="12.209382509362118"><ele>724.1666666666666</ele><time>2026-04-12T09:53:38.999Z</time></trkpt><trkpt lat="42.369870039253335" lon="12.20952351754336"><ele>723.0</ele><time>2026-04-12T09:53:39.999Z</time></trkpt><trkpt lat="42.36988627552971" lon="12.20968165210541"><ele>721.8</ele><time>2026-04-12T09:53:40.999Z</time></trkpt><trkpt lat="42.36989855104152" lon="12.209839692637747"><ele>720.5999999999999</ele><time>2026-04-12T09:53:41.999Z</time></trkpt><trkpt lat="42.3699156780184" lon="12.20999753685114"><ele>719.4000000000001</ele><time>2026-04-12T09:53:42.999Z</time></trkpt><trkpt lat="42.36990606159732" lon="12.210145932505394"><ele>718.2</ele><time>2026-04-12T09:53:43.999Z</time></trkpt><trkpt lat="42.36989163052993" lon="12.21027445557664"><ele>717.0</ele><time>2026-04-12T09:53:44.999Z</time></trkpt><trkpt lat="42.36987489910713" lon="12.210366193019661"><ele>717.0</ele><time>2026-04-12T09:53:45.999Z</time></trkpt><trkpt lat="42.369856197383" lon="12.210454510302627"><ele>717.0</ele><time>2026-04-12T09:53:46.999Z</time></trkpt><trkpt lat="42.36982326021993" lon="12.21061963111272"><ele>717.0</ele><time>2026-04-12T09:53:48.999Z</time></trkpt><trkpt lat="42.369809014544316" lon="12.21074652280125"><ele>717.0</ele><time>2026-04-12T09:53:49.999Z</time></trkpt><trkpt lat="42.36977719224368" lon="12.21086067032906"><ele>717.0</ele><time>2026-04-12T09:53:50.999Z</time></trkpt><trkpt lat="42.36974289177788" lon="12.210960674455754"><ele>716.6666666666666</ele><time>2026-04-12T09:53:51.999Z</time></trkpt><trkpt lat="42.36971541774169" lon="12.211059223016345"><ele>716.3333333333334</ele><time>2026-04-12T09:53:52.999Z</time></trkpt><trkpt lat="42.36969055243975" lon="12.211152581909959"><ele>716.0</ele><time>2026-04-12T09:53:53.999Z</time></trkpt><trkpt lat="42.36967136300079" lon="12.211256895620837"><ele>715.6666666666667</ele><time>2026-04-12T09:53:55Z</time></trkpt><trkpt lat="42.369639768775166" lon="12.211375142941336"><ele>715.3333333333334</ele><time>2026-04-12T09:53:56Z</time></trkpt><trkpt lat="42.36960699810737" lon="12.211471737909037"><ele>715.0</ele><time>2026-04-12T09:53:57Z</time></trkpt><trkpt lat="42.3695827405794" lon="12.211604823890037"><ele>715.0</ele><time>2026-04-12T09:53:59Z</time></trkpt><trkpt lat="42.36950461350162" lon="12.211635088689267"><ele>715.0</ele><time>2026-04-12T09:54:05Z</time></trkpt><trkpt lat="42.369449395956856" lon="12.211563369281373"><ele>715.0</ele><time>2026-04-12T09:54:06Z</time></trkpt><trkpt lat="42.36938122416151" lon="12.211522494267134"><ele>715.0</ele><time>2026-04-12T09:54:07Z</time></trkpt><trkpt lat="42.36929557465416" lon="12.2115024905251"><ele>715.0</ele><time>2026-04-12T09:54:08Z</time></trkpt><trkpt lat="42.369220328100816" lon="12.211465928795999"><ele>715.0</ele><time>2026-04-12T09:54:09Z</time></trkpt><trkpt lat="42.36913162221184" lon="12.211365073257532"><ele>715.0</ele><time>2026-04-12T09:54:11Z</time></trkpt><trkpt lat="42.36904528368264" lon="12.211240289474418"><ele>715.0</ele><time>2026-04-12T09:54:13Z</time></trkpt><trkpt lat="42.368989329732365" lon="12.211186934864593"><ele>715.0</ele><time>2026-04-12T09:54:14Z</time></trkpt><trkpt lat="42.36889705225848" lon="12.2110807042871"><ele>715.0</ele><time>2026-04-12T09:54:16Z</time></trkpt><trkpt lat="42.36885405771699" lon="12.210959297490312"><ele>715.0</ele><time>2026-04-12T09:54:17Z</time></trkpt><trkpt lat="42.368826472298544" lon="12.210814325884897"><ele>714.4</ele><time>2026-04-12T09:54:18Z</time></trkpt><trkpt lat="42.36880191931078" lon="12.210662523266375"><ele>713.8</ele><time>2026-04-12T09:54:19Z</time></trkpt><trkpt lat="42.368775980326824" lon="12.210550046522473"><ele>713.2</ele><time>2026-04-12T09:54:20Z</time></trkpt><trkpt lat="42.36873721179006" lon="12.210465769530611"><ele>712.6</ele><time>2026-04-12T09:54:21Z</time></trkpt><trkpt lat="42.3686600558" lon="12.210365880483392"><ele>712.0</ele><time>2026-04-12T09:54:22Z</time></trkpt><trkpt lat="42.368581759945656" lon="12.210254609819204"><ele>712.0</ele><time>2026-04-12T09:54:23Z</time></trkpt><trkpt lat="42.36850667949245" lon="12.21016175969079"><ele>712.0</ele><time>2026-04-12T09:54:24Z</time></trkpt><trkpt lat="42.36844614326703" lon="12.210071659243031"><ele>712.0</ele><time>2026-04-12T09:54:25Z</time></trkpt><trkpt lat="42.36841178360139" lon="12.209979357521876"><ele>712.0</ele><time>2026-04-12T09:54:26Z</time></trkpt><trkpt lat="42.36839384926239" lon="12.209865874669395"><ele>712.0</ele><time>2026-04-12T09:54:27Z</time></trkpt><trkpt lat="42.36839261823482" lon="12.209747451689724"><ele>712.0</ele><time>2026-04-12T09:54:28Z</time></trkpt><trkpt lat="42.36838949899707" lon="12.209601615494666"><ele>712.8</ele><time>2026-04-12T09:54:29Z</time></trkpt><trkpt lat="42.3683693707575" lon="12.209445131604745"><ele>713.6</ele><time>2026-04-12T09:54:30Z</time></trkpt><trkpt lat="42.36834797536018" lon="12.209306874760317"><ele>714.4</ele><time>2026-04-12T09:54:31Z</time></trkpt><trkpt lat="42.3683273744168" lon="12.2092085243807"><ele>715.1999999999999</ele><time>2026-04-12T09:54:32Z</time></trkpt><trkpt lat="42.368324375741246" lon="12.209116668355918"><ele>716.0</ele><time>2026-04-12T09:54:33Z</time></trkpt><trkpt lat="42.36833006760235" lon="12.208995327101903"><ele>716.5999999999999</ele><time>2026-04-12T09:54:34Z</time></trkpt><trkpt lat="42.368336366302714" lon="12.208859258679784"><ele>717.2</ele><time>2026-04-12T09:54:35Z</time></trkpt><trkpt lat="42.368332217428396" lon="12.208722991008804"><ele>717.8</ele><time>2026-04-12T09:54:36Z</time></trkpt><trkpt lat="42.36832666366605" lon="12.208612149124269"><ele>718.4000000000001</ele><time>2026-04-12T09:54:37Z</time></trkpt><trkpt lat="42.36829755206974" lon="12.208464843710697"><ele>719.0</ele><time>2026-04-12T09:54:39Z</time></trkpt><trkpt lat="42.36827184682229" lon="12.208352658080463"><ele>719.0</ele><time>2026-04-12T09:54:40Z</time></trkpt><trkpt lat="42.368262044643636" lon="12.20821122113981"><ele>719.0</ele><time>2026-04-12T09:54:41Z</time></trkpt><trkpt lat="42.368253126141866" lon="12.208072816720525"><ele>719.0</ele><time>2026-04-12T09:54:42Z</time></trkpt><trkpt lat="42.36823253934412" lon="12.207963446521786"><ele>719.0</ele><time>2026-04-12T09:54:43Z</time></trkpt><trkpt lat="42.368201900320194" lon="12.20783252507542"><ele>719.0</ele><time>2026-04-12T09:54:44Z</time></trkpt><trkpt lat="42.36817376123693" lon="12.207682624178386"><ele>719.4000000000001</ele><time>2026-04-12T09:54:45Z</time></trkpt><trkpt lat="42.36815350049943" lon="12.207548721133529"><ele>719.8</ele><time>2026-04-12T09:54:46Z</time></trkpt><trkpt lat="42.368132631154786" lon="12.207444037782471"><ele>720.2</ele><time>2026-04-12T09:54:47Z</time></trkpt><trkpt lat="42.3681100209406" lon="12.2073625099953"><ele>720.5999999999999</ele><time>2026-04-12T09:54:48Z</time></trkpt><trkpt lat="42.368139568497945" lon="12.207175260805062"><ele>721.0</ele><time>2026-04-12T09:54:50Z</time></trkpt><trkpt lat="42.36815269873394" lon="12.20707052818354"><ele>722.4</ele><time>2026-04-12T09:54:51Z</time></trkpt><trkpt lat="42.3681621160239" lon="12.206980643012097"><ele>723.8</ele><time>2026-04-12T09:54:52Z</time></trkpt><trkpt lat="42.368108679057336" lon="12.206868284934664"><ele>725.1999999999999</ele><time>2026-04-12T09:54:54Z</time></trkpt><trkpt lat="42.368025819188894" lon="12.206750671405505"><ele>726.5999999999999</ele><time>2026-04-12T09:54:56Z</time></trkpt><trkpt lat="42.367954150261994" lon="12.20665357826448"><ele>728.0</ele><time>2026-04-12T09:54:58Z</time></trkpt><trkpt lat="42.36794557314984" lon="12.206556702736938"><ele>729.5</ele><time>2026-04-12T09:55:01Z</time></trkpt><trkpt lat="42.36797456317676" lon="12.206477945972086"><ele>731.0</ele><time>2026-04-12T09:55:03Z</time></trkpt><trkpt lat="42.36795462241723" lon="12.206365377874326"><ele>732.5</ele><time>2026-04-12T09:55:05Z</time></trkpt><trkpt lat="42.367966292344235" lon="12.206263272186897"><ele>734.0</ele><time>2026-04-12T09:55:07.999Z</time></trkpt><trkpt lat="42.367949226371586" lon="12.206124762978144"><ele>735.5</ele><time>2026-04-12T09:55:10.999Z</time></trkpt><trkpt lat="42.36794501440725" lon="12.20603261818025"><ele>737.0</ele><time>2026-04-12T09:55:12.999Z</time></trkpt><trkpt lat="42.36799480211687" lon="12.205925539135983"><ele>737.0</ele><time>2026-04-12T09:55:16.999Z</time></trkpt><trkpt lat="42.36803162630047" lon="12.205851406362335"><ele>737.0</ele><time>2026-04-12T09:55:23.999Z</time></trkpt><trkpt lat="42.36807726779068" lon="12.205768484371882"><ele>737.0</ele><time>2026-04-12T09:55:30.999Z</time></trkpt><trkpt lat="42.36813656452018" lon="12.205720058397064"><ele>737.0</ele><time>2026-04-12T09:55:32.999Z</time></trkpt><trkpt lat="42.368223712975386" lon="12.205772094897572"><ele>737.0</ele><time>2026-04-12T09:55:35.999Z</time></trkpt><trkpt lat="42.36830803916366" lon="12.205785949964262"><ele>737.0</ele><time>2026-04-12T09:55:43.999Z</time></trkpt><trkpt lat="42.368383085028114" lon="12.2057940567691"><ele>737.0</ele><time>2026-04-12T09:55:45.999Z</time></trkpt><trkpt lat="42.36846879185878" lon="12.205810099525541"><ele>737.0</ele><time>2026-04-12T09:55:48.999Z</time></trkpt><trkpt lat="42.36848134364821" lon="12.205699658589596"><ele>737.0</ele><time>2026-04-12T09:55:54.999Z</time></trkpt><trkpt lat="42.368448534831174" lon="12.20561177519223"><ele>737.0</ele><time>2026-04-12T09:55:56.999Z</time></trkpt><trkpt lat="42.36843302873742" lon="12.205513814056028"><ele>737.0</ele><time>2026-04-12T09:56:06Z</time></trkpt><trkpt lat="42.36843469693154" lon="12.205416107414004"><ele>737.0</ele><time>2026-04-12T09:56:08Z</time></trkpt><trkpt lat="42.36843454205504" lon="12.205255950365531"><ele>738.1666666666666</ele><time>2026-04-12T09:56:11Z</time></trkpt><trkpt lat="42.368428790754734" lon="12.205163455210867"><ele>739.3333333333333</ele><time>2026-04-12T09:56:12Z</time></trkpt><trkpt lat="42.36846711119668" lon="12.20508859814412"><ele>740.5</ele><time>2026-04-12T09:56:15Z</time></trkpt><trkpt lat="42.36850869738572" lon="12.205182148722322"><ele>741.6666666666666</ele><time>2026-04-12T09:56:17Z</time></trkpt><trkpt lat="42.36853942484673" lon="12.205308423232296"><ele>742.8333333333334</ele><time>2026-04-12T09:56:19Z</time></trkpt><trkpt lat="42.36858291451099" lon="12.205394047100711"><ele>744.0</ele><time>2026-04-12T09:56:20Z</time></trkpt><trkpt lat="42.36861805448977" lon="12.205484816382382"><ele>744.0</ele><time>2026-04-12T09:56:21Z</time></trkpt><trkpt lat="42.36866616043691" lon="12.205583036703885"><ele>744.0</ele><time>2026-04-12T09:56:22Z</time></trkpt><trkpt lat="42.36871913628947" lon="12.205675800162178"><ele>744.0</ele><time>2026-04-12T09:56:23Z</time></trkpt><trkpt lat="42.36877557589084" lon="12.205758569594146"><ele>744.0</ele><time>2026-04-12T09:56:25Z</time></trkpt><trkpt lat="42.368860810677134" lon="12.205833730804622"><ele>744.0</ele><time>2026-04-12T09:56:27Z</time></trkpt><trkpt lat="42.36893721184851" lon="12.205840385441117"><ele>744.0</ele><time>2026-04-12T09:56:28Z</time></trkpt><trkpt lat="42.36900879905515" lon="12.205842193454785"><ele>745.5</ele><time>2026-04-12T09:56:29Z</time></trkpt><trkpt lat="42.369083739838956" lon="12.20585376844642"><ele>747.0</ele><time>2026-04-12T09:56:35Z</time></trkpt><trkpt lat="42.369174593917386" lon="12.205817230952837"><ele>748.5</ele><time>2026-04-12T09:56:38Z</time></trkpt><trkpt lat="42.36926198638886" lon="12.205778537339082"><ele>750.0</ele><time>2026-04-12T09:56:41Z</time></trkpt><trkpt lat="42.36932506135107" lon="12.205684482017627"><ele>751.5</ele><time>2026-04-12T09:56:44Z</time></trkpt><trkpt lat="42.369383567960554" lon="12.205604524545352"><ele>753.0</ele><time>2026-04-12T09:56:46Z</time></trkpt><trkpt lat="42.36947484463712" lon="12.205588635122139"><ele>753.0</ele><time>2026-04-12T09:56:48Z</time></trkpt><trkpt lat="42.369596591548756" lon="12.205641601344572"><ele>753.0</ele><time>2026-04-12T09:56:50Z</time></trkpt><trkpt lat="42.36970734894533" lon="12.205668363127305"><ele>753.0</ele><time>2026-04-12T09:56:52Z</time></trkpt><trkpt lat="42.36978917782419" lon="12.205710460705426"><ele>753.0</ele><time>2026-04-12T09:56:54Z</time></trkpt><trkpt lat="42.36983887122912" lon="12.205835100232038"><ele>753.0</ele><time>2026-04-12T09:56:56Z</time></trkpt><trkpt lat="42.36983207567759" lon="12.205920988011409"><ele>753.0</ele><time>2026-04-12T09:56:57Z</time></trkpt><trkpt lat="42.36981745819035" lon="12.206013210719476"><ele>753.0</ele><time>2026-04-12T09:56:58Z</time></trkpt><trkpt lat="42.36982086542603" lon="12.206166068875538"><ele>753.0</ele><time>2026-04-12T09:57:00Z</time></trkpt><trkpt lat="42.36983280424213" lon="12.206334189238886"><ele>753.0</ele><time>2026-04-12T09:57:02Z</time></trkpt><trkpt lat="42.36983100956898" lon="12.206424881709555"><ele>753.0</ele><time>2026-04-12T09:57:03Z</time></trkpt><trkpt lat="42.369833938645904" lon="12.206574604503604"><ele>752.1428571428571</ele><time>2026-04-12T09:57:05Z</time></trkpt><trkpt lat="42.36982343601992" lon="12.206663069020873"><ele>751.2857142857143</ele><time>2026-04-12T09:57:06Z</time></trkpt><trkpt lat="42.369799643720576" lon="12.206758946471552"><ele>750.4285714285713</ele><time>2026-04-12T09:57:07Z</time></trkpt><trkpt lat="42.36980340915637" lon="12.206864514344543"><ele>749.5714285714286</ele><time>2026-04-12T09:57:07.999Z</time></trkpt><trkpt lat="42.36979287218582" lon="12.206954554049377"><ele>748.7142857142857</ele><time>2026-04-12T09:57:08.999Z</time></trkpt><trkpt lat="42.36976694523788" lon="12.20704944022493"><ele>747.8571428571428</ele><time>2026-04-12T09:57:09.999Z</time></trkpt><trkpt lat="42.3697451283801" lon="12.207141595594855"><ele>747.0</ele><time>2026-04-12T09:57:10.999Z</time></trkpt><trkpt lat="42.3697053300269" lon="12.207295096723465"><ele>745.5</ele><time>2026-04-12T09:57:12.999Z</time></trkpt><trkpt lat="42.36970507603965" lon="12.207395543499713"><ele>744.0</ele><time>2026-04-12T09:57:13.999Z</time></trkpt><trkpt lat="42.36969713965792" lon="12.207485698564556"><ele>742.5</ele><time>2026-04-12T09:57:14.999Z</time></trkpt><trkpt lat="42.36970108998106" lon="12.20758492725127"><ele>741.0</ele><time>2026-04-12T09:57:15.999Z</time></trkpt><trkpt lat="42.36970929090742" lon="12.207697694170355"><ele>739.5</ele><time>2026-04-12T09:57:16.999Z</time></trkpt><trkpt lat="42.369713981621956" lon="12.207789483468092"><ele>738.0</ele><time>2026-04-12T09:57:17.999Z</time></trkpt><trkpt lat="42.369754803145945" lon="12.207948649236334"><ele>738.0</ele><time>2026-04-12T09:57:19.999Z</time></trkpt><trkpt lat="42.36978417198289" lon="12.208025062036336"><ele>738.0</ele><time>2026-04-12T09:57:20.999Z</time></trkpt><trkpt lat="42.36978518479257" lon="12.208112506806113"><ele>738.0</ele><time>2026-04-12T09:57:21.999Z</time></trkpt><trkpt lat="42.36978032531443" lon="12.208286576944175"><ele>738.0</ele><time>2026-04-12T09:57:23.999Z</time></trkpt><trkpt lat="42.36980145663227" lon="12.208382555033568"><ele>738.0</ele><time>2026-04-12T09:57:24.999Z</time></trkpt><trkpt lat="42.36982595901742" lon="12.208477314408169"><ele>738.0</ele><time>2026-04-12T09:57:25.999Z</time></trkpt><trkpt lat="42.36982770029461" lon="12.20857167745581"><ele>736.6666666666666</ele><time>2026-04-12T09:57:26.999Z</time></trkpt><trkpt lat="42.36982455367863" lon="12.208660543877537"><ele>735.3333333333334</ele><time>2026-04-12T09:57:27.999Z</time></trkpt><trkpt lat="42.36983817713042" lon="12.20875556991878"><ele>734.0</ele><time>2026-04-12T09:57:28.999Z</time></trkpt><trkpt lat="42.36986379398345" lon="12.208939345850833"><ele>732.6666666666667</ele><time>2026-04-12T09:57:30.999Z</time></trkpt><trkpt lat="42.36987195056509" lon="12.209049242682894"><ele>731.3333333333334</ele><time>2026-04-12T09:57:31.999Z</time></trkpt><trkpt lat="42.36988794964366" lon="12.20915959257262"><ele>730.0</ele><time>2026-04-12T09:57:32.999Z</time></trkpt><trkpt lat="42.36991737746507" lon="12.209268184433162"><ele>728.6</ele><time>2026-04-12T09:57:33.999Z</time></trkpt><trkpt lat="42.36991364169496" lon="12.209398306062402"><ele>727.2</ele><time>2026-04-12T09:57:34.999Z</time></trkpt><trkpt lat="42.369891572822425" lon="12.209534287322212"><ele>725.8</ele><time>2026-04-12T09:57:35.999Z</time></trkpt><trkpt lat="42.369900955733506" lon="12.209690005879306"><ele>724.4</ele><time>2026-04-12T09:57:36.999Z</time></trkpt><trkpt lat="42.36992235309713" lon="12.20984243583525"><ele>723.0</ele><time>2026-04-12T09:57:37.999Z</time></trkpt><trkpt lat="42.36993750416165" lon="12.21000065814304"><ele>721.8</ele><time>2026-04-12T09:57:38.999Z</time></trkpt><trkpt lat="42.36994029359739" lon="12.210148310436942"><ele>720.5999999999999</ele><time>2026-04-12T09:57:39.999Z</time></trkpt><trkpt lat="42.369919304347256" lon="12.210292002892935"><ele>719.4000000000001</ele><time>2026-04-12T09:57:40.999Z</time></trkpt><trkpt lat="42.36988979595019" lon="12.210401327440758"><ele>718.2</ele><time>2026-04-12T09:57:41.999Z</time></trkpt><trkpt lat="42.36986950804005" lon="12.210482690832817"><ele>717.0</ele><time>2026-04-12T09:57:42.999Z</time></trkpt><trkpt lat="42.369840949149044" lon="12.21069982292655"><ele>716.0</ele><time>2026-04-12T09:57:44.999Z</time></trkpt><trkpt lat="42.369818052228425" lon="12.21083356842374"><ele>715.0</ele><time>2026-04-12T09:57:45.999Z</time></trkpt><trkpt lat="42.36977704731018" lon="12.21095052282998"><ele>714.0</ele><time>2026-04-12T09:57:46.999Z</time></trkpt><trkpt lat="42.3697458900024" lon="12.21106473462682"><ele>713.0</ele><time>2026-04-12T09:57:47.999Z</time></trkpt><trkpt lat="42.36971678012907" lon="12.211170181720988"><ele>712.0</ele><time>2026-04-12T09:57:48.999Z</time></trkpt><trkpt lat="42.369692484755696" lon="12.211277792180399"><ele>712.6</ele><time>2026-04-12T09:57:49.999Z</time></trkpt><trkpt lat="42.36965960690823" lon="12.211379453638106"><ele>713.2</ele><time>2026-04-12T09:57:50.999Z</time></trkpt><trkpt lat="42.36962623362644" lon="12.211479627771197"><ele>713.8</ele><time>2026-04-12T09:57:51.999Z</time></trkpt><trkpt lat="42.36959708962427" lon="12.211568585115808"><ele>714.4</ele><time>2026-04-12T09:57:52.999Z</time></trkpt><trkpt lat="42.36956914781755" lon="12.211710251065949"><ele>715.0</ele><time>2026-04-12T09:57:54.999Z</time></trkpt><trkpt lat="42.36958023438547" lon="12.21185857643503"><ele>713.8571428571429</ele><time>2026-04-12T09:57:56.999Z</time></trkpt><trkpt lat="42.369574596236035" lon="12.211949950169272"><ele>712.7142857142857</ele><time>2026-04-12T09:57:57.999Z</time></trkpt><trkpt lat="42.36953737671602" lon="12.212045410490964"><ele>711.5714285714286</ele><time>2026-04-12T09:57:58.999Z</time></trkpt><trkpt lat="42.369506268319185" lon="12.212141342463369"><ele>710.4285714285714</ele><time>2026-04-12T09:57:59.999Z</time></trkpt><trkpt lat="42.369490188829154" lon="12.212237325414963"><ele>709.2857142857142</ele><time>2026-04-12T09:58:00.999Z</time></trkpt><trkpt lat="42.36947647776357" lon="12.212340140113119"><ele>708.1428571428571</ele><time>2026-04-12T09:58:01.999Z</time></trkpt><trkpt lat="42.36946331810485" lon="12.212432350460306"><ele>707.0</ele><time>2026-04-12T09:58:02.999Z</time></trkpt><trkpt lat="42.36945072687359" lon="12.212536856986958"><ele>705.6666666666666</ele><time>2026-04-12T09:58:03.999Z</time></trkpt><trkpt lat="42.36941208953639" lon="12.212631273246837"><ele>704.3333333333333</ele><time>2026-04-12T09:58:04.999Z</time></trkpt><trkpt lat="42.369360689947776" lon="12.212685744868011"><ele>703.0</ele><time>2026-04-12T09:58:05.999Z</time></trkpt><trkpt lat="42.36929072367348" lon="12.21272773621278"><ele>701.6666666666666</ele><time>2026-04-12T09:58:07Z</time></trkpt><trkpt lat="42.36920077961184" lon="12.21277113216367"><ele>700.3333333333334</ele><time>2026-04-12T09:58:08Z</time></trkpt><trkpt lat="42.369104771123155" lon="12.21284113508186"><ele>699.0</ele><time>2026-04-12T09:58:09Z</time></trkpt><trkpt lat="42.36900105777765" lon="12.212920881914533"><ele>699.0</ele><time>2026-04-12T09:58:10Z</time></trkpt><trkpt lat="42.36892239414747" lon="12.212993090250066"><ele>699.0</ele><time>2026-04-12T09:58:11Z</time></trkpt><trkpt lat="42.3688479610636" lon="12.213119379819679"><ele>699.0</ele><time>2026-04-12T09:58:12Z</time></trkpt><trkpt lat="42.36878490706485" lon="12.213231757471746"><ele>699.0</ele><time>2026-04-12T09:58:13Z</time></trkpt><trkpt lat="42.36874217532621" lon="12.213313127434946"><ele>699.0</ele><time>2026-04-12T09:58:14Z</time></trkpt><trkpt lat="42.36865584175862" lon="12.213416073474898"><ele>696.6</ele><time>2026-04-12T09:58:16Z</time></trkpt><trkpt lat="42.36852867815807" lon="12.21341308832973"><ele>694.2</ele><time>2026-04-12T09:58:18Z</time></trkpt><trkpt lat="42.36841515440174" lon="12.213475823767578"><ele>691.8000000000001</ele><time>2026-04-12T09:58:20Z</time></trkpt><trkpt lat="42.36835611706601" lon="12.213511415411153"><ele>689.4000000000001</ele><time>2026-04-12T09:58:21Z</time></trkpt><trkpt lat="42.36826497260773" lon="12.213525704459041"><ele>687.0</ele><time>2026-04-12T09:58:23Z</time></trkpt><trkpt lat="42.36817270946712" lon="12.213525384214181"><ele>687.0</ele><time>2026-04-12T09:58:25Z</time></trkpt><trkpt lat="42.36806055534418" lon="12.213537314457106"><ele>687.0</ele><time>2026-04-12T09:58:27Z</time></trkpt><trkpt lat="42.367964144027496" lon="12.213502534811669"><ele>687.0</ele><time>2026-04-12T09:58:29Z</time></trkpt><trkpt lat="42.36786238472154" lon="12.213419605346642"><ele>687.0</ele><time>2026-04-12T09:58:31Z</time></trkpt><trkpt lat="42.36780610085113" lon="12.213362606978645"><ele>687.0</ele><time>2026-04-12T09:58:32Z</time></trkpt><trkpt lat="42.36771113176679" lon="12.213268835630924"><ele>684.8333333333334</ele><time>2026-04-12T09:58:34Z</time></trkpt><trkpt lat="42.3676564796798" lon="12.213220676822404"><ele>682.6666666666666</ele><time>2026-04-12T09:58:35Z</time></trkpt><trkpt lat="42.367600807273924" lon="12.213173220746135"><ele>680.5</ele><time>2026-04-12T09:58:36Z</time></trkpt><trkpt lat="42.367542852653436" lon="12.213127381543407"><ele>678.3333333333333</ele><time>2026-04-12T09:58:37Z</time></trkpt><trkpt lat="42.36744058727956" lon="12.213043684951606"><ele>676.1666666666666</ele><time>2026-04-12T09:58:39Z</time></trkpt><trkpt lat="42.36735483139385" lon="12.212948123159222"><ele>674.0</ele><time>2026-04-12T09:58:41Z</time></trkpt><trkpt lat="42.36727512740105" lon="12.212823249017974"><ele>674.0</ele><time>2026-04-12T09:58:43Z</time></trkpt><trkpt lat="42.36720970585392" lon="12.212723597997634"><ele>674.0</ele><time>2026-04-12T09:58:45Z</time></trkpt><trkpt lat="42.367121934215284" lon="12.212737232526514"><ele>674.0</ele><time>2026-04-12T09:58:47Z</time></trkpt><trkpt lat="42.36708503214798" lon="12.212834941095931"><ele>674.0</ele><time>2026-04-12T09:58:49Z</time></trkpt><trkpt lat="42.367067959149615" lon="12.213010705686191"><ele>674.0</ele><time>2026-04-12T09:58:51Z</time></trkpt><trkpt lat="42.367040879994356" lon="12.213172794053417"><ele>677.1666666666666</ele><time>2026-04-12T09:58:53Z</time></trkpt><trkpt lat="42.367012283856454" lon="12.213335702444105"><ele>680.3333333333333</ele><time>2026-04-12T09:58:55Z</time></trkpt><trkpt lat="42.36698377291148" lon="12.21343443554951"><ele>683.5</ele><time>2026-04-12T09:58:56Z</time></trkpt><trkpt lat="42.36696048300868" lon="12.213537272946768"><ele>686.6666666666666</ele><time>2026-04-12T09:58:57Z</time></trkpt><trkpt lat="42.366967541671585" lon="12.213622734582295"><ele>689.8333333333334</ele><time>2026-04-12T09:58:58Z</time></trkpt><trkpt lat="42.36697202295158" lon="12.213712611139197"><ele>693.0</ele><time>2026-04-12T09:58:59Z</time></trkpt><trkpt lat="42.36698163897607" lon="12.21387193562244"><ele>692.0</ele><time>2026-04-12T09:59:01Z</time></trkpt><trkpt lat="42.366986367002816" lon="12.214041814932724"><ele>691.0</ele><time>2026-04-12T09:59:03Z</time></trkpt><trkpt lat="42.36696461696138" lon="12.214133858683923"><ele>690.0</ele><time>2026-04-12T09:59:04Z</time></trkpt><trkpt lat="42.3669182859328" lon="12.214227599331439"><ele>689.0</ele><time>2026-04-12T09:59:05Z</time></trkpt><trkpt lat="42.36689299846807" lon="12.214341956389495"><ele>688.0</ele><time>2026-04-12T09:59:06Z</time></trkpt><trkpt lat="42.366884620086886" lon="12.214486056791298"><ele>688.0</ele><time>2026-04-12T09:59:07Z</time></trkpt><trkpt lat="42.366881824187374" lon="12.214620490750896"><ele>688.0</ele><time>2026-04-12T09:59:08Z</time></trkpt><trkpt lat="42.366885487494066" lon="12.214737534280538"><ele>688.0</ele><time>2026-04-12T09:59:09Z</time></trkpt><trkpt lat="42.36689485724313" lon="12.214847759486858"><ele>688.0</ele><time>2026-04-12T09:59:10Z</time></trkpt><trkpt lat="42.36692322568253" lon="12.21496335169679"><ele>688.0</ele><time>2026-04-12T09:59:11Z</time></trkpt><trkpt lat="42.366945780854024" lon="12.21508261740271"><ele>688.0</ele><time>2026-04-12T09:59:12Z</time></trkpt><trkpt lat="42.366967638258" lon="12.21519384632071"><ele>687.5</ele><time>2026-04-12T09:59:13Z</time></trkpt><trkpt lat="42.366971219644576" lon="12.215322411591822"><ele>687.0</ele><time>2026-04-12T09:59:13.999Z</time></trkpt><trkpt lat="42.366975956208655" lon="12.21544728054865"><ele>686.5</ele><time>2026-04-12T09:59:14.999Z</time></trkpt><trkpt lat="42.36695148003908" lon="12.215542815521097"><ele>686.0</ele><time>2026-04-12T09:59:15.999Z</time></trkpt><trkpt lat="42.36691386885564" lon="12.215628872256996"><ele>685.5</ele><time>2026-04-12T09:59:16.999Z</time></trkpt><trkpt lat="42.366904326227676" lon="12.2157406265811"><ele>685.0</ele><time>2026-04-12T09:59:18.999Z</time></trkpt><trkpt lat="42.36691515643831" lon="12.215834214279539"><ele>684.0</ele><time>2026-04-12T09:59:21.999Z</time></trkpt><trkpt lat="42.36691282181598" lon="12.21599447829455"><ele>683.0</ele><time>2026-04-12T09:59:27.999Z</time></trkpt><trkpt lat="42.36692925631587" lon="12.2160995935162"><ele>682.0</ele><time>2026-04-12T09:59:28.999Z</time></trkpt><trkpt lat="42.366937530876335" lon="12.216219345396711"><ele>681.0</ele><time>2026-04-12T09:59:29.999Z</time></trkpt><trkpt lat="42.36694507979508" lon="12.216350172480839"><ele>680.0</ele><time>2026-04-12T09:59:30.999Z</time></trkpt><trkpt lat="42.36695442508535" lon="12.21650287334012"><ele>678.25</ele><time>2026-04-12T09:59:31.999Z</time></trkpt><trkpt lat="42.366964947858584" lon="12.216647977914525"><ele>676.5</ele><time>2026-04-12T09:59:32.999Z</time></trkpt><trkpt lat="42.36697755713179" lon="12.21679635820447"><ele>674.75</ele><time>2026-04-12T09:59:33.999Z</time></trkpt><trkpt lat="42.366991360231246" lon="12.21695285688226"><ele>673.0</ele><time>2026-04-12T09:59:34.999Z</time></trkpt><trkpt lat="42.36700963755182" lon="12.217117627453344"><ele>673.0</ele><time>2026-04-12T09:59:35.999Z</time></trkpt><trkpt lat="42.36702741968085" lon="12.217276141267305"><ele>673.0</ele><time>2026-04-12T09:59:36.999Z</time></trkpt><trkpt lat="42.36704019929221" lon="12.217389707783779"><ele>673.0</ele><time>2026-04-12T09:59:37.999Z</time></trkpt><trkpt lat="42.36705028490725" lon="12.21749543470555"><ele>673.0</ele><time>2026-04-12T09:59:39.999Z</time></trkpt><trkpt lat="42.36709105130824" lon="12.21763935850686"><ele>673.0</ele><time>2026-04-12T10:01:30.999Z</time></trkpt><trkpt lat="42.36711707178195" lon="12.217762726881645"><ele>672.25</ele><time>2026-04-12T10:01:31.999Z</time></trkpt><trkpt lat="42.36714608029822" lon="12.217880251998308"><ele>671.5</ele><time>2026-04-12T10:01:32.999Z</time></trkpt><trkpt lat="42.36718289434831" lon="12.21802726794938"><ele>670.75</ele><time>2026-04-12T10:01:33.999Z</time></trkpt><trkpt lat="42.36722454527249" lon="12.218177164493246"><ele>670.0</ele><time>2026-04-12T10:01:34.999Z</time></trkpt><trkpt lat="42.36726578493361" lon="12.218337077029814"><ele>670.0</ele><time>2026-04-12T10:01:35.999Z</time></trkpt><trkpt lat="42.36730341556272" lon="12.218504596624886"><ele>670.0</ele><time>2026-04-12T10:01:36.999Z</time></trkpt><trkpt lat="42.36734005198222" lon="12.218682789221841"><ele>670.0</ele><time>2026-04-12T10:01:37.999Z</time></trkpt><trkpt lat="42.36738196331874" lon="12.218870045428245"><ele>670.0</ele><time>2026-04-12T10:01:38.999Z</time></trkpt><trkpt lat="42.367428490428466" lon="12.219050594885118"><ele>668.75</ele><time>2026-04-12T10:01:39.999Z</time></trkpt><trkpt lat="42.36747509059984" lon="12.219237918634732"><ele>667.5</ele><time>2026-04-12T10:01:40.999Z</time></trkpt><trkpt lat="42.36752420428855" lon="12.219427768918054"><ele>666.25</ele><time>2026-04-12T10:01:41.999Z</time></trkpt><trkpt lat="42.367570703227" lon="12.21961684256822"><ele>665.0</ele><time>2026-04-12T10:01:42.999Z</time></trkpt><trkpt lat="42.36760861687788" lon="12.219801273258485"><ele>663.75</ele><time>2026-04-12T10:01:43.999Z</time></trkpt><trkpt lat="42.367644349417326" lon="12.219988029547304"><ele>662.5</ele><time>2026-04-12T10:01:44.999Z</time></trkpt><trkpt lat="42.36768975978746" lon="12.220172826275057"><ele>661.25</ele><time>2026-04-12T10:01:45.999Z</time></trkpt><trkpt lat="42.36773755918592" lon="12.220358258407046"><ele>660.0</ele><time>2026-04-12T10:01:46.999Z</time></trkpt><trkpt lat="42.36779306459985" lon="12.220535858607224"><ele>658.75</ele><time>2026-04-12T10:01:47.999Z</time></trkpt><trkpt lat="42.367852551312566" lon="12.22071784585084"><ele>657.5</ele><time>2026-04-12T10:01:48.999Z</time></trkpt><trkpt lat="42.367903102048174" lon="12.220884809523989"><ele>656.25</ele><time>2026-04-12T10:01:49.999Z</time></trkpt><trkpt lat="42.367956009589975" lon="12.221040505586371"><ele>655.0</ele><time>2026-04-12T10:01:50.999Z</time></trkpt><trkpt lat="42.3680095261815" lon="12.221207237192115"><ele>655.25</ele><time>2026-04-12T10:01:51.999Z</time></trkpt><trkpt lat="42.368066761140334" lon="12.221376872794128"><ele>655.5</ele><time>2026-04-12T10:01:52.999Z</time></trkpt><trkpt lat="42.36812766661875" lon="12.221531758952636"><ele>655.75</ele><time>2026-04-12T10:01:53.999Z</time></trkpt><trkpt lat="42.36819158252303" lon="12.221673286557925"><ele>656.0</ele><time>2026-04-12T10:01:54.999Z</time></trkpt><trkpt lat="42.368254647441496" lon="12.221813306314438"><ele>655.25</ele><time>2026-04-12T10:01:55.999Z</time></trkpt><trkpt lat="42.36831684269658" lon="12.221949487722501"><ele>654.5</ele><time>2026-04-12T10:01:56.999Z</time></trkpt><trkpt lat="42.36837390984586" lon="12.222091257842928"><ele>653.75</ele><time>2026-04-12T10:01:57.999Z</time></trkpt><trkpt lat="42.36842365001769" lon="12.222237454763217"><ele>653.0</ele><time>2026-04-12T10:01:58.999Z</time></trkpt><trkpt lat="42.36846946699449" lon="12.222381790909733"><ele>650.8</ele><time>2026-04-12T10:01:59.999Z</time></trkpt><trkpt lat="42.36851294137665" lon="12.222527518444803"><ele>648.5999999999999</ele><time>2026-04-12T10:02:00.999Z</time></trkpt><trkpt lat="42.36854655350181" lon="12.222668131722058"><ele>646.4000000000001</ele><time>2026-04-12T10:02:01.999Z</time></trkpt><trkpt lat="42.368577043488365" lon="12.222802741455013"><ele>644.2</ele><time>2026-04-12T10:02:02.999Z</time></trkpt><trkpt lat="42.36860741641104" lon="12.22292429212841"><ele>642.0</ele><time>2026-04-12T10:02:03.999Z</time></trkpt><trkpt lat="42.36863166057542" lon="12.223015858020847"><ele>642.0</ele><time>2026-04-12T10:02:04.999Z</time></trkpt><trkpt lat="42.36863765188094" lon="12.22310554232242"><ele>642.0</ele><time>2026-04-12T10:02:06.999Z</time></trkpt><trkpt lat="42.36866854443432" lon="12.223180051312573"><ele>642.0</ele><time>2026-04-12T10:02:09.999Z</time></trkpt><trkpt lat="42.3690710899591" lon="12.223021284943128"><ele>641.5</ele><time>2026-04-12T10:02:14.999Z</time></trkpt><trkpt lat="42.369151356584965" lon="12.22295442836554"><ele>641.0</ele><time>2026-04-12T10:02:15.999Z</time></trkpt><trkpt lat="42.36921996827662" lon="12.222877392819948"><ele>640.5</ele><time>2026-04-12T10:02:16.999Z</time></trkpt><trkpt lat="42.369270810251834" lon="12.222819184587774"><ele>640.0</ele><time>2026-04-12T10:02:17.999Z</time></trkpt><trkpt lat="42.36930642995559" lon="12.222745915635846"><ele>639.5</ele><time>2026-04-12T10:02:19Z</time></trkpt><trkpt lat="42.36934502424431" lon="12.222651305615496"><ele>639.0</ele><time>2026-04-12T10:02:20Z</time></trkpt><trkpt lat="42.369402543127585" lon="12.222561129298203"><ele>639.0</ele><time>2026-04-12T10:02:21Z</time></trkpt><trkpt lat="42.36946221220869" lon="12.222487129619223"><ele>639.0</ele><time>2026-04-12T10:02:22Z</time></trkpt><trkpt lat="42.36951144584083" lon="12.22243283881508"><ele>639.0</ele><time>2026-04-12T10:02:23Z</time></trkpt><trkpt lat="42.36955526166915" lon="12.22231727617506"><ele>639.0</ele><time>2026-04-12T10:02:25Z</time></trkpt><trkpt lat="42.369564467472955" lon="12.222201671287667"><ele>639.0</ele><time>2026-04-12T10:02:26Z</time></trkpt><trkpt lat="42.369586801407486" lon="12.222082235145983"><ele>639.0</ele><time>2026-04-12T10:02:27Z</time></trkpt><trkpt lat="42.369606282888455" lon="12.22196510006054"><ele>639.0</ele><time>2026-04-12T10:02:28Z</time></trkpt><trkpt lat="42.36961512342567" lon="12.221868787748022"><ele>639.0</ele><time>2026-04-12T10:02:29Z</time></trkpt><trkpt lat="42.36962280485221" lon="12.221759645879938"><ele>639.0</ele><time>2026-04-12T10:02:30Z</time></trkpt><trkpt lat="42.36963171233683" lon="12.221630389838479"><ele>639.0</ele><time>2026-04-12T10:02:31Z</time></trkpt><trkpt lat="42.369632711175754" lon="12.22149174103461"><ele>639.0</ele><time>2026-04-12T10:02:32Z</time></trkpt><trkpt lat="42.36963738100878" lon="12.221353932493098"><ele>639.2</ele><time>2026-04-12T10:02:33Z</time></trkpt><trkpt lat="42.36965115547058" lon="12.221221940503067"><ele>639.4</ele><time>2026-04-12T10:02:34Z</time></trkpt><trkpt lat="42.369674730940424" lon="12.221086044754164"><ele>639.6</ele><time>2026-04-12T10:02:35Z</time></trkpt><trkpt lat="42.369688946954916" lon="12.220949331496508"><ele>639.8</ele><time>2026-04-12T10:02:36Z</time></trkpt><trkpt lat="42.36969247580109" lon="12.220829522123768"><ele>640.0</ele><time>2026-04-12T10:02:37Z</time></trkpt><trkpt lat="42.36968069690886" lon="12.220694835720614"><ele>640.0</ele><time>2026-04-12T10:02:38Z</time></trkpt><trkpt lat="42.369667650337774" lon="12.220571874991204"><ele>640.0</ele><time>2026-04-12T10:02:39Z</time></trkpt><trkpt lat="42.36964690858165" lon="12.220449988722482"><ele>640.0</ele><time>2026-04-12T10:02:40Z</time></trkpt><trkpt lat="42.369622221430475" lon="12.22032283752118"><ele>640.0</ele><time>2026-04-12T10:02:41Z</time></trkpt><trkpt lat="42.369604109441276" lon="12.220208429957308"><ele>640.0</ele><time>2026-04-12T10:02:42Z</time></trkpt><trkpt lat="42.36957573981918" lon="12.220106215702362"><ele>640.0</ele><time>2026-04-12T10:02:43Z</time></trkpt><trkpt lat="42.36954834576752" lon="12.22002552953682"><ele>640.0</ele><time>2026-04-12T10:02:45Z</time></trkpt><trkpt lat="42.36949790348371" lon="12.219888148575633"><ele>640.0</ele><time>2026-04-12T10:03:18.999Z</time></trkpt><trkpt lat="42.3695088922123" lon="12.219799336628578"><ele>640.0</ele><time>2026-04-12T10:03:21.999Z</time></trkpt><trkpt lat="42.36944475971012" lon="12.219729060096707"><ele>640.0</ele><time>2026-04-12T10:03:23.999Z</time></trkpt><trkpt lat="42.369385111187924" lon="12.219695669560208"><ele>640.0</ele><time>2026-04-12T10:03:32.999Z</time></trkpt><trkpt lat="42.369417079905126" lon="12.219614580232363"><ele>640.0</ele><time>2026-04-12T10:03:36.999Z</time></trkpt><trkpt lat="42.36940809088264" lon="12.21947589806746"><ele>640.0</ele><time>2026-04-12T10:03:39.999Z</time></trkpt><trkpt lat="42.369363547988414" lon="12.219342148161708"><ele>640.0</ele><time>2026-04-12T10:03:41.999Z</time></trkpt><trkpt lat="42.369317886872295" lon="12.219278214937205"><ele>640.0</ele><time>2026-04-12T10:03:42.999Z</time></trkpt><trkpt lat="42.36924280530041" lon="12.21911016543193"><ele>640.0</ele><time>2026-04-12T10:03:44.999Z</time></trkpt><trkpt lat="42.36921499624015" lon="12.21900402826999"><ele>640.0</ele><time>2026-04-12T10:03:45.999Z</time></trkpt><trkpt lat="42.36915050373587" lon="12.218909798042086"><ele>640.0</ele><time>2026-04-12T10:03:46.999Z</time></trkpt><trkpt lat="42.369071795753676" lon="12.218808689756262"><ele>640.0</ele><time>2026-04-12T10:03:47.999Z</time></trkpt><trkpt lat="42.36902440879342" lon="12.218730274928692"><ele>640.0</ele><time>2026-04-12T10:03:48.999Z</time></trkpt><trkpt lat="42.36898076560885" lon="12.21865143926395"><ele>640.0</ele><time>2026-04-12T10:03:49.999Z</time></trkpt><trkpt lat="42.36894250201236" lon="12.218526287794791"><ele>640.0</ele><time>2026-04-12T10:03:50.999Z</time></trkpt><trkpt lat="42.36890296517405" lon="12.218430433607248"><ele>640.0</ele><time>2026-04-12T10:03:51.999Z</time></trkpt><trkpt lat="42.36886357546671" lon="12.21825381024573"><ele>640.8333333333334</ele><time>2026-04-12T10:03:53.999Z</time></trkpt><trkpt lat="42.36882182267318" lon="12.218130174984022"><ele>641.6666666666667</ele><time>2026-04-12T10:03:54.999Z</time></trkpt><trkpt lat="42.368786767343536" lon="12.21802607682524"><ele>642.5</ele><time>2026-04-12T10:03:55.999Z</time></trkpt><trkpt lat="42.368748793261446" lon="12.217925445341205"><ele>643.3333333333334</ele><time>2026-04-12T10:03:56.999Z</time></trkpt><trkpt lat="42.36872439196768" lon="12.217842274246717"><ele>644.1666666666666</ele><time>2026-04-12T10:03:57.999Z</time></trkpt><trkpt lat="42.36873225164295" lon="12.217746446586085"><ele>645.0</ele><time>2026-04-12T10:03:59.999Z</time></trkpt><trkpt lat="42.368818049215214" lon="12.2176341912838"><ele>645.4</ele><time>2026-04-12T10:04:01.999Z</time></trkpt><trkpt lat="42.36891112291562" lon="12.217630586958908"><ele>645.8</ele><time>2026-04-12T10:04:03.999Z</time></trkpt><trkpt lat="42.368974159519546" lon="12.217517802185604"><ele>646.2</ele><time>2026-04-12T10:04:05.999Z</time></trkpt><trkpt lat="42.36903773218252" lon="12.217479313099815"><ele>646.6</ele><time>2026-04-12T10:04:07.999Z</time></trkpt><trkpt lat="42.36910389438914" lon="12.217337079866699"><ele>647.0</ele><time>2026-04-12T10:04:09.999Z</time></trkpt><trkpt lat="42.36915462031632" lon="12.217265855439955"><ele>648.1666666666666</ele><time>2026-04-12T10:04:10.999Z</time></trkpt><trkpt lat="42.36921601131618" lon="12.21720936643206"><ele>649.3333333333333</ele><time>2026-04-12T10:04:11.999Z</time></trkpt><trkpt lat="42.369276638869025" lon="12.217160885484972"><ele>650.5</ele><time>2026-04-12T10:04:12.999Z</time></trkpt><trkpt lat="42.36928808418324" lon="12.217023501178604"><ele>651.6666666666666</ele><time>2026-04-12T10:04:14.999Z</time></trkpt><trkpt lat="42.36928456890352" lon="12.216933696914483"><ele>652.8333333333334</ele><time>2026-04-12T10:04:15.999Z</time></trkpt><trkpt lat="42.36931957927011" lon="12.21680857513376"><ele>654.0</ele><time>2026-04-12T10:04:16.999Z</time></trkpt><trkpt lat="42.36933845350639" lon="12.21670417444823"><ele>654.0</ele><time>2026-04-12T10:04:17.999Z</time></trkpt><trkpt lat="42.369328984673416" lon="12.216616698028199"><ele>654.0</ele><time>2026-04-12T10:04:18.999Z</time></trkpt><trkpt lat="42.36934430927851" lon="12.216514699334036"><ele>654.0</ele><time>2026-04-12T10:04:19.999Z</time></trkpt><trkpt lat="42.36934177268302" lon="12.216429140905012"><ele>654.0</ele><time>2026-04-12T10:04:20.999Z</time></trkpt><trkpt lat="42.36930968429843" lon="12.216296910817105"><ele>654.0</ele><time>2026-04-12T10:04:21.999Z</time></trkpt><trkpt lat="42.3692707243561" lon="12.216165512883851"><ele>654.0</ele><time>2026-04-12T10:04:22.999Z</time></trkpt><trkpt lat="42.36921864252373" lon="12.216054217810225"><ele>655.8333333333334</ele><time>2026-04-12T10:04:23.999Z</time></trkpt><trkpt lat="42.36916386436212" lon="12.215952714455318"><ele>657.6666666666666</ele><time>2026-04-12T10:04:25Z</time></trkpt><trkpt lat="42.36913574452255" lon="12.215837971102381"><ele>659.5</ele><time>2026-04-12T10:04:26Z</time></trkpt><trkpt lat="42.36912786315249" lon="12.21574521042856"><ele>661.3333333333333</ele><time>2026-04-12T10:04:27Z</time></trkpt><trkpt lat="42.36918591390583" lon="12.215611464756464"><ele>663.1666666666666</ele><time>2026-04-12T10:04:29Z</time></trkpt><trkpt lat="42.36921790611884" lon="12.215511664978834"><ele>665.0</ele><time>2026-04-12T10:04:30Z</time></trkpt><trkpt lat="42.36926748804607" lon="12.21538737141814"><ele>666.6</ele><time>2026-04-12T10:04:31Z</time></trkpt><trkpt lat="42.36927816742325" lon="12.21526372836071"><ele>668.2</ele><time>2026-04-12T10:04:32Z</time></trkpt><trkpt lat="42.369246907986884" lon="12.215078015878763"><ele>669.8</ele><time>2026-04-12T10:04:34Z</time></trkpt><trkpt lat="42.369228948568455" lon="12.214971187424425"><ele>671.4</ele><time>2026-04-12T10:04:35Z</time></trkpt><trkpt lat="42.36924853681504" lon="12.214884271295876"><ele>673.0</ele><time>2026-04-12T10:04:36Z</time></trkpt><trkpt lat="42.36929380713984" lon="12.214755569566481"><ele>675.0</ele><time>2026-04-12T10:04:37Z</time></trkpt><trkpt lat="42.36931890864355" lon="12.21459609167305"><ele>677.0</ele><time>2026-04-12T10:04:39Z</time></trkpt><trkpt lat="42.369310605866204" lon="12.2144621697196"><ele>679.0</ele><time>2026-04-12T10:04:40Z</time></trkpt><trkpt lat="42.369332139817814" lon="12.21434752143116"><ele>681.0</ele><time>2026-04-12T10:04:41Z</time></trkpt><trkpt lat="42.369341521811876" lon="12.214245136644227"><ele>683.0</ele><time>2026-04-12T10:04:42Z</time></trkpt><trkpt lat="42.36926696610805" lon="12.214080187834648"><ele>684.1666666666666</ele><time>2026-04-12T10:04:44Z</time></trkpt><trkpt lat="42.3692655562904" lon="12.213986624369808"><ele>685.3333333333333</ele><time>2026-04-12T10:04:45Z</time></trkpt><trkpt lat="42.36923825838894" lon="12.213901612704614"><ele>686.5</ele><time>2026-04-12T10:04:46Z</time></trkpt><trkpt lat="42.36922675545131" lon="12.213764849585397"><ele>687.6666666666666</ele><time>2026-04-12T10:04:48Z</time></trkpt><trkpt lat="42.369195766635755" lon="12.213664306197979"><ele>688.8333333333334</ele><time>2026-04-12T10:04:49Z</time></trkpt><trkpt lat="42.36923022203215" lon="12.213506188664104"><ele>690.0</ele><time>2026-04-12T10:04:51Z</time></trkpt><trkpt lat="42.36929002579088" lon="12.213429915846147"><ele>690.0</ele><time>2026-04-12T10:04:52Z</time></trkpt><trkpt lat="42.36931497667592" lon="12.213248906154192"><ele>690.0</ele><time>2026-04-12T10:04:54Z</time></trkpt><trkpt lat="42.369361242703135" lon="12.213130964771112"><ele>690.0</ele><time>2026-04-12T10:04:55Z</time></trkpt><trkpt lat="42.36938989799407" lon="12.213025708654712"><ele>690.0</ele><time>2026-04-12T10:04:56Z</time></trkpt><trkpt lat="42.36933975965285" lon="12.212880175406202"><ele>690.0</ele><time>2026-04-12T10:04:58Z</time></trkpt><trkpt lat="42.369304898645424" lon="12.212765965703804"><ele>691.5</ele><time>2026-04-12T10:05:00Z</time></trkpt><trkpt lat="42.36935025579714" lon="12.21270094505358"><ele>693.0</ele><time>2026-04-12T10:05:02Z</time></trkpt><trkpt lat="42.36942669560122" lon="12.212700903791584"><ele>694.5</ele><time>2026-04-12T10:05:10Z</time></trkpt><trkpt lat="42.36952238831168" lon="12.212818118719648"><ele>696.0</ele><time>2026-04-12T10:05:12Z</time></trkpt><trkpt lat="42.36957999946267" lon="12.21291737532242"><ele>697.5</ele><time>2026-04-12T10:05:13Z</time></trkpt><trkpt lat="42.36961812826083" lon="12.212997619533947"><ele>699.0</ele><time>2026-04-12T10:05:14Z</time></trkpt><trkpt lat="42.36969108229734" lon="12.213049557464718"><ele>699.5</ele><time>2026-04-12T10:05:15.999Z</time></trkpt><trkpt lat="42.369791448381534" lon="12.213053622109188"><ele>700.0</ele><time>2026-04-12T10:05:17.999Z</time></trkpt><trkpt lat="42.36985850043941" lon="12.2130451755637"><ele>700.5</ele><time>2026-04-12T10:05:18.999Z</time></trkpt><trkpt lat="42.3699377758637" lon="12.213039543239718"><ele>701.0</ele><time>2026-04-12T10:05:19.999Z</time></trkpt><trkpt lat="42.37000950790054" lon="12.213021524854941"><ele>701.5</ele><time>2026-04-12T10:05:20.999Z</time></trkpt><trkpt lat="42.370069412624964" lon="12.212980224697983"><ele>702.0</ele><time>2026-04-12T10:05:21.999Z</time></trkpt><trkpt lat="42.37018644149718" lon="12.212889303089858"><ele>702.0</ele><time>2026-04-12T10:05:23.999Z</time></trkpt><trkpt lat="42.37027982599748" lon="12.212854305734437"><ele>702.0</ele><time>2026-04-12T10:05:24.999Z</time></trkpt><trkpt lat="42.37034600760176" lon="12.212816720070794"><ele>702.0</ele><time>2026-04-12T10:05:25.999Z</time></trkpt><trkpt lat="42.37040462564697" lon="12.212780636883975"><ele>702.0</ele><time>2026-04-12T10:05:26.999Z</time></trkpt><trkpt lat="42.37051495002972" lon="12.212798855208806"><ele>702.0</ele><time>2026-04-12T10:05:28.999Z</time></trkpt><trkpt lat="42.370603311019686" lon="12.212850515884293"><ele>702.0</ele><time>2026-04-12T10:05:29.999Z</time></trkpt><trkpt lat="42.37069206006625" lon="12.212906470972246"><ele>703.0</ele><time>2026-04-12T10:05:30.999Z</time></trkpt><trkpt lat="42.37078683278177" lon="12.21296636370348"><ele>704.0</ele><time>2026-04-12T10:05:31.999Z</time></trkpt><trkpt lat="42.37087611570393" lon="12.213022847376486"><ele>705.0</ele><time>2026-04-12T10:05:32.999Z</time></trkpt><trkpt lat="42.37096314616039" lon="12.213078039432101"><ele>706.0</ele><time>2026-04-12T10:05:33.999Z</time></trkpt><trkpt lat="42.371038838351176" lon="12.213122157718393"><ele>707.0</ele><time>2026-04-12T10:05:34.999Z</time></trkpt><trkpt lat="42.37111226769436" lon="12.213152782146851"><ele>706.0</ele><time>2026-04-12T10:05:35.999Z</time></trkpt><trkpt lat="42.37120029962139" lon="12.213198389132126"><ele>705.0</ele><time>2026-04-12T10:05:37.999Z</time></trkpt><trkpt lat="42.371235122377044" lon="12.213270150506947"><ele>704.0</ele><time>2026-04-12T10:05:39.999Z</time></trkpt><trkpt lat="42.371216211733696" lon="12.21339926656757"><ele>703.0</ele><time>2026-04-12T10:05:41.999Z</time></trkpt><trkpt lat="42.37116442569318" lon="12.213500419892595"><ele>702.0</ele><time>2026-04-12T10:05:42.999Z</time></trkpt><trkpt lat="42.37110376352149" lon="12.21362958968974"><ele>702.0</ele><time>2026-04-12T10:05:43.999Z</time></trkpt><trkpt lat="42.371035540964435" lon="12.21375390665313"><ele>702.0</ele><time>2026-04-12T10:05:44.999Z</time></trkpt><trkpt lat="42.37096275702872" lon="12.21386601817695"><ele>702.0</ele><time>2026-04-12T10:05:45.999Z</time></trkpt><trkpt lat="42.370903695615354" lon="12.213977790607036"><ele>702.0</ele><time>2026-04-12T10:05:46.999Z</time></trkpt><trkpt lat="42.37088198003781" lon="12.214063913630035"><ele>702.0</ele><time>2026-04-12T10:05:47.999Z</time></trkpt><trkpt lat="42.370885533587455" lon="12.214162251997221"><ele>702.0</ele><time>2026-04-12T10:05:50.999Z</time></trkpt><trkpt lat="42.37092263603654" lon="12.214033359327464"><ele>702.0</ele><time>2026-04-12T10:06:03.999Z</time></trkpt><trkpt lat="42.370925920093505" lon="12.213939437600793"><ele>702.0</ele><time>2026-04-12T10:06:04.999Z</time></trkpt><trkpt lat="42.3709380292202" lon="12.2138213153653"><ele>702.0</ele><time>2026-04-12T10:06:06.999Z</time></trkpt><trkpt lat="42.37099498316101" lon="12.213726207238116"><ele>702.0</ele><time>2026-04-12T10:06:07.999Z</time></trkpt><trkpt lat="42.3710765461215" lon="12.213611315256005"><ele>702.0</ele><time>2026-04-12T10:06:08.999Z</time></trkpt><trkpt lat="42.37114941189983" lon="12.213490021613856"><ele>702.0</ele><time>2026-04-12T10:06:09.999Z</time></trkpt><trkpt lat="42.37119851960369" lon="12.213381543320727"><ele>702.0</ele><time>2026-04-12T10:06:10.999Z</time></trkpt><trkpt lat="42.371234317833625" lon="12.21326676951985"><ele>702.0</ele><time>2026-04-12T10:06:11.999Z</time></trkpt><trkpt lat="42.37125646947481" lon="12.213176541244247"><ele>702.0</ele><time>2026-04-12T10:06:12.999Z</time></trkpt><trkpt lat="42.37135471650001" lon="12.213120261074208"><ele>704.6</ele><time>2026-04-12T10:06:14.999Z</time></trkpt><trkpt lat="42.371461372309334" lon="12.213111207155462"><ele>707.2</ele><time>2026-04-12T10:06:15.999Z</time></trkpt><trkpt lat="42.371590832128504" lon="12.213117790823857"><ele>709.8</ele><time>2026-04-12T10:06:16.999Z</time></trkpt><trkpt lat="42.37168638893196" lon="12.213117759624744"><ele>712.4</ele><time>2026-04-12T10:06:17.999Z</time></trkpt><trkpt lat="42.37178228615569" lon="12.213119916296181"><ele>715.0</ele><time>2026-04-12T10:06:18.999Z</time></trkpt><trkpt lat="42.37189451960563" lon="12.213125168375523"><ele>713.4</ele><time>2026-04-12T10:06:19.999Z</time></trkpt><trkpt lat="42.372000807603285" lon="12.213169244232096"><ele>711.8</ele><time>2026-04-12T10:06:20.999Z</time></trkpt><trkpt lat="42.372112283576236" lon="12.213217456599741"><ele>710.2</ele><time>2026-04-12T10:06:21.999Z</time></trkpt><trkpt lat="42.37221633553564" lon="12.213248528967155"><ele>708.6</ele><time>2026-04-12T10:06:22.999Z</time></trkpt><trkpt lat="42.37232200267628" lon="12.213246553924286"><ele>707.0</ele><time>2026-04-12T10:06:23.999Z</time></trkpt><trkpt lat="42.37241302354994" lon="12.213241216641459"><ele>707.0</ele><time>2026-04-12T10:06:24.999Z</time></trkpt><trkpt lat="42.37249539178509" lon="12.213259908715756"><ele>707.0</ele><time>2026-04-12T10:06:25.999Z</time></trkpt><trkpt lat="42.372571757277754" lon="12.21327065640092"><ele>707.0</ele><time>2026-04-12T10:06:26.999Z</time></trkpt><trkpt lat="42.37265021500006" lon="12.213240894571529"><ele>707.0</ele><time>2026-04-12T10:06:27.999Z</time></trkpt><trkpt lat="42.37272947748767" lon="12.213193475147929"><ele>707.0</ele><time>2026-04-12T10:06:28.999Z</time></trkpt><trkpt lat="42.372812934199985" lon="12.213141909671094"><ele>707.0</ele><time>2026-04-12T10:06:29.999Z</time></trkpt><trkpt lat="42.37289923352018" lon="12.213110859064878"><ele>708.75</ele><time>2026-04-12T10:06:31Z</time></trkpt><trkpt lat="42.373010658270644" lon="12.21308239409769"><ele>710.5</ele><time>2026-04-12T10:06:32Z</time></trkpt><trkpt lat="42.373126547936714" lon="12.213062510230605"><ele>712.25</ele><time>2026-04-12T10:06:33Z</time></trkpt><trkpt lat="42.373252632783974" lon="12.213023376341985"><ele>714.0</ele><time>2026-04-12T10:06:34Z</time></trkpt><trkpt lat="42.37338873198886" lon="12.212950395423219"><ele>714.0</ele><time>2026-04-12T10:06:35Z</time></trkpt><trkpt lat="42.37349773245664" lon="12.212948922854535"><ele>714.0</ele><time>2026-04-12T10:06:36Z</time></trkpt><trkpt lat="42.373608689694095" lon="12.212984614211729"><ele>714.0</ele><time>2026-04-12T10:06:37Z</time></trkpt><trkpt lat="42.373726609329196" lon="12.213045694031578"><ele>714.0</ele><time>2026-04-12T10:06:38Z</time></trkpt><trkpt lat="42.37384047422459" lon="12.213116932736108"><ele>711.2</ele><time>2026-04-12T10:06:39Z</time></trkpt><trkpt lat="42.37392171986728" lon="12.213186871619204"><ele>708.4000000000001</ele><time>2026-04-12T10:06:40Z</time></trkpt><trkpt lat="42.373975125678875" lon="12.21328673966327"><ele>705.6</ele><time>2026-04-12T10:06:41Z</time></trkpt><trkpt lat="42.37403519511614" lon="12.213413184274494"><ele>702.8</ele><time>2026-04-12T10:06:42Z</time></trkpt><trkpt lat="42.37413634536777" lon="12.213521916437584"><ele>700.0</ele><time>2026-04-12T10:06:43Z</time></trkpt><trkpt lat="42.37426961986798" lon="12.213592473673502"><ele>700.0</ele><time>2026-04-12T10:06:44Z</time></trkpt><trkpt lat="42.37438236658186" lon="12.213681258386886"><ele>700.0</ele><time>2026-04-12T10:06:45Z</time></trkpt><trkpt lat="42.374490664245144" lon="12.213781145119759"><ele>700.0</ele><time>2026-04-12T10:06:46Z</time></trkpt><trkpt lat="42.37457954548965" lon="12.213860065889582"><ele>700.0</ele><time>2026-04-12T10:06:47Z</time></trkpt><trkpt lat="42.37467110590309" lon="12.213934302118659"><ele>697.1666666666667</ele><time>2026-04-12T10:06:48Z</time></trkpt><trkpt lat="42.374731199917285" lon="12.214033130139681"><ele>694.3333333333334</ele><time>2026-04-12T10:06:49Z</time></trkpt><trkpt lat="42.37478179871736" lon="12.214117742043465"><ele>691.5</ele><time>2026-04-12T10:06:50Z</time></trkpt><trkpt lat="42.37484877563181" lon="12.21415712805544"><ele>688.6666666666666</ele><time>2026-04-12T10:06:51Z</time></trkpt><trkpt lat="42.374932287029104" lon="12.214166547806895"><ele>685.8333333333333</ele><time>2026-04-12T10:06:52Z</time></trkpt><trkpt lat="42.3750157590295" lon="12.214151414876275"><ele>683.0</ele><time>2026-04-12T10:06:53Z</time></trkpt><trkpt lat="42.37511616860857" lon="12.214096953957641"><ele>683.0</ele><time>2026-04-12T10:06:54Z</time></trkpt><trkpt lat="42.37524187595075" lon="12.21404056249635"><ele>683.0</ele><time>2026-04-12T10:06:55Z</time></trkpt><trkpt lat="42.37537262700364" lon="12.214035769661969"><ele>683.0</ele><time>2026-04-12T10:06:56Z</time></trkpt><trkpt lat="42.375481857370765" lon="12.214054499051"><ele>683.0</ele><time>2026-04-12T10:06:57Z</time></trkpt><trkpt lat="42.37558554843903" lon="12.214082357334457"><ele>680.75</ele><time>2026-04-12T10:06:58Z</time></trkpt><trkpt lat="42.375685978582254" lon="12.214141239465857"><ele>678.5</ele><time>2026-04-12T10:06:59Z</time></trkpt><trkpt lat="42.375800833804675" lon="12.21423011227426"><ele>676.25</ele><time>2026-04-12T10:07:00Z</time></trkpt><trkpt lat="42.37592196276167" lon="12.214323111625088"><ele>674.0</ele><time>2026-04-12T10:07:01Z</time></trkpt><trkpt lat="42.37601867721067" lon="12.214425885130423"><ele>674.0</ele><time>2026-04-12T10:07:02Z</time></trkpt><trkpt lat="42.37610795437153" lon="12.214484122519961"><ele>674.0</ele><time>2026-04-12T10:07:03Z</time></trkpt><trkpt lat="42.37618189370465" lon="12.214514268574112"><ele>674.0</ele><time>2026-04-12T10:07:04Z</time></trkpt><trkpt lat="42.37625402887645" lon="12.214594674503372"><ele>674.0</ele><time>2026-04-12T10:07:05Z</time></trkpt><trkpt lat="42.37631988234027" lon="12.21470904451063"><ele>674.0</ele><time>2026-04-12T10:07:06Z</time></trkpt><trkpt lat="42.37639932858841" lon="12.214815411303109"><ele>671.2</ele><time>2026-04-12T10:07:07Z</time></trkpt><trkpt lat="42.37648356446099" lon="12.21487926499209"><ele>668.4000000000001</ele><time>2026-04-12T10:07:08Z</time></trkpt><trkpt lat="42.37655135894594" lon="12.214965542999996"><ele>665.6</ele><time>2026-04-12T10:07:09Z</time></trkpt><trkpt lat="42.37660233110977" lon="12.215085679975886"><ele>662.8</ele><time>2026-04-12T10:07:10Z</time></trkpt><trkpt lat="42.37662197275749" lon="12.215243617951222"><ele>660.0</ele><time>2026-04-12T10:07:11Z</time></trkpt><trkpt lat="42.3766507831301" lon="12.215388931354214"><ele>660.0</ele><time>2026-04-12T10:07:12Z</time></trkpt><trkpt lat="42.376698853269254" lon="12.215532121923584"><ele>660.0</ele><time>2026-04-12T10:07:13Z</time></trkpt><trkpt lat="42.37673977398318" lon="12.215711176284763"><ele>660.0</ele><time>2026-04-12T10:07:14Z</time></trkpt><trkpt lat="42.37675161588111" lon="12.21590371336816"><ele>660.0</ele><time>2026-04-12T10:07:15Z</time></trkpt><trkpt lat="42.37675201127377" lon="12.216093890325695"><ele>659.4</ele><time>2026-04-12T10:07:16Z</time></trkpt><trkpt lat="42.37674656515429" lon="12.21625195135645"><ele>658.8</ele><time>2026-04-12T10:07:17Z</time></trkpt><trkpt lat="42.37675363867224" lon="12.216384472462243"><ele>658.2</ele><time>2026-04-12T10:07:18Z</time></trkpt><trkpt lat="42.37677275436016" lon="12.21649152443247"><ele>657.6</ele><time>2026-04-12T10:07:19Z</time></trkpt><trkpt lat="42.376772423160176" lon="12.216637373895747"><ele>657.0</ele><time>2026-04-12T10:07:21Z</time></trkpt><trkpt lat="42.37672580920776" lon="12.216745858631763"><ele>657.0</ele><time>2026-04-12T10:07:21.999Z</time></trkpt><trkpt lat="42.376691069435836" lon="12.216884953038376"><ele>657.0</ele><time>2026-04-12T10:07:23Z</time></trkpt><trkpt lat="42.37665351582301" lon="12.217029492773143"><ele>657.0</ele><time>2026-04-12T10:07:23.999Z</time></trkpt><trkpt lat="42.376614546343376" lon="12.21719190842057"><ele>657.0</ele><time>2026-04-12T10:07:24.999Z</time></trkpt><trkpt lat="42.376571190833594" lon="12.217362086873877"><ele>656.5</ele><time>2026-04-12T10:07:25.999Z</time></trkpt><trkpt lat="42.37652695335805" lon="12.217537120548387"><ele>656.0</ele><time>2026-04-12T10:07:26.999Z</time></trkpt><trkpt lat="42.3764791669094" lon="12.217716116639897"><ele>655.5</ele><time>2026-04-12T10:07:27.999Z</time></trkpt><trkpt lat="42.37643570490002" lon="12.217897735589421"><ele>655.0</ele><time>2026-04-12T10:07:28.999Z</time></trkpt><trkpt lat="42.376392923807224" lon="12.218081184341635"><ele>655.25</ele><time>2026-04-12T10:07:29.999Z</time></trkpt><trkpt lat="42.37635314194415" lon="12.218267254005442"><ele>655.5</ele><time>2026-04-12T10:07:30.999Z</time></trkpt><trkpt lat="42.376307237653144" lon="12.218452495391865"><ele>655.75</ele><time>2026-04-12T10:07:31.999Z</time></trkpt><trkpt lat="42.3762695333123" lon="12.218636065163901"><ele>656.0</ele><time>2026-04-12T10:07:32.999Z</time></trkpt><trkpt lat="42.37624260517893" lon="12.218814379332077"><ele>655.5999999999999</ele><time>2026-04-12T10:07:33.999Z</time></trkpt><trkpt lat="42.37621241344124" lon="12.21896861865806"><ele>655.2</ele><time>2026-04-12T10:07:34.999Z</time></trkpt><trkpt lat="42.3761661365024" lon="12.219097944643096"><ele>654.8</ele><time>2026-04-12T10:07:35.999Z</time></trkpt><trkpt lat="42.37610700533087" lon="12.219211257069054"><ele>654.4000000000001</ele><time>2026-04-12T10:07:36.999Z</time></trkpt><trkpt lat="42.37603837090007" lon="12.219329484499186"><ele>654.0</ele><time>2026-04-12T10:07:37.999Z</time></trkpt><trkpt lat="42.375962302446474" lon="12.219459116019324"><ele>654.0</ele><time>2026-04-12T10:07:38.999Z</time></trkpt><trkpt lat="42.3758862323985" lon="12.219601991116937"><ele>654.0</ele><time>2026-04-12T10:07:39.999Z</time></trkpt><trkpt lat="42.37580626261484" lon="12.219759423701092"><ele>654.0</ele><time>2026-04-12T10:07:40.999Z</time></trkpt><trkpt lat="42.375724086119675" lon="12.219890165482516"><ele>654.0</ele><time>2026-04-12T10:07:41.999Z</time></trkpt><trkpt lat="42.375648834387434" lon="12.22000012383022"><ele>654.75</ele><time>2026-04-12T10:07:42.999Z</time></trkpt><trkpt lat="42.3755760766387" lon="12.220106924178378"><ele>655.5</ele><time>2026-04-12T10:07:43.999Z</time></trkpt><trkpt lat="42.37550612134388" lon="12.220223245055296"><ele>656.25</ele><time>2026-04-12T10:07:44.999Z</time></trkpt><trkpt lat="42.37543628710412" lon="12.220351496566956"><ele>657.0</ele><time>2026-04-12T10:07:45.999Z</time></trkpt><trkpt lat="42.37537181676498" lon="12.220484763894557"><ele>655.5</ele><time>2026-04-12T10:07:46.999Z</time></trkpt><trkpt lat="42.3753184619869" lon="12.220627613429771"><ele>654.0</ele><time>2026-04-12T10:07:47.999Z</time></trkpt><trkpt lat="42.375273657111435" lon="12.220786527877973"><ele>652.5</ele><time>2026-04-12T10:07:48.999Z</time></trkpt><trkpt lat="42.375237925980784" lon="12.22094185211761"><ele>651.0</ele><time>2026-04-12T10:07:49.999Z</time></trkpt><trkpt lat="42.37519411432538" lon="12.221086479161675"><ele>651.0</ele><time>2026-04-12T10:07:50.999Z</time></trkpt><trkpt lat="42.375156991410975" lon="12.221228015403547"><ele>651.0</ele><time>2026-04-12T10:07:51.999Z</time></trkpt><trkpt lat="42.37512285971241" lon="12.221370580918236"><ele>651.0</ele><time>2026-04-12T10:07:52.999Z</time></trkpt><trkpt lat="42.37509105580335" lon="12.221510880417842"><ele>651.0</ele><time>2026-04-12T10:07:53.999Z</time></trkpt><trkpt lat="42.37504502947562" lon="12.221650687492433"><ele>651.0</ele><time>2026-04-12T10:07:54.999Z</time></trkpt><trkpt lat="42.374999208670324" lon="12.221780197754518"><ele>650.5999999999999</ele><time>2026-04-12T10:07:55.999Z</time></trkpt><trkpt lat="42.37494139248015" lon="12.221901086362355"><ele>650.2</ele><time>2026-04-12T10:07:56.999Z</time></trkpt><trkpt lat="42.3748912558255" lon="12.222023410516199"><ele>649.8</ele><time>2026-04-12T10:07:57.999Z</time></trkpt><trkpt lat="42.37484400891412" lon="12.222149333353773"><ele>649.4000000000001</ele><time>2026-04-12T10:07:58.999Z</time></trkpt><trkpt lat="42.37481092056089" lon="12.22229148829306"><ele>649.0</ele><time>2026-04-12T10:07:59.999Z</time></trkpt><trkpt lat="42.37477897810796" lon="12.222448108140316"><ele>647.8000000000001</ele><time>2026-04-12T10:08:00.999Z</time></trkpt><trkpt lat="42.37476835435797" lon="12.222587885209657"><ele>646.6</ele><time>2026-04-12T10:08:01.999Z</time></trkpt><trkpt lat="42.37476190304911" lon="12.222696854524902"><ele>645.4</ele><time>2026-04-12T10:08:02.999Z</time></trkpt><trkpt lat="42.37476276085921" lon="12.222800577411016"><ele>644.2</ele><time>2026-04-12T10:08:03.999Z</time></trkpt><trkpt lat="42.374777662959204" lon="12.222947029949479"><ele>643.0</ele><time>2026-04-12T10:08:04.999Z</time></trkpt><trkpt lat="42.37479597606469" lon="12.223106777001933"><ele>641.75</ele><time>2026-04-12T10:08:05.999Z</time></trkpt><trkpt lat="42.37479855696462" lon="12.223268272213462"><ele>640.5</ele><time>2026-04-12T10:08:06.999Z</time></trkpt><trkpt lat="42.374790555908596" lon="12.223422437948798"><ele>639.25</ele><time>2026-04-12T10:08:07.999Z</time></trkpt><trkpt lat="42.37475900737772" lon="12.22358360278224"><ele>638.0</ele><time>2026-04-12T10:08:08.999Z</time></trkpt><trkpt lat="42.37468609216504" lon="12.223718891271663"><ele>635.0</ele><time>2026-04-12T10:08:09.999Z</time></trkpt><trkpt lat="42.37463013338104" lon="12.223850331444696"><ele>632.0</ele><time>2026-04-12T10:08:10.999Z</time></trkpt><trkpt lat="42.37458057949337" lon="12.224005039724355"><ele>629.0</ele><time>2026-04-12T10:08:11.999Z</time></trkpt><trkpt lat="42.37452653064628" lon="12.22416288957312"><ele>626.0</ele><time>2026-04-12T10:08:12.999Z</time></trkpt><trkpt lat="42.37447791940566" lon="12.224336548451367"><ele>625.6</ele><time>2026-04-12T10:08:13.999Z</time></trkpt><trkpt lat="42.374444560649664" lon="12.224497265546177"><ele>625.2</ele><time>2026-04-12T10:08:14.999Z</time></trkpt><trkpt lat="42.37442296628989" lon="12.224643074578353"><ele>624.8</ele><time>2026-04-12T10:08:15.999Z</time></trkpt><trkpt lat="42.374410717948926" lon="12.2247648541696"><ele>624.4</ele><time>2026-04-12T10:08:16.999Z</time></trkpt><trkpt lat="42.37440537076186" lon="12.22490145158759"><ele>624.0</ele><time>2026-04-12T10:08:17.999Z</time></trkpt><trkpt lat="42.37441282560068" lon="12.225054144740984"><ele>622.75</ele><time>2026-04-12T10:08:18.999Z</time></trkpt><trkpt lat="42.37444856336219" lon="12.225221986901179"><ele>621.5</ele><time>2026-04-12T10:08:19.999Z</time></trkpt><trkpt lat="42.37449592452314" lon="12.225371792906486"><ele>620.25</ele><time>2026-04-12T10:08:20.999Z</time></trkpt><trkpt lat="42.374537675918226" lon="12.225529897752681"><ele>619.0</ele><time>2026-04-12T10:08:21.999Z</time></trkpt><trkpt lat="42.37461831076885" lon="12.225691664082758"><ele>617.6</ele><time>2026-04-12T10:08:22.999Z</time></trkpt><trkpt lat="42.37470479653046" lon="12.22582747015761"><ele>616.2</ele><time>2026-04-12T10:08:23.999Z</time></trkpt><trkpt lat="42.37476069423445" lon="12.225938260279488"><ele>614.8000000000001</ele><time>2026-04-12T10:08:24.999Z</time></trkpt><trkpt lat="42.374806395766264" lon="12.226048590123012"><ele>613.4</ele><time>2026-04-12T10:08:25.999Z</time></trkpt><trkpt lat="42.37483653199907" lon="12.226168142929863"><ele>612.0</ele><time>2026-04-12T10:08:26.999Z</time></trkpt><trkpt lat="42.37485828422666" lon="12.22630352990525"><ele>612.0</ele><time>2026-04-12T10:08:27.999Z</time></trkpt><trkpt lat="42.374867532801694" lon="12.226432733829046"><ele>612.0</ele><time>2026-04-12T10:08:28.999Z</time></trkpt><trkpt lat="42.37490379542118" lon="12.226567995011182"><ele>612.0</ele><time>2026-04-12T10:08:29.999Z</time></trkpt><trkpt lat="42.37495304679045" lon="12.22668676731445"><ele>612.0</ele><time>2026-04-12T10:08:30.999Z</time></trkpt><trkpt lat="42.375017742255025" lon="12.226811994131193"><ele>612.0</ele><time>2026-04-12T10:08:31.999Z</time></trkpt><trkpt lat="42.37507135953138" lon="12.226896033233215"><ele>610.0</ele><time>2026-04-12T10:08:32.999Z</time></trkpt><trkpt lat="42.375100639766636" lon="12.226976042552703"><ele>608.0</ele><time>2026-04-12T10:08:33.999Z</time></trkpt><trkpt lat="42.37510222390659" lon="12.22707147716116"><ele>606.0</ele><time>2026-04-12T10:08:34.999Z</time></trkpt><trkpt lat="42.37509302600676" lon="12.22719153340865"><ele>604.0</ele><time>2026-04-12T10:08:35.999Z</time></trkpt><trkpt lat="42.37506009147633" lon="12.22733342242001"><ele>602.0</ele><time>2026-04-12T10:08:37Z</time></trkpt><trkpt lat="42.375042355066356" lon="12.227458880353685"><ele>600.0</ele><time>2026-04-12T10:08:38Z</time></trkpt><trkpt lat="42.37500976715938" lon="12.227574983669497"><ele>598.2</ele><time>2026-04-12T10:08:39Z</time></trkpt><trkpt lat="42.3749607258061" lon="12.227694186844664"><ele>596.4</ele><time>2026-04-12T10:08:40Z</time></trkpt><trkpt lat="42.37493678434499" lon="12.227810539162787"><ele>594.6</ele><time>2026-04-12T10:08:41Z</time></trkpt><trkpt lat="42.37496635924227" lon="12.227916580361807"><ele>592.8</ele><time>2026-04-12T10:08:42Z</time></trkpt><trkpt lat="42.37498344696341" lon="12.228036964292745"><ele>591.0</ele><time>2026-04-12T10:08:43Z</time></trkpt><trkpt lat="42.375054818386815" lon="12.22816972330751"><ele>587.75</ele><time>2026-04-12T10:08:44Z</time></trkpt><trkpt lat="42.37508506738543" lon="12.228338456438287"><ele>584.5</ele><time>2026-04-12T10:08:45Z</time></trkpt><trkpt lat="42.37513033099093" lon="12.22849970087131"><ele>581.25</ele><time>2026-04-12T10:08:46Z</time></trkpt><trkpt lat="42.37519116199663" lon="12.228647807017795"><ele>578.0</ele><time>2026-04-12T10:08:47Z</time></trkpt><trkpt lat="42.37525335315021" lon="12.228803886429104"><ele>578.0</ele><time>2026-04-12T10:08:48Z</time></trkpt><trkpt lat="42.37533331431569" lon="12.228963123935985"><ele>578.0</ele><time>2026-04-12T10:08:49Z</time></trkpt><trkpt lat="42.37541450669034" lon="12.229119728637198"><ele>578.0</ele><time>2026-04-12T10:08:50Z</time></trkpt><trkpt lat="42.375475136118695" lon="12.229270443419976"><ele>578.0</ele><time>2026-04-12T10:08:51Z</time></trkpt><trkpt lat="42.37554185027178" lon="12.229398007468948"><ele>574.0</ele><time>2026-04-12T10:08:52Z</time></trkpt><trkpt lat="42.37561140312274" lon="12.229517242822576"><ele>570.0</ele><time>2026-04-12T10:08:53Z</time></trkpt><trkpt lat="42.37569190227969" lon="12.229627877228639"><ele>566.0</ele><time>2026-04-12T10:08:54Z</time></trkpt><trkpt lat="42.37578369250893" lon="12.22972437119899"><ele>562.0</ele><time>2026-04-12T10:08:55Z</time></trkpt><trkpt lat="42.37588775746067" lon="12.229791672108474"><ele>563.2</ele><time>2026-04-12T10:08:56Z</time></trkpt><trkpt lat="42.37597516300049" lon="12.229888715513257"><ele>564.4000000000001</ele><time>2026-04-12T10:08:57Z</time></trkpt><trkpt lat="42.376062213747275" lon="12.229987394312714"><ele>565.5999999999999</ele><time>2026-04-12T10:08:58Z</time></trkpt><trkpt lat="42.37614199804782" lon="12.230082942097173"><ele>566.8</ele><time>2026-04-12T10:08:59Z</time></trkpt><trkpt lat="42.37622659389516" lon="12.230184804714938"><ele>568.0</ele><time>2026-04-12T10:09:00Z</time></trkpt><trkpt lat="42.37632184216642" lon="12.230273311859527"><ele>565.5</ele><time>2026-04-12T10:09:01Z</time></trkpt><trkpt lat="42.37642091429487" lon="12.230383120062786"><ele>563.0</ele><time>2026-04-12T10:09:02Z</time></trkpt><trkpt lat="42.37654869999883" lon="12.230467804997984"><ele>560.5</ele><time>2026-04-12T10:09:03Z</time></trkpt><trkpt lat="42.376676166936875" lon="12.23053608596711"><ele>558.0</ele><time>2026-04-12T10:09:04Z</time></trkpt><trkpt lat="42.37679658607986" lon="12.230594677243195"><ele>558.0</ele><time>2026-04-12T10:09:05Z</time></trkpt><trkpt lat="42.37690092689316" lon="12.23062795785705"><ele>558.0</ele><time>2026-04-12T10:09:06Z</time></trkpt><trkpt lat="42.37699382226742" lon="12.230672464811006"><ele>558.0</ele><time>2026-04-12T10:09:07Z</time></trkpt><trkpt lat="42.37708406216959" lon="12.23070710316113"><ele>558.0</ele><time>2026-04-12T10:09:08Z</time></trkpt><trkpt lat="42.37720102557559" lon="12.230750432747248"><ele>558.0</ele><time>2026-04-12T10:09:09Z</time></trkpt><trkpt lat="42.37731893491683" lon="12.230764553686909"><ele>555.8333333333334</ele><time>2026-04-12T10:09:10Z</time></trkpt><trkpt lat="42.3774377167277" lon="12.23075536638483"><ele>553.6666666666666</ele><time>2026-04-12T10:09:11Z</time></trkpt><trkpt lat="42.37754085178184" lon="12.230730953571317"><ele>551.5</ele><time>2026-04-12T10:09:12Z</time></trkpt><trkpt lat="42.3776208314236" lon="12.230708649161743"><ele>549.3333333333333</ele><time>2026-04-12T10:09:13Z</time></trkpt><trkpt lat="42.37768925838674" lon="12.230688015151907"><ele>547.1666666666666</ele><time>2026-04-12T10:09:14Z</time></trkpt><trkpt lat="42.37775876230658" lon="12.230659365013116"><ele>545.0</ele><time>2026-04-12T10:09:15Z</time></trkpt><trkpt lat="42.37786108819057" lon="12.230648053554093"><ele>545.0</ele><time>2026-04-12T10:09:17Z</time></trkpt><trkpt lat="42.37795545232617" lon="12.2306841869072"><ele>545.0</ele><time>2026-04-12T10:09:19Z</time></trkpt><trkpt lat="42.37807526362332" lon="12.230759296142983"><ele>545.0</ele><time>2026-04-12T10:09:21Z</time></trkpt><trkpt lat="42.3781397790977" lon="12.230795001990412"><ele>545.0</ele><time>2026-04-12T10:09:22Z</time></trkpt><trkpt lat="42.37821885406855" lon="12.230812043148237"><ele>545.0</ele><time>2026-04-12T10:09:23Z</time></trkpt><trkpt lat="42.378282681413125" lon="12.230847235327401"><ele>545.0</ele><time>2026-04-12T10:09:24Z</time></trkpt><trkpt lat="42.37834298577143" lon="12.230893764015066"><ele>543.0</ele><time>2026-04-12T10:09:25Z</time></trkpt><trkpt lat="42.378391884865145" lon="12.230955578598966"><ele>541.0</ele><time>2026-04-12T10:09:26Z</time></trkpt><trkpt lat="42.37845008941237" lon="12.231018593304196"><ele>539.0</ele><time>2026-04-12T10:09:27Z</time></trkpt><trkpt lat="42.378516261635376" lon="12.231100128917138"><ele>537.0</ele><time>2026-04-12T10:09:28Z</time></trkpt><trkpt lat="42.37859542784585" lon="12.231200993999213"><ele>535.0</ele><time>2026-04-12T10:09:29Z</time></trkpt><trkpt lat="42.378682071022915" lon="12.231308015208812"><ele>535.0</ele><time>2026-04-12T10:09:30Z</time></trkpt><trkpt lat="42.37877175696568" lon="12.231408845481356"><ele>535.0</ele><time>2026-04-12T10:09:31Z</time></trkpt><trkpt lat="42.378859192983555" lon="12.231517267591121"><ele>535.0</ele><time>2026-04-12T10:09:31.999Z</time></trkpt><trkpt lat="42.37893536901741" lon="12.231625637924461"><ele>535.0</ele><time>2026-04-12T10:09:32.999Z</time></trkpt><trkpt lat="42.379009636903945" lon="12.23173291710707"><ele>532.2</ele><time>2026-04-12T10:09:33.999Z</time></trkpt><trkpt lat="42.37907180977564" lon="12.231828799735945"><ele>529.4</ele><time>2026-04-12T10:09:34.999Z</time></trkpt><trkpt lat="42.379108291822746" lon="12.231942038472482"><ele>526.6</ele><time>2026-04-12T10:09:35.999Z</time></trkpt><trkpt lat="42.37915123426175" lon="12.232045465708184"><ele>523.8</ele><time>2026-04-12T10:09:36.999Z</time></trkpt><trkpt lat="42.37919413689559" lon="12.232154952194689"><ele>521.0</ele><time>2026-04-12T10:09:37.999Z</time></trkpt><trkpt lat="42.379230488635635" lon="12.232265210183044"><ele>519.8333333333333</ele><time>2026-04-12T10:09:38.999Z</time></trkpt><trkpt lat="42.37925429750255" lon="12.232377897510926"><ele>518.6666666666666</ele><time>2026-04-12T10:09:39.999Z</time></trkpt><trkpt lat="42.3792847904985" lon="12.23246257424026"><ele>517.5</ele><time>2026-04-12T10:09:40.999Z</time></trkpt><trkpt lat="42.37931970506244" lon="12.23255046319546"><ele>516.3333333333334</ele><time>2026-04-12T10:09:41.999Z</time></trkpt><trkpt lat="42.379355773945036" lon="12.232653774103373"><ele>515.1666666666667</ele><time>2026-04-12T10:09:42.999Z</time></trkpt><trkpt lat="42.3793892204928" lon="12.232736258769652"><ele>514.0</ele><time>2026-04-12T10:09:43.999Z</time></trkpt><trkpt lat="42.379479741424475" lon="12.232842828884566"><ele>514.0</ele><time>2026-04-12T10:09:45.999Z</time></trkpt><trkpt lat="42.379571666613145" lon="12.23285743483008"><ele>514.0</ele><time>2026-04-12T10:09:46.999Z</time></trkpt><trkpt lat="42.37967156939805" lon="12.232886298296723"><ele>514.0</ele><time>2026-04-12T10:09:47.999Z</time></trkpt><trkpt lat="42.37974594483708" lon="12.23296189345444"><ele>514.0</ele><time>2026-04-12T10:09:48.999Z</time></trkpt><trkpt lat="42.379811106916094" lon="12.233028987297477"><ele>514.0</ele><time>2026-04-12T10:09:49.999Z</time></trkpt><trkpt lat="42.37986787075573" lon="12.233075122413668"><ele>514.0</ele><time>2026-04-12T10:09:50.999Z</time></trkpt><trkpt lat="42.379931817390364" lon="12.233102965890932"><ele>513.6666666666667</ele><time>2026-04-12T10:09:51.999Z</time></trkpt><trkpt lat="42.380044339578454" lon="12.23312483184285"><ele>513.3333333333334</ele><time>2026-04-12T10:09:53.999Z</time></trkpt><trkpt lat="42.380127484261365" lon="12.233173910063435"><ele>513.0</ele><time>2026-04-12T10:09:56.999Z</time></trkpt><trkpt lat="42.38020686728325" lon="12.233201951332266"><ele>512.6666666666666</ele><time>2026-04-12T10:09:58.999Z</time></trkpt><trkpt lat="42.38028397706621" lon="12.233180471674121"><ele>512.3333333333333</ele><time>2026-04-12T10:10:00.999Z</time></trkpt><trkpt lat="42.380363341370476" lon="12.233198077039651"><ele>512.0</ele><time>2026-04-12T10:10:02.999Z</time></trkpt><trkpt lat="42.380451757058665" lon="12.233245160814532"><ele>509.16666666666663</ele><time>2026-04-12T10:10:04.999Z</time></trkpt><trkpt lat="42.38052259122114" lon="12.233284772497829"><ele>506.3333333333333</ele><time>2026-04-12T10:10:06.999Z</time></trkpt><trkpt lat="42.380590579471416" lon="12.233337137349533"><ele>503.5</ele><time>2026-04-12T10:10:17.999Z</time></trkpt><trkpt lat="42.38054605738441" lon="12.233398151696964"><ele>500.66666666666663</ele><time>2026-04-12T10:10:22.999Z</time></trkpt><trkpt lat="42.380492211776485" lon="12.233453738622593"><ele>497.8333333333333</ele><time>2026-04-12T10:10:23.999Z</time></trkpt><trkpt lat="42.38042303453464" lon="12.233527635758055"><ele>495.0</ele><time>2026-04-12T10:10:24.999Z</time></trkpt><trkpt lat="42.38034694946567" lon="12.233621043806378"><ele>495.0</ele><time>2026-04-12T10:10:25.999Z</time></trkpt><trkpt lat="42.38028825946956" lon="12.233731016241547"><ele>495.0</ele><time>2026-04-12T10:10:26.999Z</time></trkpt><trkpt lat="42.38024776699011" lon="12.233838766649734"><ele>495.0</ele><time>2026-04-12T10:10:27.999Z</time></trkpt><trkpt lat="42.38021763534282" lon="12.233920686543495"><ele>495.0</ele><time>2026-04-12T10:10:28.999Z</time></trkpt><trkpt lat="42.38018216583992" lon="12.234017074353169"><ele>495.0</ele><time>2026-04-12T10:10:29.999Z</time></trkpt><trkpt lat="42.380147682465335" lon="12.234107258694095"><ele>495.0</ele><time>2026-04-12T10:10:30.999Z</time></trkpt><trkpt lat="42.38011154178379" lon="12.23418835502626"><ele>491.8</ele><time>2026-04-12T10:10:31.999Z</time></trkpt><trkpt lat="42.380049062266124" lon="12.23426289367059"><ele>488.6</ele><time>2026-04-12T10:10:32.999Z</time></trkpt><trkpt lat="42.37998759517447" lon="12.23437544173538"><ele>485.4</ele><time>2026-04-12T10:10:33.999Z</time></trkpt><trkpt lat="42.37991244556206" lon="12.234468650215451"><ele>482.2</ele><time>2026-04-12T10:10:34.999Z</time></trkpt><trkpt lat="42.37984445449198" lon="12.234617285040372"><ele>479.0</ele><time>2026-04-12T10:10:35.999Z</time></trkpt><trkpt lat="42.37978064982646" lon="12.234776956507778"><ele>478.2</ele><time>2026-04-12T10:10:36.999Z</time></trkpt><trkpt lat="42.379721228485124" lon="12.234938818477655"><ele>477.4</ele><time>2026-04-12T10:10:37.999Z</time></trkpt><trkpt lat="42.37966630757889" lon="12.235061302319764"><ele>476.6</ele><time>2026-04-12T10:10:38.999Z</time></trkpt><trkpt lat="42.37961304269549" lon="12.235178683269927"><ele>475.8</ele><time>2026-04-12T10:10:39.999Z</time></trkpt><trkpt lat="42.37956648268043" lon="12.235283320179178"><ele>475.0</ele><time>2026-04-12T10:10:40.999Z</time></trkpt><trkpt lat="42.3795513875647" lon="12.23539447833692"><ele>475.0</ele><time>2026-04-12T10:10:41.999Z</time></trkpt><trkpt lat="42.379544433473654" lon="12.235501582956497"><ele>475.0</ele><time>2026-04-12T10:10:43Z</time></trkpt><trkpt lat="42.37957521767045" lon="12.235603392148958"><ele>475.0</ele><time>2026-04-12T10:10:44Z</time></trkpt><trkpt lat="42.379655958017324" lon="12.235759294949647"><ele>475.0</ele><time>2026-04-12T10:10:45Z</time></trkpt><trkpt lat="42.379723888852396" lon="12.235883617448597"><ele>475.0</ele><time>2026-04-12T10:10:46Z</time></trkpt><trkpt lat="42.37978378202221" lon="12.236026619805665"><ele>475.0</ele><time>2026-04-12T10:10:47Z</time></trkpt><trkpt lat="42.379871260183435" lon="12.23613692419274"><ele>475.0</ele><time>2026-04-12T10:10:48Z</time></trkpt><trkpt lat="42.37994847180362" lon="12.236258862958355"><ele>475.0</ele><time>2026-04-12T10:10:49Z</time></trkpt><trkpt lat="42.380017982691356" lon="12.236388948180492"><ele>475.0</ele><time>2026-04-12T10:10:50Z</time></trkpt><trkpt lat="42.38008854868479" lon="12.23651370466071"><ele>475.0</ele><time>2026-04-12T10:10:51Z</time></trkpt><trkpt lat="42.38013806154831" lon="12.236655652683242"><ele>475.0</ele><time>2026-04-12T10:10:52Z</time></trkpt><trkpt lat="42.38018187865415" lon="12.236781204925407"><ele>475.0</ele><time>2026-04-12T10:10:53Z</time></trkpt><trkpt lat="42.38021839504608" lon="12.236900851792951"><ele>475.0</ele><time>2026-04-12T10:10:54Z</time></trkpt><trkpt lat="42.38021670044623" lon="12.237030938332618"><ele>475.0</ele><time>2026-04-12T10:10:55Z</time></trkpt><trkpt lat="42.38017688028194" lon="12.237157945126865"><ele>475.0</ele><time>2026-04-12T10:10:56Z</time></trkpt><trkpt lat="42.38010293171642" lon="12.237263966588923"><ele>475.0</ele><time>2026-04-12T10:10:57Z</time></trkpt><trkpt lat="42.38000333615683" lon="12.237342564469737"><ele>475.0</ele><time>2026-04-12T10:10:58Z</time></trkpt><trkpt lat="42.379891672232056" lon="12.237405196765069"><ele>475.0</ele><time>2026-04-12T10:10:59Z</time></trkpt><trkpt lat="42.37977764909469" lon="12.237465448843853"><ele>474.2</ele><time>2026-04-12T10:11:00Z</time></trkpt><trkpt lat="42.37968634609288" lon="12.23754018183742"><ele>473.4</ele><time>2026-04-12T10:11:01Z</time></trkpt><trkpt lat="42.379616547334756" lon="12.23764694917946"><ele>472.6</ele><time>2026-04-12T10:11:02Z</time></trkpt><trkpt lat="42.37957285384462" lon="12.237780580255317"><ele>471.8</ele><time>2026-04-12T10:11:03Z</time></trkpt><trkpt lat="42.3795617168704" lon="12.237913504398575"><ele>471.0</ele><time>2026-04-12T10:11:04Z</time></trkpt><trkpt lat="42.37958849256839" lon="12.23803727677875"><ele>473.0</ele><time>2026-04-12T10:11:05Z</time></trkpt><trkpt lat="42.379659474111776" lon="12.23815675119571"><ele>475.0</ele><time>2026-04-12T10:11:06Z</time></trkpt><trkpt lat="42.37975969953149" lon="12.238255756129478"><ele>477.0</ele><time>2026-04-12T10:11:07Z</time></trkpt><trkpt lat="42.37987538789041" lon="12.238331270433118"><ele>479.0</ele><time>2026-04-12T10:11:08Z</time></trkpt><trkpt lat="42.38000780899222" lon="12.238376141732225"><ele>479.0</ele><time>2026-04-12T10:11:09Z</time></trkpt><trkpt lat="42.380147280029504" lon="12.238391950260496"><ele>479.0</ele><time>2026-04-12T10:11:10Z</time></trkpt><trkpt lat="42.38028419509747" lon="12.238375945971677"><ele>479.0</ele><time>2026-04-12T10:11:11Z</time></trkpt><trkpt lat="42.3804205409107" lon="12.238340557158958"><ele>479.0</ele><time>2026-04-12T10:11:12Z</time></trkpt><trkpt lat="42.38055611315734" lon="12.238309007466599"><ele>475.75</ele><time>2026-04-12T10:11:13Z</time></trkpt><trkpt lat="42.380684049648444" lon="12.238320610034577"><ele>472.5</ele><time>2026-04-12T10:11:14Z</time></trkpt><trkpt lat="42.380807657401604" lon="12.238366417762101"><ele>469.25</ele><time>2026-04-12T10:11:15Z</time></trkpt><trkpt lat="42.38092622080292" lon="12.238430239479799"><ele>466.0</ele><time>2026-04-12T10:11:16Z</time></trkpt><trkpt lat="42.38105185261802" lon="12.238503917928591"><ele>466.0</ele><time>2026-04-12T10:11:17Z</time></trkpt><trkpt lat="42.381184930158014" lon="12.238573140806771"><ele>466.0</ele><time>2026-04-12T10:11:18Z</time></trkpt><trkpt lat="42.38131694202371" lon="12.238654541806142"><ele>466.0</ele><time>2026-04-12T10:11:19Z</time></trkpt><trkpt lat="42.38143889371001" lon="12.238762066490658"><ele>466.0</ele><time>2026-04-12T10:11:20Z</time></trkpt><trkpt lat="42.38153966852304" lon="12.238910313077499"><ele>465.0</ele><time>2026-04-12T10:11:21Z</time></trkpt><trkpt lat="42.381628302561005" lon="12.239081835020011"><ele>464.0</ele><time>2026-04-12T10:11:22Z</time></trkpt><trkpt lat="42.381717972916796" lon="12.239262251760893"><ele>463.0</ele><time>2026-04-12T10:11:23Z</time></trkpt><trkpt lat="42.38180625230986" lon="12.239434089605105"><ele>463.0</ele><time>2026-04-12T10:11:24Z</time></trkpt><trkpt lat="42.38189076465486" lon="12.239603516638258"><ele>463.0</ele><time>2026-04-12T10:11:25Z</time></trkpt><trkpt lat="42.38197789561645" lon="12.23976586297266"><ele>463.0</ele><time>2026-04-12T10:11:26Z</time></trkpt><trkpt lat="42.3820667564276" lon="12.239922812331804"><ele>463.0</ele><time>2026-04-12T10:11:27Z</time></trkpt><trkpt lat="42.38216408726723" lon="12.240074041408878"><ele>461.25</ele><time>2026-04-12T10:11:28Z</time></trkpt><trkpt lat="42.38225397568986" lon="12.240234018705156"><ele>459.5</ele><time>2026-04-12T10:11:29Z</time></trkpt><trkpt lat="42.38233039985073" lon="12.240406748962984"><ele>457.75</ele><time>2026-04-12T10:11:30Z</time></trkpt><trkpt lat="42.38237822434154" lon="12.240597160053523"><ele>456.0</ele><time>2026-04-12T10:11:31Z</time></trkpt><trkpt lat="42.382392414439494" lon="12.24080766028471"><ele>456.0</ele><time>2026-04-12T10:11:32Z</time></trkpt><trkpt lat="42.38238287355274" lon="12.241015267106992"><ele>456.0</ele><time>2026-04-12T10:11:33Z</time></trkpt><trkpt lat="42.382367888988725" lon="12.241223394681509"><ele>456.0</ele><time>2026-04-12T10:11:34Z</time></trkpt><trkpt lat="42.38236742124634" lon="12.241407806592314"><ele>456.0</ele><time>2026-04-12T10:11:35Z</time></trkpt><trkpt lat="42.382410312958726" lon="12.241575421953042"><ele>458.33333333333337</ele><time>2026-04-12T10:11:35.999Z</time></trkpt><trkpt lat="42.38249619995242" lon="12.24173577128288"><ele>460.6666666666667</ele><time>2026-04-12T10:11:36.999Z</time></trkpt><trkpt lat="42.382613223746965" lon="12.241879936362587"><ele>463.0</ele><time>2026-04-12T10:11:37.999Z</time></trkpt><trkpt lat="42.382727134407965" lon="12.242031723057446"><ele>463.0</ele><time>2026-04-12T10:11:38.999Z</time></trkpt><trkpt lat="42.382824331479114" lon="12.242204798018676"><ele>463.0</ele><time>2026-04-12T10:11:39.999Z</time></trkpt><trkpt lat="42.382912141564546" lon="12.242391501532186"><ele>463.0</ele><time>2026-04-12T10:11:40.999Z</time></trkpt><trkpt lat="42.38301419231385" lon="12.242559916041504"><ele>461.0</ele><time>2026-04-12T10:11:41.999Z</time></trkpt><trkpt lat="42.38314494239724" lon="12.24268664447078"><ele>459.0</ele><time>2026-04-12T10:11:42.999Z</time></trkpt><trkpt lat="42.38329127571005" lon="12.24277341766228"><ele>457.0</ele><time>2026-04-12T10:11:43.999Z</time></trkpt><trkpt lat="42.38343494559492" lon="12.242858802508618"><ele>457.0</ele><time>2026-04-12T10:11:44.999Z</time></trkpt><trkpt lat="42.38355932908611" lon="12.24298898082476"><ele>457.0</ele><time>2026-04-12T10:11:45.999Z</time></trkpt><trkpt lat="42.383644566255256" lon="12.24317195754408"><ele>457.0</ele><time>2026-04-12T10:11:46.999Z</time></trkpt><trkpt lat="42.383739590787755" lon="12.24335365863606"><ele>456.6666666666667</ele><time>2026-04-12T10:11:47.999Z</time></trkpt><trkpt lat="42.38383725967612" lon="12.243535799163348"><ele>456.33333333333337</ele><time>2026-04-12T10:11:48.999Z</time></trkpt><trkpt lat="42.383948355457576" lon="12.2437072735822"><ele>456.0</ele><time>2026-04-12T10:11:49.999Z</time></trkpt><trkpt lat="42.38404493017543" lon="12.243891497860858"><ele>459.33333333333337</ele><time>2026-04-12T10:11:50.999Z</time></trkpt><trkpt lat="42.38414365523788" lon="12.244071421111718"><ele>462.6666666666667</ele><time>2026-04-12T10:11:51.999Z</time></trkpt><trkpt lat="42.38423949857912" lon="12.244249979817107"><ele>466.0</ele><time>2026-04-12T10:11:52.999Z</time></trkpt><trkpt lat="42.3843388697699" lon="12.244432699532906"><ele>466.0</ele><time>2026-04-12T10:11:53.999Z</time></trkpt><trkpt lat="42.384434468360965" lon="12.244622080623326"><ele>466.0</ele><time>2026-04-12T10:11:54.999Z</time></trkpt><trkpt lat="42.38452569900566" lon="12.244819187564108"><ele>466.0</ele><time>2026-04-12T10:11:55.999Z</time></trkpt><trkpt lat="42.3846011296447" lon="12.245022055459467"><ele>466.25</ele><time>2026-04-12T10:11:56.999Z</time></trkpt><trkpt lat="42.38464422858272" lon="12.245217551889828"><ele>466.5</ele><time>2026-04-12T10:11:57.999Z</time></trkpt><trkpt lat="42.3846628646949" lon="12.245410260823645"><ele>466.75</ele><time>2026-04-12T10:11:58.999Z</time></trkpt><trkpt lat="42.3846505830794" lon="12.24558071799947"><ele>467.0</ele><time>2026-04-12T10:11:59.999Z</time></trkpt><trkpt lat="42.384604148956456" lon="12.245721728444657"><ele>466.5</ele><time>2026-04-12T10:12:00.999Z</time></trkpt><trkpt lat="42.38457833862363" lon="12.245863048664718"><ele>466.0</ele><time>2026-04-12T10:12:01.999Z</time></trkpt><trkpt lat="42.38452547469226" lon="12.246013717807747"><ele>465.5</ele><time>2026-04-12T10:12:02.999Z</time></trkpt><trkpt lat="42.384445116677156" lon="12.246158511263374"><ele>465.0</ele><time>2026-04-12T10:12:03.999Z</time></trkpt><trkpt lat="42.38438772255002" lon="12.24632985077815"><ele>463.33333333333337</ele><time>2026-04-12T10:12:04.999Z</time></trkpt><trkpt lat="42.38431294310851" lon="12.246498014426638"><ele>461.6666666666667</ele><time>2026-04-12T10:12:05.999Z</time></trkpt><trkpt lat="42.3842338910539" lon="12.246678660042864"><ele>460.0</ele><time>2026-04-12T10:12:06.999Z</time></trkpt><trkpt lat="42.38414300073556" lon="12.246852314571571"><ele>460.0</ele><time>2026-04-12T10:12:07.999Z</time></trkpt><trkpt lat="42.38404657567392" lon="12.247029257352658"><ele>460.0</ele><time>2026-04-12T10:12:08.999Z</time></trkpt><trkpt lat="42.38395969579739" lon="12.247217884228688"><ele>460.0</ele><time>2026-04-12T10:12:09.999Z</time></trkpt><trkpt lat="42.383893170305974" lon="12.247417671397063"><ele>458.0</ele><time>2026-04-12T10:12:10.999Z</time></trkpt><trkpt lat="42.38384336804709" lon="12.247630019370503"><ele>456.0</ele><time>2026-04-12T10:12:11.999Z</time></trkpt><trkpt lat="42.38380661225267" lon="12.247844595807214"><ele>454.0</ele><time>2026-04-12T10:12:12.999Z</time></trkpt><trkpt lat="42.38377296000245" lon="12.248056683077902"><ele>453.25</ele><time>2026-04-12T10:12:13.999Z</time></trkpt><trkpt lat="42.38374055042304" lon="12.248252978170552"><ele>452.5</ele><time>2026-04-12T10:12:14.999Z</time></trkpt><trkpt lat="42.383717356753536" lon="12.248424797724587"><ele>451.75</ele><time>2026-04-12T10:12:15.999Z</time></trkpt><trkpt lat="42.383705203485135" lon="12.24858960591773"><ele>451.0</ele><time>2026-04-12T10:12:16.999Z</time></trkpt><trkpt lat="42.3837030342717" lon="12.248769583099483"><ele>451.0</ele><time>2026-04-12T10:12:17.999Z</time></trkpt><trkpt lat="42.38370251422618" lon="12.248959019950764"><ele>451.0</ele><time>2026-04-12T10:12:18.999Z</time></trkpt><trkpt lat="42.383695569450666" lon="12.24915598949561"><ele>451.0</ele><time>2026-04-12T10:12:19.999Z</time></trkpt><trkpt lat="42.38368702986156" lon="12.249357654407127"><ele>451.0</ele><time>2026-04-12T10:12:20.999Z</time></trkpt><trkpt lat="42.38368186541607" lon="12.24956397409302"><ele>450.33333333333337</ele><time>2026-04-12T10:12:21.999Z</time></trkpt><trkpt lat="42.38368735458352" lon="12.249773811530227"><ele>449.66666666666663</ele><time>2026-04-12T10:12:22.999Z</time></trkpt><trkpt lat="42.383704212411416" lon="12.249986823783702"><ele>449.0</ele><time>2026-04-12T10:12:23.999Z</time></trkpt><trkpt lat="42.383716573733516" lon="12.250206886121639"><ele>447.66666666666663</ele><time>2026-04-12T10:12:24.999Z</time></trkpt><trkpt lat="42.38371550131227" lon="12.250434169266065"><ele>446.33333333333337</ele><time>2026-04-12T10:12:25.999Z</time></trkpt><trkpt lat="42.38370572644001" lon="12.250647745735883"><ele>445.0</ele><time>2026-04-12T10:12:26.999Z</time></trkpt><trkpt lat="42.383692839782704" lon="12.250836732010237"><ele>443.8</ele><time>2026-04-12T10:12:27.999Z</time></trkpt><trkpt lat="42.38368212924595" lon="12.250988682176967"><ele>442.6</ele><time>2026-04-12T10:12:28.999Z</time></trkpt><trkpt lat="42.38367513091721" lon="12.251107166519958"><ele>441.4</ele><time>2026-04-12T10:12:29.999Z</time></trkpt><trkpt lat="42.38366225568694" lon="12.251194408752706"><ele>440.2</ele><time>2026-04-12T10:12:30.999Z</time></trkpt><trkpt lat="42.38363045938472" lon="12.251306241169079"><ele>439.0</ele><time>2026-04-12T10:12:32.999Z</time></trkpt><trkpt lat="42.38355709180233" lon="12.25141070954523"><ele>438.79999999999995</ele><time>2026-04-12T10:12:34.999Z</time></trkpt><trkpt lat="42.383455452831555" lon="12.251479201327822"><ele>438.59999999999997</ele><time>2026-04-12T10:12:36.999Z</time></trkpt><trkpt lat="42.383338696982655" lon="12.251499926614452"><ele>438.4</ele><time>2026-04-12T10:12:38.999Z</time></trkpt><trkpt lat="42.38325012140246" lon="12.251511456100447"><ele>438.2</ele><time>2026-04-12T10:12:39.999Z</time></trkpt><trkpt lat="42.383139780620034" lon="12.251531034561005"><ele>438.0</ele><time>2026-04-12T10:12:40.999Z</time></trkpt><trkpt lat="42.38301375242589" lon="12.251568719366906"><ele>438.5</ele><time>2026-04-12T10:12:41.999Z</time></trkpt><trkpt lat="42.38289088078798" lon="12.25163233363802"><ele>439.0</ele><time>2026-04-12T10:12:42.999Z</time></trkpt><trkpt lat="42.38277734968857" lon="12.251723999078493"><ele>439.5</ele><time>2026-04-12T10:12:43.999Z</time></trkpt><trkpt lat="42.382665949675626" lon="12.251849380126435"><ele>440.0</ele><time>2026-04-12T10:12:44.999Z</time></trkpt><trkpt lat="42.38256111210431" lon="12.251987181540505"><ele>440.0</ele><time>2026-04-12T10:12:45.999Z</time></trkpt><trkpt lat="42.382463233038536" lon="12.252147904567128"><ele>440.0</ele><time>2026-04-12T10:12:46.999Z</time></trkpt><trkpt lat="42.38238010823318" lon="12.25232806732371"><ele>440.0</ele><time>2026-04-12T10:12:48Z</time></trkpt><trkpt lat="42.38230709483494" lon="12.2525180145859"><ele>439.66666666666663</ele><time>2026-04-12T10:12:49Z</time></trkpt><trkpt lat="42.382240176631456" lon="12.252723772050436"><ele>439.33333333333337</ele><time>2026-04-12T10:12:50Z</time></trkpt><trkpt lat="42.382180229237136" lon="12.25293403773123"><ele>439.0</ele><time>2026-04-12T10:12:51Z</time></trkpt><trkpt lat="42.38212538060385" lon="12.253136262113548"><ele>441.6666666666667</ele><time>2026-04-12T10:12:52Z</time></trkpt><trkpt lat="42.38206581770996" lon="12.253345219019172"><ele>444.33333333333337</ele><time>2026-04-12T10:12:53Z</time></trkpt><trkpt lat="42.38200569712379" lon="12.253550489544354"><ele>447.0</ele><time>2026-04-12T10:12:54Z</time></trkpt><trkpt lat="42.38194397184782" lon="12.253760280970871"><ele>444.33333333333337</ele><time>2026-04-12T10:12:55Z</time></trkpt><trkpt lat="42.38187256952177" lon="12.25396009074714"><ele>441.6666666666667</ele><time>2026-04-12T10:12:56Z</time></trkpt><trkpt lat="42.381791215680444" lon="12.254153316900567"><ele>439.0</ele><time>2026-04-12T10:12:57Z</time></trkpt><trkpt lat="42.38170070322034" lon="12.25434145679174"><ele>439.0</ele><time>2026-04-12T10:12:58Z</time></trkpt><trkpt lat="42.38158319826108" lon="12.254505076470394"><ele>439.0</ele><time>2026-04-12T10:12:59Z</time></trkpt><trkpt lat="42.381449154982654" lon="12.254645038011267"><ele>439.0</ele><time>2026-04-12T10:13:00Z</time></trkpt><trkpt lat="42.3813013347992" lon="12.254762669257982"><ele>438.33333333333337</ele><time>2026-04-12T10:13:01Z</time></trkpt><trkpt lat="42.38114634213291" lon="12.254870506736712"><ele>437.66666666666663</ele><time>2026-04-12T10:13:02Z</time></trkpt><trkpt lat="42.38099030096104" lon="12.25497220484038"><ele>437.0</ele><time>2026-04-12T10:13:03Z</time></trkpt><trkpt lat="42.38083645620402" lon="12.255081477974143"><ele>437.0</ele><time>2026-04-12T10:13:04Z</time></trkpt><trkpt lat="42.380688542315895" lon="12.255189668820783"><ele>437.0</ele><time>2026-04-12T10:13:05Z</time></trkpt><trkpt lat="42.380550334580114" lon="12.255307278988733"><ele>437.0</ele><time>2026-04-12T10:13:06Z</time></trkpt><trkpt lat="42.380422507375265" lon="12.255430924104756"><ele>436.3333333333333</ele><time>2026-04-12T10:13:07Z</time></trkpt><trkpt lat="42.380300008187504" lon="12.255572036369138"><ele>435.66666666666663</ele><time>2026-04-12T10:13:08Z</time></trkpt><trkpt lat="42.38018385530389" lon="12.255721307875946"><ele>435.0</ele><time>2026-04-12T10:13:09Z</time></trkpt><trkpt lat="42.3800678451403" lon="12.25587408490265"><ele>431.66666666666663</ele><time>2026-04-12T10:13:10Z</time></trkpt><trkpt lat="42.3799514121275" lon="12.256032710875912"><ele>428.3333333333333</ele><time>2026-04-12T10:13:11Z</time></trkpt><trkpt lat="42.37983325438017" lon="12.256193000386467"><ele>425.0</ele><time>2026-04-12T10:13:12Z</time></trkpt><trkpt lat="42.379715391183126" lon="12.256356029375754"><ele>417.3333333333333</ele><time>2026-04-12T10:13:13Z</time></trkpt><trkpt lat="42.37959606069722" lon="12.256518819166471"><ele>409.66666666666663</ele><time>2026-04-12T10:13:14Z</time></trkpt><trkpt lat="42.37947684218801" lon="12.256682469812349"><ele>402.0</ele><time>2026-04-12T10:13:15Z</time></trkpt><trkpt lat="42.379356276851766" lon="12.256846174522128"><ele>402.0</ele><time>2026-04-12T10:13:16Z</time></trkpt><trkpt lat="42.37923428188379" lon="12.25700957235192"><ele>402.0</ele><time>2026-04-12T10:13:17Z</time></trkpt><trkpt lat="42.37911206458464" lon="12.257172987990938"><ele>402.0</ele><time>2026-04-12T10:13:18Z</time></trkpt><trkpt lat="42.378988131173784" lon="12.257339947371435"><ele>403.66666666666663</ele><time>2026-04-12T10:13:19Z</time></trkpt><trkpt lat="42.37886285757928" lon="12.257507735761529"><ele>405.3333333333333</ele><time>2026-04-12T10:13:20Z</time></trkpt><trkpt lat="42.37873908277825" lon="12.257678833734593"><ele>407.0</ele><time>2026-04-12T10:13:21Z</time></trkpt><trkpt lat="42.378615774473396" lon="12.25785371113289"><ele>413.3333333333333</ele><time>2026-04-12T10:13:22Z</time></trkpt><trkpt lat="42.378496474769086" lon="12.258033535556391"><ele>419.66666666666663</ele><time>2026-04-12T10:13:23Z</time></trkpt><trkpt lat="42.37838586848386" lon="12.258224343016899"><ele>426.0</ele><time>2026-04-12T10:13:24Z</time></trkpt><trkpt lat="42.37828706347878" lon="12.258428506912145"><ele>426.66666666666663</ele><time>2026-04-12T10:13:25Z</time></trkpt><trkpt lat="42.37819929016062" lon="12.258642033299418"><ele>427.3333333333333</ele><time>2026-04-12T10:13:26Z</time></trkpt><trkpt lat="42.378117871943644" lon="12.258859136374518"><ele>428.0</ele><time>2026-04-12T10:13:27Z</time></trkpt><trkpt lat="42.378041316059765" lon="12.259080958754597"><ele>426.66666666666663</ele><time>2026-04-12T10:13:28Z</time></trkpt><trkpt lat="42.377968946480344" lon="12.259304151615142"><ele>425.33333333333337</ele><time>2026-04-12T10:13:29Z</time></trkpt><trkpt lat="42.377900431225875" lon="12.259532471872774"><ele>424.0</ele><time>2026-04-12T10:13:30Z</time></trkpt><trkpt lat="42.37782928312178" lon="12.25975933033336"><ele>423.33333333333337</ele><time>2026-04-12T10:13:31Z</time></trkpt><trkpt lat="42.377752025062044" lon="12.259981943528071"><ele>422.66666666666663</ele><time>2026-04-12T10:13:32Z</time></trkpt><trkpt lat="42.377668406143975" lon="12.260200740546326"><ele>422.0</ele><time>2026-04-12T10:13:33Z</time></trkpt><trkpt lat="42.37757358048345" lon="12.260412582773482"><ele>421.0</ele><time>2026-04-12T10:13:34Z</time></trkpt><trkpt lat="42.377467263037005" lon="12.260617052049367"><ele>420.0</ele><time>2026-04-12T10:13:34.999Z</time></trkpt><trkpt lat="42.377352944732976" lon="12.26081660199351"><ele>419.0</ele><time>2026-04-12T10:13:35.999Z</time></trkpt><trkpt lat="42.377232195992065" lon="12.261013744175168"><ele>418.3333333333333</ele><time>2026-04-12T10:13:36.999Z</time></trkpt><trkpt lat="42.3771037078823" lon="12.261206806737157"><ele>417.66666666666663</ele><time>2026-04-12T10:13:37.999Z</time></trkpt><trkpt lat="42.37697210559583" lon="12.261400256654824"><ele>417.0</ele><time>2026-04-12T10:13:38.999Z</time></trkpt><trkpt lat="42.37683944698439" lon="12.261595958773926"><ele>415.33333333333337</ele><time>2026-04-12T10:13:39.999Z</time></trkpt><trkpt lat="42.37670803583796" lon="12.261790348973532"><ele>413.6666666666667</ele><time>2026-04-12T10:13:40.999Z</time></trkpt><trkpt lat="42.37658103711934" lon="12.261987695395103"><ele>412.0</ele><time>2026-04-12T10:13:41.999Z</time></trkpt><trkpt lat="42.376457322938" lon="12.26218795960573"><ele>410.0</ele><time>2026-04-12T10:13:42.999Z</time></trkpt><trkpt lat="42.37634543833876" lon="12.262388450330606"><ele>408.0</ele><time>2026-04-12T10:13:43.999Z</time></trkpt><trkpt lat="42.376239952205125" lon="12.262591313892754"><ele>406.0</ele><time>2026-04-12T10:13:44.999Z</time></trkpt><trkpt lat="42.37614914615461" lon="12.262799950447725"><ele>406.0</ele><time>2026-04-12T10:13:45.999Z</time></trkpt><trkpt lat="42.37606967485009" lon="12.263012534157852"><ele>406.0</ele><time>2026-04-12T10:13:46.999Z</time></trkpt><trkpt lat="42.37600173536131" lon="12.263235625689637"><ele>406.0</ele><time>2026-04-12T10:13:47.999Z</time></trkpt><trkpt lat="42.37595084867888" lon="12.263467165771027"><ele>404.6666666666667</ele><time>2026-04-12T10:13:48.999Z</time></trkpt><trkpt lat="42.37591399727594" lon="12.263705753256843"><ele>403.33333333333337</ele><time>2026-04-12T10:13:49.999Z</time></trkpt><trkpt lat="42.37588899234153" lon="12.263948418399172"><ele>402.0</ele><time>2026-04-12T10:13:50.999Z</time></trkpt><trkpt lat="42.375878512223366" lon="12.264197626300533"><ele>401.66666666666663</ele><time>2026-04-12T10:13:51.999Z</time></trkpt><trkpt lat="42.375878825136034" lon="12.264442389373434"><ele>401.3333333333333</ele><time>2026-04-12T10:13:52.999Z</time></trkpt><trkpt lat="42.37588542101714" lon="12.264686758218382"><ele>401.0</ele><time>2026-04-12T10:13:53.999Z</time></trkpt><trkpt lat="42.3758981592292" lon="12.264929265832066"><ele>401.0</ele><time>2026-04-12T10:13:54.999Z</time></trkpt><trkpt lat="42.37591772277062" lon="12.265171571148263"><ele>401.0</ele><time>2026-04-12T10:13:55.999Z</time></trkpt><trkpt lat="42.37593951456591" lon="12.265419781875526"><ele>401.0</ele><time>2026-04-12T10:13:56.999Z</time></trkpt><trkpt lat="42.37596071406471" lon="12.265666369537005"><ele>400.0</ele><time>2026-04-12T10:13:57.999Z</time></trkpt><trkpt lat="42.375979044406606" lon="12.26591295865494"><ele>399.0</ele><time>2026-04-12T10:13:58.999Z</time></trkpt><trkpt lat="42.375994722137925" lon="12.266163197259294"><ele>398.0</ele><time>2026-04-12T10:13:59.999Z</time></trkpt><trkpt lat="42.37600280468083" lon="12.266415222583174"><ele>397.66666666666663</ele><time>2026-04-12T10:14:00.999Z</time></trkpt><trkpt lat="42.376000947840595" lon="12.266666380067967"><ele>397.33333333333337</ele><time>2026-04-12T10:14:01.999Z</time></trkpt><trkpt lat="42.375994679006666" lon="12.26691960481408"><ele>397.0</ele><time>2026-04-12T10:14:02.999Z</time></trkpt><trkpt lat="42.375987225719435" lon="12.267174159948103"><ele>397.0</ele><time>2026-04-12T10:14:03.999Z</time></trkpt><trkpt lat="42.37598173981114" lon="12.267429086598908"><ele>397.0</ele><time>2026-04-12T10:14:04.999Z</time></trkpt><trkpt lat="42.37597372598475" lon="12.267682852869877"><ele>397.0</ele><time>2026-04-12T10:14:05.999Z</time></trkpt><trkpt lat="42.375963591031066" lon="12.267935719596634"><ele>397.0</ele><time>2026-04-12T10:14:06.999Z</time></trkpt><trkpt lat="42.37595446534315" lon="12.268186646424052"><ele>397.0</ele><time>2026-04-12T10:14:07.999Z</time></trkpt><trkpt lat="42.375945694885026" lon="12.268438732582261"><ele>397.0</ele><time>2026-04-12T10:14:08.999Z</time></trkpt><trkpt lat="42.37593891768881" lon="12.268691129086925"><ele>396.6666666666667</ele><time>2026-04-12T10:14:09.999Z</time></trkpt><trkpt lat="42.37593375765478" lon="12.268943199344394"><ele>396.33333333333337</ele><time>2026-04-12T10:14:10.999Z</time></trkpt><trkpt lat="42.375931200569944" lon="12.269195926890449"><ele>396.0</ele><time>2026-04-12T10:14:11.999Z</time></trkpt><trkpt lat="42.37593113911028" lon="12.269450567715829"><ele>396.0</ele><time>2026-04-12T10:14:12.999Z</time></trkpt><trkpt lat="42.37593486080152" lon="12.269707256047242"><ele>396.0</ele><time>2026-04-12T10:14:13.999Z</time></trkpt><trkpt lat="42.375942623374264" lon="12.269963670385351"><ele>396.0</ele><time>2026-04-12T10:14:14.999Z</time></trkpt><trkpt lat="42.375952064308294" lon="12.270221283348915"><ele>395.66666666666663</ele><time>2026-04-12T10:14:15.999Z</time></trkpt><trkpt lat="42.37596284958945" lon="12.270478756404186"><ele>395.3333333333333</ele><time>2026-04-12T10:14:16.999Z</time></trkpt><trkpt lat="42.37597651587152" lon="12.270736005499208"><ele>395.0</ele><time>2026-04-12T10:14:17.999Z</time></trkpt><trkpt lat="42.37599042557023" lon="12.27099256913871"><ele>394.0</ele><time>2026-04-12T10:14:18.999Z</time></trkpt><trkpt lat="42.3760034585332" lon="12.271248333412666"><ele>393.0</ele><time>2026-04-12T10:14:19.999Z</time></trkpt><trkpt lat="42.37601647010652" lon="12.271503638917796"><ele>392.0</ele><time>2026-04-12T10:14:20.999Z</time></trkpt><trkpt lat="42.37603060267416" lon="12.271758587001607"><ele>391.3333333333333</ele><time>2026-04-12T10:14:21.999Z</time></trkpt><trkpt lat="42.376045994001444" lon="12.272012864274922"><ele>390.66666666666663</ele><time>2026-04-12T10:14:22.999Z</time></trkpt><trkpt lat="42.376063596455964" lon="12.272266634122325"><ele>390.0</ele><time>2026-04-12T10:14:23.999Z</time></trkpt><trkpt lat="42.37607992382992" lon="12.272517239713746"><ele>389.0</ele><time>2026-04-12T10:14:24.999Z</time></trkpt><trkpt lat="42.37610161184653" lon="12.272769533373754"><ele>388.0</ele><time>2026-04-12T10:14:25.999Z</time></trkpt><trkpt lat="42.37613243012467" lon="12.27302313396816"><ele>387.0</ele><time>2026-04-12T10:14:26.999Z</time></trkpt><trkpt lat="42.37617244845541" lon="12.273277902112442"><ele>386.0</ele><time>2026-04-12T10:14:27.999Z</time></trkpt><trkpt lat="42.376221151012544" lon="12.273533789916293"><ele>385.0</ele><time>2026-04-12T10:14:28.999Z</time></trkpt><trkpt lat="42.37627262320288" lon="12.273792459109083"><ele>384.0</ele><time>2026-04-12T10:14:29.999Z</time></trkpt><trkpt lat="42.37632454513727" lon="12.2740533654035"><ele>385.0</ele><time>2026-04-12T10:14:30.999Z</time></trkpt><trkpt lat="42.37637611217932" lon="12.274316891436161"><ele>386.0</ele><time>2026-04-12T10:14:31.999Z</time></trkpt><trkpt lat="42.3764175463426" lon="12.274586407623165"><ele>387.0</ele><time>2026-04-12T10:14:32.999Z</time></trkpt><trkpt lat="42.376452195656434" lon="12.274855598317604"><ele>385.0</ele><time>2026-04-12T10:14:33.999Z</time></trkpt><trkpt lat="42.37647479623065" lon="12.275129410227596"><ele>383.0</ele><time>2026-04-12T10:14:34.999Z</time></trkpt><trkpt lat="42.37648067307488" lon="12.275403859733814"><ele>381.0</ele><time>2026-04-12T10:14:35.999Z</time></trkpt><trkpt lat="42.376467186492285" lon="12.275680940869695"><ele>379.6666666666667</ele><time>2026-04-12T10:14:36.999Z</time></trkpt><trkpt lat="42.37644644594987" lon="12.27595539136207"><ele>378.33333333333337</ele><time>2026-04-12T10:14:37.999Z</time></trkpt><trkpt lat="42.37641841999336" lon="12.276227316138415"><ele>377.0</ele><time>2026-04-12T10:14:38.999Z</time></trkpt><trkpt lat="42.37637952227921" lon="12.276490857095002"><ele>371.0</ele><time>2026-04-12T10:14:39.999Z</time></trkpt><trkpt lat="42.37633705065154" lon="12.276747318976627"><ele>365.0</ele><time>2026-04-12T10:14:40.999Z</time></trkpt><trkpt lat="42.37629740598943" lon="12.27700215015955"><ele>359.0</ele><time>2026-04-12T10:14:41.999Z</time></trkpt><trkpt lat="42.37625928009482" lon="12.277257403136012"><ele>358.0</ele><time>2026-04-12T10:14:42.999Z</time></trkpt><trkpt lat="42.376221425338365" lon="12.277511524338154"><ele>357.0</ele><time>2026-04-12T10:14:43.999Z</time></trkpt><trkpt lat="42.37618149464615" lon="12.27776385526458"><ele>356.0</ele><time>2026-04-12T10:14:44.999Z</time></trkpt><trkpt lat="42.376145105132224" lon="12.278013975015494"><ele>356.0</ele><time>2026-04-12T10:14:45.999Z</time></trkpt><trkpt lat="42.37610715034836" lon="12.27826876678741"><ele>356.0</ele><time>2026-04-12T10:14:46.999Z</time></trkpt><trkpt lat="42.37606745170867" lon="12.278529323586058"><ele>356.0</ele><time>2026-04-12T10:14:47.999Z</time></trkpt><trkpt lat="42.37603502612973" lon="12.2787940067916"><ele>356.6666666666667</ele><time>2026-04-12T10:14:48.999Z</time></trkpt><trkpt lat="42.37600554957477" lon="12.279063108722486"><ele>357.3333333333333</ele><time>2026-04-12T10:14:49.999Z</time></trkpt><trkpt lat="42.37598173662416" lon="12.279357151316022"><ele>358.0</ele><time>2026-04-12T10:14:50.999Z</time></trkpt><trkpt lat="42.37597090294827" lon="12.279649529078661"><ele>359.3333333333333</ele><time>2026-04-12T10:14:51.999Z</time></trkpt><trkpt lat="42.37597145536283" lon="12.27991644586937"><ele>360.6666666666667</ele><time>2026-04-12T10:14:52.999Z</time></trkpt><trkpt lat="42.37598147792035" lon="12.280185237098342"><ele>362.0</ele><time>2026-04-12T10:14:54Z</time></trkpt><trkpt lat="42.375994154935924" lon="12.280448965423723"><ele>362.33333333333337</ele><time>2026-04-12T10:14:55Z</time></trkpt><trkpt lat="42.37600873588423" lon="12.280710080647268"><ele>362.6666666666667</ele><time>2026-04-12T10:14:56Z</time></trkpt><trkpt lat="42.3760258277826" lon="12.280966111303696"><ele>363.0</ele><time>2026-04-12T10:14:57Z</time></trkpt><trkpt lat="42.376050669181815" lon="12.281218000330753"><ele>362.0</ele><time>2026-04-12T10:14:58Z</time></trkpt><trkpt lat="42.37608677560803" lon="12.281462887017106"><ele>361.0</ele><time>2026-04-12T10:14:59Z</time></trkpt><trkpt lat="42.37613656117869" lon="12.281697035295084"><ele>360.0</ele><time>2026-04-12T10:15:00Z</time></trkpt><trkpt lat="42.37620221475919" lon="12.281928157408094"><ele>360.0</ele><time>2026-04-12T10:15:01Z</time></trkpt><trkpt lat="42.37628216858065" lon="12.282151980914762"><ele>360.0</ele><time>2026-04-12T10:15:02Z</time></trkpt><trkpt lat="42.37637724756266" lon="12.282368274706057"><ele>360.0</ele><time>2026-04-12T10:15:03Z</time></trkpt><trkpt lat="42.376486843079526" lon="12.282576673875203"><ele>360.0</ele><time>2026-04-12T10:15:04Z</time></trkpt><trkpt lat="42.37660122664148" lon="12.28277958152925"><ele>360.0</ele><time>2026-04-12T10:15:05Z</time></trkpt><trkpt lat="42.37672165540304" lon="12.282978486085911"><ele>360.0</ele><time>2026-04-12T10:15:06Z</time></trkpt><trkpt lat="42.37684378124645" lon="12.283176685815883"><ele>360.0</ele><time>2026-04-12T10:15:07Z</time></trkpt><trkpt lat="42.37695456362535" lon="12.28335718817111"><ele>360.0</ele><time>2026-04-12T10:15:08Z</time></trkpt><trkpt lat="42.37706029174059" lon="12.283525281946991"><ele>360.0</ele><time>2026-04-12T10:15:09Z</time></trkpt><trkpt lat="42.377163354233545" lon="12.283691063689266"><ele>358.6666666666667</ele><time>2026-04-12T10:15:10Z</time></trkpt><trkpt lat="42.377265370920135" lon="12.283862486403299"><ele>357.33333333333337</ele><time>2026-04-12T10:15:11Z</time></trkpt><trkpt lat="42.37737004383377" lon="12.284029683044709"><ele>356.0</ele><time>2026-04-12T10:15:12Z</time></trkpt><trkpt lat="42.37747734223572" lon="12.284191927271495"><ele>355.33333333333337</ele><time>2026-04-12T10:15:13Z</time></trkpt><trkpt lat="42.377580211935566" lon="12.284354263681271"><ele>354.6666666666667</ele><time>2026-04-12T10:15:14Z</time></trkpt><trkpt lat="42.37768571099965" lon="12.284522059355698"><ele>354.0</ele><time>2026-04-12T10:15:15Z</time></trkpt><trkpt lat="42.377791757167515" lon="12.284689879923945"><ele>353.6666666666667</ele><time>2026-04-12T10:15:16Z</time></trkpt><trkpt lat="42.3778944679245" lon="12.284863652731671"><ele>353.33333333333337</ele><time>2026-04-12T10:15:17Z</time></trkpt><trkpt lat="42.37799739206209" lon="12.285039408651022"><ele>353.0</ele><time>2026-04-12T10:15:18Z</time></trkpt><trkpt lat="42.378091020817436" lon="12.285220300838077"><ele>353.0</ele><time>2026-04-12T10:15:19Z</time></trkpt><trkpt lat="42.37817979993489" lon="12.28540658875695"><ele>353.0</ele><time>2026-04-12T10:15:20Z</time></trkpt><trkpt lat="42.378261930013814" lon="12.285602055795405"><ele>353.0</ele><time>2026-04-12T10:15:21Z</time></trkpt><trkpt lat="42.37833048258222" lon="12.28580763888975"><ele>352.33333333333337</ele><time>2026-04-12T10:15:22Z</time></trkpt><trkpt lat="42.378387581370546" lon="12.286019169940985"><ele>351.6666666666667</ele><time>2026-04-12T10:15:23Z</time></trkpt><trkpt lat="42.37843993481477" lon="12.286238895403287"><ele>351.0</ele><time>2026-04-12T10:15:24Z</time></trkpt><trkpt lat="42.378489792107096" lon="12.286464783657662"><ele>349.6666666666667</ele><time>2026-04-12T10:15:25Z</time></trkpt><trkpt lat="42.37854131796489" lon="12.28669396615051"><ele>348.33333333333337</ele><time>2026-04-12T10:15:26Z</time></trkpt><trkpt lat="42.37859370596419" lon="12.286925345615971"><ele>347.0</ele><time>2026-04-12T10:15:27Z</time></trkpt><trkpt lat="42.37864661696353" lon="12.28715895071538"><ele>345.33333333333337</ele><time>2026-04-12T10:15:28Z</time></trkpt><trkpt lat="42.378702016905166" lon="12.287395366405393"><ele>343.6666666666667</ele><time>2026-04-12T10:15:29Z</time></trkpt><trkpt lat="42.37876035649648" lon="12.287632535825738"><ele>342.0</ele><time>2026-04-12T10:15:30Z</time></trkpt><trkpt lat="42.37882507130231" lon="12.28786487813873"><ele>342.0</ele><time>2026-04-12T10:15:31Z</time></trkpt><trkpt lat="42.37889982637586" lon="12.288091118907698"><ele>342.0</ele><time>2026-04-12T10:15:32Z</time></trkpt><trkpt lat="42.378985372606984" lon="12.288313549344323"><ele>342.0</ele><time>2026-04-12T10:15:33Z</time></trkpt><trkpt lat="42.37906117203719" lon="12.288545322302557"><ele>342.0</ele><time>2026-04-12T10:15:33.999Z</time></trkpt><trkpt lat="42.3791638660761" lon="12.288763905389677"><ele>342.0</ele><time>2026-04-12T10:15:34.999Z</time></trkpt><trkpt lat="42.37929161322778" lon="12.288956837448433"><ele>342.0</ele><time>2026-04-12T10:15:35.999Z</time></trkpt><trkpt lat="42.37941615497864" lon="12.28915061837119"><ele>342.3333333333333</ele><time>2026-04-12T10:15:36.999Z</time></trkpt><trkpt lat="42.37953506443467" lon="12.289349766890918"><ele>342.66666666666663</ele><time>2026-04-12T10:15:37.999Z</time></trkpt><trkpt lat="42.3796703036717" lon="12.289523093005503"><ele>343.0</ele><time>2026-04-12T10:15:38.999Z</time></trkpt><trkpt lat="42.37980509498017" lon="12.289691778082458"><ele>342.3333333333333</ele><time>2026-04-12T10:15:39.999Z</time></trkpt><trkpt lat="42.37993880961589" lon="12.289858493844621"><ele>341.6666666666667</ele><time>2026-04-12T10:15:40.999Z</time></trkpt><trkpt lat="42.380073653382745" lon="12.290018453706683"><ele>341.0</ele><time>2026-04-12T10:15:41.999Z</time></trkpt><trkpt lat="42.38021866681904" lon="12.290155517882244"><ele>341.0</ele><time>2026-04-12T10:15:42.999Z</time></trkpt><trkpt lat="42.38035500849022" lon="12.2903031387508"><ele>341.0</ele><time>2026-04-12T10:15:43.999Z</time></trkpt><trkpt lat="42.380494637973" lon="12.290445551868894"><ele>341.0</ele><time>2026-04-12T10:15:44.999Z</time></trkpt><trkpt lat="42.380623173327145" lon="12.290603803160373"><ele>342.0</ele><time>2026-04-12T10:15:45.999Z</time></trkpt><trkpt lat="42.380754703007334" lon="12.290722858056009"><ele>343.0</ele><time>2026-04-12T10:15:46.999Z</time></trkpt><trkpt lat="42.38087856017132" lon="12.290823276675624"><ele>344.0</ele><time>2026-04-12T10:15:47.999Z</time></trkpt><trkpt lat="42.38099488824441" lon="12.290912812918721"><ele>345.0</ele><time>2026-04-12T10:15:48.999Z</time></trkpt><trkpt lat="42.3811059373867" lon="12.2909978360991"><ele>345.0</ele><time>2026-04-12T10:15:49.999Z</time></trkpt><trkpt lat="42.381209345593014" lon="12.291074165901316"><ele>345.0</ele><time>2026-04-12T10:15:50.999Z</time></trkpt><trkpt lat="42.38130573675101" lon="12.291145316105938"><ele>345.0</ele><time>2026-04-12T10:15:51.999Z</time></trkpt><trkpt lat="42.381398807890356" lon="12.291210568358139"><ele>345.0</ele><time>2026-04-12T10:15:52.999Z</time></trkpt><trkpt lat="42.38144994274242" lon="12.291346436122168"><ele>345.0</ele><time>2026-04-12T10:15:53.999Z</time></trkpt><trkpt lat="42.38151557606741" lon="12.291471567325244"><ele>343.75</ele><time>2026-04-12T10:15:54.999Z</time></trkpt><trkpt lat="42.38155232980833" lon="12.291601467347165"><ele>342.5</ele><time>2026-04-12T10:15:55.999Z</time></trkpt><trkpt lat="42.38161420156438" lon="12.291735481229283"><ele>341.25</ele><time>2026-04-12T10:15:56.999Z</time></trkpt><trkpt lat="42.38171272654809" lon="12.291837436019025"><ele>340.0</ele><time>2026-04-12T10:15:57.999Z</time></trkpt><trkpt lat="42.381863962836334" lon="12.291819417572725"><ele>340.0</ele><time>2026-04-12T10:15:58.999Z</time></trkpt><trkpt lat="42.38199150546785" lon="12.291855028422518"><ele>340.0</ele><time>2026-04-12T10:15:59.999Z</time></trkpt><trkpt lat="42.38212783990504" lon="12.291896050202512"><ele>340.0</ele><time>2026-04-12T10:16:00.999Z</time></trkpt><trkpt lat="42.382268727402064" lon="12.291957793166995"><ele>340.0</ele><time>2026-04-12T10:16:01.999Z</time></trkpt><trkpt lat="42.38241720712153" lon="12.292031714683656"><ele>339.66666666666663</ele><time>2026-04-12T10:16:02.999Z</time></trkpt><trkpt lat="42.382557816696306" lon="12.292142884326042"><ele>339.3333333333333</ele><time>2026-04-12T10:16:03.999Z</time></trkpt><trkpt lat="42.382712735831504" lon="12.292245311838146"><ele>339.0</ele><time>2026-04-12T10:16:04.999Z</time></trkpt><trkpt lat="42.382876305191274" lon="12.29233237116192"><ele>337.0</ele><time>2026-04-12T10:16:05.999Z</time></trkpt><trkpt lat="42.38304604035268" lon="12.292408941154783"><ele>335.0</ele><time>2026-04-12T10:16:06.999Z</time></trkpt><trkpt lat="42.38321926049833" lon="12.29248671808338"><ele>333.0</ele><time>2026-04-12T10:16:07.999Z</time></trkpt><trkpt lat="42.38339848654723" lon="12.292561680557819"><ele>333.0</ele><time>2026-04-12T10:16:08.999Z</time></trkpt><trkpt lat="42.383580581085894" lon="12.292635281382829"><ele>333.0</ele><time>2026-04-12T10:16:09.999Z</time></trkpt><trkpt lat="42.38376653597658" lon="12.292708900380367"><ele>333.0</ele><time>2026-04-12T10:16:10.999Z</time></trkpt><trkpt lat="42.3839519864129" lon="12.292781055355789"><ele>329.6666666666667</ele><time>2026-04-12T10:16:11.999Z</time></trkpt><trkpt lat="42.38413634981062" lon="12.292854009285138"><ele>326.33333333333337</ele><time>2026-04-12T10:16:12.999Z</time></trkpt><trkpt lat="42.384321776613305" lon="12.292927385659187"><ele>323.0</ele><time>2026-04-12T10:16:13.999Z</time></trkpt><trkpt lat="42.384506401633985" lon="12.29300044317821"><ele>320.6666666666667</ele><time>2026-04-12T10:16:14.999Z</time></trkpt><trkpt lat="42.384683961807866" lon="12.29307070493935"><ele>318.3333333333333</ele><time>2026-04-12T10:16:15.999Z</time></trkpt><trkpt lat="42.384844239248324" lon="12.293134127874037"><ele>316.0</ele><time>2026-04-12T10:16:16.999Z</time></trkpt><trkpt lat="42.38500891730586" lon="12.29320019645364"><ele>315.3333333333333</ele><time>2026-04-12T10:16:17.999Z</time></trkpt><trkpt lat="42.385180403642345" lon="12.293269055023913"><ele>314.6666666666667</ele><time>2026-04-12T10:16:18.999Z</time></trkpt><trkpt lat="42.38535707666878" lon="12.293339996279013"><ele>314.0</ele><time>2026-04-12T10:16:19.999Z</time></trkpt><trkpt lat="42.38553525773675" lon="12.293411543056935"><ele>318.6666666666667</ele><time>2026-04-12T10:16:20.999Z</time></trkpt><trkpt lat="42.38571450154473" lon="12.29348351658796"><ele>323.3333333333333</ele><time>2026-04-12T10:16:21.999Z</time></trkpt><trkpt lat="42.38589440809017" lon="12.29355575618475"><ele>328.0</ele><time>2026-04-12T10:16:22.999Z</time></trkpt><trkpt lat="42.38607555745325" lon="12.293627865741655"><ele>328.0</ele><time>2026-04-12T10:16:23.999Z</time></trkpt><trkpt lat="42.38625670701535" lon="12.293700194404716"><ele>328.0</ele><time>2026-04-12T10:16:24.999Z</time></trkpt><trkpt lat="42.38643703643759" lon="12.293772213550872"><ele>328.0</ele><time>2026-04-12T10:16:25.999Z</time></trkpt><trkpt lat="42.38660232436579" lon="12.293838232964518"><ele>330.3333333333333</ele><time>2026-04-12T10:16:26.999Z</time></trkpt><trkpt lat="42.386757246445505" lon="12.293900112003364"><ele>332.6666666666667</ele><time>2026-04-12T10:16:27.999Z</time></trkpt><trkpt lat="42.386903024391934" lon="12.293958338750384"><ele>335.0</ele><time>2026-04-12T10:16:28.999Z</time></trkpt><trkpt lat="42.38705102856053" lon="12.294017454614282"><ele>335.33333333333337</ele><time>2026-04-12T10:16:29.999Z</time></trkpt><trkpt lat="42.387206358840906" lon="12.294079496795664"><ele>335.6666666666667</ele><time>2026-04-12T10:16:30.999Z</time></trkpt><trkpt lat="42.38736426145074" lon="12.294142566353313"><ele>336.0</ele><time>2026-04-12T10:16:31.999Z</time></trkpt><trkpt lat="42.38752005318432" lon="12.294204880070202"><ele>336.0</ele><time>2026-04-12T10:16:32.999Z</time></trkpt><trkpt lat="42.38767598880377" lon="12.294267297033993"><ele>336.0</ele><time>2026-04-12T10:16:33.999Z</time></trkpt><trkpt lat="42.38783405256437" lon="12.294330565857445"><ele>336.0</ele><time>2026-04-12T10:16:34.999Z</time></trkpt><trkpt lat="42.38799486461607" lon="12.294394934780309"><ele>337.0</ele><time>2026-04-12T10:16:35.999Z</time></trkpt><trkpt lat="42.38815424971508" lon="12.294458796052744"><ele>338.0</ele><time>2026-04-12T10:16:36.999Z</time></trkpt><trkpt lat="42.38831408645796" lon="12.294522843104467"><ele>339.0</ele><time>2026-04-12T10:16:37.999Z</time></trkpt><trkpt lat="42.38847410037776" lon="12.294586961114998"><ele>339.0</ele><time>2026-04-12T10:16:38.999Z</time></trkpt><trkpt lat="42.38863519178874" lon="12.294651511006322"><ele>339.0</ele><time>2026-04-12T10:16:39.999Z</time></trkpt><trkpt lat="42.388801903312334" lon="12.294718312721889"><ele>339.0</ele><time>2026-04-12T10:16:40.999Z</time></trkpt><trkpt lat="42.38897251876683" lon="12.294786680444494"><ele>338.6666666666667</ele><time>2026-04-12T10:16:41.999Z</time></trkpt><trkpt lat="42.38914651452561" lon="12.29485579002281"><ele>338.33333333333337</ele><time>2026-04-12T10:16:42.999Z</time></trkpt><trkpt lat="42.38932575228706" lon="12.294926682058739"><ele>338.0</ele><time>2026-04-12T10:16:43.999Z</time></trkpt><trkpt lat="42.38950720216923" lon="12.294999135478978"><ele>338.33333333333337</ele><time>2026-04-12T10:16:44.999Z</time></trkpt><trkpt lat="42.389690993385216" lon="12.295072830392686"><ele>338.6666666666667</ele><time>2026-04-12T10:16:45.999Z</time></trkpt><trkpt lat="42.38987962677848" lon="12.295145529336146"><ele>339.0</ele><time>2026-04-12T10:16:46.999Z</time></trkpt><trkpt lat="42.39007436412204" lon="12.295210880430242"><ele>339.0</ele><time>2026-04-12T10:16:47.999Z</time></trkpt><trkpt lat="42.39027126881938" lon="12.295267902979491"><ele>339.0</ele><time>2026-04-12T10:16:48.999Z</time></trkpt><trkpt lat="42.39046986833545" lon="12.295317063705474"><ele>339.0</ele><time>2026-04-12T10:16:49.999Z</time></trkpt><trkpt lat="42.39066467159465" lon="12.295353502220843"><ele>338.0</ele><time>2026-04-12T10:16:50.999Z</time></trkpt><trkpt lat="42.3908597220403" lon="12.295384880214401"><ele>337.0</ele><time>2026-04-12T10:16:51.999Z</time></trkpt><trkpt lat="42.39105754389823" lon="12.295410338790509"><ele>336.0</ele><time>2026-04-12T10:16:52.998Z</time></trkpt><trkpt lat="42.391256428298504" lon="12.295425532592525"><ele>335.6666666666667</ele><time>2026-04-12T10:16:53.998Z</time></trkpt><trkpt lat="42.39145690232157" lon="12.295424575018098"><ele>335.33333333333337</ele><time>2026-04-12T10:16:54.998Z</time></trkpt><trkpt lat="42.39165608706211" lon="12.29541900925702"><ele>335.0</ele><time>2026-04-12T10:16:55.998Z</time></trkpt><trkpt lat="42.39185728685833" lon="12.295407781273143"><ele>335.0</ele><time>2026-04-12T10:16:56.998Z</time></trkpt><trkpt lat="42.39205653430415" lon="12.295382697526179"><ele>335.0</ele><time>2026-04-12T10:16:57.998Z</time></trkpt><trkpt lat="42.39225464751615" lon="12.2953514833944"><ele>335.0</ele><time>2026-04-12T10:16:58.998Z</time></trkpt><trkpt lat="42.39245555836281" lon="12.295315979806134"><ele>332.0</ele><time>2026-04-12T10:17:00Z</time></trkpt><trkpt lat="42.39265642303589" lon="12.295265148814197"><ele>329.0</ele><time>2026-04-12T10:17:01Z</time></trkpt><trkpt lat="42.392855515255384" lon="12.29520683538963"><ele>326.0</ele><time>2026-04-12T10:17:02Z</time></trkpt><trkpt lat="42.39305364243749" lon="12.295135214463256"><ele>320.0</ele><time>2026-04-12T10:17:03Z</time></trkpt><trkpt lat="42.39325117940158" lon="12.295058318516643"><ele>314.0</ele><time>2026-04-12T10:17:04Z</time></trkpt><trkpt lat="42.39344991207805" lon="12.294980977368445"><ele>308.0</ele><time>2026-04-12T10:17:05Z</time></trkpt><trkpt lat="42.39364773676794" lon="12.294903989412115"><ele>304.6666666666667</ele><time>2026-04-12T10:17:06Z</time></trkpt><trkpt lat="42.39384644540297" lon="12.294826657589683"><ele>301.3333333333333</ele><time>2026-04-12T10:17:07Z</time></trkpt><trkpt lat="42.39404409504759" lon="12.294749739541828"><ele>298.0</ele><time>2026-04-12T10:17:08Z</time></trkpt><trkpt lat="42.39424155483518" lon="12.294672891968986"><ele>298.0</ele><time>2026-04-12T10:17:09Z</time></trkpt><trkpt lat="42.39443800069191" lon="12.294596270161994"><ele>298.0</ele><time>2026-04-12T10:17:10Z</time></trkpt><trkpt lat="42.394634450397405" lon="12.294518909710877"><ele>298.0</ele><time>2026-04-12T10:17:11Z</time></trkpt><trkpt lat="42.39483052752742" lon="12.2944426236505"><ele>296.3333333333333</ele><time>2026-04-12T10:17:12Z</time></trkpt><trkpt lat="42.39502672461715" lon="12.29436595369189"><ele>294.6666666666667</ele><time>2026-04-12T10:17:13Z</time></trkpt><trkpt lat="42.39522242928997" lon="12.294290337752185"><ele>293.0</ele><time>2026-04-12T10:17:14Z</time></trkpt><trkpt lat="42.39541514434314" lon="12.294215558944948"><ele>294.33333333333337</ele><time>2026-04-12T10:17:15Z</time></trkpt><trkpt lat="42.39560758429517" lon="12.294140620794103"><ele>295.6666666666667</ele><time>2026-04-12T10:17:16Z</time></trkpt><trkpt lat="42.39579803765233" lon="12.29406604703492"><ele>297.0</ele><time>2026-04-12T10:17:17Z</time></trkpt><trkpt lat="42.39598737433628" lon="12.293991783599195"><ele>298.3333333333333</ele><time>2026-04-12T10:17:18Z</time></trkpt><trkpt lat="42.39617411608141" lon="12.293918264872222"><ele>299.66666666666663</ele><time>2026-04-12T10:17:19Z</time></trkpt><trkpt lat="42.396357473548264" lon="12.293844712306354"><ele>301.0</ele><time>2026-04-12T10:17:20Z</time></trkpt><trkpt lat="42.39653845882951" lon="12.293772111324003"><ele>305.0</ele><time>2026-04-12T10:17:21Z</time></trkpt><trkpt lat="42.396717708421676" lon="12.293700690369079"><ele>309.0</ele><time>2026-04-12T10:17:22Z</time></trkpt><trkpt lat="42.39689625383113" lon="12.293633169372974"><ele>313.0</ele><time>2026-04-12T10:17:23Z</time></trkpt><trkpt lat="42.397072374293195" lon="12.293565684845642"><ele>314.3333333333333</ele><time>2026-04-12T10:17:24Z</time></trkpt><trkpt lat="42.39724391161036" lon="12.293497874709573"><ele>315.6666666666667</ele><time>2026-04-12T10:17:25Z</time></trkpt><trkpt lat="42.39741539172082" lon="12.293430416196475"><ele>317.0</ele><time>2026-04-12T10:17:26Z</time></trkpt><trkpt lat="42.39758478179588" lon="12.293364700622249"><ele>317.0</ele><time>2026-04-12T10:17:27Z</time></trkpt><trkpt lat="42.39775569439722" lon="12.29330037126584"><ele>317.0</ele><time>2026-04-12T10:17:28Z</time></trkpt><trkpt lat="42.397926937679465" lon="12.293254052488123"><ele>317.0</ele><time>2026-04-12T10:17:29Z</time></trkpt><trkpt lat="42.39810283461216" lon="12.29322977032936"><ele>316.6666666666667</ele><time>2026-04-12T10:17:30Z</time></trkpt><trkpt lat="42.398282700224804" lon="12.293211309841714"><ele>316.3333333333333</ele><time>2026-04-12T10:17:31Z</time></trkpt><trkpt lat="42.398463510326934" lon="12.293196164184913"><ele>316.0</ele><time>2026-04-12T10:17:32Z</time></trkpt><trkpt lat="42.39864485804374" lon="12.293181722271767"><ele>316.0</ele><time>2026-04-12T10:17:33Z</time></trkpt><trkpt lat="42.39882328414358" lon="12.293175810923726"><ele>316.0</ele><time>2026-04-12T10:17:34Z</time></trkpt><trkpt lat="42.39900089101555" lon="12.29318474644958"><ele>316.0</ele><time>2026-04-12T10:17:35Z</time></trkpt><trkpt lat="42.399176030611095" lon="12.293217161060369"><ele>318.0</ele><time>2026-04-12T10:17:35.999Z</time></trkpt><trkpt lat="42.39935189852293" lon="12.29326550351725"><ele>320.0</ele><time>2026-04-12T10:17:36.999Z</time></trkpt><trkpt lat="42.39952465220741" lon="12.293330559846677"><ele>322.0</ele><time>2026-04-12T10:17:37.999Z</time></trkpt><trkpt lat="42.39969156441425" lon="12.293409944167765"><ele>324.66666666666663</ele><time>2026-04-12T10:17:38.999Z</time></trkpt><trkpt lat="42.3998553812637" lon="12.293512148530102"><ele>327.3333333333333</ele><time>2026-04-12T10:17:39.999Z</time></trkpt><trkpt lat="42.40001791136982" lon="12.293624846454295"><ele>330.0</ele><time>2026-04-12T10:17:40.999Z</time></trkpt><trkpt lat="42.40016540514238" lon="12.293759431321517"><ele>330.0</ele><time>2026-04-12T10:17:41.999Z</time></trkpt><trkpt lat="42.40029369315473" lon="12.293902850936487"><ele>330.0</ele><time>2026-04-12T10:17:42.999Z</time></trkpt><trkpt lat="42.400392935593146" lon="12.294041964693472"><ele>330.0</ele><time>2026-04-12T10:17:43.999Z</time></trkpt><trkpt lat="42.400462502402256" lon="12.294184563744228"><ele>330.0</ele><time>2026-04-12T10:17:44.999Z</time></trkpt><trkpt lat="42.40051565212433" lon="12.294325621779182"><ele>330.3333333333333</ele><time>2026-04-12T10:17:45.999Z</time></trkpt><trkpt lat="42.40055658657965" lon="12.294459127721867"><ele>330.6666666666667</ele><time>2026-04-12T10:17:46.999Z</time></trkpt><trkpt lat="42.400583763855494" lon="12.294568557835076"><ele>331.0</ele><time>2026-04-12T10:17:47.999Z</time></trkpt><trkpt lat="42.40058845597322" lon="12.29466176563129"><ele>331.33333333333337</ele><time>2026-04-12T10:17:48.999Z</time></trkpt><trkpt lat="42.40058751491006" lon="12.294756010731287"><ele>331.6666666666667</ele><time>2026-04-12T10:17:50.999Z</time></trkpt><trkpt lat="42.400622060989676" lon="12.29483758271551"><ele>332.0</ele><time>2026-04-12T10:18:12.999Z</time></trkpt><trkpt lat="42.40079546448346" lon="12.294835868562455"><ele>332.0</ele><time>2026-04-12T10:18:15.999Z</time></trkpt><trkpt lat="42.40091048382696" lon="12.294749225057835"><ele>332.0</ele><time>2026-04-12T10:18:17.999Z</time></trkpt><trkpt lat="42.40097361183961" lon="12.294701157090039"><ele>332.0</ele><time>2026-04-12T10:18:18.999Z</time></trkpt><trkpt lat="42.40103063925506" lon="12.294634744751217"><ele>332.0</ele><time>2026-04-12T10:18:19.999Z</time></trkpt><trkpt lat="42.40110032940659" lon="12.294608068698174"><ele>332.0</ele><time>2026-04-12T10:18:20.999Z</time></trkpt><trkpt lat="42.401176489423605" lon="12.294553160094777"><ele>332.0</ele><time>2026-04-12T10:18:21.999Z</time></trkpt><trkpt lat="42.40125723701379" lon="12.294494944139615"><ele>332.0</ele><time>2026-04-12T10:18:22.999Z</time></trkpt><trkpt lat="42.40132078606738" lon="12.2944491276662"><ele>332.0</ele><time>2026-04-12T10:18:23.999Z</time></trkpt><trkpt lat="42.401378867404254" lon="12.294407253173345"><ele>332.0</ele><time>2026-04-12T10:18:24.999Z</time></trkpt><trkpt lat="42.40144120674149" lon="12.294362308807441"><ele>332.0</ele><time>2026-04-12T10:18:25.999Z</time></trkpt><trkpt lat="42.401513430653594" lon="12.294282967379287"><ele>332.0</ele><time>2026-04-12T10:18:26.999Z</time></trkpt><trkpt lat="42.401600076027854" lon="12.29421245732912"><ele>332.0</ele><time>2026-04-12T10:18:27.999Z</time></trkpt><trkpt lat="42.401684637634744" lon="12.294147691444062"><ele>331.83333333333337</ele><time>2026-04-12T10:18:28.999Z</time></trkpt><trkpt lat="42.40176643527253" lon="12.294091273515132"><ele>331.6666666666667</ele><time>2026-04-12T10:18:29.999Z</time></trkpt><trkpt lat="42.40183366772493" lon="12.294055274662924"><ele>331.5</ele><time>2026-04-12T10:18:30.999Z</time></trkpt><trkpt lat="42.40194892637933" lon="12.2940530360558"><ele>331.3333333333333</ele><time>2026-04-12T10:18:32.999Z</time></trkpt><trkpt lat="42.40199038179763" lon="12.294144230293666"><ele>331.16666666666663</ele><time>2026-04-12T10:18:33.999Z</time></trkpt><trkpt lat="42.402043360165834" lon="12.294193426584147"><ele>331.0</ele><time>2026-04-12T10:18:34.999Z</time></trkpt><trkpt lat="42.402042164107954" lon="12.29434943760838"><ele>331.0</ele><time>2026-04-12T10:18:38.999Z</time></trkpt><trkpt lat="42.401984718528716" lon="12.294423071277903"><ele>331.0</ele><time>2026-04-12T10:18:40.999Z</time></trkpt><trkpt lat="42.402067607485236" lon="12.294426122055764"><ele>331.0</ele><time>2026-04-12T10:20:19.999Z</time></trkpt><trkpt lat="42.402120767740556" lon="12.294478178902379"><ele>331.0</ele><time>2026-04-12T10:20:34.999Z</time></trkpt><trkpt lat="42.40217643656983" lon="12.294530321477488"><ele>331.0</ele><time>2026-04-12T10:20:49.999Z</time></trkpt><trkpt lat="42.40212182462372" lon="12.29445179420788"><ele>331.0</ele><time>2026-04-12T10:25:39.058Z</time></trkpt><trkpt lat="42.40202171120813" lon="12.29443017613506"><ele>331.0</ele><time>2026-04-12T10:25:40.857Z</time></trkpt></trkseg></trk></gpx>